LS662 / G-DRTG 7700 Squawk Report (21st of September, 2022)

Aircraft B738 Reg No. G-DRTG Age 16 years old
Model 737 Jet engines 2 First flight 27-10-06
Registered 19-12-18 Rollout 20-10-06 Delivered 14-11-06
Construction No. 33020 Line No. 2103 Series 8BK
ADSHEX 4076DA Airline name Jet2 Owner CIT Leasing Corporation
Airfield based Leeds-Bradford~Yorks~G First tracked N/A

Flight history for G-DRTG

Route Flight No Date Playback
???? N/A 2022-11-28 17:28:00
???? N/A 2022-11-26 11:59:00
???? N/A 2022-11-24 14:54:00
???? N/A 2022-11-12 17:58:00
Edinburgh (EDI) - Dublin (DUB) N/A 2022-11-02 12:39:00
Gran Canaria (LPA) - East Midlands Airport (EMA) LS506 2022-11-01 17:09:00
East Midlands Airport (EMA) - Gran Canaria (LPA) LS669 2022-11-01 13:03:00
Dalaman (DLM) - East Midlands Airport (EMA) LS622 2022-11-01 01:03:00
East Midlands Airport (EMA) - Dalaman (DLM) LS621 2022-10-31 20:52:00
Malaga (AGP) - East Midlands Airport (EMA) LS606 2022-10-31 13:25:00
East Midlands Airport (EMA) - Malaga (AGP) LS605 2022-10-31 09:44:00
Larnaca International Airport (LCA) - Leeds Bradford (LBA) LS656 2022-10-31 01:15:00
East Midlands Airport (EMA) - Pafos Intl (PFO) LS655 2022-10-30 20:40:00
Menorca (MAH) - Leeds Bradford (LBA) LS376 2022-10-30 15:04:00
East Midlands Airport (EMA) - Son Sant Joan (PMI) LS601 2022-10-30 11:28:00
Larnaca International Airport (LCA) - East Midlands Airport (EMA) LS662 2022-10-30 07:52:00
East Midlands Airport (EMA) - Larnaca International Airport (LCA) LS661 2022-10-29 20:20:00
Faro (FAO) - East Midlands Airport (EMA) LS686 2022-10-29 13:17:00
East Midlands Airport (EMA) - Faro (FAO) LS685 2022-10-29 09:55:00
Dalaman (DLM) - East Midlands Airport (EMA) LS622 2022-10-29 00:01:00
Time Lat Lon Altitude Heading Speed Vertical Rate
2022-09-21 23:52:06 GMT 50.032047 8.583503 0 115 2 0
2022-09-21 23:51:46 GMT 50.032265 8.582762 0 115 8 0
2022-09-21 23:51:44 GMT 50.032288 8.582653 0 120 7 0
2022-09-21 23:51:43 GMT 50.032310 8.582623 0 123 7 0
2022-09-21 23:51:33 GMT 50.032448 8.582327 0 180 7 0
2022-09-21 23:51:29 GMT 50.032631 8.582346 0 177 9 0
2022-09-21 23:51:24 GMT 50.032845 8.582308 0 163 11 0
2022-09-21 23:51:06 GMT 50.033764 8.581786 0 160 15 0
2022-09-21 23:51:01 GMT 50.034096 8.581587 0 160 15 0
2022-09-21 23:50:59 GMT 50.034187 8.581533 0 160 15 0
2022-09-21 23:50:56 GMT 50.034416 8.581417 0 160 15 0
2022-09-21 23:50:54 GMT 50.034576 8.581306 0 160 14 0
2022-09-21 23:50:51 GMT 50.034740 8.581213 0 160 14 0
2022-09-21 23:50:44 GMT 50.035137 8.580991 0 160 14 0
2022-09-21 23:50:42 GMT 50.035378 8.580828 0 151 14 0
2022-09-21 23:50:40 GMT 50.035378 8.580828 0 151 14 0
2022-09-21 23:50:38 GMT 50.035522 8.580731 0 132 14 0
2022-09-21 23:50:34 GMT 50.035641 8.580503 0 106 14 0
2022-09-21 23:50:33 GMT 50.035664 8.580395 0 95 14 0
2022-09-21 23:50:31 GMT 50.035683 8.580192 0 78 13 0
2022-09-21 23:50:30 GMT 50.035664 8.580033 0 70 15 0
2022-09-21 23:50:28 GMT 50.035648 8.579933 0 70 15 0
2022-09-21 23:50:26 GMT 50.035606 8.579780 0 67 15 0
2022-09-21 23:50:25 GMT 50.035568 8.579673 0 67 17 0
2022-09-21 23:50:23 GMT 50.035473 8.579283 0 70 14 0
2022-09-21 23:50:21 GMT 50.035473 8.579283 0 70 14 0
2022-09-21 23:50:17 GMT 50.035400 8.578895 0 70 14 0
2022-09-21 23:50:15 GMT 50.035336 8.578633 0 70 13 0
2022-09-21 23:50:13 GMT 50.035240 8.578225 0 70 12 0
2022-09-21 23:50:09 GMT 50.035160 8.577883 0 70 12 0
2022-09-21 23:50:05 GMT 50.035160 8.577883 0 70 12 0
2022-09-21 23:50:03 GMT 50.035103 8.577666 0 70 12 0
2022-09-21 23:49:59 GMT 50.035057 8.577449 0 70 13 0
2022-09-21 23:49:55 GMT 50.034920 8.576907 0 70 14 0
2022-09-21 23:49:53 GMT 50.034920 8.576907 0 70 14 0
2022-09-21 23:49:52 GMT 50.034897 8.576817 0 70 14 0
2022-09-21 23:49:51 GMT 50.034851 8.576582 0 70 14 0
2022-09-21 23:49:48 GMT 50.034817 8.576455 0 70 14 0
2022-09-21 23:49:46 GMT 50.034775 8.576277 0 70 14 0
2022-09-21 23:49:45 GMT 50.034752 8.576184 0 70 14 0
2022-09-21 23:49:42 GMT 50.034672 8.575850 0 70 14 0
2022-09-21 23:49:40 GMT 50.034592 8.575516 0 70 14 0
2022-09-21 23:49:38 GMT 50.034592 8.575516 0 70 14 0
2022-09-21 23:49:36 GMT 50.034554 8.575367 0 70 14 0
2022-09-21 23:49:29 GMT 50.034428 8.574829 0 70 14 0
2022-09-21 23:49:26 GMT 50.034348 8.574504 0 70 14 0
2022-09-21 23:49:25 GMT 50.034325 8.574414 0 70 14 0
2022-09-21 23:49:21 GMT 50.034241 8.574050 0 70 15 0
2022-09-21 23:49:19 GMT 50.034206 8.573920 0 70 15 0
2022-09-21 23:49:18 GMT 50.034176 8.573781 0 70 15 0
2022-09-21 23:49:15 GMT 50.034111 8.573456 0 70 15 0
2022-09-21 23:49:00 GMT 50.033787 8.572155 0 70 11 0
2022-09-21 23:48:58 GMT 50.033764 8.572046 0 70 11 0
2022-09-21 23:48:57 GMT 50.033752 8.571971 0 70 11 0
2022-09-21 23:48:56 GMT 50.033718 8.571860 0 70 11 0
2022-09-21 23:48:55 GMT 50.033707 8.571786 0 70 11 0
2022-09-21 23:48:54 GMT 50.033691 8.571748 0 70 12 0
2022-09-21 23:48:52 GMT 50.033661 8.571581 0 70 12 0
2022-09-21 23:48:51 GMT 50.033634 8.571507 0 70 12 0
2022-09-21 23:48:50 GMT 50.033592 8.571360 0 70 12 0
2022-09-21 23:48:48 GMT 50.033581 8.571269 0 70 12 0
2022-09-21 23:48:46 GMT 50.033554 8.571155 0 70 12 0
2022-09-21 23:48:44 GMT 50.033489 8.570908 0 70 12 0
2022-09-21 23:48:36 GMT 50.033340 8.570276 0 70 12 0
2022-09-21 23:48:35 GMT 50.033340 8.570276 0 70 12 0
2022-09-21 23:48:33 GMT 50.033276 8.570023 0 70 12 0
2022-09-21 23:48:31 GMT 50.033264 8.569967 0 70 12 0
2022-09-21 23:48:30 GMT 50.033241 8.569874 0 70 12 0
2022-09-21 23:48:28 GMT 50.033203 8.569715 0 70 12 0
2022-09-21 23:48:27 GMT 50.033089 8.569187 0 73 13 0
2022-09-21 23:48:22 GMT 50.033054 8.569002 0 75 13 0
2022-09-21 23:48:20 GMT 50.033054 8.569002 0 78 13 0
2022-09-21 23:48:18 GMT 50.033016 8.568853 0 87 13 0
2022-09-21 23:48:16 GMT 50.033009 8.568668 0 98 12 0
2022-09-21 23:48:14 GMT 50.033016 8.568519 0 109 12 0
2022-09-21 23:48:12 GMT 50.033043 8.568371 0 123 12 0
2022-09-21 23:48:11 GMT 50.033066 8.568306 0 129 13 0
2022-09-21 23:48:10 GMT 50.033100 8.568216 0 137 13 0
2022-09-21 23:48:08 GMT 50.033169 8.568093 0 146 13 0
2022-09-21 23:48:06 GMT 50.033287 8.567981 0 146 13 0
2022-09-21 23:48:03 GMT 50.033421 8.567854 0 126 12 0
2022-09-21 23:48:01 GMT 50.033455 8.567800 0 98 11 0
2022-09-21 23:47:59 GMT 50.033543 8.567517 0 92 11 0
2022-09-21 23:47:58 GMT 50.033543 8.567517 0 90 11 0
2022-09-21 23:47:57 GMT 50.033546 8.567439 0 84 11 0
2022-09-21 23:47:56 GMT 50.033554 8.567276 0 73 11 0
2022-09-21 23:47:52 GMT 50.033520 8.567109 0 70 12 0
2022-09-21 23:47:50 GMT 50.033485 8.566998 0 70 12 0
2022-09-21 23:47:49 GMT 50.033470 8.566923 0 70 12 0
2022-09-21 23:47:48 GMT 50.033436 8.566793 0 70 12 0
2022-09-21 23:47:45 GMT 50.033363 8.566445 0 70 12 0
2022-09-21 23:47:44 GMT 50.033363 8.566445 0 70 12 0
2022-09-21 23:47:42 GMT 50.033283 8.566138 0 70 12 0
2022-09-21 23:47:40 GMT 50.033283 8.566138 0 70 12 0
2022-09-21 23:47:38 GMT 50.033249 8.566011 0 70 12 0
2022-09-21 23:47:37 GMT 50.033226 8.565885 0 70 12 0
2022-09-21 23:47:36 GMT 50.033203 8.565810 0 70 12 0
2022-09-21 23:47:34 GMT 50.033157 8.565606 0 70 11 0
2022-09-21 23:47:33 GMT 50.033157 8.565606 0 70 11 0
2022-09-21 23:47:30 GMT 50.033100 8.565383 0 70 11 0
2022-09-21 23:47:29 GMT 50.033089 8.565327 0 70 11 0
2022-09-21 23:47:28 GMT 50.033009 8.564999 0 70 11 0
2022-09-21 23:47:24 GMT 50.033009 8.564999 0 70 11 0
2022-09-21 23:47:20 GMT 50.032936 8.564696 0 70 11 0
2022-09-21 23:47:19 GMT 50.032917 8.564620 0 70 11 0
2022-09-21 23:47:17 GMT 50.032883 8.564439 0 70 11 0
2022-09-21 23:47:15 GMT 50.032845 8.564307 0 70 11 0
2022-09-21 23:47:12 GMT 50.032799 8.564103 0 70 11 0
2022-09-21 23:47:10 GMT 50.032757 8.563951 0 70 11 0
2022-09-21 23:47:09 GMT 50.032738 8.563880 0 70 11 0
2022-09-21 23:47:06 GMT 50.032692 8.563676 0 70 11 0
2022-09-21 23:47:05 GMT 50.032677 8.563608 0 70 11 0
2022-09-21 23:47:04 GMT 50.032631 8.563427 0 70 11 0
2022-09-21 23:47:01 GMT 50.032612 8.563360 0 70 11 0
2022-09-21 23:47:00 GMT 50.032578 8.563175 0 70 11 0
2022-09-21 23:46:56 GMT 50.032516 8.562957 0 70 11 0
2022-09-21 23:46:55 GMT 50.032505 8.562878 0 70 11 0
2022-09-21 23:46:53 GMT 50.032471 8.562759 0 70 11 0
2022-09-21 23:46:51 GMT 50.032425 8.562562 0 70 11 0
2022-09-21 23:46:50 GMT 50.032413 8.562488 0 70 11 0
2022-09-21 23:46:49 GMT 50.032391 8.562414 0 70 11 0
2022-09-21 23:46:47 GMT 50.032368 8.562284 0 70 11 0
2022-09-21 23:46:46 GMT 50.032345 8.562217 0 70 11 0
2022-09-21 23:46:45 GMT 50.032318 8.562135 0 70 11 0
2022-09-21 23:46:42 GMT 50.032276 8.561945 0 70 11 0
2022-09-21 23:46:40 GMT 50.032249 8.561801 0 70 11 0
2022-09-21 23:46:39 GMT 50.032230 8.561729 0 70 11 0
2022-09-21 23:46:38 GMT 50.032215 8.561653 0 70 11 0
2022-09-21 23:46:36 GMT 50.032181 8.561523 0 70 10 0
2022-09-21 23:46:35 GMT 50.032162 8.561458 0 70 10 0
2022-09-21 23:46:34 GMT 50.032146 8.561375 0 70 9 0
2022-09-21 23:46:32 GMT 50.032112 8.561263 0 70 8 0
2022-09-21 23:46:29 GMT 50.032078 8.561115 0 70 8 0
2022-09-21 23:46:27 GMT 50.032055 8.561022 0 70 8 0
2022-09-21 23:46:26 GMT 50.032047 8.560970 0 70 8 0
2022-09-21 23:46:24 GMT 50.032017 8.560855 0 70 8 0
2022-09-21 23:46:20 GMT 50.031979 8.560681 0 70 8 0
2022-09-21 23:46:19 GMT 50.031967 8.560626 0 70 8 0
2022-09-21 23:46:16 GMT 50.031948 8.560539 0 70 8 0
2022-09-21 23:46:15 GMT 50.031933 8.560482 0 70 8 0
2022-09-21 23:46:13 GMT 50.031902 8.560372 0 70 8 0
2022-09-21 23:46:12 GMT 50.031891 8.560317 0 70 8 0
2022-09-21 23:46:11 GMT 50.031864 8.560224 0 70 9 0
2022-09-21 23:46:09 GMT 50.031841 8.560139 0 70 9 0
2022-09-21 23:46:08 GMT 50.031830 8.560084 0 70 9 0
2022-09-21 23:46:06 GMT 50.031807 8.560001 0 70 9 0
2022-09-21 23:46:05 GMT 50.031796 8.559940 0 70 9 0
2022-09-21 23:46:02 GMT 50.031750 8.559741 0 70 9 0
2022-09-21 23:46:01 GMT 50.031727 8.559651 0 70 9 0
2022-09-21 23:45:59 GMT 50.031715 8.559593 0 70 9 0
2022-09-21 23:45:58 GMT 50.031704 8.559524 0 70 9 0
2022-09-21 23:45:57 GMT 50.031681 8.559416 0 70 9 0
2022-09-21 23:45:55 GMT 50.031658 8.559352 0 70 9 0
2022-09-21 23:45:53 GMT 50.031635 8.559217 0 70 10 0
2022-09-21 23:45:51 GMT 50.031597 8.559073 0 70 10 0
2022-09-21 23:45:49 GMT 50.031574 8.558962 0 70 10 0
2022-09-21 23:45:47 GMT 50.031551 8.558869 0 70 10 0
2022-09-21 23:45:44 GMT 50.031483 8.558702 0 70 13 0
2022-09-21 23:45:43 GMT 50.031487 8.558585 0 70 10 0
2022-09-21 23:45:40 GMT 50.031437 8.558405 0 70 11 0
2022-09-21 23:45:38 GMT 50.031387 8.558183 0 70 10 0
2022-09-21 23:45:35 GMT 50.031349 8.558042 0 70 9 0
2022-09-21 23:45:34 GMT 50.031330 8.557978 0 70 8 0
2022-09-21 23:45:33 GMT 50.031273 8.557719 0 70 8 0
2022-09-21 23:45:28 GMT 50.031273 8.557719 0 70 8 0
2022-09-21 23:45:27 GMT 50.031261 8.557663 0 70 8 0
2022-09-21 23:45:26 GMT 50.031246 8.557591 0 70 8 0
2022-09-21 23:45:19 GMT 50.031155 8.557229 0 70 8 0
2022-09-21 23:45:08 GMT 50.031029 8.556669 0 70 9 0
2022-09-21 23:45:07 GMT 50.030994 8.556561 0 70 9 0
2022-09-21 23:45:06 GMT 50.030983 8.556512 0 70 9 0
2022-09-21 23:45:04 GMT 50.030926 8.556290 0 70 9 0
2022-09-21 23:45:02 GMT 50.030926 8.556290 0 70 9 0
2022-09-21 23:45:00 GMT 50.030903 8.556163 0 70 9 0
2022-09-21 23:44:59 GMT 50.030891 8.556109 0 70 9 0
2022-09-21 23:44:58 GMT 50.030857 8.555982 0 70 10 0
2022-09-21 23:44:55 GMT 50.030842 8.555900 0 70 10 0
2022-09-21 23:44:54 GMT 50.030796 8.555733 0 70 9 0
2022-09-21 23:44:51 GMT 50.030788 8.555657 0 70 9 0
2022-09-21 23:44:50 GMT 50.030754 8.555513 0 73 9 0
2022-09-21 23:44:48 GMT 50.030731 8.555440 0 73 8 0
2022-09-21 23:44:39 GMT 50.030666 8.554991 0 101 10 0
2022-09-21 23:44:38 GMT 50.030632 8.554935 0 109 12 0
2022-09-21 23:44:34 GMT 50.030727 8.554657 0 132 10 0
2022-09-21 23:44:27 GMT 50.030926 8.554397 0 171 13 0
2022-09-21 23:44:24 GMT 50.031040 8.554338 0 182 9 0
2022-09-21 23:44:23 GMT 50.031178 8.554356 0 202 8 0
2022-09-21 23:44:21 GMT 50.031178 8.554356 0 205 8 0
2022-09-21 23:44:19 GMT 50.031326 8.554447 0 219 6 0
2022-09-21 23:44:16 GMT 50.031326 8.554447 0 219 6 0
2022-09-21 23:44:13 GMT 50.031384 8.554519 0 219 5 0
2022-09-21 23:44:11 GMT 50.031406 8.554555 0 219 4 0
2022-09-21 23:44:08 GMT 50.031574 8.554768 0 219 7 0
2022-09-21 23:43:59 GMT 50.031574 8.554768 0 219 7 0
2022-09-21 23:43:58 GMT 50.031624 8.554826 0 219 8 0
2022-09-21 23:43:55 GMT 50.031693 8.554916 0 222 12 0
2022-09-21 23:43:54 GMT 50.031750 8.554991 0 222 12 0
2022-09-21 23:43:52 GMT 50.031841 8.555115 0 222 12 0
2022-09-21 23:43:48 GMT 50.031990 8.555314 0 225 12 0
2022-09-21 23:43:45 GMT 50.032104 8.555495 0 225 12 0
2022-09-21 23:43:44 GMT 50.032333 8.555874 0 227 11 0
2022-09-21 23:43:39 GMT 50.032333 8.555874 0 227 11 0
2022-09-21 23:43:38 GMT 50.032425 8.556037 0 230 10 0
2022-09-21 23:43:36 GMT 50.032425 8.556037 0 230 10 0
2022-09-21 23:43:22 GMT 50.032715 8.556605 0 233 3 0
2022-09-21 23:43:08 GMT 50.032726 8.556624 0 233 4 0
2022-09-21 23:43:07 GMT 50.032726 8.556624 0 233 4 0
2022-09-21 23:43:04 GMT 50.032768 8.556723 0 236 7 0
2022-09-21 23:42:59 GMT 50.032890 8.556995 0 239 16 0
2022-09-21 23:42:58 GMT 50.032951 8.557139 0 241 15 0
2022-09-21 23:42:57 GMT 50.032986 8.557236 0 241 17 0
2022-09-21 23:42:53 GMT 50.033134 8.557681 0 244 18 0
2022-09-21 23:42:51 GMT 50.033215 8.557934 0 247 23 0
2022-09-21 23:42:50 GMT 50.033237 8.558024 0 247 23 0
2022-09-21 23:42:49 GMT 50.033283 8.558169 0 250 22 0
2022-09-21 23:42:46 GMT 50.033390 8.558665 0 250 25 0
2022-09-21 23:42:45 GMT 50.033432 8.558819 0 250 28 0
2022-09-21 23:42:43 GMT 50.033588 8.559482 0 250 36 0
2022-09-21 23:42:41 GMT 50.033649 8.559741 0 250 42 0
2022-09-21 23:42:40 GMT 50.033718 8.559983 0 250 42 0
2022-09-21 23:42:39 GMT 50.033924 8.560855 0 250 49 0
2022-09-21 23:42:37 GMT 50.033924 8.560855 0 250 49 0
2022-09-21 23:42:35 GMT 50.034077 8.561504 0 250 57 0
2022-09-21 23:42:33 GMT 50.034725 8.564204 0 250 78 0
2022-09-21 23:42:29 GMT 50.034725 8.564204 0 250 78 0
2022-09-21 23:42:25 GMT 50.035046 8.565559 0 250 90 0
2022-09-21 23:42:24 GMT 50.035183 8.566088 -25 250 94 0
2022-09-21 23:42:23 GMT 50.035355 8.566878 -25 250 102 0
2022-09-21 23:42:21 GMT 50.035675 8.568179 -25 251 106 -128
2022-09-21 23:42:20 GMT 50.035881 8.569039 -25 251 114 -192
2022-09-21 23:42:19 GMT 50.036205 8.570375 -25 251 114 -192
2022-09-21 23:42:16 GMT 50.036682 8.572516 -25 250 122 -256
2022-09-21 23:42:15 GMT 50.036957 8.573456 -25 250 134 -192
2022-09-21 23:42:13 GMT 50.037277 8.574829 -25 250 141 -128
2022-09-21 23:42:10 GMT 50.037930 8.577650 0 251 154 -256
2022-09-21 23:42:07 GMT 50.038651 8.580756 0 250 157 -192
2022-09-21 23:42:05 GMT 50.039188 8.582995 25 250 160 -448
2022-09-21 23:42:04 GMT 50.039513 8.584405 50 250 161 -576
2022-09-21 23:42:02 GMT 50.039932 8.586032 75 250 161 -640
2022-09-21 23:42:01 GMT 50.040257 8.587374 75 249 161 -768
2022-09-21 23:41:59 GMT 50.040894 8.590080 125 249 161 -896
2022-09-21 23:41:57 GMT 50.041397 8.592104 150 250 162 -896
2022-09-21 23:41:56 GMT 50.041653 8.593090 175 250 162 -896
2022-09-21 23:41:55 GMT 50.042446 8.596282 200 250 162 -960
2022-09-21 23:41:53 GMT 50.042446 8.596282 200 250 163 -960
2022-09-21 23:41:52 GMT 50.042679 8.597235 250 250 162 -960
2022-09-21 23:41:50 GMT 50.043236 8.599623 250 250 163 -1024
2022-09-21 23:41:48 GMT 50.043732 8.601717 300 250 163 -1088
2022-09-21 23:41:47 GMT 50.044144 8.603379 325 250 163 -1024
2022-09-21 23:41:45 GMT 50.044960 8.606675 375 250 162 -896
2022-09-21 23:41:43 GMT 50.045193 8.607788 400 250 162 -832
2022-09-21 23:41:42 GMT 50.045750 8.610089 425 250 162 -832
2022-09-21 23:41:40 GMT 50.045982 8.610906 425 250 162 -832
2022-09-21 23:41:39 GMT 50.046169 8.611797 425 250 161 -768
2022-09-21 23:41:38 GMT 50.046726 8.614098 475 250 161 -832
2022-09-21 23:41:36 GMT 50.047028 8.615305 475 251 161 -832
2022-09-21 23:41:35 GMT 50.047241 8.616251 500 251 161 -832
2022-09-21 23:41:33 GMT 50.047798 8.618626 525 251 161 -832
2022-09-21 23:41:32 GMT 50.048080 8.619786 550 251 161 -832
2022-09-21 23:41:31 GMT 50.048355 8.621015 550 251 161 -896
2022-09-21 23:41:30 GMT 50.048859 8.623183 575 251 161 -896
2022-09-21 23:41:28 GMT 50.048996 8.623834 600 251 161 -896
2022-09-21 23:41:27 GMT 50.049381 8.625381 625 251 161 -896
2022-09-21 23:41:25 GMT 50.049847 8.627534 650 251 161 -960
2022-09-21 23:41:24 GMT 50.050079 8.628499 675 251 161 -960
2022-09-21 23:41:22 GMT 50.050591 8.630726 675 250 161 -896
2022-09-21 23:41:21 GMT 50.050827 8.631712 700 250 162 -832
2022-09-21 23:41:19 GMT 50.051338 8.633843 725 250 163 -896
2022-09-21 23:41:17 GMT 50.052063 8.636916 775 250 163 -896
2022-09-21 23:41:15 GMT 50.052593 8.639114 775 250 163 -896
2022-09-21 23:41:14 GMT 50.052841 8.640169 800 250 162 -896
2022-09-21 23:41:13 GMT 50.053104 8.641341 825 250 163 -896
2022-09-21 23:41:11 GMT 50.053757 8.644088 875 250 162 -896
2022-09-21 23:41:08 GMT 50.054272 8.646314 900 250 162 -896
2022-09-21 23:41:06 GMT 50.054810 8.648481 925 250 162 -896
2022-09-21 23:41:05 GMT 50.055107 8.649729 950 250 162 -896
2022-09-21 23:41:03 GMT 50.055588 8.651878 950 250 162 -896
2022-09-21 23:41:02 GMT 50.055862 8.652962 975 250 162 -896
2022-09-21 23:41:01 GMT 50.056084 8.653960 1,000 250 162 -896
2022-09-21 23:40:59 GMT 50.056641 8.656142 1,025 250 162 -896
2022-09-21 23:40:58 GMT 50.056877 8.657152 1,050 250 162 -896
2022-09-21 23:40:56 GMT 50.057343 8.659231 1,075 250 162 -896
2022-09-21 23:40:55 GMT 50.057621 8.660344 1,100 250 161 -896
2022-09-21 23:40:54 GMT 50.058228 8.662794 1,125 250 161 -896
2022-09-21 23:40:52 GMT 50.058472 8.663804 1,125 250 161 -896
2022-09-21 23:40:51 GMT 50.058739 8.665021 1,150 250 161 -896
2022-09-21 23:40:49 GMT 50.059250 8.667099 1,175 250 161 -896
2022-09-21 23:40:48 GMT 50.059479 8.668213 1,175 250 161 -896
2022-09-21 23:40:46 GMT 50.060028 8.670381 1,225 250 161 -896
2022-09-21 23:40:45 GMT 50.060276 8.671553 1,225 250 161 -896
2022-09-21 23:40:44 GMT 50.060532 8.672622 1,250 250 161 -896
2022-09-21 23:40:42 GMT 50.061035 8.674646 1,275 250 162 -896
2022-09-21 23:40:41 GMT 50.061310 8.675802 1,300 250 161 -896
2022-09-21 23:40:40 GMT 50.061859 8.677970 1,325 250 161 -896
2022-09-21 23:40:38 GMT 50.062138 8.679199 1,350 250 161 -896
2022-09-21 23:40:37 GMT 50.062454 8.680500 1,350 250 161 -896
2022-09-21 23:40:35 GMT 50.062958 8.682669 1,375 250 162 -896
2022-09-21 23:40:34 GMT 50.063255 8.683727 1,400 250 162 -896
2022-09-21 23:40:32 GMT 50.063671 8.685509 1,425 250 161 -832
2022-09-21 23:40:31 GMT 50.063953 8.686697 1,425 250 161 -896
2022-09-21 23:40:30 GMT 50.064285 8.688089 1,450 250 161 -896
2022-09-21 23:40:28 GMT 50.064835 8.690402 1,475 250 161 -896
2022-09-21 23:40:26 GMT 50.065815 8.694565 1,525 250 161 -896
2022-09-21 23:40:24 GMT 50.065815 8.694565 1,550 250 162 -896
2022-09-21 23:40:23 GMT 50.066025 8.695534 1,550 250 162 -896
2022-09-21 23:40:21 GMT 50.066559 8.697757 1,575 250 162 -896
2022-09-21 23:40:20 GMT 50.066803 8.698714 1,600 250 162 -896
2022-09-21 23:40:18 GMT 50.067307 8.701027 1,625 250 162 -896
2022-09-21 23:40:17 GMT 50.067585 8.702063 1,650 250 162 -896
2022-09-21 23:40:16 GMT 50.068096 8.704290 1,675 251 163 -832
2022-09-21 23:40:14 GMT 50.068375 8.705477 1,675 251 163 -832
2022-09-21 23:40:13 GMT 50.068588 8.706448 1,700 251 163 -832
2022-09-21 23:40:12 GMT 50.068863 8.707532 1,725 251 163 -832
2022-09-21 23:40:10 GMT 50.069412 8.709918 1,750 250 164 -896
2022-09-21 23:40:09 GMT 50.069633 8.710896 1,750 250 164 -896
2022-09-21 23:40:07 GMT 50.070236 8.713459 1,800 250 165 -896
2022-09-21 23:40:06 GMT 50.070511 8.714688 1,800 250 165 -896
2022-09-21 23:40:05 GMT 50.071106 8.717001 1,850 250 165 -896
2022-09-21 23:40:02 GMT 50.071518 8.718808 1,875 250 166 -896
2022-09-21 23:40:01 GMT 50.072067 8.721048 1,900 250 167 -896
2022-09-21 23:39:59 GMT 50.072342 8.722277 1,900 250 167 -896
2022-09-21 23:39:57 GMT 50.072891 8.724629 1,950 250 168 -832
2022-09-21 23:39:56 GMT 50.073402 8.726782 1,975 250 169 -768
2022-09-21 23:39:54 GMT 50.073715 8.728059 1,975 250 170 -768
2022-09-21 23:39:53 GMT 50.074242 8.730345 2,000 250 171 -768
2022-09-21 23:39:51 GMT 50.074520 8.731533 2,025 250 171 -832
2022-09-21 23:39:50 GMT 50.074844 8.732795 2,025 250 172 -832
2022-09-21 23:39:48 GMT 50.075359 8.734873 2,050 250 172 -960
2022-09-21 23:39:47 GMT 50.075638 8.736135 2,075 250 173 -960
2022-09-21 23:39:46 GMT 50.076187 8.738395 2,100 250 173 -960
2022-09-21 23:39:44 GMT 50.076462 8.739552 2,125 250 174 -960
2022-09-21 23:39:43 GMT 50.076710 8.740738 2,150 250 174 -960
2022-09-21 23:39:41 GMT 50.077267 8.743039 2,175 250 175 -960
2022-09-21 23:39:40 GMT 50.077789 8.745189 2,200 250 175 -960
2022-09-21 23:39:38 GMT 50.078056 8.746231 2,225 250 176 -960
2022-09-21 23:39:37 GMT 50.078522 8.748153 2,250 250 177 -960
2022-09-21 23:39:36 GMT 50.078663 8.748755 2,250 250 177 -960
2022-09-21 23:39:33 GMT 50.079575 8.752562 2,300 250 178 -960
2022-09-21 23:39:31 GMT 50.080105 8.754842 2,325 250 179 -1024
2022-09-21 23:39:29 GMT 50.080711 8.757440 2,350 250 179 -1088
2022-09-21 23:39:28 GMT 50.080990 8.758627 2,400 250 180 -1088
2022-09-21 23:39:27 GMT 50.081268 8.759741 2,400 250 180 -1088
2022-09-21 23:39:25 GMT 50.081829 8.762191 2,450 251 182 -1088
2022-09-21 23:39:24 GMT 50.082153 8.763378 2,450 251 183 -1024
2022-09-21 23:39:22 GMT 50.082733 8.765861 2,500 251 183 -1024
2022-09-21 23:39:21 GMT 50.083038 8.767238 2,500 251 183 -960
2022-09-21 23:39:19 GMT 50.083603 8.769692 2,550 251 185 -960
2022-09-21 23:39:18 GMT 50.083878 8.770876 2,550 251 185 -896
2022-09-21 23:39:16 GMT 50.084435 8.773177 2,575 250 185 -768
2022-09-21 23:39:14 GMT 50.085297 8.776992 2,625 250 184 -704
2022-09-21 23:39:11 GMT 50.085972 8.779858 2,650 250 184 -576
2022-09-21 23:39:09 GMT 50.086578 8.782268 2,675 250 183 -384
2022-09-21 23:39:08 GMT 50.086853 8.783569 2,675 250 182 -320
2022-09-21 23:39:07 GMT 50.087509 8.786242 2,675 250 182 -128
2022-09-21 23:39:04 GMT 50.087769 8.787328 2,675 250 182 -128
2022-09-21 23:39:03 GMT 50.088810 8.791809 2,675 250 182 0
2022-09-21 23:39:01 GMT 50.088810 8.791809 2,675 250 182 0
2022-09-21 23:39:00 GMT 50.089188 8.793255 2,675 250 182 0
2022-09-21 23:38:59 GMT 50.089512 8.794630 2,675 250 182 0
2022-09-21 23:38:58 GMT 50.090378 8.798314 2,675 250 182 0
2022-09-21 23:38:56 GMT 50.090378 8.798314 2,675 250 182 0
2022-09-21 23:38:54 GMT 50.090927 8.800772 2,675 250 182 0
2022-09-21 23:38:53 GMT 50.091232 8.801979 2,675 250 182 0
2022-09-21 23:38:52 GMT 50.091557 8.803167 2,675 250 181 0
2022-09-21 23:38:51 GMT 50.092438 8.806843 2,675 250 181 0
2022-09-21 23:38:49 GMT 50.092438 8.806843 2,675 250 181 0
2022-09-21 23:38:46 GMT 50.093307 8.810529 2,675 250 181 0
2022-09-21 23:38:45 GMT 50.093605 8.811777 2,675 250 181 0
2022-09-21 23:38:43 GMT 50.094131 8.813854 2,675 250 181 0
2022-09-21 23:38:42 GMT 50.094398 8.814969 2,675 250 181 0
2022-09-21 23:38:41 GMT 50.094723 8.816306 2,675 250 181 0
2022-09-21 23:38:39 GMT 50.095322 8.818841 2,675 250 182 0
2022-09-21 23:38:37 GMT 50.096191 8.822455 2,675 250 182 0
2022-09-21 23:38:35 GMT 50.096493 8.823803 2,675 251 181 0
2022-09-21 23:38:34 GMT 50.096725 8.824768 2,675 250 182 0
2022-09-21 23:38:33 GMT 50.097336 8.827226 2,675 250 182 0
2022-09-21 23:38:30 GMT 50.098263 8.831152 2,675 249 182 0
2022-09-21 23:38:28 GMT 50.098587 8.832340 2,675 249 181 0
2022-09-21 23:38:27 GMT 50.099194 8.834641 2,675 248 182 0
2022-09-21 23:38:25 GMT 50.099518 8.835829 2,675 247 182 0
2022-09-21 23:38:24 GMT 50.099751 8.836794 2,675 246 182 0
2022-09-21 23:38:23 GMT 50.100128 8.838140 2,675 245 181 0
2022-09-21 23:38:20 GMT 50.101101 8.841173 2,675 243 181 0
2022-09-21 23:38:19 GMT 50.102188 8.844356 2,675 241 180 0
2022-09-21 23:38:17 GMT 50.102600 8.845512 2,675 239 180 0
2022-09-21 23:38:16 GMT 50.103149 8.846815 2,675 237 179 0
2022-09-21 23:38:14 GMT 50.103943 8.848819 2,675 237 179 64
2022-09-21 23:38:13 GMT 50.104340 8.849776 2,675 237 179 64
2022-09-21 23:38:12 GMT 50.104797 8.850861 2,675 236 179 64
2022-09-21 23:38:10 GMT 50.105755 8.852976 2,675 236 179 64
2022-09-21 23:38:09 GMT 50.106220 8.854015 2,675 236 179 0
2022-09-21 23:38:06 GMT 50.107681 8.857221 2,675 232 179 -128
2022-09-21 23:38:04 GMT 50.108597 8.859100 2,675 232 179 -64
2022-09-21 23:38:01 GMT 50.110245 8.861991 2,675 223 177 128
2022-09-21 23:38:00 GMT 50.111526 8.863798 2,675 216 176 0
2022-09-21 23:37:58 GMT 50.112133 8.864482 2,675 215 176 0
2022-09-21 23:37:56 GMT 50.114227 8.866834 2,675 215 176 0
2022-09-21 23:37:54 GMT 50.114834 8.867526 2,675 215 176 0
2022-09-21 23:37:52 GMT 50.116333 8.869075 2,675 215 176 0
2022-09-21 23:37:50 GMT 50.117676 8.870495 2,675 215 176 64
2022-09-21 23:37:48 GMT 50.118744 8.871683 2,675 215 176 0
2022-09-21 23:37:47 GMT 50.119488 8.872499 2,675 215 176 0
2022-09-21 23:37:45 GMT 50.120728 8.873845 2,675 215 176 0
2022-09-21 23:37:43 GMT 50.122147 8.875363 2,675 215 176 64
2022-09-21 23:37:41 GMT 50.124100 8.877473 2,675 215 176 64
2022-09-21 23:37:40 GMT 50.124100 8.877473 2,675 215 176 64
2022-09-21 23:37:38 GMT 50.125443 8.878905 2,675 215 176 0
2022-09-21 23:37:37 GMT 50.126144 8.879700 2,675 215 176 0
2022-09-21 23:37:36 GMT 50.126892 8.880516 2,675 215 176 0
2022-09-21 23:37:34 GMT 50.128242 8.882001 2,675 216 177 -64
2022-09-21 23:37:33 GMT 50.128922 8.882735 2,675 216 177 -64
2022-09-21 23:37:31 GMT 50.130196 8.884079 2,675 215 178 -128
2022-09-21 23:37:30 GMT 50.130802 8.884747 2,675 215 178 -256
2022-09-21 23:37:29 GMT 50.132153 8.886232 2,700 215 178 -512
2022-09-21 23:37:27 GMT 50.132805 8.886974 2,700 215 178 -640
2022-09-21 23:37:26 GMT 50.133499 8.887723 2,725 215 178 -768
2022-09-21 23:37:24 GMT 50.134827 8.889168 2,750 215 178 -896
2022-09-21 23:37:23 GMT 50.135559 8.889963 2,750 215 178 -960
2022-09-21 23:37:22 GMT 50.136993 8.891503 2,800 215 177 -1024
2022-09-21 23:37:20 GMT 50.137619 8.892204 2,800 215 177 -1024
2022-09-21 23:37:19 GMT 50.138947 8.893655 2,825 215 177 -1088
2022-09-21 23:37:17 GMT 50.139645 8.894323 2,850 215 177 -1024
2022-09-21 23:37:16 GMT 50.140320 8.895095 2,875 215 177 -1024
2022-09-21 23:37:14 GMT 50.141693 8.896625 2,900 215 177 -1024
2022-09-21 23:37:13 GMT 50.142441 8.897367 2,925 215 177 -1024
2022-09-21 23:37:12 GMT 50.143139 8.898109 2,950 215 177 -1024
2022-09-21 23:37:09 GMT 50.145309 8.900444 3,000 215 177 -960
2022-09-21 23:37:08 GMT 50.145950 8.901166 3,000 215 178 -960
2022-09-21 23:37:06 GMT 50.147747 8.903083 3,050 215 178 -960
2022-09-21 23:37:04 GMT 50.148331 8.903768 3,075 215 178 -960
2022-09-21 23:37:03 GMT 50.150024 8.905575 3,100 215 178 -960
2022-09-21 23:37:01 GMT 50.150352 8.905978 3,125 215 178 -960
2022-09-21 23:37:00 GMT 50.151810 8.907527 3,150 216 179 -960
2022-09-21 23:36:58 GMT 50.152542 8.908322 3,175 216 179 -960
2022-09-21 23:36:55 GMT 50.154591 8.910506 3,200 215 180 -960
2022-09-21 23:36:54 GMT 50.156498 8.912584 3,250 215 180 -960
2022-09-21 23:36:52 GMT 50.156498 8.912584 3,275 215 180 -1024
2022-09-21 23:36:51 GMT 50.157166 8.913381 3,300 216 180 -1024
2022-09-21 23:36:49 GMT 50.158813 8.915116 3,325 215 180 -1088
2022-09-21 23:36:48 GMT 50.159592 8.915984 3,350 215 180 -1152
2022-09-21 23:36:46 GMT 50.160828 8.917285 3,375 215 180 -1216
2022-09-21 23:36:45 GMT 50.161377 8.917863 3,400 215 180 -1280
2022-09-21 23:36:44 GMT 50.162876 8.919488 3,425 215 179 -1344
2022-09-21 23:36:42 GMT 50.163528 8.920230 3,450 215 179 -1344
2022-09-21 23:36:39 GMT 50.165390 8.922235 3,525 215 178 -1344
2022-09-21 23:36:37 GMT 50.166553 8.923497 3,550 215 178 -1280
2022-09-21 23:36:36 GMT 50.167557 8.924585 3,600 215 178 -1024
2022-09-21 23:36:35 GMT 50.168228 8.925278 3,600 215 178 -960
2022-09-21 23:36:34 GMT 50.169720 8.926911 3,625 216 179 -704
2022-09-21 23:36:32 GMT 50.170464 8.927728 3,650 216 179 -576
2022-09-21 23:36:31 GMT 50.171162 8.928470 3,650 216 179 -512
2022-09-21 23:36:29 GMT 50.172318 8.929716 3,650 216 179 -384
2022-09-21 23:36:28 GMT 50.172977 8.930474 3,675 216 179 -256
2022-09-21 23:36:27 GMT 50.173599 8.931162 3,675 216 179 -192
2022-09-21 23:36:26 GMT 50.174980 8.932627 3,675 215 179 -64
2022-09-21 23:36:24 GMT 50.175705 8.933403 3,675 215 179 0
2022-09-21 23:36:22 GMT 50.177353 8.935225 3,675 215 179 0
2022-09-21 23:36:21 GMT 50.177773 8.935671 3,675 215 179 0
2022-09-21 23:36:20 GMT 50.178284 8.936190 3,675 215 179 0
2022-09-21 23:36:18 GMT 50.179680 8.937675 3,675 215 179 0
2022-09-21 23:36:17 GMT 50.180603 8.938751 3,675 215 179 0
2022-09-21 23:36:16 GMT 50.181702 8.939908 3,675 215 179 0
2022-09-21 23:36:14 GMT 50.182522 8.940793 3,675 215 179 0
2022-09-21 23:36:13 GMT 50.183167 8.941426 3,675 215 178 0
2022-09-21 23:36:10 GMT 50.185135 8.943522 3,675 215 178 0
2022-09-21 23:36:09 GMT 50.187515 8.946124 3,675 215 178 0
2022-09-21 23:36:07 GMT 50.187515 8.946124 3,675 215 178 0
2022-09-21 23:36:06 GMT 50.188107 8.946805 3,675 216 179 0
2022-09-21 23:36:04 GMT 50.189411 8.948216 3,675 216 179 0
2022-09-21 23:36:03 GMT 50.190063 8.948958 3,675 216 179 0
2022-09-21 23:36:02 GMT 50.190674 8.949593 3,675 216 179 0
2022-09-21 23:36:00 GMT 50.191360 8.950316 3,675 216 179 0
2022-09-21 23:35:58 GMT 50.193054 8.952195 3,675 216 179 0
2022-09-21 23:35:57 GMT 50.193413 8.952521 3,675 216 179 0
2022-09-21 23:35:56 GMT 50.195091 8.954377 3,675 215 178 0
2022-09-21 23:35:54 GMT 50.195847 8.955231 3,675 215 178 0
2022-09-21 23:35:53 GMT 50.197044 8.956530 3,675 215 178 0
2022-09-21 23:35:51 GMT 50.197678 8.957182 3,675 216 178 0
2022-09-21 23:35:50 GMT 50.199188 8.958831 3,675 215 178 0
2022-09-21 23:35:48 GMT 50.199783 8.959495 3,675 215 178 0
2022-09-21 23:35:47 GMT 50.200470 8.960218 3,675 215 178 0
2022-09-21 23:35:45 GMT 50.201752 8.961591 3,675 215 178 0
2022-09-21 23:35:44 GMT 50.202492 8.962468 3,675 215 178 0
2022-09-21 23:35:42 GMT 50.203812 8.963904 3,675 215 178 0
2022-09-21 23:35:41 GMT 50.204449 8.964547 3,675 215 178 64
2022-09-21 23:35:40 GMT 50.206055 8.966362 3,675 215 178 64
2022-09-21 23:35:38 GMT 50.206680 8.966996 3,675 215 178 64
2022-09-21 23:35:37 GMT 50.207333 8.967739 3,675 216 178 64
2022-09-21 23:35:36 GMT 50.208572 8.969108 3,675 216 178 64
2022-09-21 23:35:34 GMT 50.209213 8.969831 3,675 216 178 64
2022-09-21 23:35:32 GMT 50.210590 8.971302 3,675 216 178 64
2022-09-21 23:35:31 GMT 50.211243 8.972044 3,675 216 178 64
2022-09-21 23:35:29 GMT 50.212601 8.973517 3,675 216 180 64
2022-09-21 23:35:28 GMT 50.213287 8.974240 3,675 216 180 0
2022-09-21 23:35:27 GMT 50.214783 8.975904 3,675 216 180 -192
2022-09-21 23:35:25 GMT 50.215431 8.976647 3,675 216 180 -320
2022-09-21 23:35:24 GMT 50.216080 8.977348 3,675 216 180 -448
2022-09-21 23:35:23 GMT 50.217434 8.978799 3,700 216 180 -640
2022-09-21 23:35:21 GMT 50.218132 8.979542 3,725 215 181 -640
2022-09-21 23:35:20 GMT 50.219788 8.981396 3,725 215 181 -640
2022-09-21 23:35:18 GMT 50.220135 8.981769 3,750 215 181 -640
2022-09-21 23:35:17 GMT 50.220886 8.982552 3,750 215 181 -640
2022-09-21 23:35:16 GMT 50.222305 8.984142 3,775 215 182 -704
2022-09-21 23:35:14 GMT 50.222927 8.984812 3,775 215 182 -768
2022-09-21 23:35:12 GMT 50.224464 8.986445 3,800 215 182 -832
2022-09-21 23:35:11 GMT 50.225143 8.987178 3,825 215 182 -832
2022-09-21 23:35:09 GMT 50.226562 8.988696 3,850 215 183 -704
2022-09-21 23:35:08 GMT 50.227165 8.989415 3,875 215 183 -576
2022-09-21 23:35:07 GMT 50.228577 8.990936 3,875 215 185 -448
2022-09-21 23:35:05 GMT 50.229492 8.991864 3,900 215 185 -448
2022-09-21 23:35:04 GMT 50.231541 8.994165 3,900 215 186 -448
2022-09-21 23:35:02 GMT 50.231541 8.994165 3,925 216 188 -448
2022-09-21 23:35:01 GMT 50.232330 8.994984 3,925 215 188 -512
2022-09-21 23:35:00 GMT 50.233727 8.996541 3,950 215 190 -448
2022-09-21 23:34:58 GMT 50.235168 8.998092 3,950 215 191 -448
2022-09-21 23:34:56 GMT 50.236496 8.999537 3,950 215 192 -384
2022-09-21 23:34:54 GMT 50.237358 9.000475 3,975 215 193 -384
2022-09-21 23:34:53 GMT 50.238785 9.001995 3,975 215 195 -384
2022-09-21 23:34:51 GMT 50.239452 9.002702 4,000 215 196 -448
2022-09-21 23:34:50 GMT 50.240990 9.004409 4,000 215 197 -448
2022-09-21 23:34:48 GMT 50.241734 9.005226 4,025 215 198 -448
2022-09-21 23:34:47 GMT 50.242676 9.006259 4,025 215 199 -512
2022-09-21 23:34:45 GMT 50.244003 9.007705 4,025 215 200 -512
2022-09-21 23:34:44 GMT 50.244854 9.008641 4,050 215 201 -576
2022-09-21 23:34:43 GMT 50.246300 9.010199 4,075 215 201 -640
2022-09-21 23:34:41 GMT 50.247089 9.011016 4,075 215 203 -704
2022-09-21 23:34:40 GMT 50.247986 9.012042 4,100 215 203 -704
2022-09-21 23:34:39 GMT 50.248859 9.012946 4,100 216 203 -640
2022-09-21 23:34:37 GMT 50.250183 9.014355 4,125 216 205 -576
2022-09-21 23:34:36 GMT 50.251091 9.015396 4,125 215 206 -448
2022-09-21 23:34:35 GMT 50.252537 9.016955 4,150 215 207 -384
2022-09-21 23:34:33 GMT 50.253296 9.017824 4,150 216 208 -384
2022-09-21 23:34:32 GMT 50.254166 9.018736 4,150 216 210 -448
2022-09-21 23:34:30 GMT 50.255676 9.020426 4,175 216 211 -704
2022-09-21 23:34:29 GMT 50.256493 9.021260 4,175 216 212 -768
2022-09-21 23:34:28 GMT 50.258331 9.023317 4,225 216 212 -896
2022-09-21 23:34:25 GMT 50.259937 9.025046 4,250 215 213 -896
2022-09-21 23:34:23 GMT 50.261566 9.026827 4,275 215 213 -960
2022-09-21 23:34:22 GMT 50.262360 9.027654 4,300 215 213 -960
2022-09-21 23:34:20 GMT 50.263893 9.029351 4,325 215 214 -1024
2022-09-21 23:34:19 GMT 50.264824 9.030316 4,350 215 214 -1088
2022-09-21 23:34:18 GMT 50.266342 9.031990 4,375 215 214 -1088
2022-09-21 23:34:16 GMT 50.267059 9.032840 4,400 215 214 -1088
2022-09-21 23:34:15 GMT 50.267990 9.033805 4,425 215 214 -1088
2022-09-21 23:34:14 GMT 50.269547 9.035460 4,450 216 216 -1088
2022-09-21 23:34:12 GMT 50.270367 9.036403 4,475 216 216 -1088
2022-09-21 23:34:11 GMT 50.271240 9.037339 4,500 216 216 -1088
2022-09-21 23:34:09 GMT 50.272797 9.039074 4,525 215 216 -960
2022-09-21 23:34:08 GMT 50.273716 9.040041 4,550 216 217 -960
2022-09-21 23:34:07 GMT 50.274509 9.040931 4,550 216 217 -896
2022-09-21 23:34:05 GMT 50.276230 9.042862 4,575 216 217 -832
2022-09-21 23:34:04 GMT 50.277069 9.043752 4,600 215 218 -832
2022-09-21 23:34:02 GMT 50.278744 9.045534 4,625 216 218 -768
2022-09-21 23:34:01 GMT 50.279488 9.046350 4,625 215 219 -768
2022-09-21 23:33:59 GMT 50.281036 9.048109 4,650 215 220 -832
2022-09-21 23:33:58 GMT 50.281952 9.049120 4,675 215 220 -896
2022-09-21 23:33:57 GMT 50.282700 9.049914 4,700 215 220 -960
2022-09-21 23:33:56 GMT 50.285248 9.052662 4,725 215 220 -1088
2022-09-21 23:33:54 GMT 50.285248 9.052662 4,750 215 220 -1088
2022-09-21 23:33:52 GMT 50.286983 9.054516 4,775 215 220 -1088
2022-09-21 23:33:51 GMT 50.287811 9.055481 4,800 215 220 -1088
2022-09-21 23:33:50 GMT 50.288754 9.056446 4,825 215 220 -1088
2022-09-21 23:33:49 GMT 50.290428 9.058302 4,850 215 221 -1088
2022-09-21 23:33:47 GMT 50.291359 9.059267 4,875 215 220 -1152
2022-09-21 23:33:46 GMT 50.293129 9.061197 4,925 215 220 -1152
2022-09-21 23:33:44 GMT 50.293781 9.061865 4,925 215 220 -1216
2022-09-21 23:33:42 GMT 50.295364 9.063576 4,975 215 219 -1280
2022-09-21 23:33:41 GMT 50.296051 9.064371 5,000 215 219 -1280
2022-09-21 23:33:39 GMT 50.298157 9.066612 5,050 215 219 -1280
2022-09-21 23:33:38 GMT 50.298576 9.067061 5,050 215 219 -1280
2022-09-21 23:33:37 GMT 50.299416 9.067952 5,075 215 219 -1280
2022-09-21 23:33:34 GMT 50.301510 9.070179 5,125 215 219 -1152
2022-09-21 23:33:33 GMT 50.303043 9.071886 5,150 215 219 -1088
2022-09-21 23:33:30 GMT 50.304657 9.073623 5,200 215 219 -1088
2022-09-21 23:33:29 GMT 50.305653 9.074707 5,275 215 219 -1088
2022-09-21 23:33:27 GMT 50.307907 9.077164 5,275 215 219 -1152
2022-09-21 23:33:25 GMT 50.308823 9.078176 5,300 215 219 -1344
2022-09-21 23:33:23 GMT 50.310471 9.079983 5,350 215 219 -1408
2022-09-21 23:33:21 GMT 50.312309 9.081982 5,375 215 219 -1536
2022-09-21 23:33:20 GMT 50.313034 9.082802 5,425 215 219 -1536
2022-09-21 23:33:19 GMT 50.314957 9.084898 5,450 215 218 -1536
2022-09-21 23:33:17 GMT 50.315781 9.085766 5,475 215 218 -1536
2022-09-21 23:33:16 GMT 50.316650 9.086705 5,525 215 218 -1536
2022-09-21 23:33:15 GMT 50.317474 9.087549 5,550 215 218 -1536
2022-09-21 23:33:13 GMT 50.318966 9.089182 5,600 215 218 -1472
2022-09-21 23:33:12 GMT 50.319851 9.090147 5,625 215 218 -1472
2022-09-21 23:33:10 GMT 50.321457 9.091837 5,650 215 217 -1408
2022-09-21 23:33:09 GMT 50.322098 9.092560 5,700 215 217 -1408
2022-09-21 23:33:08 GMT 50.323948 9.094527 5,700 215 217 -1344
2022-09-21 23:33:06 GMT 50.324829 9.095492 5,750 215 217 -1344
2022-09-21 23:33:05 GMT 50.325668 9.096383 5,825 215 217 -1344
2022-09-21 23:33:03 GMT 50.327763 9.098610 5,875 215 218 -1280
2022-09-21 23:33:01 GMT 50.329468 9.100510 5,875 215 218 -1216
2022-09-21 23:33:00 GMT 50.330418 9.101505 5,900 215 219 -1216
2022-09-21 23:32:58 GMT 50.331711 9.102968 5,925 215 219 -1152
2022-09-21 23:32:57 GMT 50.332901 9.104269 5,950 215 219 -1152
2022-09-21 23:32:55 GMT 50.334373 9.105884 5,975 216 220 -1152
2022-09-21 23:32:54 GMT 50.335144 9.106726 6,000 216 219 -1152
2022-09-21 23:32:53 GMT 50.336060 9.107738 6,025 216 220 -1152
2022-09-21 23:32:51 GMT 50.337708 9.109545 6,075 216 220 -1088
2022-09-21 23:32:50 GMT 50.338470 9.110413 6,075 216 220 -1088
2022-09-21 23:32:49 GMT 50.339264 9.111352 6,100 216 221 -1088
2022-09-21 23:32:47 GMT 50.340958 9.113159 6,150 216 222 -1088
2022-09-21 23:32:45 GMT 50.342514 9.114966 6,150 216 222 -1152
2022-09-21 23:32:44 GMT 50.343338 9.115906 6,200 216 222 -1216
2022-09-21 23:32:43 GMT 50.344105 9.116722 6,225 216 222 -1216
2022-09-21 23:32:42 GMT 50.345036 9.117762 6,225 216 223 -1216
2022-09-21 23:32:40 GMT 50.347038 9.119989 6,275 215 224 -1024
2022-09-21 23:32:39 GMT 50.347969 9.121028 6,300 215 224 -1024
2022-09-21 23:32:37 GMT 50.349178 9.122290 6,325 215 224 -832
2022-09-21 23:32:35 GMT 50.350845 9.124146 6,350 215 224 -768
2022-09-21 23:32:34 GMT 50.351646 9.124962 6,350 215 224 -768
2022-09-21 23:32:33 GMT 50.352482 9.125927 6,375 215 225 -768
2022-09-21 23:32:31 GMT 50.354370 9.127976 6,400 215 225 -704
2022-09-21 23:32:30 GMT 50.355137 9.128822 6,400 215 226 -704
2022-09-21 23:32:29 GMT 50.356255 9.130010 6,425 215 226 -640
2022-09-21 23:32:27 GMT 50.357712 9.131590 6,450 216 228 -640
2022-09-21 23:32:26 GMT 50.359421 9.133499 6,450 216 228 -640
2022-09-21 23:32:24 GMT 50.360367 9.134554 6,475 216 228 -640
2022-09-21 23:32:23 GMT 50.362015 9.136361 6,500 216 230 -640
2022-09-21 23:32:21 GMT 50.362885 9.137300 6,500 216 230 -640
2022-09-21 23:32:20 GMT 50.363937 9.138457 6,525 216 230 -704
2022-09-21 23:32:18 GMT 50.365768 9.140480 6,575 216 231 -1024
2022-09-21 23:32:16 GMT 50.367241 9.142184 6,575 216 231 -1024
2022-09-21 23:32:15 GMT 50.368973 9.144094 6,600 216 231 -1152
2022-09-21 23:32:13 GMT 50.371429 9.146786 6,675 216 231 -1280
2022-09-21 23:32:10 GMT 50.373104 9.148568 6,700 215 230 -1280
2022-09-21 23:32:07 GMT 50.376503 9.152354 6,775 215 230 -1024
2022-09-21 23:32:04 GMT 50.377388 9.153319 6,800 215 230 -960
2022-09-21 23:32:03 GMT 50.379204 9.155323 6,825 215 231 -896
2022-09-21 23:32:02 GMT 50.380005 9.156165 6,850 215 231 -704
2022-09-21 23:32:01 GMT 50.380974 9.157179 6,850 215 231 -640
2022-09-21 23:31:59 GMT 50.382751 9.159128 6,875 216 233 -576
2022-09-21 23:31:57 GMT 50.383621 9.160068 6,875 215 234 -640
2022-09-21 23:31:56 GMT 50.384583 9.161152 6,900 215 234 -704
2022-09-21 23:31:55 GMT 50.386368 9.163104 6,925 216 234 -768
2022-09-21 23:31:54 GMT 50.387257 9.164082 6,925 216 234 -768
2022-09-21 23:31:53 GMT 50.389027 9.166012 6,975 216 236 -576
2022-09-21 23:31:50 GMT 50.390469 9.167571 6,975 216 236 -512
2022-09-21 23:31:49 GMT 50.391357 9.168597 6,975 216 236 -320
2022-09-21 23:31:48 GMT 50.394150 9.171632 6,975 216 238 -128
2022-09-21 23:31:46 GMT 50.394150 9.171632 7,000 216 238 -64
2022-09-21 23:31:45 GMT 50.395496 9.173139 7,000 215 239 0
2022-09-21 23:31:43 GMT 50.396759 9.174524 7,000 216 240 0
2022-09-21 23:31:42 GMT 50.397491 9.175319 7,000 216 240 0
2022-09-21 23:31:41 GMT 50.399506 9.177487 7,000 216 241 0
2022-09-21 23:31:39 GMT 50.400513 9.178643 7,000 216 241 0
2022-09-21 23:31:37 GMT 50.402161 9.180450 6,975 216 243 64
2022-09-21 23:31:36 GMT 50.402992 9.181304 6,975 216 243 64
2022-09-21 23:31:35 GMT 50.404900 9.183457 6,975 216 244 0
2022-09-21 23:31:33 GMT 50.405647 9.184273 7,000 216 245 -64
2022-09-21 23:31:32 GMT 50.406670 9.185387 7,000 216 245 -64
2022-09-21 23:31:30 GMT 50.408432 9.187389 7,000 216 246 -64
2022-09-21 23:31:28 GMT 50.410355 9.189558 7,000 216 248 0
2022-09-21 23:31:27 GMT 50.411606 9.190880 7,000 216 248 0
2022-09-21 23:31:25 GMT 50.414200 9.193822 7,000 216 248 0
2022-09-21 23:31:23 GMT 50.415051 9.194740 7,000 216 248 0
2022-09-21 23:31:21 GMT 50.418961 9.199120 7,000 216 248 64
2022-09-21 23:31:19 GMT 50.418961 9.199120 7,000 216 249 64
2022-09-21 23:31:18 GMT 50.420975 9.201267 7,000 216 249 0
2022-09-21 23:31:16 GMT 50.421982 9.202423 7,000 215 249 0
2022-09-21 23:31:15 GMT 50.422943 9.203435 7,000 215 249 -64
2022-09-21 23:31:13 GMT 50.424641 9.205281 7,000 215 250 -64
2022-09-21 23:31:12 GMT 50.425690 9.206398 7,000 215 250 -64
2022-09-21 23:31:11 GMT 50.427612 9.208422 7,000 215 250 -64
2022-09-21 23:31:09 GMT 50.428551 9.209512 7,000 215 250 -128
2022-09-21 23:31:08 GMT 50.430359 9.211458 7,000 215 250 -320
2022-09-21 23:31:06 GMT 50.431229 9.212398 7,000 215 250 -448
2022-09-21 23:31:04 GMT 50.433483 9.214857 7,025 215 250 -704
2022-09-21 23:31:02 GMT 50.436138 9.217752 7,050 216 250 -1024
2022-09-21 23:31:00 GMT 50.436996 9.218686 7,100 216 250 -1152
2022-09-21 23:30:59 GMT 50.438049 9.219842 7,125 216 250 -1152
2022-09-21 23:30:58 GMT 50.439926 9.221938 7,150 216 250 -1216
2022-09-21 23:30:56 GMT 50.441071 9.223171 7,175 215 249 -1216
2022-09-21 23:30:54 GMT 50.442608 9.224804 7,200 215 249 -1280
2022-09-21 23:30:53 GMT 50.443542 9.225841 7,225 215 249 -1280
2022-09-21 23:30:52 GMT 50.444378 9.226808 7,250 215 249 -1344
2022-09-21 23:30:51 GMT 50.445820 9.228367 7,275 215 249 -1344
2022-09-21 23:30:48 GMT 50.448212 9.230901 7,350 215 249 -1280
2022-09-21 23:30:47 GMT 50.450180 9.233069 7,375 215 249 -1216
2022-09-21 23:30:45 GMT 50.451141 9.234153 7,400 215 250 -1216
2022-09-21 23:30:44 GMT 50.452011 9.235048 7,425 215 250 -1152
2022-09-21 23:30:42 GMT 50.453888 9.237117 7,450 215 250 -1152
2022-09-21 23:30:41 GMT 50.455318 9.238685 7,500 215 250 -1152
2022-09-21 23:30:39 GMT 50.456818 9.240369 7,525 215 250 -1152
2022-09-21 23:30:38 GMT 50.457691 9.241284 7,550 215 250 -1088
2022-09-21 23:30:36 GMT 50.459885 9.243694 7,575 215 250 -1024
2022-09-21 23:30:35 GMT 50.460571 9.244417 7,600 215 251 -1024
2022-09-21 23:30:34 GMT 50.462578 9.246554 7,625 215 252 -896
2022-09-21 23:30:32 GMT 50.463326 9.247445 7,625 215 252 -896
2022-09-21 23:30:31 GMT 50.464394 9.248558 7,650 216 252 -896
2022-09-21 23:30:28 GMT 50.467327 9.251824 7,700 216 253 -896
2022-09-21 23:30:27 GMT 50.470093 9.254897 7,725 216 253 -960
2022-09-21 23:30:25 GMT 50.470093 9.254897 7,750 216 254 -1024
2022-09-21 23:30:24 GMT 50.471237 9.256204 7,775 216 254 -1024
2022-09-21 23:30:23 GMT 50.473194 9.258357 7,800 216 255 -1152
2022-09-21 23:30:21 GMT 50.474121 9.259379 7,825 216 255 -1152
2022-09-21 23:30:20 GMT 50.475010 9.260361 7,825 216 254 -1152
2022-09-21 23:30:18 GMT 50.476822 9.262414 7,875 216 254 -1152
2022-09-21 23:30:17 GMT 50.477989 9.263627 7,900 216 255 -1152
2022-09-21 23:30:15 GMT 50.479797 9.265667 7,925 216 255 -1152
2022-09-21 23:30:14 GMT 50.480896 9.266823 7,950 216 255 -1152
2022-09-21 23:30:13 GMT 50.481857 9.267907 7,975 216 255 -1152
2022-09-21 23:30:12 GMT 50.483780 9.270003 8,000 216 255 -1088
2022-09-21 23:30:10 GMT 50.484737 9.271125 8,025 216 255 -1088
2022-09-21 23:30:08 GMT 50.487854 9.274485 8,075 215 256 -1152
2022-09-21 23:30:06 GMT 50.488815 9.275569 8,100 215 256 -1152
2022-09-21 23:30:05 GMT 50.489674 9.276544 8,125 215 256 -1152
2022-09-21 23:30:03 GMT 50.491722 9.278771 8,175 216 256 -1216
2022-09-21 23:30:01 GMT 50.493443 9.280701 8,200 216 256 -1216
2022-09-21 23:30:00 GMT 50.494514 9.281888 8,225 216 256 -1216
2022-09-21 23:29:59 GMT 50.495491 9.282928 8,250 216 256 -1216
2022-09-21 23:29:58 GMT 50.497540 9.285229 8,300 216 256 -1280
2022-09-21 23:29:55 GMT 50.501404 9.289446 8,375 215 256 -1344
2022-09-21 23:29:53 GMT 50.501404 9.289446 8,375 215 256 -1408
2022-09-21 23:29:51 GMT 50.503361 9.291613 8,425 215 256 -1472
2022-09-21 23:29:50 GMT 50.504337 9.292652 8,450 215 255 -1472
2022-09-21 23:29:48 GMT 50.506199 9.294656 8,500 215 255 -1536
2022-09-21 23:29:47 GMT 50.507263 9.295879 8,525 215 255 -1536
2022-09-21 23:29:46 GMT 50.510063 9.298888 8,575 215 255 -1408
2022-09-21 23:29:44 GMT 50.510063 9.298888 8,600 215 255 -1408
2022-09-21 23:29:42 GMT 50.512112 9.301114 8,625 215 255 -1344
2022-09-21 23:29:40 GMT 50.513947 9.303107 8,675 215 255 -1216
2022-09-21 23:29:38 GMT 50.515881 9.305197 8,725 215 255 -1216
2022-09-21 23:29:35 GMT 50.518677 9.308241 8,800 215 255 -1280
2022-09-21 23:29:33 GMT 50.522491 9.312398 8,875 215 255 -1216
2022-09-21 23:29:31 GMT 50.522491 9.312398 8,875 215 255 -1216
2022-09-21 23:29:29 GMT 50.524307 9.314402 8,900 215 254 -1216
2022-09-21 23:29:28 GMT 50.525284 9.315441 8,925 215 254 -1216
2022-09-21 23:29:27 GMT 50.527405 9.317780 8,975 215 254 -1280
2022-09-21 23:29:25 GMT 50.528263 9.318707 9,000 215 254 -1280
2022-09-21 23:29:24 GMT 50.529243 9.319747 9,025 215 254 -1280
2022-09-21 23:29:22 GMT 50.531204 9.321899 9,050 215 254 -1280
2022-09-21 23:29:21 GMT 50.532269 9.323087 9,075 215 254 -1280
2022-09-21 23:29:20 GMT 50.533108 9.323978 9,100 216 255 -1280
2022-09-21 23:29:18 GMT 50.535141 9.326236 9,150 216 255 -1216
2022-09-21 23:29:17 GMT 50.535992 9.327170 9,150 216 255 -1216
2022-09-21 23:29:14 GMT 50.539078 9.330573 9,225 216 255 -1088
2022-09-21 23:29:11 GMT 50.542374 9.334259 9,275 216 256 -1088
2022-09-21 23:29:09 GMT 50.543255 9.335187 9,300 216 256 -1024
2022-09-21 23:29:08 GMT 50.544605 9.336746 9,325 216 256 -1024
2022-09-21 23:29:06 GMT 50.546539 9.338885 9,350 216 256 -1088
2022-09-21 23:29:05 GMT 50.547398 9.339789 9,400 216 256 -1088
2022-09-21 23:29:04 GMT 50.549446 9.342091 9,425 216 256 -1088
2022-09-21 23:29:02 GMT 50.550423 9.343130 9,425 216 257 -1088
2022-09-21 23:29:01 GMT 50.551399 9.344243 9,450 216 257 -1024
2022-09-21 23:28:59 GMT 50.553131 9.346113 9,475 215 257 -1024
2022-09-21 23:28:58 GMT 50.554241 9.347287 9,500 215 257 -960
2022-09-21 23:28:57 GMT 50.556381 9.349654 9,550 215 257 -960
2022-09-21 23:28:55 GMT 50.556976 9.350305 9,550 215 257 -1024
2022-09-21 23:28:54 GMT 50.559315 9.352854 9,575 215 258 -1024
2022-09-21 23:28:52 GMT 50.560226 9.353846 9,600 216 259 -1024
2022-09-21 23:28:51 GMT 50.562241 9.356087 9,650 216 258 -1024
2022-09-21 23:28:48 GMT 50.563923 9.357976 9,675 216 260 -1024
2022-09-21 23:28:46 GMT 50.565971 9.360277 9,700 217 259 -960
2022-09-21 23:28:45 GMT 50.566902 9.361391 9,725 217 260 -960
2022-09-21 23:28:44 GMT 50.569427 9.364327 9,750 218 260 -896
2022-09-21 23:28:42 GMT 50.570255 9.365399 9,775 218 260 -896
2022-09-21 23:28:40 GMT 50.571579 9.367073 9,800 219 260 -896
2022-09-21 23:28:39 GMT 50.573189 9.369037 9,825 221 261 -896
2022-09-21 23:28:37 GMT 50.574188 9.370398 9,850 221 261 -960
2022-09-21 23:28:36 GMT 50.576027 9.372897 9,875 223 262 -1024
2022-09-21 23:28:34 GMT 50.576771 9.373936 9,925 224 262 -1088
2022-09-21 23:28:32 GMT 50.578857 9.377048 9,925 224 262 -1152
2022-09-21 23:28:31 GMT 50.580093 9.378927 9,950 225 262 -1152
2022-09-21 23:28:30 GMT 50.580917 9.380300 9,975 227 261 -1216
2022-09-21 23:28:29 GMT 50.581940 9.381953 10,000 229 262 -1216
2022-09-21 23:28:27 GMT 50.583382 9.384477 10,050 229 261 -1216
2022-09-21 23:28:26 GMT 50.584259 9.386010 10,050 229 261 -1152
2022-09-21 23:28:25 GMT 50.586037 9.389154 10,100 230 262 -1088
2022-09-21 23:28:22 GMT 50.587509 9.391720 10,125 228 264 -960
2022-09-21 23:28:21 GMT 50.589062 9.394424 10,150 227 263 -768
2022-09-21 23:28:19 GMT 50.589890 9.395768 10,175 226 265 -640
2022-09-21 23:28:18 GMT 50.591675 9.398442 10,175 224 266 -512
2022-09-21 23:28:15 GMT 50.593300 9.400808 10,200 219 268 -512
2022-09-21 23:28:14 GMT 50.596836 9.404816 10,225 214 270 -704
2022-09-21 23:28:12 GMT 50.596836 9.404816 10,250 212 272 -960
2022-09-21 23:28:11 GMT 50.599411 9.406899 10,275 207 273 -1088
2022-09-21 23:28:09 GMT 50.600418 9.407694 10,300 201 275 -1280
2022-09-21 23:28:06 GMT 50.602570 9.408995 10,350 196 275 -1472
2022-09-21 23:28:05 GMT 50.604126 9.409718 10,375 194 275 -1472
2022-09-21 23:28:04 GMT 50.606472 9.410607 10,400 192 276 -1408
2022-09-21 23:28:02 GMT 50.607742 9.410946 10,450 189 276 -1216
2022-09-21 23:28:01 GMT 50.610031 9.411525 10,475 188 277 -960
2022-09-21 23:27:58 GMT 50.612457 9.411958 10,500 185 278 -832
2022-09-21 23:27:57 GMT 50.615784 9.412314 10,525 184 279 -704
2022-09-21 23:27:55 GMT 50.616943 9.412464 10,550 184 279 -640
2022-09-21 23:27:53 GMT 50.620972 9.412753 10,575 184 282 -512
2022-09-21 23:27:51 GMT 50.622253 9.412898 10,575 184 282 -512
2022-09-21 23:27:50 GMT 50.625000 9.413115 10,600 184 283 -448
2022-09-21 23:27:48 GMT 50.626282 9.413187 10,600 184 283 -448
2022-09-21 23:27:47 GMT 50.629211 9.413404 10,625 184 285 -448
2022-09-21 23:27:45 GMT 50.630630 9.413549 10,625 184 286 -448
2022-09-21 23:27:43 GMT 50.631958 9.413693 10,625 184 286 -512
2022-09-21 23:27:42 GMT 50.634357 9.413873 10,650 183 288 -640
2022-09-21 23:27:40 GMT 50.636856 9.414054 10,675 183 289 -896
2022-09-21 23:27:38 GMT 50.639648 9.414271 10,700 183 289 -1088
2022-09-21 23:27:37 GMT 50.643387 9.414615 10,775 183 289 -1280
2022-09-21 23:27:35 GMT 50.643387 9.414615 10,775 183 289 -1408
2022-09-21 23:27:33 GMT 50.646461 9.414838 10,825 183 289 -1472
2022-09-21 23:27:32 GMT 50.647705 9.414922 10,850 183 289 -1472
2022-09-21 23:27:31 GMT 50.650497 9.415139 10,900 183 289 -1280
2022-09-21 23:27:29 GMT 50.651955 9.415209 10,925 183 289 -1152
2022-09-21 23:27:28 GMT 50.654480 9.415428 10,950 183 289 -832
2022-09-21 23:27:26 GMT 50.655945 9.415500 10,950 183 289 -768
2022-09-21 23:27:25 GMT 50.657318 9.415645 10,975 183 289 -576
2022-09-21 23:27:23 GMT 50.659451 9.415729 11,000 183 289 -320
2022-09-21 23:27:21 GMT 50.663826 9.416026 11,000 183 289 -64
2022-09-21 23:27:19 GMT 50.665054 9.416151 11,000 183 289 0
2022-09-21 23:27:18 GMT 50.667686 9.416322 11,000 183 289 0
2022-09-21 23:27:16 GMT 50.669174 9.416440 11,000 183 289 0
2022-09-21 23:27:14 GMT 50.671600 9.416619 11,000 183 289 0
2022-09-21 23:27:12 GMT 50.674252 9.416809 11,000 183 289 0
2022-09-21 23:27:10 GMT 50.676811 9.416962 11,000 183 289 0
2022-09-21 23:27:08 GMT 50.679466 9.417114 11,000 183 289 0
2022-09-21 23:27:07 GMT 50.681351 9.417287 11,000 183 289 0
2022-09-21 23:27:05 GMT 50.683887 9.417419 11,000 183 290 0
2022-09-21 23:27:04 GMT 50.685104 9.417510 11,000 183 290 0
2022-09-21 23:27:03 GMT 50.686401 9.417572 11,000 183 290 0
2022-09-21 23:27:00 GMT 50.689911 9.417807 11,000 183 290 0
2022-09-21 23:26:59 GMT 50.693108 9.418030 11,000 183 290 0
2022-09-21 23:26:56 GMT 50.696182 9.418252 11,000 183 290 0
2022-09-21 23:26:53 GMT 50.699799 9.418475 11,000 183 290 0
2022-09-21 23:26:52 GMT 50.701172 9.418549 11,000 183 290 0
2022-09-21 23:26:51 GMT 50.705704 9.418921 11,000 183 290 0
2022-09-21 23:26:49 GMT 50.705704 9.418921 11,000 183 290 0
2022-09-21 23:26:47 GMT 50.709595 9.419143 11,000 183 290 0
2022-09-21 23:26:44 GMT 50.712021 9.419366 11,000 183 291 0
2022-09-21 23:26:42 GMT 50.714054 9.419479 11,000 183 290 0
2022-09-21 23:26:41 GMT 50.718613 9.419811 11,000 183 290 0
2022-09-21 23:26:39 GMT 50.718613 9.419811 11,000 183 291 0
2022-09-21 23:26:38 GMT 50.719528 9.419886 11,000 183 290 0
2022-09-21 23:26:37 GMT 50.723831 9.420242 11,000 183 291 0
2022-09-21 23:26:35 GMT 50.723831 9.420242 11,000 183 290 0
2022-09-21 23:26:34 GMT 50.726250 9.420395 11,000 183 290 0
2022-09-21 23:26:32 GMT 50.727722 9.420479 11,000 183 290 0
2022-09-21 23:26:30 GMT 50.730286 9.420702 11,000 183 291 0
2022-09-21 23:26:29 GMT 50.731743 9.420776 11,000 183 291 0
2022-09-21 23:26:28 GMT 50.734451 9.420999 11,000 183 291 0
2022-09-21 23:26:26 GMT 50.735657 9.421082 11,000 183 291 0
2022-09-21 23:26:25 GMT 50.739670 9.421370 11,000 183 291 0
2022-09-21 23:26:23 GMT 50.739670 9.421370 11,000 183 291 0
2022-09-21 23:26:22 GMT 50.740868 9.421463 11,000 183 291 0
2022-09-21 23:26:19 GMT 50.744934 9.421741 11,000 183 291 0
2022-09-21 23:26:18 GMT 50.746262 9.421816 11,000 183 291 0
2022-09-21 23:26:15 GMT 50.750320 9.422150 11,000 183 291 0
2022-09-21 23:26:13 GMT 50.753265 9.422335 11,000 183 291 0
2022-09-21 23:26:12 GMT 50.754463 9.422455 11,000 183 291 0
2022-09-21 23:26:11 GMT 50.756058 9.422558 11,000 183 291 0
2022-09-21 23:26:09 GMT 50.759724 9.422836 11,000 183 291 0
2022-09-21 23:26:08 GMT 50.759724 9.422836 11,000 183 291 0
2022-09-21 23:26:07 GMT 50.761723 9.422989 11,000 183 291 0
2022-09-21 23:26:05 GMT 50.764843 9.423218 11,000 183 291 0
2022-09-21 23:26:03 GMT 50.768845 9.423523 11,000 183 291 0
2022-09-21 23:26:00 GMT 50.770893 9.423676 11,000 183 291 0
2022-09-21 23:25:59 GMT 50.773594 9.423904 11,000 183 291 0
2022-09-21 23:25:57 GMT 50.775040 9.424057 11,000 183 291 0
2022-09-21 23:25:56 GMT 50.776108 9.424133 11,000 183 291 0
2022-09-21 23:25:54 GMT 50.778950 9.424362 11,000 184 291 0
2022-09-21 23:25:53 GMT 50.781509 9.424562 11,000 183 291 0
2022-09-21 23:25:51 GMT 50.782974 9.424711 11,000 183 291 0
2022-09-21 23:25:50 GMT 50.784489 9.424820 11,000 183 291 0
2022-09-21 23:25:48 GMT 50.787140 9.425082 11,000 183 291 0
2022-09-21 23:25:46 GMT 50.789841 9.425305 11,000 183 291 0
2022-09-21 23:25:45 GMT 50.791054 9.425354 11,000 183 291 0
2022-09-21 23:25:43 GMT 50.795105 9.425750 11,000 184 291 0
2022-09-21 23:25:41 GMT 50.796570 9.425824 11,000 184 291 0
2022-09-21 23:25:40 GMT 50.799271 9.426047 11,000 184 291 0
2022-09-21 23:25:38 GMT 50.800598 9.426195 11,000 184 291 0
2022-09-21 23:25:36 GMT 50.803295 9.426422 11,000 184 291 0
2022-09-21 23:25:34 GMT 50.806274 9.426641 11,000 184 291 0
2022-09-21 23:25:33 GMT 50.807484 9.426804 11,000 184 291 0
2022-09-21 23:25:32 GMT 50.808701 9.426863 11,000 184 291 0
2022-09-21 23:25:31 GMT 50.809906 9.426956 11,000 184 291 0
2022-09-21 23:25:29 GMT 50.812466 9.427185 11,000 184 291 0
2022-09-21 23:25:28 GMT 50.813816 9.427338 11,000 184 291 0
2022-09-21 23:25:26 GMT 50.817032 9.427606 11,000 184 291 0
2022-09-21 23:25:25 GMT 50.817856 9.427680 11,000 184 291 0
2022-09-21 23:25:23 GMT 50.822380 9.428101 11,000 184 291 0
2022-09-21 23:25:22 GMT 50.822380 9.428101 11,000 184 291 0
2022-09-21 23:25:21 GMT 50.824944 9.428329 11,000 184 291 0
2022-09-21 23:25:19 GMT 50.826290 9.428406 11,000 184 290 0
2022-09-21 23:25:18 GMT 50.827641 9.428558 11,000 184 290 0
2022-09-21 23:25:17 GMT 50.828979 9.428645 11,000 184 291 0
2022-09-21 23:25:15 GMT 50.831272 9.428864 11,000 184 291 0
2022-09-21 23:25:14 GMT 50.833145 9.429016 11,000 184 291 0
2022-09-21 23:25:11 GMT 50.837185 9.429398 11,000 184 291 0
2022-09-21 23:25:09 GMT 50.839886 9.429626 11,000 184 291 0
2022-09-21 23:25:08 GMT 50.841328 9.429779 11,000 184 291 0
2022-09-21 23:25:06 GMT 50.843353 9.429981 11,000 184 291 0
2022-09-21 23:25:04 GMT 50.846588 9.430237 11,000 184 291 0
2022-09-21 23:25:02 GMT 50.849167 9.430501 11,000 184 292 0
2022-09-21 23:25:00 GMT 50.853058 9.430798 11,000 184 292 64
2022-09-21 23:24:59 GMT 50.853058 9.430798 11,000 184 292 64
2022-09-21 23:24:58 GMT 50.854568 9.430946 11,000 184 292 64
2022-09-21 23:24:56 GMT 50.857109 9.431152 11,000 183 293 64
2022-09-21 23:24:55 GMT 50.858734 9.431243 11,000 183 293 64
2022-09-21 23:24:53 GMT 50.861298 9.431458 11,000 183 293 64
2022-09-21 23:24:52 GMT 50.862946 9.431540 11,000 182 293 0
2022-09-21 23:24:50 GMT 50.864979 9.431610 11,000 182 293 -64
2022-09-21 23:24:48 GMT 50.867661 9.431614 11,000 181 293 -64
2022-09-21 23:24:47 GMT 50.869537 9.431540 11,000 178 293 -64
2022-09-21 23:24:44 GMT 50.873199 9.431243 11,000 173 292 0
2022-09-21 23:24:43 GMT 50.875992 9.430649 11,000 168 292 0
2022-09-21 23:24:41 GMT 50.877319 9.430278 11,000 167 292 0
2022-09-21 23:24:40 GMT 50.878525 9.429932 11,000 167 292 64
2022-09-21 23:24:39 GMT 50.881897 9.428571 11,000 163 292 64
2022-09-21 23:24:36 GMT 50.882950 9.428051 11,000 160 291 64
2022-09-21 23:24:35 GMT 50.885330 9.426715 11,000 156 290 64
2022-09-21 23:24:34 GMT 50.886719 9.425812 11,000 156 290 64
2022-09-21 23:24:33 GMT 50.887802 9.425008 11,000 154 289 64
2022-09-21 23:24:31 GMT 50.890320 9.423003 11,000 151 290 0
2022-09-21 23:24:30 GMT 50.891464 9.421964 11,000 147 289 0
2022-09-21 23:24:28 GMT 50.893280 9.420090 11,000 145 288 0
2022-09-21 23:24:27 GMT 50.894257 9.419069 11,000 143 288 64
2022-09-21 23:24:25 GMT 50.896259 9.416656 11,000 140 287 64
2022-09-21 23:24:24 GMT 50.897690 9.414764 11,000 136 287 64
2022-09-21 23:24:23 GMT 50.898586 9.413528 11,000 136 287 64
2022-09-21 23:24:22 GMT 50.899612 9.411943 11,000 134 286 64
2022-09-21 23:24:20 GMT 50.901428 9.408875 11,000 131 284 64
2022-09-21 23:24:18 GMT 50.903137 9.405707 11,000 129 284 64
2022-09-21 23:24:17 GMT 50.904034 9.403915 11,000 125 284 0
2022-09-21 23:24:15 GMT 50.904968 9.401699 10,975 124 283 0
2022-09-21 23:24:14 GMT 50.905945 9.399185 10,975 118 284 0
2022-09-21 23:24:12 GMT 50.907211 9.395760 10,975 118 284 0
2022-09-21 23:24:11 GMT 50.907852 9.393756 10,975 112 284 -64
2022-09-21 23:24:09 GMT 50.908829 9.390106 11,000 109 284 0
2022-09-21 23:24:07 GMT 50.909901 9.385681 11,000 105 284 64
2022-09-21 23:24:05 GMT 50.910549 9.382095 10,975 104 284 64
2022-09-21 23:24:03 GMT 50.911530 9.375381 10,975 98 286 64
2022-09-21 23:24:01 GMT 50.911697 9.373491 10,975 98 286 64
2022-09-21 23:24:00 GMT 50.912086 9.369354 10,975 97 288 64
2022-09-21 23:23:58 GMT 50.912273 9.367294 10,975 96 290 64
2022-09-21 23:23:57 GMT 50.912552 9.363708 10,975 96 290 0
2022-09-21 23:23:55 GMT 50.912785 9.360733 10,975 96 292 0
2022-09-21 23:23:54 GMT 50.913071 9.356492 10,975 96 293 0
2022-09-21 23:23:52 GMT 50.913250 9.354553 10,975 96 295 0
2022-09-21 23:23:51 GMT 50.913532 9.350662 10,975 96 298 64
2022-09-21 23:23:49 GMT 50.913715 9.348297 10,975 96 299 64
2022-09-21 23:23:47 GMT 50.913998 9.343948 10,975 96 300 0
2022-09-21 23:23:46 GMT 50.914215 9.341348 10,975 96 301 0
2022-09-21 23:23:44 GMT 50.914490 9.337414 10,975 96 304 -64
2022-09-21 23:23:43 GMT 50.914673 9.335187 10,975 96 305 -64
2022-09-21 23:23:42 GMT 50.914833 9.332962 10,975 96 306 0
2022-09-21 23:23:39 GMT 50.915268 9.326724 10,975 96 307 0
2022-09-21 23:23:37 GMT 50.915531 9.323425 10,975 96 309 0
2022-09-21 23:23:35 GMT 50.915859 9.318695 10,975 96 311 -64
2022-09-21 23:23:34 GMT 50.916000 9.316629 10,975 96 312 0
2022-09-21 23:23:32 GMT 50.916367 9.311655 10,975 96 313 0
2022-09-21 23:23:31 GMT 50.916504 9.309132 10,975 96 315 0
2022-09-21 23:23:30 GMT 50.916790 9.305191 10,975 96 317 0
2022-09-21 23:23:28 GMT 50.916962 9.302673 10,975 96 319 0
2022-09-21 23:23:27 GMT 50.917145 9.300149 10,975 96 320 0
2022-09-21 23:23:25 GMT 50.917488 9.295654 10,975 96 321 0
2022-09-21 23:23:24 GMT 50.917625 9.293365 10,975 96 323 0
2022-09-21 23:23:23 GMT 50.917969 9.288644 10,975 96 324 -64
2022-09-21 23:23:21 GMT 50.918095 9.286499 10,975 96 326 -64
2022-09-21 23:23:19 GMT 50.918610 9.278845 10,975 96 330 -64
2022-09-21 23:23:17 GMT 50.918793 9.276469 10,975 96 331 -64
2022-09-21 23:23:16 GMT 50.918976 9.273797 10,975 96 332 -64
2022-09-21 23:23:15 GMT 50.919250 9.269492 10,975 96 334 0
2022-09-21 23:23:12 GMT 50.919582 9.264145 10,975 95 336 -64
2022-09-21 23:23:11 GMT 50.919769 9.261627 10,975 95 338 -64
2022-09-21 23:23:10 GMT 50.919937 9.258728 10,975 95 339 -64
2022-09-21 23:23:08 GMT 50.920258 9.254274 10,975 95 341 -64
2022-09-21 23:23:07 GMT 50.920578 9.249004 10,975 95 345 -64
2022-09-21 23:23:04 GMT 50.920990 9.242991 10,975 95 347 0
2022-09-21 23:23:03 GMT 50.921257 9.238434 10,975 95 349 0
2022-09-21 23:23:01 GMT 50.921444 9.235916 10,975 95 350 64
2022-09-21 23:23:00 GMT 50.921585 9.233563 10,975 95 351 64
2022-09-21 23:22:58 GMT 50.921909 9.228439 10,975 95 354 64
2022-09-21 23:22:55 GMT 50.922329 9.221954 10,975 95 358 -64
2022-09-21 23:22:54 GMT 50.922501 9.219088 10,975 95 358 -64
2022-09-21 23:22:52 GMT 50.922867 9.213595 10,975 95 362 -64
2022-09-21 23:22:50 GMT 50.923351 9.205399 10,975 95 366 -64
2022-09-21 23:22:48 GMT 50.923492 9.202499 11,000 94 367 -64
2022-09-21 23:22:46 GMT 50.923965 9.192365 11,000 93 366 0
2022-09-21 23:22:43 GMT 50.924053 9.189911 11,000 92 366 0
2022-09-21 23:22:42 GMT 50.924149 9.184570 11,000 90 366 0
2022-09-21 23:22:40 GMT 50.924103 9.180265 11,000 87 365 0
2022-09-21 23:22:37 GMT 50.923820 9.173355 11,000 83 363 0
2022-09-21 23:22:36 GMT 50.923634 9.170761 11,000 83 363 0
2022-09-21 23:22:34 GMT 50.923141 9.165493 11,000 80 362 0
2022-09-21 23:22:33 GMT 50.922821 9.162895 11,000 77 362 0
2022-09-21 23:22:32 GMT 50.922226 9.158515 11,000 77 362 0
2022-09-21 23:22:31 GMT 50.921768 9.155991 11,000 74 360 0
2022-09-21 23:22:29 GMT 50.920532 9.149681 11,000 70 360 0
2022-09-21 23:22:26 GMT 50.919388 9.144782 11,000 65 358 0
2022-09-21 23:22:24 GMT 50.918186 9.140396 11,000 64 358 0
2022-09-21 23:22:23 GMT 50.917488 9.138031 11,000 62 357 0
2022-09-21 23:22:21 GMT 50.915859 9.133224 11,000 59 356 0
2022-09-21 23:22:19 GMT 50.914444 9.129416 11,000 58 356 0
2022-09-21 23:22:18 GMT 50.911606 9.122735 11,000 55 355 0
2022-09-21 23:22:16 GMT 50.911606 9.122735 11,000 52 355 0
2022-09-21 23:22:15 GMT 50.909042 9.117687 11,000 49 353 0
2022-09-21 23:22:13 GMT 50.906891 9.113827 11,000 46 353 0
2022-09-21 23:22:10 GMT 50.904922 9.110710 11,000 44 353 0
2022-09-21 23:22:09 GMT 50.903847 9.109116 11,000 41 353 0
2022-09-21 23:22:08 GMT 50.902176 9.106701 11,000 40 351 0
2022-09-21 23:22:06 GMT 50.899658 9.103435 11,000 37 352 0
2022-09-21 23:22:05 GMT 50.898468 9.102099 11,000 35 351 0
2022-09-21 23:22:04 GMT 50.897285 9.100723 11,000 34 351 0
2022-09-21 23:22:01 GMT 50.893047 9.096451 11,000 28 351 0
2022-09-21 23:22:00 GMT 50.888763 9.092894 11,000 26 351 0
2022-09-21 23:21:58 GMT 50.888763 9.092894 11,000 24 350 0
2022-09-21 23:21:57 GMT 50.887417 9.091873 11,000 23 351 0
2022-09-21 23:21:55 GMT 50.885193 9.090370 11,000 21 350 0
2022-09-21 23:21:54 GMT 50.882950 9.089034 11,000 19 350 0
2022-09-21 23:21:53 GMT 50.880943 9.087982 11,000 17 350 0
2022-09-21 23:21:51 GMT 50.878464 9.086807 11,000 14 349 0
2022-09-21 23:21:50 GMT 50.876266 9.085916 11,000 12 349 -64
2022-09-21 23:21:48 GMT 50.873730 9.085083 11,000 11 349 -64
2022-09-21 23:21:47 GMT 50.871689 9.084506 11,000 6 348 -64
2022-09-21 23:21:46 GMT 50.870235 9.084167 11,000 6 348 0
2022-09-21 23:21:44 GMT 50.867210 9.083633 11,000 4 349 0
2022-09-21 23:21:43 GMT 50.865582 9.083405 11,000 4 348 0
2022-09-21 23:21:42 GMT 50.861755 9.082947 11,000 3 348 0
2022-09-21 23:21:40 GMT 50.860107 9.082798 11,000 3 348 0
2022-09-21 23:21:39 GMT 50.859146 9.082724 11,000 3 348 0
2022-09-21 23:21:38 GMT 50.857544 9.082576 11,000 3 348 0
2022-09-21 23:21:36 GMT 50.853710 9.082260 11,000 3 348 0
2022-09-21 23:21:35 GMT 50.850632 9.081982 11,000 3 348 0
2022-09-21 23:21:33 GMT 50.848846 9.081833 11,000 3 348 0
2022-09-21 23:21:32 GMT 50.847427 9.081650 11,000 3 348 0
2022-09-21 23:21:30 GMT 50.844353 9.081421 11,000 3 348 0
2022-09-21 23:21:29 GMT 50.842724 9.081268 11,000 3 348 0
2022-09-21 23:21:27 GMT 50.839188 9.080943 11,000 3 348 0
2022-09-21 23:21:26 GMT 50.837585 9.080794 11,000 3 349 0
2022-09-21 23:21:24 GMT 50.834839 9.080571 11,000 3 349 0
2022-09-21 23:21:22 GMT 50.831635 9.080274 11,000 3 349 0
2022-09-21 23:21:21 GMT 50.829529 9.080126 11,000 3 349 0
2022-09-21 23:21:20 GMT 50.828106 9.079971 11,000 3 349 0
2022-09-21 23:21:19 GMT 50.826477 9.079819 11,000 3 349 0
2022-09-21 23:21:18 GMT 50.821655 9.079384 11,000 3 349 0
2022-09-21 23:21:16 GMT 50.820847 9.079361 11,000 3 349 0
2022-09-21 23:21:13 GMT 50.816986 9.079012 11,000 3 349 0
2022-09-21 23:21:10 GMT 50.812141 9.078598 11,000 3 349 0
2022-09-21 23:21:08 GMT 50.809582 9.078369 11,000 3 349 0
2022-09-21 23:21:07 GMT 50.807812 9.078217 11,000 3 349 0
2022-09-21 23:21:05 GMT 50.803902 9.077911 11,000 3 349 0
2022-09-21 23:21:04 GMT 50.802132 9.077759 11,000 3 349 0
2022-09-21 23:21:03 GMT 50.799244 9.077530 11,000 3 349 0
2022-09-21 23:21:01 GMT 50.797478 9.077377 11,000 3 349 0
2022-09-21 23:21:00 GMT 50.796173 9.077225 11,000 3 349 0
2022-09-21 23:20:58 GMT 50.792816 9.076934 11,000 3 349 0
2022-09-21 23:20:57 GMT 50.791031 9.076786 11,000 3 349 0
2022-09-21 23:20:56 GMT 50.786041 9.076340 11,000 3 349 0
2022-09-21 23:20:54 GMT 50.786041 9.076340 11,000 3 349 0
2022-09-21 23:20:52 GMT 50.783432 9.076117 11,000 3 349 0
2022-09-21 23:20:51 GMT 50.782013 9.076043 11,000 3 349 0
2022-09-21 23:20:49 GMT 50.778297 9.075699 11,000 3 349 0
2022-09-21 23:20:48 GMT 50.776527 9.075546 11,000 3 349 0
2022-09-21 23:20:47 GMT 50.772011 9.075165 11,000 3 349 0
2022-09-21 23:20:45 GMT 50.772011 9.075165 11,000 3 349 0
2022-09-21 23:20:43 GMT 50.769104 9.074930 11,000 3 349 0
2022-09-21 23:20:42 GMT 50.767635 9.074783 11,000 3 349 0
2022-09-21 23:20:40 GMT 50.764069 9.074484 11,000 3 349 0
2022-09-21 23:20:39 GMT 50.762466 9.074336 11,000 3 349 0
2022-09-21 23:20:38 GMT 50.758759 9.074039 11,000 3 349 0
2022-09-21 23:20:36 GMT 50.757477 9.073890 11,000 3 349 0
2022-09-21 23:20:35 GMT 50.755692 9.073742 11,000 3 349 0
2022-09-21 23:20:33 GMT 50.752441 9.073519 11,000 3 349 0
2022-09-21 23:20:32 GMT 50.751160 9.073371 11,000 3 350 0
2022-09-21 23:20:30 GMT 50.747620 9.073105 11,000 3 350 0
2022-09-21 23:20:29 GMT 50.745987 9.073000 11,000 3 350 0
2022-09-21 23:20:28 GMT 50.744545 9.072876 11,000 3 350 0
2022-09-21 23:20:27 GMT 50.741150 9.072571 11,000 3 350 0
2022-09-21 23:20:25 GMT 50.739395 9.072406 11,000 3 350 0
2022-09-21 23:20:24 GMT 50.736305 9.072113 11,000 3 350 0
2022-09-21 23:20:22 GMT 50.734535 9.071960 11,000 3 350 0
2022-09-21 23:20:21 GMT 50.732906 9.071808 11,000 3 350 0
2022-09-21 23:20:20 GMT 50.729511 9.071579 11,000 3 350 0
2022-09-21 23:20:18 GMT 50.727879 9.071426 11,000 3 350 0
2022-09-21 23:20:17 GMT 50.726440 9.071292 11,000 3 350 0
2022-09-21 23:20:15 GMT 50.723225 9.070969 11,000 3 350 0
2022-09-21 23:20:13 GMT 50.720291 9.070740 11,000 3 350 0
2022-09-21 23:20:12 GMT 50.718521 9.070587 11,000 3 350 0
2022-09-21 23:20:10 GMT 50.715591 9.070358 11,000 3 350 0
2022-09-21 23:20:08 GMT 50.711540 9.069977 11,000 3 350 0
2022-09-21 23:20:07 GMT 50.709137 9.069808 11,000 3 350 0
2022-09-21 23:20:05 GMT 50.707352 9.069659 11,000 3 350 0
2022-09-21 23:20:04 GMT 50.705910 9.069519 11,000 3 350 0
2022-09-21 23:20:03 GMT 50.704102 9.069362 11,000 3 350 0
2022-09-21 23:20:00 GMT 50.699066 9.068917 11,000 3 351 0
2022-09-21 23:19:58 GMT 50.695854 9.068604 11,000 3 351 0
2022-09-21 23:19:57 GMT 50.694397 9.068472 11,000 3 351 0
2022-09-21 23:19:56 GMT 50.692780 9.068375 11,000 3 351 0
2022-09-21 23:19:54 GMT 50.689362 9.068100 11,000 3 351 0
2022-09-21 23:19:52 GMT 50.685799 9.067764 11,000 3 351 0
2022-09-21 23:19:50 GMT 50.683182 9.067507 11,000 3 351 0
2022-09-21 23:19:48 GMT 50.679977 9.067230 11,000 3 351 0
2022-09-21 23:19:46 GMT 50.677696 9.067078 11,000 3 351 0
2022-09-21 23:19:44 GMT 50.673649 9.066696 11,000 3 351 0
2022-09-21 23:19:43 GMT 50.672016 9.066544 11,000 3 351 0
2022-09-21 23:19:42 GMT 50.668762 9.066323 11,000 3 350 0
2022-09-21 23:19:40 GMT 50.666664 9.066096 11,000 2 350 0
2022-09-21 23:19:38 GMT 50.663452 9.065817 11,000 2 350 0
2022-09-21 23:19:36 GMT 50.660984 9.065651 11,000 2 350 0
2022-09-21 23:19:34 GMT 50.656330 9.065280 11,000 2 350 0
2022-09-21 23:19:32 GMT 50.654701 9.065131 11,000 2 349 0
2022-09-21 23:19:31 GMT 50.652740 9.064949 11,000 2 349 0
2022-09-21 23:19:30 GMT 50.648712 9.064588 11,000 2 349 0
2022-09-21 23:19:29 GMT 50.648712 9.064588 11,000 2 349 0
2022-09-21 23:19:27 GMT 50.646599 9.064463 11,000 2 349 0
2022-09-21 23:19:26 GMT 50.645187 9.064299 11,000 2 349 0
2022-09-21 23:19:25 GMT 50.641945 9.064092 11,000 2 349 0
2022-09-21 23:19:23 GMT 50.640152 9.063938 11,000 2 349 0
2022-09-21 23:19:21 GMT 50.636639 9.063646 11,000 2 348 0
2022-09-21 23:19:19 GMT 50.632587 9.063275 11,000 2 348 0
2022-09-21 23:19:17 GMT 50.629532 9.063070 11,000 2 348 0
2022-09-21 23:19:15 GMT 50.626831 9.062853 11,000 2 348 0
2022-09-21 23:19:14 GMT 50.622952 9.062533 11,000 2 348 0
2022-09-21 23:19:11 GMT 50.621201 9.062347 11,000 2 348 0
2022-09-21 23:19:10 GMT 50.617645 9.062088 11,000 2 347 0
2022-09-21 23:19:08 GMT 50.615570 9.061914 11,000 2 347 0
2022-09-21 23:19:05 GMT 50.610580 9.061480 11,000 2 348 0
2022-09-21 23:19:03 GMT 50.607239 9.061263 11,000 2 348 0
2022-09-21 23:19:01 GMT 50.604797 9.061048 11,000 2 348 0
2022-09-21 23:19:00 GMT 50.601444 9.060751 11,000 2 348 0
2022-09-21 23:18:58 GMT 50.599815 9.060677 11,000 2 348 0
2022-09-21 23:18:56 GMT 50.596462 9.060380 11,000 2 348 0
2022-09-21 23:18:55 GMT 50.595016 9.060251 11,000 2 348 0
2022-09-21 23:18:54 GMT 50.591156 9.059935 11,000 2 348 0
2022-09-21 23:18:52 GMT 50.589706 9.059890 11,000 2 348 0
2022-09-21 23:18:51 GMT 50.588104 9.059745 11,000 2 348 0
2022-09-21 23:18:49 GMT 50.585037 9.059529 11,000 2 348 0
2022-09-21 23:18:48 GMT 50.583435 9.059384 11,000 2 348 0
2022-09-21 23:18:46 GMT 50.580215 9.059118 11,000 2 348 0
2022-09-21 23:18:45 GMT 50.578632 9.058970 11,000 2 348 0
2022-09-21 23:18:42 GMT 50.573776 9.058589 11,000 2 348 0
2022-09-21 23:18:41 GMT 50.569603 9.058302 11,000 2 348 0
2022-09-21 23:18:38 GMT 50.566544 9.058083 11,000 2 349 0
2022-09-21 23:18:37 GMT 50.563797 9.057866 11,000 2 349 0
2022-09-21 23:18:35 GMT 50.562195 9.057722 11,000 2 349 0
2022-09-21 23:18:33 GMT 50.558945 9.057505 11,000 2 349 0
2022-09-21 23:18:32 GMT 50.557362 9.057337 11,000 2 349 0
2022-09-21 23:18:30 GMT 50.554276 9.057143 11,000 2 349 0
2022-09-21 23:18:29 GMT 50.551208 9.056854 11,000 2 349 0
2022-09-21 23:18:27 GMT 50.549770 9.056743 11,000 2 349 0
2022-09-21 23:18:26 GMT 50.546371 9.056520 11,000 2 349 64
2022-09-21 23:18:24 GMT 50.544937 9.056421 11,000 2 350 64
2022-09-21 23:18:23 GMT 50.543488 9.056298 11,000 2 350 64
2022-09-21 23:18:22 GMT 50.539581 9.055987 11,000 2 350 64
2022-09-21 23:18:20 GMT 50.536366 9.055778 11,000 2 350 64
2022-09-21 23:18:18 GMT 50.534737 9.055629 11,000 2 350 64
2022-09-21 23:18:17 GMT 50.533310 9.055481 11,000 2 350 64
2022-09-21 23:18:16 GMT 50.530197 9.055264 11,000 2 350 0
2022-09-21 23:18:14 GMT 50.528778 9.055184 11,000 2 350 0
2022-09-21 23:18:13 GMT 50.527313 9.055047 11,000 2 351 0
2022-09-21 23:18:11 GMT 50.523098 9.054739 11,000 2 351 0
2022-09-21 23:18:10 GMT 50.521469 9.054590 11,000 2 351 0
2022-09-21 23:18:09 GMT 50.519989 9.054469 11,000 2 351 0
2022-09-21 23:18:08 GMT 50.517242 9.054252 11,000 2 351 -64
2022-09-21 23:18:06 GMT 50.515789 9.054145 11,000 2 351 -128
2022-09-21 23:18:04 GMT 50.512390 9.053922 11,000 2 352 -192
2022-09-21 23:18:03 GMT 50.510761 9.053774 11,000 2 352 -384
2022-09-21 23:18:01 GMT 50.507492 9.053529 11,025 2 352 -512
2022-09-21 23:18:00 GMT 50.505890 9.053385 11,025 2 352 -640
2022-09-21 23:17:59 GMT 50.504242 9.053313 11,050 2 353 -832
2022-09-21 23:17:58 GMT 50.502457 9.053168 11,050 2 353 -896
2022-09-21 23:17:55 GMT 50.497421 9.052807 11,125 2 353 -1216
2022-09-21 23:17:53 GMT 50.494446 9.052590 11,150 2 353 -1472
2022-09-21 23:17:52 GMT 50.492844 9.052445 11,175 2 353 -1600
2022-09-21 23:17:51 GMT 50.488930 9.052215 11,250 2 353 -1792
2022-09-21 23:17:49 GMT 50.487442 9.052084 11,275 2 353 -1920
2022-09-21 23:17:48 GMT 50.484009 9.051867 11,350 2 353 -2240
2022-09-21 23:17:46 GMT 50.482361 9.051795 11,400 2 353 -2432
2022-09-21 23:17:45 GMT 50.479431 9.051621 11,475 2 353 -2624
2022-09-21 23:17:43 GMT 50.477966 9.051506 11,500 1 353 -2688
2022-09-21 23:17:42 GMT 50.474533 9.051361 11,600 1 353 -2624
2022-09-21 23:17:40 GMT 50.473099 9.051250 11,625 1 353 -2624
2022-09-21 23:17:39 GMT 50.470963 9.051144 11,700 1 353 -2624
2022-09-21 23:17:37 GMT 50.468170 9.051000 11,775 1 353 -2560
2022-09-21 23:17:34 GMT 50.462952 9.050730 11,900 1 353 -2624
2022-09-21 23:17:33 GMT 50.459885 9.050566 12,000 1 353 -2688
2022-09-21 23:17:30 GMT 50.456451 9.050349 12,050 1 353 -2688
2022-09-21 23:17:29 GMT 50.454990 9.050285 12,125 1 353 -2752
2022-09-21 23:17:28 GMT 50.453339 9.050205 12,175 1 353 -2752
2022-09-21 23:17:27 GMT 50.451874 9.050136 12,200 1 353 -2752
2022-09-21 23:17:25 GMT 50.447983 9.049916 12,325 1 353 -2688
2022-09-21 23:17:24 GMT 50.446518 9.049839 12,350 1 353 -2688
2022-09-21 23:17:23 GMT 50.443405 9.049699 12,450 1 353 -2560
2022-09-21 23:17:20 GMT 50.438507 9.049410 12,575 1 353 -2304
2022-09-21 23:17:18 GMT 50.437023 9.049320 12,600 1 353 -2304
2022-09-21 23:17:17 GMT 50.435394 9.049245 12,650 1 354 -2176
2022-09-21 23:17:15 GMT 50.431503 9.049048 12,725 1 354 -2112
2022-09-21 23:17:14 GMT 50.429855 9.048976 12,750 1 355 -2176
2022-09-21 23:17:13 GMT 50.425571 9.048726 12,850 2 355 -2304
2022-09-21 23:17:11 GMT 50.425571 9.048726 12,850 2 355 -2368
2022-09-21 23:17:09 GMT 50.422314 9.048503 12,950 2 355 -2560
2022-09-21 23:17:08 GMT 50.420498 9.048429 13,000 2 355 -2624
2022-09-21 23:17:06 GMT 50.417358 9.048253 13,075 2 355 -2624
2022-09-21 23:17:05 GMT 50.415573 9.048109 13,125 2 355 -2560
2022-09-21 23:17:03 GMT 50.412598 9.047964 13,150 2 356 -2496
2022-09-21 23:17:02 GMT 50.410812 9.047892 13,250 2 356 -2432
2022-09-21 23:17:01 GMT 50.409164 9.047747 13,275 2 356 -2432
2022-09-21 23:16:59 GMT 50.406017 9.047612 13,425 2 356 -2368
2022-09-21 23:16:57 GMT 50.401272 9.047315 13,475 2 357 -2432
2022-09-21 23:16:55 GMT 50.399277 9.047169 13,525 2 357 -2432
2022-09-21 23:16:54 GMT 50.397629 9.047097 13,550 2 357 -2432
2022-09-21 23:16:53 GMT 50.392658 9.046796 13,650 2 358 -2432
2022-09-21 23:16:51 GMT 50.392658 9.046796 13,725 2 358 -2432
2022-09-21 23:16:49 GMT 50.389355 9.046573 13,800 2 358 -2432
2022-09-21 23:16:48 GMT 50.387741 9.046518 13,850 2 358 -2432
2022-09-21 23:16:47 GMT 50.382416 9.046202 13,875 2 358 -2432
2022-09-21 23:16:45 GMT 50.382416 9.046202 13,925 2 359 -2432
2022-09-21 23:16:44 GMT 50.379272 9.046012 13,975 2 359 -2368
2022-09-21 23:16:42 GMT 50.377625 9.045940 14,075 2 359 -2368
2022-09-21 23:16:41 GMT 50.373459 9.045651 14,150 2 360 -2368
2022-09-21 23:16:39 GMT 50.373459 9.045651 14,150 2 360 -2368
2022-09-21 23:16:38 GMT 50.369801 9.045385 14,225 2 360 -2368
2022-09-21 23:16:36 GMT 50.368450 9.045311 14,275 2 360 -2368
2022-09-21 23:16:35 GMT 50.364807 9.045073 14,375 2 361 -2432
2022-09-21 23:16:33 GMT 50.363159 9.045001 14,400 2 361 -2432
2022-09-21 23:16:32 GMT 50.361652 9.044866 14,475 2 361 -2432
2022-09-21 23:16:30 GMT 50.357620 9.044639 14,550 2 361 -2432
2022-09-21 23:16:29 GMT 50.356113 9.044569 14,575 2 362 -2432
2022-09-21 23:16:28 GMT 50.354485 9.044420 14,625 2 362 -2496
2022-09-21 23:16:26 GMT 50.350948 9.044272 14,700 2 362 -2496
2022-09-21 23:16:25 GMT 50.349426 9.044133 14,750 2 362 -2496
2022-09-21 23:16:22 GMT 50.344429 9.043901 14,875 2 363 -2560
2022-09-21 23:16:21 GMT 50.341049 9.043700 14,925 2 363 -2560
2022-09-21 23:16:19 GMT 50.339401 9.043555 15,000 2 363 -2560
2022-09-21 23:16:18 GMT 50.337708 9.043483 15,050 2 363 -2560
2022-09-21 23:16:17 GMT 50.333542 9.043266 15,100 2 363 -2560
2022-09-21 23:16:14 GMT 50.330837 9.043084 15,225 2 364 -2496
2022-09-21 23:16:12 GMT 50.327316 9.042905 15,300 2 364 -2432
2022-09-21 23:16:11 GMT 50.325623 9.042760 15,375 2 365 -2368
2022-09-21 23:16:09 GMT 50.322784 9.042615 15,400 2 365 -2368
2022-09-21 23:16:07 GMT 50.317383 9.042268 15,525 2 365 -2304
2022-09-21 23:16:05 GMT 50.315826 9.042182 15,550 2 366 -2368
2022-09-21 23:16:04 GMT 50.313797 9.042045 15,600 2 366 -2432
2022-09-21 23:16:01 GMT 50.308731 9.041748 15,700 2 366 -2496
2022-09-21 23:16:00 GMT 50.307037 9.041676 15,775 2 366 -2624
2022-09-21 23:15:59 GMT 50.305344 9.041603 15,825 2 367 -2688
2022-09-21 23:15:58 GMT 50.302460 9.041387 15,900 2 367 -2688
2022-09-21 23:15:56 GMT 50.300766 9.041314 15,950 2 367 -2688
2022-09-21 23:15:55 GMT 50.298901 9.041228 15,975 2 367 -2688
2022-09-21 23:15:53 GMT 50.295689 9.041080 16,075 1 367 -2688
2022-09-21 23:15:52 GMT 50.294014 9.040931 16,125 1 367 -2688
2022-09-21 23:15:50 GMT 50.290283 9.040736 16,225 1 367 -2624
2022-09-21 23:15:49 GMT 50.288589 9.040664 16,250 1 368 -2624
2022-09-21 23:15:48 GMT 50.285168 9.040486 16,350 1 368 -2560
2022-09-21 23:15:45 GMT 50.281631 9.040375 16,450 1 368 -2624
2022-09-21 23:15:43 GMT 50.278233 9.040189 16,525 1 368 -2624
2022-09-21 23:15:42 GMT 50.276508 9.040115 16,575 1 368 -2688
2022-09-21 23:15:41 GMT 50.272751 9.039941 16,675 1 368 -2752
2022-09-21 23:15:38 GMT 50.267853 9.039724 16,800 1 368 -2880
2022-09-21 23:15:35 GMT 50.263058 9.039521 16,875 1 368 -2880
2022-09-21 23:15:33 GMT 50.261379 9.039447 16,975 1 368 -2880
2022-09-21 23:15:32 GMT 50.259659 9.039373 17,025 1 368 -2816
2022-09-21 23:15:30 GMT 50.256771 9.039224 17,075 1 368 -2752
2022-09-21 23:15:29 GMT 50.255051 9.039150 17,150 1 368 -2688
2022-09-21 23:15:28 GMT 50.253185 9.039076 17,250 1 369 -2688
2022-09-21 23:15:26 GMT 50.249790 9.039001 17,325 1 369 -2624
2022-09-21 23:15:25 GMT 50.247929 9.038927 17,350 1 369 -2560
2022-09-21 23:15:24 GMT 50.246204 9.038853 17,375 1 369 -2496
2022-09-21 23:15:23 GMT 50.242294 9.038705 17,450 1 369 -2432
2022-09-21 23:15:21 GMT 50.240387 9.038568 17,525 1 370 -2368
2022-09-21 23:15:19 GMT 50.237823 9.038496 17,575 1 370 -2368
2022-09-21 23:15:18 GMT 50.235962 9.038408 17,700 1 370 -2304
2022-09-21 23:15:16 GMT 50.232704 9.038259 17,700 1 371 -2240
2022-09-21 23:15:15 GMT 50.231354 9.038259 17,775 1 371 -2240
2022-09-21 23:15:14 GMT 50.229633 9.038185 17,775 1 372 -2240
2022-09-21 23:15:11 GMT 50.224651 9.037962 17,875 1 372 -2240
2022-09-21 23:15:10 GMT 50.222927 9.037888 17,900 1 373 -2240
2022-09-21 23:15:09 GMT 50.220154 9.037773 17,950 1 373 -2240
2022-09-21 23:15:07 GMT 50.218094 9.037628 18,025 1 374 -2304
2022-09-21 23:15:06 GMT 50.215340 9.037517 18,075 1 374 -2304
2022-09-21 23:15:05 GMT 50.213619 9.037368 18,125 1 374 -2432
2022-09-21 23:15:04 GMT 50.208218 9.037146 18,225 1 375 -2560
2022-09-21 23:15:02 GMT 50.208218 9.037146 18,250 1 375 -2560
2022-09-21 23:15:00 GMT 50.204960 9.036923 18,325 1 375 -2624
2022-09-21 23:14:58 GMT 50.201141 9.036700 18,425 1 375 -2624
2022-09-21 23:14:56 GMT 50.197838 9.036552 18,500 1 376 -2624
2022-09-21 23:14:55 GMT 50.196114 9.036478 18,550 1 376 -2560
2022-09-21 23:14:54 GMT 50.192436 9.036329 18,650 1 376 -2496
2022-09-21 23:14:52 GMT 50.190903 9.036255 18,675 1 376 -2432
2022-09-21 23:14:50 GMT 50.187408 9.036032 18,750 1 377 -2304
2022-09-21 23:14:49 GMT 50.185867 9.035966 18,800 1 378 -2240
2022-09-21 23:14:48 GMT 50.184105 9.035958 18,825 1 378 -2176
2022-09-21 23:14:45 GMT 50.178680 9.035677 18,950 1 379 -2176
2022-09-21 23:14:43 GMT 50.175167 9.035513 19,025 1 379 -2304
2022-09-21 23:14:42 GMT 50.173443 9.035438 19,050 1 380 -2368
2022-09-21 23:14:40 GMT 50.169937 9.035315 19,125 1 380 -2560
2022-09-21 23:14:39 GMT 50.168152 9.035171 19,175 1 380 -2624
2022-09-21 23:14:36 GMT 50.162704 9.034954 19,300 1 381 -2496
2022-09-21 23:14:34 GMT 50.159386 9.034770 19,400 1 381 -2368
2022-09-21 23:14:33 GMT 50.157257 9.034665 19,425 1 382 -2112
2022-09-21 23:14:31 GMT 50.153549 9.034448 19,475 2 383 -1792
2022-09-21 23:14:29 GMT 50.150028 9.034251 19,550 2 385 -1472
2022-09-21 23:14:27 GMT 50.146816 9.034028 19,600 2 386 -1472
2022-09-21 23:14:26 GMT 50.145046 9.033954 19,625 2 387 -1600
2022-09-21 23:14:25 GMT 50.143250 9.033870 19,650 2 388 -1984
2022-09-21 23:14:23 GMT 50.139679 9.033581 19,725 2 388 -2176
2022-09-21 23:14:21 GMT 50.136806 9.033360 19,775 2 388 -2368
2022-09-21 23:14:20 GMT 50.134293 9.033211 19,850 2 389 -2496
2022-09-21 23:14:19 GMT 50.132477 9.033063 19,875 2 389 -2560
2022-09-21 23:14:17 GMT 50.129078 9.032766 19,975 3 389 -2560
2022-09-21 23:14:16 GMT 50.127090 9.032641 20,025 3 389 -2560
2022-09-21 23:14:15 GMT 50.124023 9.032424 20,075 3 389 -2560
2022-09-21 23:14:13 GMT 50.121723 9.032172 20,150 3 390 -2560
2022-09-21 23:14:12 GMT 50.117905 9.031875 20,225 3 390 -2560
2022-09-21 23:14:10 GMT 50.116138 9.031727 20,275 3 390 -2560
2022-09-21 23:14:09 GMT 50.114502 9.031557 20,300 3 390 -2496
2022-09-21 23:14:08 GMT 50.112717 9.031412 20,350 3 391 -2496
2022-09-21 23:14:07 GMT 50.108917 9.031051 20,425 3 391 -2496
2022-09-21 23:14:05 GMT 50.107086 9.030906 20,475 3 391 -2496
2022-09-21 23:14:04 GMT 50.103104 9.030613 20,575 3 392 -2496
2022-09-21 23:14:01 GMT 50.100403 9.030328 20,625 3 392 -2496
2022-09-21 23:13:59 GMT 50.096027 9.029945 20,725 3 393 -2496
2022-09-21 23:13:58 GMT 50.094212 9.029797 20,775 3 393 -2496
2022-09-21 23:13:56 GMT 50.091339 9.029533 20,875 3 394 -2496
2022-09-21 23:13:55 GMT 50.089508 9.029388 20,875 3 394 -2496
2022-09-21 23:13:53 GMT 50.083317 9.028906 21,025 3 395 -2496
2022-09-21 23:13:50 GMT 50.080399 9.028666 21,125 3 395 -2496
2022-09-21 23:13:49 GMT 50.078568 9.028521 21,125 3 395 -2496
2022-09-21 23:13:47 GMT 50.073078 9.028015 21,225 3 396 -2560
2022-09-21 23:13:46 GMT 50.073078 9.028015 21,250 3 396 -2560
2022-09-21 23:13:45 GMT 50.071262 9.027867 21,350 3 396 -2560
2022-09-21 23:13:43 GMT 50.067215 9.027581 21,450 3 397 -2624
2022-09-21 23:13:42 GMT 50.065384 9.027437 21,475 3 397 -2624
2022-09-21 23:13:41 GMT 50.063580 9.027273 21,475 3 397 -2624
2022-09-21 23:13:39 GMT 50.059902 9.026976 21,575 3 398 -2624
2022-09-21 23:13:38 GMT 50.058243 9.026786 21,625 3 398 -2624
2022-09-21 23:13:36 GMT 50.054222 9.026456 21,750 3 398 -2560
2022-09-21 23:13:35 GMT 50.050507 9.026136 21,800 3 399 -2496
2022-09-21 23:13:33 GMT 50.049042 9.026064 21,825 3 399 -2496
2022-09-21 23:13:32 GMT 50.047379 9.025862 21,875 3 399 -2496
2022-09-21 23:13:30 GMT 50.043144 9.025491 21,950 3 400 -2496
2022-09-21 23:13:29 GMT 50.040939 9.025341 22,000 3 400 -2496
2022-09-21 23:13:27 GMT 50.038696 9.025124 22,050 3 400 -2496
2022-09-21 23:13:26 GMT 50.035583 9.024835 22,125 3 401 -2560
2022-09-21 23:13:24 GMT 50.028534 9.024257 22,275 3 401 -2624
2022-09-21 23:13:22 GMT 50.028534 9.024257 22,325 3 401 -2624
2022-09-21 23:13:21 GMT 50.026474 9.024112 22,375 3 402 -2688
2022-09-21 23:13:20 GMT 50.022583 9.023751 22,500 3 403 -2624
2022-09-21 23:13:17 GMT 50.019821 9.023487 22,500 3 403 -2624
2022-09-21 23:13:16 GMT 50.015537 9.023116 22,575 3 403 -2624
2022-09-21 23:13:15 GMT 50.015537 9.023116 22,600 3 403 -2560
2022-09-21 23:13:13 GMT 50.011440 9.022745 22,700 3 404 -2496
2022-09-21 23:13:11 GMT 50.008648 9.022522 22,725 3 404 -2496
2022-09-21 23:13:10 GMT 50.006786 9.022374 22,800 3 405 -2432
2022-09-21 23:13:09 GMT 50.004730 9.022161 22,875 3 405 -2432
2022-09-21 23:13:07 GMT 50.001339 9.021854 22,925 3 405 -2432
2022-09-21 23:13:06 GMT 49.999649 9.021727 22,950 3 406 -2432
2022-09-21 23:13:04 GMT 49.995712 9.021438 23,125 3 407 -2496
2022-09-21 23:13:02 GMT 49.989700 9.020889 23,175 3 407 -2496
2022-09-21 23:13:00 GMT 49.988022 9.020715 23,225 3 408 -2496
2022-09-21 23:12:59 GMT 49.986145 9.020570 23,250 3 408 -2560
2022-09-21 23:12:58 GMT 49.980484 9.020147 23,375 3 409 -2560
2022-09-21 23:12:56 GMT 49.976898 9.019775 23,425 3 409 -2560
2022-09-21 23:12:54 GMT 49.976898 9.019775 23,475 3 410 -2560
2022-09-21 23:12:52 GMT 49.973282 9.019486 23,550 3 410 -2560
2022-09-21 23:12:51 GMT 49.971222 9.019342 23,600 3 410 -2496
2022-09-21 23:12:50 GMT 49.969498 9.019182 23,625 3 410 -2496
2022-09-21 23:12:48 GMT 49.965542 9.018810 23,725 3 411 -2432
2022-09-21 23:12:47 GMT 49.963631 9.018662 23,750 3 412 -2368
2022-09-21 23:12:45 GMT 49.959255 9.018291 23,850 3 412 -2368
2022-09-21 23:12:44 GMT 49.957348 9.018142 23,875 3 413 -2304
2022-09-21 23:12:43 GMT 49.955612 9.017968 23,925 3 413 -2304
2022-09-21 23:12:41 GMT 49.951996 9.017607 24,000 3 414 -2368
2022-09-21 23:12:40 GMT 49.949898 9.017474 24,050 3 414 -2368
2022-09-21 23:12:39 GMT 49.946091 9.017101 24,125 3 415 -2432
2022-09-21 23:12:37 GMT 49.943989 9.016880 24,175 3 415 -2496
2022-09-21 23:12:36 GMT 49.939362 9.016451 24,275 3 416 -2624
2022-09-21 23:12:33 GMT 49.937256 9.016234 24,325 3 416 -2816
2022-09-21 23:12:32 GMT 49.934555 9.016017 24,375 3 416 -2880
2022-09-21 23:12:31 GMT 49.932632 9.015800 24,450 3 416 -3008
2022-09-21 23:12:30 GMT 49.930721 9.015618 24,475 3 416 -3072
2022-09-21 23:12:29 GMT 49.926857 9.015247 24,600 3 416 -3072
2022-09-21 23:12:27 GMT 49.925125 9.015077 24,625 3 417 -2944
2022-09-21 23:12:25 GMT 49.921268 9.014728 24,725 3 417 -2688
2022-09-21 23:12:24 GMT 49.919540 9.014571 24,775 3 418 -2496
2022-09-21 23:12:22 GMT 49.915466 9.014210 24,850 3 419 -1984
2022-09-21 23:12:21 GMT 49.913544 9.014065 24,875 3 420 -1728
2022-09-21 23:12:19 GMT 49.909679 9.013688 24,925 3 421 -1280
2022-09-21 23:12:17 GMT 49.904789 9.013243 24,950 3 422 -1216
2022-09-21 23:12:16 GMT 49.903255 9.013095 24,975 3 425 -1152
2022-09-21 23:12:15 GMT 49.901253 9.012946 25,000 3 425 -1152
2022-09-21 23:12:13 GMT 49.897530 9.012575 25,025 3 427 -1152
2022-09-21 23:12:12 GMT 49.895370 9.012403 25,050 3 428 -1216
2022-09-21 23:12:11 GMT 49.891983 9.012114 25,100 3 430 -1280
2022-09-21 23:12:09 GMT 49.890015 9.011897 25,125 3 431 -1408
2022-09-21 23:12:08 GMT 49.888000 9.011752 25,150 3 432 -1472
2022-09-21 23:12:06 GMT 49.884247 9.011391 25,200 3 434 -1728
2022-09-21 23:12:05 GMT 49.882027 9.011164 25,225 3 434 -1920
2022-09-21 23:12:04 GMT 49.878021 9.010813 25,300 3 435 -2304
2022-09-21 23:12:02 GMT 49.876205 9.010645 25,325 3 436 -2624
2022-09-21 23:12:01 GMT 49.874207 9.010496 25,375 3 436 -2880
2022-09-21 23:11:59 GMT 49.869179 9.009977 25,450 3 436 -3200
2022-09-21 23:11:58 GMT 49.868134 9.009873 25,550 3 436 -3840
2022-09-21 23:11:57 GMT 49.865936 9.009729 25,625 3 435 -4096
2022-09-21 23:11:55 GMT 49.861908 9.009295 25,775 3 435 -4352
2022-09-21 23:11:54 GMT 49.859894 9.009150 25,850 3 434 -4480
2022-09-21 23:11:52 GMT 49.855911 9.008789 25,975 3 434 -4480
2022-09-21 23:11:51 GMT 49.853489 9.008566 26,075 3 434 -4480
2022-09-21 23:11:50 GMT 49.851517 9.008355 26,150 3 433 -4480
2022-09-21 23:11:49 GMT 49.846088 9.007898 26,325 3 433 -4480
2022-09-21 23:11:46 GMT 49.843899 9.007676 26,425 3 432 -4480
2022-09-21 23:11:45 GMT 49.841309 9.007488 26,700 3 431 -4544
2022-09-21 23:11:43 GMT 49.837921 9.007127 26,700 3 431 -4544
2022-09-21 23:11:41 GMT 49.831741 9.006621 26,875 3 430 -4544
2022-09-21 23:11:39 GMT 49.829563 9.006414 26,975 3 429 -4480
2022-09-21 23:11:38 GMT 49.825790 9.006115 27,125 3 429 -4480
2022-09-21 23:11:36 GMT 49.824051 9.005970 27,175 3 428 -4416
2022-09-21 23:11:34 GMT 49.820068 9.005609 27,375 3 427 -4352
2022-09-21 23:11:33 GMT 49.818111 9.005449 27,450 3 427 -4352
2022-09-21 23:11:32 GMT 49.813782 9.005077 27,575 3 426 -4288
2022-09-21 23:11:30 GMT 49.812012 9.004929 27,675 3 426 -4288
2022-09-21 23:11:29 GMT 49.808056 9.004632 27,775 3 425 -4224
2022-09-21 23:11:27 GMT 49.806290 9.004452 27,825 3 425 -4224
2022-09-21 23:11:26 GMT 49.802376 9.004112 28,000 3 424 -4160
2022-09-21 23:11:24 GMT 49.800613 9.004019 28,075 2 424 -4096
2022-09-21 23:11:22 GMT 49.796276 9.003667 28,225 2 424 -3968
2022-09-21 23:11:20 GMT 49.792374 9.003440 28,300 2 424 -3904
2022-09-21 23:11:19 GMT 49.790405 9.003368 28,375 1 424 -3968
2022-09-21 23:11:18 GMT 49.788643 9.003296 28,475 0 423 -3968
2022-09-21 23:11:15 GMT 49.780262 9.003593 28,675 357 421 -4032
2022-09-21 23:11:13 GMT 49.778320 9.003802 28,800 354 421 -3968
2022-09-21 23:11:11 GMT 49.774246 9.004452 28,900 353 421 -3904
2022-09-21 23:11:10 GMT 49.772533 9.004781 28,975 351 420 -3776
2022-09-21 23:11:09 GMT 49.768707 9.005753 29,100 350 420 -3712
2022-09-21 23:11:07 GMT 49.766994 9.006339 29,175 348 421 -3712
2022-09-21 23:11:06 GMT 49.765087 9.006933 29,225 347 420 -3712
2022-09-21 23:11:03 GMT 49.759640 9.009160 29,400 344 420 -3712
2022-09-21 23:11:02 GMT 49.757034 9.010379 29,475 342 420 -3648
2022-09-21 23:11:01 GMT 49.753372 9.012331 29,625 340 420 -3648
2022-09-21 23:10:59 GMT 49.752319 9.012981 29,650 339 420 -3648
2022-09-21 23:10:57 GMT 49.747833 9.015872 29,800 336 421 -3648
2022-09-21 23:10:56 GMT 49.746235 9.017029 29,850 334 420 -3648
2022-09-21 23:10:55 GMT 49.742752 9.019703 29,975 333 420 -3648
2022-09-21 23:10:53 GMT 49.741425 9.020860 30,025 331 421 -3648
2022-09-21 23:10:51 GMT 49.738541 9.023389 30,175 329 421 -3648
2022-09-21 23:10:50 GMT 49.737064 9.024823 30,250 328 422 -3648
2022-09-21 23:10:49 GMT 49.733963 9.027943 30,300 325 422 -3648
2022-09-21 23:10:46 GMT 49.728287 9.034376 30,475 320 423 -3584
2022-09-21 23:10:43 GMT 49.726181 9.037122 30,650 318 424 -3584
2022-09-21 23:10:41 GMT 49.723282 9.041080 30,700 318 424 -3584
2022-09-21 23:10:40 GMT 49.721840 9.043158 30,825 316 424 -3648
2022-09-21 23:10:38 GMT 49.718811 9.047892 30,950 312 425 -3648
2022-09-21 23:10:37 GMT 49.717484 9.050132 31,025 312 425 -3648
2022-09-21 23:10:35 GMT 49.714783 9.054975 31,075 308 427 -3584
2022-09-21 23:10:34 GMT 49.713413 9.057559 31,150 308 427 -3584
2022-09-21 23:10:33 GMT 49.711075 9.062420 31,275 306 428 -3584
2022-09-21 23:10:31 GMT 49.709930 9.064949 31,325 305 428 -3584
2022-09-21 23:10:30 GMT 49.708786 9.067479 31,375 304 429 -3584
2022-09-21 23:10:28 GMT 49.706665 9.072629 31,500 301 430 -3456
2022-09-21 23:10:27 GMT 49.705872 9.074707 31,550 300 430 -3392
2022-09-21 23:10:26 GMT 49.703934 9.080056 31,650 298 432 -3136
2022-09-21 23:10:24 GMT 49.703018 9.082802 31,700 297 432 -2880
2022-09-21 23:10:23 GMT 49.702103 9.085549 31,775 296 432 -2752
2022-09-21 23:10:22 GMT 49.701263 9.088291 31,800 295 434 -2496
2022-09-21 23:10:20 GMT 49.699493 9.094222 31,875 294 434 -2112
2022-09-21 23:10:19 GMT 49.697399 9.101579 31,975 294 434 -1792
2022-09-21 23:10:16 GMT 49.695374 9.109039 32,050 293 435 -1344
2022-09-21 23:10:14 GMT 49.694641 9.111858 32,075 293 435 -1216
2022-09-21 23:10:12 GMT 49.693176 9.117351 32,100 292 436 -1088
2022-09-21 23:10:11 GMT 49.692444 9.120242 32,125 292 436 -1024
2022-09-21 23:10:10 GMT 49.690933 9.126314 32,150 291 436 -960
2022-09-21 23:10:08 GMT 49.690201 9.129205 32,175 291 436 -1024
2022-09-21 23:10:07 GMT 49.688828 9.134698 32,200 292 435 -1024
2022-09-21 23:10:05 GMT 49.688049 9.137589 32,225 292 435 -1024
2022-09-21 23:10:03 GMT 49.686554 9.143297 32,250 294 435 -1024
2022-09-21 23:10:02 GMT 49.685760 9.146118 32,275 295 434 -1024
2022-09-21 23:09:59 GMT 49.683807 9.152576 32,325 298 431 -960
2022-09-21 23:09:58 GMT 49.682831 9.155620 32,325 299 430 -960
2022-09-21 23:09:57 GMT 49.681229 9.160212 32,350 300 430 -960
2022-09-21 23:09:56 GMT 49.680363 9.162598 32,375 302 429 -960
2022-09-21 23:09:55 GMT 49.677242 9.170763 32,425 302 429 -960
2022-09-21 23:09:53 GMT 49.677242 9.170763 32,425 302 429 -1024
2022-09-21 23:09:51 GMT 49.675598 9.174957 32,450 302 428 -1024
2022-09-21 23:09:50 GMT 49.674591 9.177632 32,475 301 429 -1024
2022-09-21 23:09:48 GMT 49.672485 9.183125 32,500 300 430 -960
2022-09-21 23:09:47 GMT 49.671192 9.186575 32,525 300 430 -960
2022-09-21 23:09:46 GMT 49.670288 9.188979 32,525 298 431 -960
2022-09-21 23:09:43 GMT 49.667404 9.197364 32,575 297 432 -960
2022-09-21 23:09:41 GMT 49.665977 9.201792 32,625 297 432 -960
2022-09-21 23:09:39 GMT 49.663696 9.208928 32,650 297 432 -960
2022-09-21 23:09:38 GMT 49.663231 9.210329 32,650 297 432 -960
2022-09-21 23:09:36 GMT 49.661507 9.215822 32,700 297 432 -960
2022-09-21 23:09:35 GMT 49.660446 9.219192 32,725 297 432 -960
2022-09-21 23:09:33 GMT 49.658798 9.224396 32,750 297 432 -960
2022-09-21 23:09:32 GMT 49.657970 9.226883 32,775 297 432 -896
2022-09-21 23:09:31 GMT 49.657085 9.229629 32,775 297 432 -896
2022-09-21 23:09:29 GMT 49.655457 9.234900 32,800 297 432 -960
2022-09-21 23:09:28 GMT 49.654572 9.237646 32,825 297 432 -960
2022-09-21 23:09:27 GMT 49.653168 9.242032 32,850 297 432 -960
2022-09-21 23:09:25 GMT 49.651611 9.247019 32,875 297 431 -960
2022-09-21 23:09:24 GMT 49.649734 9.252801 32,900 297 431 -960
2022-09-21 23:09:22 GMT 49.649231 9.254464 32,900 297 431 -960
2022-09-21 23:09:21 GMT 49.648102 9.258060 32,925 297 430 -960
2022-09-21 23:09:20 GMT 49.646240 9.263850 32,975 297 430 -960
2022-09-21 23:09:18 GMT 49.645477 9.266317 32,975 297 430 -960
2022-09-21 23:09:17 GMT 49.643913 9.271273 33,000 297 430 -960
2022-09-21 23:09:15 GMT 49.643028 9.274020 33,025 297 430 -960
2022-09-21 23:09:14 GMT 49.641266 9.279472 33,050 297 430 -960
2022-09-21 23:09:11 GMT 49.639114 9.286338 33,100 297 430 -960
2022-09-21 23:09:09 GMT 49.637695 9.290747 33,125 297 430 -960
2022-09-21 23:09:08 GMT 49.636742 9.293766 33,150 297 430 -960
2022-09-21 23:09:06 GMT 49.634926 9.299556 33,175 297 430 -960
2022-09-21 23:09:05 GMT 49.634228 9.301783 33,200 297 430 -960
2022-09-21 23:09:03 GMT 49.632553 9.306979 33,225 297 430 -960
2022-09-21 23:09:02 GMT 49.631668 9.309725 33,225 297 430 -960
2022-09-21 23:09:00 GMT 49.629852 9.315515 33,275 297 430 -960
2022-09-21 23:08:59 GMT 49.628967 9.318262 33,275 297 430 -960
2022-09-21 23:08:58 GMT 49.627213 9.323779 33,325 297 429 -960
2022-09-21 23:08:56 GMT 49.626343 9.326525 33,325 297 429 -960
2022-09-21 23:08:55 GMT 49.623642 9.334982 33,375 297 429 -960
2022-09-21 23:08:53 GMT 49.623642 9.334982 33,375 297 429 -960
2022-09-21 23:08:52 GMT 49.621986 9.340235 33,400 297 429 -960
2022-09-21 23:08:50 GMT 49.621124 9.342932 33,450 297 429 -960
2022-09-21 23:08:48 GMT 49.619568 9.347920 33,450 297 429 -960
2022-09-21 23:08:47 GMT 49.618607 9.350883 33,475 297 429 -960
2022-09-21 23:08:46 GMT 49.617657 9.353893 33,500 297 429 -960
2022-09-21 23:08:44 GMT 49.615841 9.359683 33,525 297 428 -960
2022-09-21 23:08:43 GMT 49.614956 9.362430 33,550 297 428 -960
2022-09-21 23:08:42 GMT 49.613373 9.367329 33,575 297 428 -960
2022-09-21 23:08:40 GMT 49.612396 9.370373 33,575 297 428 -960
2022-09-21 23:08:39 GMT 49.610779 9.375530 33,625 297 428 -960
2022-09-21 23:08:37 GMT 49.609695 9.378835 33,625 297 428 -960
2022-09-21 23:08:36 GMT 49.608902 9.381312 33,650 297 427 -960
2022-09-21 23:08:34 GMT 49.607254 9.386444 33,700 297 427 -960
2022-09-21 23:08:33 GMT 49.606384 9.389191 33,700 297 427 -960
2022-09-21 23:08:31 GMT 49.604645 9.394684 33,725 297 427 -960
2022-09-21 23:08:30 GMT 49.603783 9.397393 33,750 297 427 -960
2022-09-21 23:08:28 GMT 49.602127 9.402562 33,800 297 427 -960
2022-09-21 23:08:27 GMT 49.601166 9.405598 33,800 297 427 -960
2022-09-21 23:08:25 GMT 49.599503 9.410755 33,825 297 427 -960
2022-09-21 23:08:24 GMT 49.598618 9.413502 33,825 297 427 -960
2022-09-21 23:08:22 GMT 49.596802 9.419217 33,875 297 428 -960
2022-09-21 23:08:21 GMT 49.595451 9.423300 33,900 297 428 -896
2022-09-21 23:08:20 GMT 49.594753 9.425453 33,900 297 428 -896
2022-09-21 23:08:18 GMT 49.593109 9.430679 33,925 297 428 -896
2022-09-21 23:08:16 GMT 49.591354 9.436142 33,950 297 428 -896
2022-09-21 23:08:14 GMT 49.589584 9.441593 34,000 297 428 -896
2022-09-21 23:08:13 GMT 49.588654 9.444531 34,000 297 428 -896
2022-09-21 23:08:11 GMT 49.586884 9.450049 34,050 297 428 -896
2022-09-21 23:08:10 GMT 49.586014 9.452723 34,050 297 428 -896
2022-09-21 23:08:08 GMT 49.584778 9.456554 34,075 297 428 -896
2022-09-21 23:08:06 GMT 49.582695 9.463089 34,125 297 428 -960
2022-09-21 23:08:04 GMT 49.581112 9.467988 34,150 297 428 -960
2022-09-21 23:08:03 GMT 49.580063 9.471299 34,150 297 428 -960
2022-09-21 23:08:02 GMT 49.579193 9.473973 34,175 297 428 -960
2022-09-21 23:08:00 GMT 49.577435 9.479420 34,200 297 427 -960
2022-09-21 23:07:59 GMT 49.576630 9.481924 34,225 297 427 -960
2022-09-21 23:07:58 GMT 49.575851 9.484319 34,250 297 427 -960
2022-09-21 23:07:57 GMT 49.574036 9.490035 34,275 297 427 -960
2022-09-21 23:07:54 GMT 49.572781 9.493895 34,300 297 427 -960
2022-09-21 23:07:53 GMT 49.571476 9.497978 34,325 297 427 -960
2022-09-21 23:07:52 GMT 49.569489 9.504186 34,350 297 426 -960
2022-09-21 23:07:50 GMT 49.568710 9.506643 34,375 297 426 -960
2022-09-21 23:07:48 GMT 49.566776 9.512601 34,400 297 426 -960
2022-09-21 23:07:47 GMT 49.566074 9.514754 34,425 297 426 -960
2022-09-21 23:07:46 GMT 49.564316 9.520232 34,450 297 426 -960
2022-09-21 23:07:44 GMT 49.563446 9.522906 34,475 297 426 -960
2022-09-21 23:07:43 GMT 49.562492 9.525889 34,475 297 426 -960
2022-09-21 23:07:41 GMT 49.560677 9.531605 34,525 297 426 -960
2022-09-21 23:07:40 GMT 49.559875 9.534037 34,525 297 426 -960
2022-09-21 23:07:39 GMT 49.558044 9.539747 34,575 297 426 -960
2022-09-21 23:07:36 GMT 49.556442 9.544589 34,600 297 425 -960
2022-09-21 23:07:34 GMT 49.554794 9.549721 34,625 297 425 -960
2022-09-21 23:07:33 GMT 49.553741 9.552983 34,650 297 425 -960
2022-09-21 23:07:31 GMT 49.552017 9.558402 34,675 297 425 -960
2022-09-21 23:07:29 GMT 49.549576 9.565984 34,700 297 425 -960
2022-09-21 23:07:27 GMT 49.548706 9.568658 34,750 297 425 -960
2022-09-21 23:07:26 GMT 49.547745 9.571622 34,750 297 425 -960
2022-09-21 23:07:25 GMT 49.546104 9.576812 34,775 297 424 -960
2022-09-21 23:07:23 GMT 49.545227 9.579500 34,800 297 424 -960
2022-09-21 23:07:22 GMT 49.544357 9.582174 34,825 297 424 -960
2022-09-21 23:07:21 GMT 49.542526 9.587884 34,850 297 424 -960
2022-09-21 23:07:19 GMT 49.541729 9.590322 34,875 297 424 -960
2022-09-21 23:07:18 GMT 49.539215 9.598116 34,900 297 424 -960
2022-09-21 23:07:16 GMT 49.539215 9.598116 34,925 297 425 -1024
2022-09-21 23:07:14 GMT 49.537491 9.603569 34,950 297 425 -960
2022-09-21 23:07:12 GMT 49.535294 9.610291 35,000 297 425 -960
2022-09-21 23:07:10 GMT 49.533630 9.615413 35,025 297 425 -960
2022-09-21 23:07:08 GMT 49.531906 9.620843 35,050 297 425 -960
2022-09-21 23:07:07 GMT 49.530930 9.623801 35,075 297 425 -960
2022-09-21 23:07:06 GMT 49.530075 9.626553 35,075 297 425 -960
2022-09-21 23:07:03 GMT 49.527531 9.634416 35,150 297 425 -960
2022-09-21 23:07:01 GMT 49.525955 9.639274 35,150 297 425 -960
2022-09-21 23:07:00 GMT 49.525204 9.641691 35,175 297 425 -960
2022-09-21 23:06:57 GMT 49.522644 9.649559 35,225 297 426 -960
2022-09-21 23:06:55 GMT 49.520554 9.656043 35,250 297 426 -960
2022-09-21 23:06:54 GMT 49.519756 9.658467 35,275 297 426 -960
2022-09-21 23:06:52 GMT 49.517941 9.664183 35,300 297 426 -960
2022-09-21 23:06:51 GMT 49.517429 9.665742 35,325 297 426 -960
2022-09-21 23:06:50 GMT 49.514786 9.673896 35,375 297 426 -960
2022-09-21 23:06:48 GMT 49.514786 9.673896 35,375 297 426 -1024
2022-09-21 23:06:47 GMT 49.513378 9.678213 35,400 297 426 -1024
2022-09-21 23:06:46 GMT 49.512085 9.682280 35,425 297 426 -1024
2022-09-21 23:06:43 GMT 49.510353 9.687714 35,450 297 426 -1024
2022-09-21 23:06:40 GMT 49.508102 9.694712 35,475 297 426 -1024
2022-09-21 23:06:38 GMT 49.505814 9.701795 35,550 297 426 -1024
2022-09-21 23:06:37 GMT 49.505127 9.703963 35,550 297 426 -1024
2022-09-21 23:06:36 GMT 49.504070 9.707237 35,575 297 427 -1024
2022-09-21 23:06:35 GMT 49.503296 9.709673 35,575 297 427 -1024
2022-09-21 23:06:33 GMT 49.501369 9.715626 35,625 297 427 -1024
2022-09-21 23:06:32 GMT 49.499786 9.720525 35,650 297 427 -1024
2022-09-21 23:06:30 GMT 49.498856 9.723479 35,675 297 427 -1024
2022-09-21 23:06:28 GMT 49.497086 9.728913 35,700 297 427 -1024
2022-09-21 23:06:26 GMT 49.496201 9.731660 35,725 297 427 -1088
2022-09-21 23:06:25 GMT 49.495270 9.734629 35,750 297 427 -1088
2022-09-21 23:06:23 GMT 49.492523 9.743017 35,800 297 427 -1088
2022-09-21 23:06:22 GMT 49.490986 9.747917 35,825 297 427 -1088
2022-09-21 23:06:20 GMT 49.490112 9.750655 35,850 297 427 -1088
2022-09-21 23:06:19 GMT 49.489243 9.753330 35,875 297 427 -1088
2022-09-21 23:06:17 GMT 49.487457 9.758751 35,900 297 426 -1024
2022-09-21 23:06:15 GMT 49.486496 9.761714 35,950 297 426 -896
2022-09-21 23:06:13 GMT 49.483864 9.769889 35,975 297 426 -704
2022-09-21 23:06:11 GMT 49.482655 9.773675 35,975 297 426 -512
2022-09-21 23:06:10 GMT 49.481861 9.776125 36,000 297 426 -320
2022-09-21 23:06:08 GMT 49.479908 9.782063 36,000 297 426 -128
2022-09-21 23:06:07 GMT 49.479034 9.784771 36,000 297 426 0
2022-09-21 23:06:05 GMT 49.477394 9.789932 36,000 297 426 0
2022-09-21 23:06:04 GMT 49.476418 9.792901 36,000 297 426 0
2022-09-21 23:06:03 GMT 49.475533 9.795573 36,000 297 427 0
2022-09-21 23:06:01 GMT 49.473763 9.800992 36,000 297 427 0
2022-09-21 23:06:00 GMT 49.472088 9.806189 36,000 297 427 0
2022-09-21 23:05:58 GMT 49.471115 9.809129 36,000 297 427 0
2022-09-21 23:05:57 GMT 49.470154 9.812092 36,000 297 427 0
2022-09-21 23:05:55 GMT 49.468414 9.817513 36,000 297 427 0
2022-09-21 23:05:53 GMT 49.466904 9.822139 36,000 297 427 0
2022-09-21 23:05:51 GMT 49.465073 9.827776 36,000 297 427 0
2022-09-21 23:05:50 GMT 49.463894 9.831353 36,000 297 427 0
2022-09-21 23:05:48 GMT 49.462219 9.836475 36,000 297 427 0
2022-09-21 23:05:47 GMT 49.461273 9.839413 36,000 297 427 0
2022-09-21 23:05:46 GMT 49.460823 9.840781 36,000 297 427 0
2022-09-21 23:05:44 GMT 49.458527 9.847798 36,000 297 427 0
2022-09-21 23:05:43 GMT 49.458076 9.849169 36,000 297 427 0
2022-09-21 23:05:41 GMT 49.456512 9.854014 36,000 297 427 0
2022-09-21 23:05:40 GMT 49.455376 9.857557 36,000 297 427 0
2022-09-21 23:05:39 GMT 49.454590 9.859940 36,000 297 427 0
2022-09-21 23:05:37 GMT 49.452816 9.865351 36,000 297 427 0
2022-09-21 23:05:36 GMT 49.451931 9.868098 36,000 297 427 0
2022-09-21 23:05:35 GMT 49.449097 9.876709 36,000 297 427 0
2022-09-21 23:05:33 GMT 49.449097 9.876709 36,000 297 427 0
2022-09-21 23:05:32 GMT 49.448299 9.879159 36,000 297 427 0
2022-09-21 23:05:31 GMT 49.447323 9.882128 36,000 297 427 0
2022-09-21 23:05:29 GMT 49.445480 9.887840 36,000 297 427 0
2022-09-21 23:05:28 GMT 49.444611 9.890514 36,000 297 427 0
2022-09-21 23:05:27 GMT 49.442852 9.895935 36,000 297 427 0
2022-09-21 23:05:25 GMT 49.441956 9.898609 36,000 297 427 0
2022-09-21 23:05:24 GMT 49.441086 9.901356 36,000 297 426 0
2022-09-21 23:05:23 GMT 49.439209 9.906994 36,000 297 426 0
2022-09-21 23:05:21 GMT 49.438431 9.909445 36,000 297 426 0
2022-09-21 23:05:20 GMT 49.435684 9.917833 36,000 297 426 0
2022-09-21 23:05:18 GMT 49.435684 9.917833 36,000 297 426 0
2022-09-21 23:05:17 GMT 49.434906 9.920221 36,000 297 426 0
2022-09-21 23:05:16 GMT 49.432240 9.928300 36,000 297 426 0
2022-09-21 23:05:14 GMT 49.432240 9.928300 36,000 297 426 0
2022-09-21 23:05:11 GMT 49.429680 9.936169 36,000 297 426 0
2022-09-21 23:05:09 GMT 49.427910 9.941588 36,000 297 426 0
2022-09-21 23:05:07 GMT 49.425293 9.949669 36,000 297 426 0
2022-09-21 23:05:04 GMT 49.423534 9.955059 36,000 297 426 0
2022-09-21 23:05:02 GMT 49.421677 9.960726 36,000 297 426 0
2022-09-21 23:04:59 GMT 49.419018 9.968792 36,000 297 426 0
2022-09-21 23:04:56 GMT 49.416595 9.976092 36,000 297 426 0
2022-09-21 23:04:54 GMT 49.414673 9.981995 36,000 297 426 0
2022-09-21 23:04:52 GMT 49.413712 9.984982 36,000 297 426 0
2022-09-21 23:04:49 GMT 49.408218 10.001678 36,000 297 426 0
2022-09-21 23:04:47 GMT 49.408218 10.001678 36,000 297 426 0
2022-09-21 23:04:44 GMT 49.405197 10.010869 36,000 297 426 0
2022-09-21 23:04:41 GMT 49.403793 10.015122 36,000 297 426 0
2022-09-21 23:04:39 GMT 49.400864 10.024013 36,000 297 426 0
2022-09-21 23:04:36 GMT 49.399338 10.028616 36,000 297 426 0
2022-09-21 23:04:34 GMT 49.396957 10.035870 36,000 297 426 0
2022-09-21 23:04:32 GMT 49.395184 10.041287 36,000 297 426 0
2022-09-21 23:04:29 GMT 49.392151 10.050448 36,000 297 426 0
2022-09-21 23:04:26 GMT 49.390202 10.056321 36,000 297 426 0
2022-09-21 23:04:24 GMT 49.387966 10.063043 36,000 297 426 0
2022-09-21 23:04:22 GMT 49.386196 10.068464 36,000 297 426 0
2022-09-21 23:04:19 GMT 49.383545 10.076505 36,000 297 426 0
2022-09-21 23:04:16 GMT 49.380009 10.087328 36,000 297 426 0
2022-09-21 23:04:13 GMT 49.378235 10.092703 36,000 297 426 0
2022-09-21 23:04:10 GMT 49.375584 10.100772 36,000 297 426 0
2022-09-21 23:04:08 GMT 49.374329 10.104531 36,000 297 426 0
2022-09-21 23:04:06 GMT 49.370277 10.116963 36,000 297 426 0
2022-09-21 23:04:04 GMT 49.370277 10.116963 36,000 297 426 0
2022-09-21 23:04:02 GMT 49.368576 10.122070 36,000 297 426 0
2022-09-21 23:03:59 GMT 49.365646 10.130944 36,000 297 426 0
2022-09-21 23:03:56 GMT 49.363449 10.137634 36,000 297 426 0
2022-09-21 23:03:54 GMT 49.358139 10.153762 36,000 297 426 0
2022-09-21 23:03:51 GMT 49.358139 10.153762 36,000 297 425 0
2022-09-21 23:03:48 GMT 49.356453 10.158884 36,000 297 425 0
2022-09-21 23:03:45 GMT 49.353706 10.167196 36,000 297 425 0
2022-09-21 23:03:42 GMT 49.347931 10.184678 36,000 297 425 0
2022-09-21 23:03:39 GMT 49.347931 10.184678 36,000 297 425 0
2022-09-21 23:03:36 GMT 49.345551 10.191932 36,000 297 425 0
2022-09-21 23:03:33 GMT 49.343353 10.198622 36,000 297 425 0
2022-09-21 23:03:31 GMT 49.341228 10.205070 36,000 297 425 0
2022-09-21 23:03:28 GMT 49.338593 10.213130 36,000 297 425 0
2022-09-21 23:03:26 GMT 49.336990 10.217989 36,000 297 425 0
2022-09-21 23:03:24 GMT 49.334850 10.224441 36,000 297 425 0
2022-09-21 23:03:21 GMT 49.332367 10.231934 36,000 297 425 0
2022-09-21 23:03:18 GMT 49.329918 10.239402 36,000 297 424 0
2022-09-21 23:03:16 GMT 49.327961 10.245329 36,000 297 424 0
2022-09-21 23:03:14 GMT 49.326004 10.251230 36,000 297 424 0
2022-09-21 23:03:12 GMT 49.321335 10.265386 36,000 297 424 0
2022-09-21 23:03:09 GMT 49.321335 10.265386 36,000 297 424 0
2022-09-21 23:03:07 GMT 49.319908 10.269687 36,000 297 424 0
2022-09-21 23:03:04 GMT 49.314228 10.286817 36,000 297 424 0
2022-09-21 23:03:01 GMT 49.312454 10.292147 36,000 297 424 0
2022-09-21 23:02:58 GMT 49.312454 10.292147 36,000 297 424 0
2022-09-21 23:02:56 GMT 49.310165 10.299119 36,000 297 424 0
2022-09-21 23:02:53 GMT 49.307850 10.306043 36,000 297 424 0
2022-09-21 23:02:51 GMT 49.305290 10.313849 36,000 297 423 0
2022-09-21 23:02:48 GMT 49.302544 10.322089 36,000 297 423 0
2022-09-21 23:02:45 GMT 49.300598 10.327994 36,000 297 423 0
2022-09-21 23:02:43 GMT 49.298912 10.333075 36,000 297 423 0
2022-09-21 23:02:41 GMT 49.296677 10.339725 36,000 297 420 0
2022-09-21 23:02:38 GMT 49.294491 10.346375 36,000 297 423 0
2022-09-21 23:02:36 GMT 49.292358 10.352783 36,000 297 423 0
2022-09-21 23:02:33 GMT 49.287643 10.366939 36,000 297 423 0
2022-09-21 23:02:31 GMT 49.287643 10.366939 36,000 297 423 0
2022-09-21 23:02:28 GMT 49.285507 10.373334 36,000 297 423 0
2022-09-21 23:02:26 GMT 49.283318 10.379984 36,000 297 423 0
2022-09-21 23:02:23 GMT 49.281189 10.386376 36,000 297 423 0
2022-09-21 23:02:21 GMT 49.279686 10.390898 36,000 297 423 0
2022-09-21 23:02:18 GMT 49.276474 10.400439 36,000 297 423 0
2022-09-21 23:02:16 GMT 49.274277 10.407081 36,000 297 422 0
2022-09-21 23:02:14 GMT 49.272263 10.413208 36,000 297 422 0
2022-09-21 23:02:11 GMT 49.269836 10.420391 36,000 297 422 0
2022-09-21 23:02:08 GMT 49.266838 10.429422 36,000 297 422 0
2022-09-21 23:02:05 GMT 49.265629 10.433109 36,000 297 422 0
2022-09-21 23:02:03 GMT 49.263069 10.440842 36,000 297 421 0
2022-09-21 23:02:01 GMT 49.261368 10.445885 36,000 297 421 0
2022-09-21 23:01:58 GMT 49.258209 10.455463 36,000 297 421 0
2022-09-21 23:01:55 GMT 49.256332 10.461027 36,000 297 421 0
2022-09-21 23:01:53 GMT 49.254314 10.467152 36,000 297 421 0
2022-09-21 23:01:51 GMT 49.252716 10.471872 36,000 297 421 0
2022-09-21 23:01:48 GMT 49.250080 10.479873 36,000 297 421 0
2022-09-21 23:01:45 GMT 49.247334 10.488040 36,000 297 420 0
2022-09-21 23:01:42 GMT 49.245239 10.494401 36,000 297 420 0
2022-09-21 23:01:40 GMT 49.243286 10.500254 36,000 298 419 0
2022-09-21 23:01:37 GMT 49.240356 10.508986 36,000 297 420 0
2022-09-21 23:01:35 GMT 49.239029 10.512930 36,000 297 420 0
2022-09-21 23:01:33 GMT 49.237289 10.518212 36,000 297 420 0
2022-09-21 23:01:31 GMT 49.234451 10.526663 36,000 298 419 0
2022-09-21 23:01:28 GMT 49.232346 10.533001 36,000 298 419 0
2022-09-21 23:01:26 GMT 49.230286 10.539058 36,000 298 419 0
2022-09-21 23:01:23 GMT 49.227642 10.547020 36,000 298 419 0
2022-09-21 23:01:21 GMT 49.223686 10.558873 36,000 298 419 0
2022-09-21 23:01:18 GMT 49.223686 10.558873 36,000 298 419 0
2022-09-21 23:01:16 GMT 49.221359 10.565749 36,000 298 419 0
2022-09-21 23:01:13 GMT 49.219448 10.571522 36,000 298 419 0
2022-09-21 23:01:11 GMT 49.216782 10.579411 36,000 298 419 0
2022-09-21 23:01:08 GMT 49.214653 10.585689 36,000 298 419 0
2022-09-21 23:01:05 GMT 49.212387 10.592581 36,000 298 419 0
2022-09-21 23:01:02 GMT 49.209721 10.600433 36,000 298 419 0
2022-09-21 23:01:00 GMT 49.208038 10.605469 36,000 298 419 0
2022-09-21 23:00:57 GMT 49.205437 10.613299 36,000 298 419 0
2022-09-21 23:00:55 GMT 49.203575 10.618864 36,000 298 419 0
2022-09-21 23:00:53 GMT 49.201244 10.625659 36,000 298 419 0
2022-09-21 23:00:50 GMT 49.197197 10.637729 36,000 298 419 0
2022-09-21 23:00:48 GMT 49.197197 10.637729 36,000 298 419 0
2022-09-21 23:00:46 GMT 49.194580 10.645611 36,000 298 418 0
2022-09-21 23:00:43 GMT 49.192383 10.652161 36,000 298 418 0
2022-09-21 23:00:41 GMT 49.190262 10.658473 36,000 298 418 0
2022-09-21 23:00:38 GMT 49.184875 10.674485 36,000 298 418 0
2022-09-21 23:00:35 GMT 49.184875 10.674485 36,000 298 418 0
2022-09-21 23:00:32 GMT 49.183319 10.679204 36,000 298 418 0
2022-09-21 23:00:29 GMT 49.180206 10.688359 36,000 298 418 0
2022-09-21 23:00:26 GMT 49.174576 10.705050 36,000 298 417 0
2022-09-21 23:00:23 GMT 49.174576 10.705050 36,000 298 417 0
2022-09-21 23:00:19 GMT 49.171509 10.714205 36,000 298 417 0
2022-09-21 23:00:16 GMT 49.168945 10.721811 36,000 298 417 0
2022-09-21 23:00:13 GMT 49.166054 10.730462 36,000 298 417 0
2022-09-21 23:00:11 GMT 49.163589 10.737727 36,000 298 417 0
2022-09-21 23:00:08 GMT 49.160843 10.745826 36,000 298 416 0
2022-09-21 23:00:04 GMT 49.157684 10.755193 36,000 298 416 0
2022-09-21 23:00:01 GMT 49.155857 10.760675 36,000 298 415 -64
2022-09-21 22:59:58 GMT 49.152878 10.769559 36,000 298 416 0
2022-09-21 22:59:55 GMT 49.149807 10.778672 36,000 298 416 0
2022-09-21 22:59:52 GMT 49.148117 10.783644 36,000 298 416 0
2022-09-21 22:59:50 GMT 49.145802 10.790381 36,000 298 416 0
2022-09-21 22:59:47 GMT 49.143616 10.796886 36,000 298 416 0
2022-09-21 22:59:45 GMT 49.141521 10.803102 36,000 298 415 0
2022-09-21 22:59:42 GMT 49.139332 10.809607 36,000 298 415 0
2022-09-21 22:59:40 GMT 49.136677 10.817413 36,000 298 415 0
2022-09-21 22:59:37 GMT 49.134396 10.824208 36,000 298 415 0
2022-09-21 22:59:34 GMT 49.132164 10.830640 36,000 298 415 0
2022-09-21 22:59:31 GMT 49.128719 10.840759 36,000 298 415 0
2022-09-21 22:59:28 GMT 49.124954 10.851957 36,000 298 414 0
2022-09-21 22:59:23 GMT 49.122154 10.860202 36,000 298 414 0
2022-09-21 22:59:21 GMT 49.120743 10.864352 36,000 298 414 64
2022-09-21 22:59:18 GMT 49.117825 10.872923 36,000 298 414 -64
2022-09-21 22:59:16 GMT 49.115963 10.878344 36,000 298 414 -64
2022-09-21 22:59:13 GMT 49.112457 10.888719 36,000 298 414 0
2022-09-21 22:59:10 GMT 49.110580 10.894142 36,000 298 414 0
2022-09-21 22:59:07 GMT 49.108746 10.899594 36,000 298 414 0
2022-09-21 22:59:05 GMT 49.104698 10.911520 36,000 298 414 64
2022-09-21 22:59:03 GMT 49.104698 10.911520 36,000 298 414 64
2022-09-21 22:59:00 GMT 49.101700 10.920269 36,000 298 414 0
2022-09-21 22:58:57 GMT 49.099625 10.926482 36,000 298 414 0
2022-09-21 22:58:55 GMT 49.097580 10.932453 36,000 298 414 0
2022-09-21 22:58:52 GMT 49.094967 10.940214 36,000 298 414 0
2022-09-21 22:58:49 GMT 49.092220 10.948237 36,000 298 414 0
2022-09-21 22:58:46 GMT 49.089432 10.956538 36,000 298 414 0
2022-09-21 22:58:43 GMT 49.086914 10.964003 36,000 298 413 0
2022-09-21 22:58:41 GMT 49.085331 10.968692 36,000 298 413 -64
2022-09-21 22:58:38 GMT 49.082260 10.977727 36,000 298 413 0
2022-09-21 22:58:36 GMT 49.080002 10.984427 36,000 298 413 0
2022-09-21 22:58:33 GMT 49.077988 10.990413 36,000 298 413 0
2022-09-21 22:58:31 GMT 49.077000 10.993195 36,000 298 413 0
2022-09-21 22:58:28 GMT 49.073601 11.003314 36,000 298 413 0
2022-09-21 22:58:26 GMT 49.071396 11.009709 36,000 298 413 0
2022-09-21 22:58:23 GMT 49.069225 11.016179 36,000 298 413 0
2022-09-21 22:58:21 GMT 49.067276 11.021893 36,000 298 413 0
2022-09-21 22:58:18 GMT 49.063431 11.033161 36,000 298 413 0
2022-09-21 22:58:16 GMT 49.060776 11.040908 36,000 298 412 64
2022-09-21 22:58:13 GMT 49.060776 11.040908 36,000 298 412 64
2022-09-21 22:58:09 GMT 49.057541 11.050439 36,000 298 412 0
2022-09-21 22:58:07 GMT 49.055958 11.055065 36,000 298 412 0
2022-09-21 22:58:05 GMT 49.053818 11.061261 36,000 298 412 0
2022-09-21 22:58:02 GMT 49.051163 11.068942 36,000 298 412 0
2022-09-21 22:58:00 GMT 49.049515 11.073867 36,000 298 412 -64
2022-09-21 22:57:57 GMT 49.046768 11.081825 36,000 298 412 -64
2022-09-21 22:57:55 GMT 49.044830 11.087518 36,000 298 412 -64
2022-09-21 22:57:52 GMT 49.042271 11.094963 36,000 298 412 -64
2022-09-21 22:57:49 GMT 49.039444 11.103163 36,000 298 412 0
2022-09-21 22:57:46 GMT 49.036823 11.110936 36,000 298 412 0
2022-09-21 22:57:43 GMT 49.034546 11.117601 36,000 298 412 0
2022-09-21 22:57:40 GMT 49.032078 11.124814 36,000 298 412 0
2022-09-21 22:57:37 GMT 49.029095 11.133559 36,000 298 412 0
2022-09-21 22:57:35 GMT 49.027130 11.139221 36,000 298 413 0
2022-09-21 22:57:32 GMT 49.024673 11.146425 36,000 298 413 0
2022-09-21 22:57:29 GMT 49.020111 11.159796 36,000 298 413 0
2022-09-21 22:57:27 GMT 49.020111 11.159796 36,000 298 413 0
2022-09-21 22:57:25 GMT 49.018528 11.164422 36,000 298 412 0
2022-09-21 22:57:22 GMT 49.013351 11.179575 36,000 298 412 0
2022-09-21 22:57:19 GMT 49.013351 11.179575 36,000 298 412 0
2022-09-21 22:57:17 GMT 49.011337 11.185491 36,000 298 412 0
2022-09-21 22:57:14 GMT 49.007904 11.195561 36,000 298 412 0
2022-09-21 22:57:11 GMT 49.005074 11.203742 36,000 298 412 0
2022-09-21 22:57:08 GMT 49.003586 11.208151 36,000 298 412 0
2022-09-21 22:57:06 GMT 49.000931 11.215812 36,000 298 412 0
2022-09-21 22:57:02 GMT 48.998199 11.223802 36,000 298 412 0
2022-09-21 22:57:00 GMT 48.996048 11.229999 36,000 298 413 0
2022-09-21 22:56:57 GMT 48.993439 11.237640 36,000 298 413 0
2022-09-21 22:56:55 GMT 48.992615 11.240000 36,000 298 413 0
2022-09-21 22:56:53 GMT 48.990505 11.246169 36,000 298 413 0
2022-09-21 22:56:50 GMT 48.986755 11.256972 36,000 298 413 0
2022-09-21 22:56:47 GMT 48.983597 11.266198 36,000 298 413 0
2022-09-21 22:56:45 GMT 48.983597 11.266198 36,000 298 413 0
2022-09-21 22:56:43 GMT 48.981079 11.273381 36,000 298 413 0
2022-09-21 22:56:40 GMT 48.975769 11.288804 36,000 298 413 0
2022-09-21 22:56:37 GMT 48.975769 11.288804 36,000 298 413 0
2022-09-21 22:56:35 GMT 48.974724 11.291849 36,000 298 413 0
2022-09-21 22:56:32 GMT 48.972164 11.299294 36,000 298 413 0
2022-09-21 22:56:30 GMT 48.970001 11.305425 36,000 298 413 0
2022-09-21 22:56:27 GMT 48.966808 11.314689 36,000 298 413 0
2022-09-21 22:56:24 GMT 48.965469 11.318524 36,000 298 413 0
2022-09-21 22:56:22 GMT 48.962540 11.327045 36,000 298 413 0
2022-09-21 22:56:19 GMT 48.959873 11.334710 36,000 298 413 0
2022-09-21 22:56:17 GMT 48.958832 11.337820 36,000 298 413 0
2022-09-21 22:56:15 GMT 48.954006 11.351624 36,000 298 413 0
2022-09-21 22:56:12 GMT 48.954006 11.351624 36,000 298 413 0
2022-09-21 22:56:10 GMT 48.952240 11.356765 36,000 298 413 0
2022-09-21 22:56:07 GMT 48.949585 11.364489 36,000 298 413 0
2022-09-21 22:56:05 GMT 48.947800 11.369582 36,000 298 412 0
2022-09-21 22:56:02 GMT 48.944046 11.380390 36,000 298 413 0
2022-09-21 22:55:59 GMT 48.942368 11.385233 36,000 298 413 0
2022-09-21 22:55:56 GMT 48.940228 11.391449 36,000 298 413 0
2022-09-21 22:55:54 GMT 48.937912 11.398104 36,000 298 413 0
2022-09-21 22:55:51 GMT 48.934921 11.406844 36,000 298 414 0
2022-09-21 22:55:48 GMT 48.932602 11.413527 36,000 298 413 0
2022-09-21 22:55:45 GMT 48.930126 11.420649 36,000 298 413 0
2022-09-21 22:55:43 GMT 48.928265 11.426070 36,000 298 413 0
2022-09-21 22:55:40 GMT 48.924500 11.436838 36,000 298 413 0
2022-09-21 22:55:37 GMT 48.920883 11.447402 36,000 298 413 0
2022-09-21 22:55:35 GMT 48.920883 11.447402 36,000 298 413 0
2022-09-21 22:55:33 GMT 48.918533 11.454042 36,000 298 413 0
2022-09-21 22:55:30 GMT 48.916946 11.458670 36,000 298 413 0
2022-09-21 22:55:27 GMT 48.914299 11.466329 36,000 298 413 0
2022-09-21 22:55:25 GMT 48.911636 11.474022 36,000 298 414 0
2022-09-21 22:55:21 GMT 48.908524 11.483037 36,000 298 413 0
2022-09-21 22:55:18 GMT 48.906418 11.489234 36,000 298 414 0
2022-09-21 22:55:16 GMT 48.904613 11.494301 36,000 298 414 0
2022-09-21 22:55:14 GMT 48.902752 11.499722 36,000 298 414 0
2022-09-21 22:55:12 GMT 48.900890 11.505143 36,000 298 414 0
2022-09-21 22:55:10 GMT 48.898750 11.511287 36,000 298 414 0
2022-09-21 22:55:07 GMT 48.896004 11.519237 36,000 298 414 0
2022-09-21 22:55:05 GMT 48.894241 11.524377 36,000 298 414 0
2022-09-21 22:55:02 GMT 48.891766 11.531597 36,000 298 414 0
2022-09-21 22:55:00 GMT 48.889160 11.539042 36,000 298 414 0
2022-09-21 22:54:57 GMT 48.887390 11.544173 36,000 298 414 0
2022-09-21 22:54:55 GMT 48.885529 11.549522 36,000 298 414 0
2022-09-21 22:54:52 GMT 48.882782 11.557545 36,000 298 414 0
2022-09-21 22:54:49 GMT 48.880363 11.564411 36,000 298 414 0
2022-09-21 22:54:46 GMT 48.877487 11.572688 36,000 298 414 0
2022-09-21 22:54:44 GMT 48.875568 11.578289 36,000 298 414 0
2022-09-21 22:54:41 GMT 48.873322 11.584731 36,000 298 414 0
2022-09-21 22:54:38 GMT 48.870529 11.592689 36,000 298 414 0
2022-09-21 22:54:35 GMT 48.867329 11.601924 36,000 298 414 0
2022-09-21 22:54:33 GMT 48.865978 11.605755 36,000 298 414 0
2022-09-21 22:54:30 GMT 48.862812 11.614717 36,000 298 414 0
2022-09-21 22:54:27 GMT 48.859589 11.623887 36,000 298 414 0
2022-09-21 22:54:24 GMT 48.857712 11.629310 36,000 298 414 0
2022-09-21 22:54:22 GMT 48.855923 11.634449 36,000 298 414 -64
2022-09-21 22:54:19 GMT 48.853867 11.640296 36,000 298 414 0
2022-09-21 22:54:16 GMT 48.850708 11.649266 36,000 298 414 0
2022-09-21 22:54:14 GMT 48.846565 11.661048 36,000 298 414 0
2022-09-21 22:54:12 GMT 48.846565 11.661048 36,000 298 414 0
2022-09-21 22:54:09 GMT 48.841816 11.674636 36,000 298 414 0
2022-09-21 22:54:06 GMT 48.841816 11.674636 36,000 298 414 0
2022-09-21 22:54:03 GMT 48.838604 11.683888 36,000 298 414 0
2022-09-21 22:54:00 GMT 48.835922 11.691566 36,000 298 414 0
2022-09-21 22:53:57 GMT 48.833485 11.698488 36,000 298 414 0
2022-09-21 22:53:55 GMT 48.828369 11.713046 36,000 298 414 0
2022-09-21 22:53:52 GMT 48.828369 11.713046 36,000 298 414 0
2022-09-21 22:53:49 GMT 48.826687 11.717931 36,000 298 414 0
2022-09-21 22:53:46 GMT 48.823521 11.726893 36,000 298 415 0
2022-09-21 22:53:43 GMT 48.820774 11.734844 36,000 298 415 0
2022-09-21 22:53:40 GMT 48.818356 11.741783 36,000 298 415 0
2022-09-21 22:53:37 GMT 48.815277 11.750512 36,000 298 415 64
2022-09-21 22:53:34 GMT 48.812069 11.759708 36,000 298 415 0
2022-09-21 22:53:31 GMT 48.810394 11.764550 36,000 298 414 0
2022-09-21 22:53:29 GMT 48.808685 11.769456 36,000 298 414 0
2022-09-21 22:53:26 GMT 48.805969 11.777127 36,000 299 414 0
2022-09-21 22:53:24 GMT 48.804199 11.782274 36,000 299 414 0
2022-09-21 22:53:22 GMT 48.801502 11.789920 36,000 299 414 0
2022-09-21 22:53:19 GMT 48.799595 11.795269 36,000 299 414 0
2022-09-21 22:53:16 GMT 48.796616 11.803725 36,000 299 414 0
2022-09-21 22:53:14 GMT 48.794266 11.810373 36,000 299 414 0
2022-09-21 22:53:11 GMT 48.792480 11.815514 36,000 299 414 0
2022-09-21 22:53:09 GMT 48.790604 11.820867 36,000 299 414 0
2022-09-21 22:53:06 GMT 48.787350 11.830107 36,000 299 414 0
2022-09-21 22:53:04 GMT 48.786095 11.833721 36,000 299 414 0
2022-09-21 22:53:02 GMT 48.783600 11.840867 36,000 299 414 0
2022-09-21 22:52:59 GMT 48.780991 11.848262 36,000 299 414 0
2022-09-21 22:52:56 GMT 48.778645 11.854899 36,000 299 414 0
2022-09-21 22:52:54 GMT 48.777390 11.858512 36,000 299 414 0
2022-09-21 22:52:52 GMT 48.775223 11.864671 36,000 299 414 0
2022-09-21 22:52:49 GMT 48.772499 11.872318 36,000 299 414 0
2022-09-21 22:52:46 GMT 48.769272 11.881503 36,000 299 414 0
2022-09-21 22:52:44 GMT 48.766914 11.888147 36,000 299 414 0
2022-09-21 22:52:41 GMT 48.765377 11.892483 36,000 299 414 0
2022-09-21 22:52:39 GMT 48.763237 11.898627 36,000 299 414 -64
2022-09-21 22:52:36 GMT 48.760956 11.905060 36,000 299 414 -64
2022-09-21 22:52:34 GMT 48.758972 11.910659 36,000 299 414 -64
2022-09-21 22:52:31 GMT 48.756180 11.918546 36,000 299 414 -64
2022-09-21 22:52:28 GMT 48.752762 11.928261 36,000 299 414 0
2022-09-21 22:52:25 GMT 48.751419 11.932138 36,000 299 414 0
2022-09-21 22:52:23 GMT 48.749084 11.938814 36,000 299 414 0
2022-09-21 22:52:20 GMT 48.743870 11.953631 36,000 299 414 64
2022-09-21 22:52:17 GMT 48.743870 11.953631 36,000 298 415 64
2022-09-21 22:52:14 GMT 48.740799 11.962351 36,000 298 415 64
2022-09-21 22:52:11 GMT 48.737366 11.972069 36,000 298 415 0
2022-09-21 22:52:08 GMT 48.735306 11.977917 36,000 298 415 0
2022-09-21 22:52:05 GMT 48.733025 11.984349 36,000 298 415 0
2022-09-21 22:52:02 GMT 48.729904 11.993312 36,000 298 415 0
2022-09-21 22:51:59 GMT 48.726654 12.002493 36,000 299 416 0
2022-09-21 22:51:56 GMT 48.724644 12.008129 36,000 299 416 0
2022-09-21 22:51:54 GMT 48.722488 12.014254 36,000 299 416 0
2022-09-21 22:51:51 GMT 48.720383 12.020170 36,000 299 416 0
2022-09-21 22:51:49 GMT 48.717335 12.028873 36,000 299 416 0
2022-09-21 22:51:46 GMT 48.715530 12.033973 36,000 299 416 0
2022-09-21 22:51:44 GMT 48.713612 12.039353 36,000 299 416 0
2022-09-21 22:51:42 GMT 48.711823 12.044466 36,000 299 416 0
2022-09-21 22:51:39 GMT 48.708725 12.053158 36,000 299 416 0
2022-09-21 22:51:36 GMT 48.706558 12.059326 36,000 299 416 0
2022-09-21 22:51:34 GMT 48.704208 12.065952 36,000 299 416 0
2022-09-21 22:51:31 GMT 48.701553 12.073396 36,000 299 416 0
2022-09-21 22:51:27 GMT 48.697723 12.084116 36,000 299 416 0
2022-09-21 22:51:24 GMT 48.695297 12.091018 36,000 299 416 0
2022-09-21 22:51:22 GMT 48.690941 12.103320 36,000 299 416 64
2022-09-21 22:51:19 GMT 48.690941 12.103320 36,000 299 416 0
2022-09-21 22:51:16 GMT 48.688103 12.111270 36,000 299 416 0
2022-09-21 22:51:14 GMT 48.686192 12.116619 36,000 299 416 0
2022-09-21 22:51:11 GMT 48.684097 12.122546 36,000 299 416 0
2022-09-21 22:51:08 GMT 48.680744 12.132014 36,000 299 416 0
2022-09-21 22:51:05 GMT 48.679165 12.136351 36,000 299 416 0
2022-09-21 22:51:03 GMT 48.676556 12.143723 36,000 299 416 0
2022-09-21 22:51:00 GMT 48.673965 12.150879 36,000 299 416 0
2022-09-21 22:50:57 GMT 48.670876 12.159552 36,000 299 416 0
2022-09-21 22:50:54 GMT 48.668129 12.167214 36,000 299 416 0
2022-09-21 22:50:51 GMT 48.665726 12.173838 36,000 299 416 0
2022-09-21 22:50:48 GMT 48.662613 12.182570 38,000 299 416 0
2022-09-21 22:50:45 GMT 48.660782 12.187641 36,000 299 416 0
2022-09-21 22:50:43 GMT 48.658493 12.194050 36,000 299 416 0
2022-09-21 22:50:41 GMT 48.656021 12.200881 36,000 299 416 -64
2022-09-21 22:50:38 GMT 48.651138 12.214412 36,000 299 416 -64
2022-09-21 22:50:35 GMT 48.651138 12.214412 36,000 299 416 0
2022-09-21 22:50:33 GMT 48.649696 12.218532 36,000 299 416 0
2022-09-21 22:50:31 GMT 48.647369 12.224892 36,000 299 416 0
2022-09-21 22:50:28 GMT 48.644527 12.232843 36,000 299 416 0
2022-09-21 22:50:25 GMT 48.641052 12.242502 36,000 299 416 64
2022-09-21 22:50:22 GMT 48.638214 12.250390 36,000 299 416 64
2022-09-21 22:50:18 GMT 48.635010 12.259334 36,000 299 416 0
2022-09-21 22:50:15 GMT 48.633217 12.264428 36,000 299 416 0
2022-09-21 22:50:13 GMT 48.628513 12.277439 36,000 299 416 0
2022-09-21 22:50:11 GMT 48.626495 12.283067 36,000 299 415 0
2022-09-21 22:50:08 GMT 48.626495 12.283067 36,000 299 415 -64
2022-09-21 22:50:05 GMT 48.623840 12.290391 36,000 299 415 -64
2022-09-21 22:50:03 GMT 48.621670 12.296520 36,000 299 415 -64
2022-09-21 22:50:01 GMT 48.619484 12.302591 36,000 299 415 0
2022-09-21 22:49:58 GMT 48.616829 12.309964 36,000 299 414 64
2022-09-21 22:49:55 GMT 48.614361 12.316830 36,000 299 414 64
2022-09-21 22:49:53 GMT 48.612408 12.322179 36,000 299 414 64
2022-09-21 22:49:51 GMT 48.609695 12.329759 36,000 299 415 64
2022-09-21 22:49:48 GMT 48.607937 12.334611 36,000 299 415 64
2022-09-21 22:49:45 GMT 48.605099 12.342489 36,000 299 415 0
2022-09-21 22:49:42 GMT 48.601456 12.352647 36,000 299 415 0
2022-09-21 22:49:39 GMT 48.599716 12.357436 36,000 299 415 0
2022-09-21 22:49:36 GMT 48.597061 12.364831 36,000 299 415 0
2022-09-21 22:49:34 GMT 48.595230 12.369901 36,000 299 415 0
2022-09-21 22:49:31 GMT 48.592484 12.377544 36,000 299 415 0
2022-09-21 22:49:28 GMT 48.589096 12.386874 36,000 299 415 0
2022-09-21 22:49:25 GMT 48.585892 12.395747 36,000 299 414 0
2022-09-21 22:49:22 GMT 48.584244 12.400325 36,000 299 415 0
2022-09-21 22:49:19 GMT 48.580936 12.409491 36,000 299 417 64
2022-09-21 22:49:16 GMT 48.577538 12.418887 36,000 299 415 0
2022-09-21 22:49:13 GMT 48.576328 12.422140 36,000 299 415 0
2022-09-21 22:49:10 GMT 48.573303 12.430524 36,000 299 415 0
2022-09-21 22:49:07 GMT 48.569641 12.440679 36,000 299 415 0
2022-09-21 22:49:04 GMT 48.567719 12.446031 36,000 299 415 0
2022-09-21 22:49:01 GMT 48.564968 12.453653 36,000 299 415 0
2022-09-21 22:48:58 GMT 48.562225 12.461243 36,000 299 415 0
2022-09-21 22:48:55 GMT 48.559105 12.469844 36,000 299 415 0
2022-09-21 22:48:53 GMT 48.557877 12.473145 36,000 299 416 0
2022-09-21 22:48:50 GMT 48.554123 12.483577 36,000 299 416 0
2022-09-21 22:48:47 GMT 48.551651 12.490469 36,000 299 416 0
2022-09-21 22:48:44 GMT 48.548908 12.498105 36,000 299 416 0
2022-09-21 22:48:41 GMT 48.545792 12.506737 36,000 299 416 0
2022-09-21 22:48:38 GMT 48.540619 12.520963 36,000 299 416 0
2022-09-21 22:48:35 GMT 48.540619 12.520963 36,000 299 416 0
2022-09-21 22:48:33 GMT 48.539337 12.524555 36,000 299 416 -64
2022-09-21 22:48:30 GMT 48.536499 12.532443 36,000 299 416 0
2022-09-21 22:48:27 GMT 48.532711 12.542845 36,000 299 417 0
2022-09-21 22:48:24 GMT 48.530895 12.547905 36,000 299 416 0
2022-09-21 22:48:21 GMT 48.528122 12.555542 36,000 299 417 64
2022-09-21 22:48:19 GMT 48.526382 12.560401 36,000 299 417 0
2022-09-21 22:48:16 GMT 48.523445 12.568576 36,000 299 418 0
2022-09-21 22:48:14 GMT 48.522049 12.572407 36,000 299 417 0
2022-09-21 22:48:11 GMT 48.518326 12.582887 36,000 299 418 0
2022-09-21 22:48:08 GMT 48.516449 12.588008 36,000 299 418 0
2022-09-21 22:48:05 GMT 48.513435 12.596403 36,000 299 418 0
2022-09-21 22:48:02 GMT 48.510410 12.604860 36,000 299 418 0
2022-09-21 22:48:00 GMT 48.508503 12.610209 36,000 299 418 0
2022-09-21 22:47:57 GMT 48.506104 12.616882 36,000 299 418 0
2022-09-21 22:47:54 GMT 48.503708 12.623508 36,000 299 418 0
2022-09-21 22:47:52 GMT 48.501518 12.629652 36,000 299 418 0
2022-09-21 22:47:47 GMT 48.494629 12.648878 36,000 299 419 0
2022-09-21 22:47:44 GMT 48.494629 12.648878 36,000 299 419 0
2022-09-21 22:47:42 GMT 48.491745 12.656828 36,000 299 419 0
2022-09-21 22:47:40 GMT 48.489990 12.661673 36,000 299 419 0
2022-09-21 22:47:37 GMT 48.487885 12.667588 36,000 299 419 0
2022-09-21 22:47:34 GMT 48.484680 12.676532 36,000 299 419 0
2022-09-21 22:47:31 GMT 48.482246 12.683210 36,000 299 419 0
2022-09-21 22:47:28 GMT 48.479034 12.692172 36,000 299 420 0
2022-09-21 22:47:25 GMT 48.476379 12.699617 36,000 299 420 0
2022-09-21 22:47:23 GMT 48.474609 12.704491 36,000 299 420 0
2022-09-21 22:47:20 GMT 48.472321 12.710900 36,000 299 420 0
2022-09-21 22:47:17 GMT 48.469116 12.719914 36,000 299 421 0
2022-09-21 22:47:14 GMT 48.466232 12.727872 36,000 299 420 0
2022-09-21 22:47:11 GMT 48.464127 12.733788 36,000 299 420 0
2022-09-21 22:47:09 GMT 48.461346 12.741539 36,000 299 421 0
2022-09-21 22:47:06 GMT 48.458954 12.748225 36,000 301 427 0
2022-09-21 22:47:03 GMT 48.455750 12.757240 36,000 299 421 0
2022-09-21 22:47:00 GMT 48.450577 12.771606 36,000 299 420 0
2022-09-21 22:46:57 GMT 48.450577 12.771606 36,000 299 421 0
2022-09-21 22:46:54 GMT 48.447327 12.780621 36,000 299 421 64
2022-09-21 22:46:51 GMT 48.445633 12.785199 36,000 299 421 64
2022-09-21 22:46:49 GMT 48.442677 12.793435 36,000 299 421 64
2022-09-21 22:46:46 GMT 48.440231 12.800129 36,000 299 421 0
2022-09-21 22:46:43 GMT 48.437416 12.807746 36,000 300 421 0
2022-09-21 22:46:40 GMT 48.434921 12.814425 36,000 300 421 0
2022-09-21 22:46:37 GMT 48.431877 12.822563 36,000 301 420 0
2022-09-21 22:46:34 GMT 48.426544 12.836538 36,000 301 420 0
2022-09-21 22:46:32 GMT 48.426544 12.836538 36,000 301 420 0
2022-09-21 22:46:29 GMT 48.423706 12.843792 36,000 301 420 0
2022-09-21 22:46:26 GMT 48.420273 12.852666 36,000 301 421 0
2022-09-21 22:46:23 GMT 48.418610 12.856967 36,000 301 421 0
2022-09-21 22:46:20 GMT 48.415283 12.865483 36,000 301 421 0
2022-09-21 22:46:17 GMT 48.412327 12.873085 36,000 301 421 0
2022-09-21 22:46:14 GMT 48.406460 12.888264 36,000 301 421 0
2022-09-21 22:46:11 GMT 48.406460 12.888264 36,000 301 421 0
2022-09-21 22:46:09 GMT 48.401047 12.902104 36,000 301 421 0
2022-09-21 22:46:06 GMT 48.401047 12.902104 36,000 301 421 -64
2022-09-21 22:46:03 GMT 48.397797 12.910485 36,000 301 421 -64
2022-09-21 22:46:00 GMT 48.394684 12.918549 36,000 301 421 0
2022-09-21 22:45:56 GMT 48.389648 12.931472 36,000 301 422 0
2022-09-21 22:45:53 GMT 48.389648 12.931472 36,000 301 422 0
2022-09-21 22:45:51 GMT 48.386627 12.939289 36,000 301 422 0
2022-09-21 22:45:47 GMT 48.380310 12.955487 36,000 301 422 0
2022-09-21 22:45:44 GMT 48.380310 12.955487 36,000 301 422 0
2022-09-21 22:45:41 GMT 48.376694 12.964783 36,000 301 421 0
2022-09-21 22:45:38 GMT 48.374039 12.971614 36,000 301 421 0
2022-09-21 22:45:36 GMT 48.369553 12.983234 36,000 301 421 0
2022-09-21 22:45:33 GMT 48.369553 12.983234 36,000 301 421 0
2022-09-21 22:45:30 GMT 48.366192 12.991839 36,000 301 421 0
2022-09-21 22:45:27 GMT 48.363445 12.998922 36,000 301 421 0
2022-09-21 22:45:24 GMT 48.357765 13.013522 36,000 301 421 0
2022-09-21 22:45:22 GMT 48.357765 13.013522 36,000 301 421 0
2022-09-21 22:45:19 GMT 48.355347 13.019811 36,000 301 420 0
2022-09-21 22:45:16 GMT 48.352615 13.026827 36,000 301 420 0
2022-09-21 22:45:13 GMT 48.348999 13.036194 36,000 301 420 0
2022-09-21 22:45:10 GMT 48.347397 13.040208 36,000 301 420 0
2022-09-21 22:45:06 GMT 48.342636 13.052481 36,000 301 419 -64
2022-09-21 22:45:03 GMT 48.339890 13.059505 36,000 301 419 0
2022-09-21 22:45:00 GMT 48.333324 13.076332 36,000 301 419 -64
2022-09-21 22:44:57 GMT 48.333324 13.076332 36,000 301 419 0
2022-09-21 22:44:54 GMT 48.330906 13.082621 36,000 301 419 64
2022-09-21 22:44:52 GMT 48.326614 13.093590 36,000 301 418 64
2022-09-21 22:44:46 GMT 48.323410 13.101901 36,000 301 418 0
2022-09-21 22:44:43 GMT 48.319977 13.110633 36,000 301 418 0
2022-09-21 22:44:40 GMT 48.317734 13.116408 36,000 301 418 0
2022-09-21 22:44:37 GMT 48.314240 13.125410 36,000 301 418 0
2022-09-21 22:44:34 GMT 48.311279 13.132888 36,000 301 418 -64
2022-09-21 22:44:32 GMT 48.309353 13.137914 36,000 301 418 0
2022-09-21 22:44:29 GMT 48.303177 13.153663 36,000 301 418 0
2022-09-21 22:44:26 GMT 48.303177 13.153663 36,000 301 418 0
2022-09-21 22:44:23 GMT 48.301346 13.158369 36,000 301 418 0
2022-09-21 22:44:20 GMT 48.296906 13.169650 36,000 301 418 0
2022-09-21 22:44:16 GMT 48.290546 13.185907 36,000 301 419 -64
2022-09-21 22:44:13 GMT 48.290546 13.185907 36,000 301 419 0
2022-09-21 22:44:10 GMT 48.288124 13.192195 36,000 301 419 0
2022-09-21 22:44:07 GMT 48.285553 13.198665 36,000 301 419 0
2022-09-21 22:44:05 GMT 48.283703 13.203398 36,000 301 420 0
2022-09-21 22:44:02 GMT 48.279968 13.212891 36,000 301 419 0
2022-09-21 22:43:59 GMT 48.277977 13.217926 36,000 301 420 0
2022-09-21 22:43:56 GMT 48.274158 13.227684 36,000 301 420 0
2022-09-21 22:43:53 GMT 48.271088 13.235417 36,000 301 420 0
2022-09-21 22:43:50 GMT 48.267456 13.244669 36,000 301 420 0
2022-09-21 22:43:46 GMT 48.261429 13.259935 36,000 301 420 0
2022-09-21 22:43:43 GMT 48.261429 13.259935 36,000 301 420 0
2022-09-21 22:43:40 GMT 48.258591 13.267188 36,000 301 420 0
2022-09-21 22:43:38 GMT 48.256897 13.271484 36,000 301 420 0
2022-09-21 22:43:35 GMT 48.249802 13.289513 36,000 301 420 0
2022-09-21 22:43:32 GMT 48.249802 13.289513 36,000 301 421 0
2022-09-21 22:43:29 GMT 48.247742 13.294795 36,000 301 421 0
2022-09-21 22:43:26 GMT 48.244553 13.302781 36,000 301 421 0
2022-09-21 22:43:23 GMT 48.240921 13.312105 36,000 301 421 0
2022-09-21 22:43:20 GMT 48.238724 13.317613 36,000 301 422 0
2022-09-21 22:43:18 GMT 48.237244 13.321357 36,000 301 421 0
2022-09-21 22:43:15 GMT 48.233917 13.329867 36,000 301 422 0
2022-09-21 22:43:12 GMT 48.231216 13.336698 36,000 301 422 0
2022-09-21 22:43:09 GMT 48.228256 13.344197 36,000 301 422 0
2022-09-21 22:43:06 GMT 48.224304 13.354304 36,000 301 422 0
2022-09-21 22:43:03 GMT 48.218620 13.368627 36,000 301 422 0
2022-09-21 22:43:00 GMT 48.214943 13.377878 36,000 301 422 0
2022-09-21 22:42:57 GMT 48.214943 13.377878 36,000 301 423 64
2022-09-21 22:42:53 GMT 48.211166 13.387475 36,000 301 426 0
2022-09-21 22:42:50 GMT 48.208984 13.392984 36,000 301 423 0
2022-09-21 22:42:48 GMT 48.206753 13.398550 36,000 301 423 0
2022-09-21 22:42:45 GMT 48.202980 13.408091 36,000 301 423 0
2022-09-21 22:42:41 GMT 48.200180 13.415152 36,000 301 424 0
2022-09-21 22:42:38 GMT 48.193863 13.430997 36,000 301 424 0
2022-09-21 22:42:35 GMT 48.193863 13.430997 36,000 301 424 0
2022-09-21 22:42:31 GMT 48.186768 13.448956 36,000 301 424 0
2022-09-21 22:42:28 GMT 48.186768 13.448956 36,000 301 427 0
2022-09-21 22:42:25 GMT 48.183655 13.456773 36,000 301 425 0
2022-09-21 22:42:22 GMT 48.180359 13.465154 36,000 301 426 0
2022-09-21 22:42:19 GMT 48.175369 13.477830 36,000 301 426 0
2022-09-21 22:42:16 GMT 48.175369 13.477830 36,000 301 426 0
2022-09-21 22:42:13 GMT 48.170059 13.491211 36,000 301 426 0
2022-09-21 22:42:11 GMT 48.170059 13.491211 36,000 301 426 0
2022-09-21 22:42:08 GMT 48.166946 13.499099 36,000 301 426 0
2022-09-21 22:42:05 GMT 48.164528 13.505161 36,000 301 426 -64
2022-09-21 22:42:02 GMT 48.160080 13.516273 36,000 301 427 0
2022-09-21 22:41:59 GMT 48.157219 13.523395 36,000 301 427 0
2022-09-21 22:41:56 GMT 48.153992 13.531448 36,000 301 428 0
2022-09-21 22:41:53 GMT 48.152004 13.536565 36,000 301 427 0
2022-09-21 22:41:51 GMT 48.146931 13.549171 36,000 301 427 0
2022-09-21 22:41:48 GMT 48.146931 13.549171 36,000 301 427 0
2022-09-21 22:41:45 GMT 48.143784 13.557060 36,000 301 427 0
2022-09-21 22:41:42 GMT 48.140041 13.566425 36,000 301 427 0
2022-09-21 22:41:39 GMT 48.138107 13.571205 36,000 301 427 0
2022-09-21 22:41:37 GMT 48.135246 13.578327 36,000 301 427 0
2022-09-21 22:41:33 GMT 48.131710 13.587200 36,000 301 427 0
2022-09-21 22:41:30 GMT 48.125107 13.603683 36,000 301 428 0
2022-09-21 22:41:27 GMT 48.125107 13.603683 36,000 301 428 0
2022-09-21 22:41:23 GMT 48.121536 13.612541 36,000 301 428 0
2022-09-21 22:41:19 GMT 48.117050 13.623734 36,000 301 428 0
2022-09-21 22:41:15 GMT 48.113785 13.631850 36,000 301 429 0
2022-09-21 22:41:12 GMT 48.109726 13.641998 36,000 301 429 0
2022-09-21 22:41:09 GMT 48.106201 13.650925 36,000 301 430 0
2022-09-21 22:41:06 GMT 48.104645 13.654701 36,000 301 429 0
2022-09-21 22:41:03 GMT 48.101215 13.663330 36,000 301 429 0
2022-09-21 22:41:01 GMT 48.099586 13.667415 36,000 301 429 0
2022-09-21 22:40:58 GMT 48.096420 13.675302 36,000 301 430 0
2022-09-21 22:40:56 GMT 48.094093 13.681148 36,000 301 430 0
2022-09-21 22:40:53 GMT 48.090820 13.689308 36,000 301 430 0
2022-09-21 22:40:48 GMT 48.082783 13.709388 36,000 301 429 0
2022-09-21 22:40:45 GMT 48.082783 13.709388 36,000 301 429 0
2022-09-21 22:40:42 GMT 48.079926 13.716499 36,000 301 429 0
2022-09-21 22:40:39 GMT 48.076263 13.725656 36,000 301 430 0
2022-09-21 22:40:36 GMT 48.072914 13.734037 36,000 301 430 0
2022-09-21 22:40:33 GMT 48.070354 13.740446 36,000 301 430 0
2022-09-21 22:40:31 GMT 48.068024 13.746291 36,000 301 430 0
2022-09-21 22:40:28 GMT 48.065689 13.752136 36,000 301 430 0
2022-09-21 22:40:25 GMT 48.062119 13.761063 36,000 301 430 0
2022-09-21 22:40:22 GMT 48.056396 13.775276 36,000 301 430 0
2022-09-21 22:40:19 GMT 48.056396 13.775276 36,000 301 430 64
2022-09-21 22:40:16 GMT 48.053238 13.783173 36,000 301 430 0
2022-09-21 22:40:13 GMT 48.047031 13.798758 36,000 301 430 64
2022-09-21 22:40:10 GMT 48.047031 13.798758 36,000 301 430 0
2022-09-21 22:40:07 GMT 48.043587 13.807420 36,000 301 430 0
2022-09-21 22:40:04 GMT 48.041748 13.812012 36,000 301 430 0
2022-09-21 22:40:01 GMT 48.038559 13.819885 36,000 301 430 0
2022-09-21 22:39:58 GMT 48.034698 13.829590 36,000 301 430 0
2022-09-21 22:39:55 GMT 48.031540 13.837486 36,000 301 430 0
2022-09-21 22:39:52 GMT 48.027664 13.847140 36,000 301 430 0
2022-09-21 22:39:49 GMT 48.025635 13.852249 36,000 301 430 0
2022-09-21 22:39:47 GMT 48.023758 13.856850 36,000 301 430 0
2022-09-21 22:39:44 GMT 48.020912 13.863971 36,000 301 430 0
2022-09-21 22:39:41 GMT 48.014584 13.879747 36,000 301 430 0
2022-09-21 22:39:38 GMT 48.014584 13.879747 36,000 301 430 0
2022-09-21 22:39:35 GMT 48.011417 13.887705 36,000 301 430 0
2022-09-21 22:39:32 GMT 48.006020 13.901156 36,000 301 431 0
2022-09-21 22:39:30 GMT 48.003456 13.907565 36,000 301 431 0
2022-09-21 22:39:27 GMT 48.003456 13.907565 36,000 301 431 0
2022-09-21 22:39:23 GMT 47.998627 13.919540 36,000 301 431 0
2022-09-21 22:39:20 GMT 47.993225 13.932999 36,000 301 431 0
2022-09-21 22:39:17 GMT 47.993225 13.932999 36,000 302 430 0
2022-09-21 22:39:14 GMT 47.989445 13.942425 36,000 301 431 0
2022-09-21 22:39:11 GMT 47.986359 13.950096 36,000 301 431 0
2022-09-21 22:39:08 GMT 47.982975 13.958482 36,000 301 431 0
2022-09-21 22:39:05 GMT 47.979675 13.966644 36,000 301 431 0
2022-09-21 22:39:02 GMT 47.978039 13.970736 36,000 301 431 0
2022-09-21 22:38:59 GMT 47.974182 13.980377 36,000 301 431 0
2022-09-21 22:38:55 GMT 47.970078 13.990596 36,000 301 431 0
2022-09-21 22:38:52 GMT 47.967590 13.996719 36,000 301 431 0
2022-09-21 22:38:50 GMT 47.964844 14.003586 36,000 302 432 0
2022-09-21 22:38:47 GMT 47.961514 14.011723 36,000 302 432 0
2022-09-21 22:38:43 GMT 47.958435 14.019379 36,000 302 432 0
2022-09-21 22:38:40 GMT 47.955048 14.027756 36,000 302 432 0
2022-09-21 22:38:37 GMT 47.951366 14.036865 36,000 302 432 0
2022-09-21 22:38:33 GMT 47.947220 14.047050 36,000 302 431 0
2022-09-21 22:38:30 GMT 47.944016 14.054878 36,000 302 431 0
2022-09-21 22:38:27 GMT 47.941223 14.061745 36,000 302 431 0
2022-09-21 22:38:24 GMT 47.938332 14.068838 36,000 302 431 0
2022-09-21 22:38:21 GMT 47.936188 14.074173 36,000 302 431 0
2022-09-21 22:38:18 GMT 47.932652 14.082782 36,000 302 431 -64
2022-09-21 22:38:15 GMT 47.928089 14.093980 36,000 302 431 0
2022-09-21 22:38:12 GMT 47.926300 14.098206 36,000 302 431 0
2022-09-21 22:38:09 GMT 47.922131 14.108347 36,000 302 431 64
2022-09-21 22:38:06 GMT 47.919434 14.114891 36,000 302 431 64
2022-09-21 22:38:03 GMT 47.917664 14.119192 36,000 302 431 0
2022-09-21 22:38:00 GMT 47.914352 14.127251 36,000 302 431 0
2022-09-21 22:37:57 GMT 47.910492 14.136587 36,000 302 431 0
2022-09-21 22:37:54 GMT 47.907234 14.144404 36,000 302 431 0
2022-09-21 22:37:51 GMT 47.903603 14.153278 36,000 302 431 0
2022-09-21 22:37:48 GMT 47.901043 14.159616 36,000 302 431 0
2022-09-21 22:37:45 GMT 47.898018 14.166941 36,000 302 431 0
2022-09-21 22:37:42 GMT 47.895039 14.174265 36,000 302 431 0
2022-09-21 22:37:40 GMT 47.889450 14.187950 36,000 302 431 0
2022-09-21 22:37:37 GMT 47.889450 14.187950 36,000 302 431 0
2022-09-21 22:37:33 GMT 47.885742 14.197083 36,000 302 431 0
2022-09-21 22:37:30 GMT 47.882050 14.206238 36,000 302 431 0
2022-09-21 22:37:27 GMT 47.879162 14.213280 36,000 302 431 0
2022-09-21 22:37:24 GMT 47.876450 14.219879 36,000 302 431 0
2022-09-21 22:37:21 GMT 47.873390 14.227506 36,000 302 431 0
2022-09-21 22:37:18 GMT 47.866825 14.243774 36,000 301 431 0
2022-09-21 22:37:15 GMT 47.863194 14.252648 36,000 301 431 0
2022-09-21 22:37:11 GMT 47.863194 14.252648 36,000 302 431 0
2022-09-21 22:37:08 GMT 47.859192 14.262520 36,000 302 431 0
2022-09-21 22:37:05 GMT 47.856949 14.268082 36,000 302 431 0
2022-09-21 22:37:02 GMT 47.853142 14.277438 36,000 302 431 0
2022-09-21 22:36:59 GMT 47.851181 14.282227 36,000 302 431 0
2022-09-21 22:36:56 GMT 47.848389 14.289093 36,000 302 430 0
2022-09-21 22:36:53 GMT 47.841362 14.306242 36,000 302 430 0
2022-09-21 22:36:50 GMT 47.838757 14.312580 36,000 302 430 0
2022-09-21 22:36:47 GMT 47.838757 14.312580 36,000 302 430 0
2022-09-21 22:36:45 GMT 47.836708 14.317650 36,000 302 430 0
2022-09-21 22:36:41 GMT 47.832367 14.328232 36,000 302 430 0
2022-09-21 22:36:38 GMT 47.826046 14.343637 36,000 302 430 0
2022-09-21 22:36:35 GMT 47.826046 14.343637 36,000 302 430 0
2022-09-21 22:36:32 GMT 47.822460 14.352511 36,000 302 430 0
2022-09-21 22:36:28 GMT 47.819668 14.359272 36,000 302 430 0
2022-09-21 22:36:25 GMT 47.815750 14.368881 36,000 302 430 0
2022-09-21 22:36:21 GMT 47.810684 14.381244 36,000 302 430 0
2022-09-21 22:36:17 GMT 47.807144 14.389824 36,000 302 430 0
2022-09-21 22:36:14 GMT 47.805084 14.394836 36,000 302 430 0
2022-09-21 22:36:11 GMT 47.801193 14.404449 36,000 302 430 0
2022-09-21 22:36:08 GMT 47.798489 14.411034 36,000 302 429 0
2022-09-21 22:36:04 GMT 47.794144 14.421547 36,000 302 429 0
2022-09-21 22:36:01 GMT 47.791550 14.427866 36,000 302 429 0
2022-09-21 22:35:59 GMT 47.788338 14.435683 36,000 302 430 0
2022-09-21 22:35:56 GMT 47.784943 14.443993 36,000 302 428 0
2022-09-21 22:35:53 GMT 47.781830 14.451485 36,000 302 429 0
2022-09-21 22:35:50 GMT 47.779121 14.458008 36,000 302 429 0
2022-09-21 22:35:46 GMT 47.774734 14.468582 36,000 302 429 0
2022-09-21 22:35:43 GMT 47.772045 14.475121 36,000 302 429 0
2022-09-21 22:35:40 GMT 47.769672 14.480896 36,000 302 429 0
2022-09-21 22:35:38 GMT 47.766880 14.487657 36,000 302 429 0
2022-09-21 22:35:34 GMT 47.762329 14.498726 36,000 302 429 0
2022-09-21 22:35:30 GMT 47.758667 14.507446 36,000 302 429 0
2022-09-21 22:35:27 GMT 47.755463 14.515274 36,000 302 429 0
2022-09-21 22:35:24 GMT 47.752354 14.522729 36,000 302 429 0
2022-09-21 22:35:21 GMT 47.749649 14.529282 36,000 302 429 0
2022-09-21 22:35:19 GMT 47.743011 14.545280 36,000 302 429 0
2022-09-21 22:35:16 GMT 47.743011 14.545280 36,000 302 429 0
2022-09-21 22:35:13 GMT 47.741959 14.547821 36,000 302 429 0
2022-09-21 22:35:10 GMT 47.738205 14.556816 36,000 302 429 0
2022-09-21 22:35:06 GMT 47.733223 14.568787 36,000 302 429 0
2022-09-21 22:35:03 GMT 47.730659 14.575054 36,000 302 429 0
2022-09-21 22:35:00 GMT 47.727634 14.582308 36,000 302 429 0
2022-09-21 22:34:57 GMT 47.723400 14.592590 36,000 302 429 0
2022-09-21 22:34:54 GMT 47.720261 14.600075 36,000 302 429 0
2022-09-21 22:34:50 GMT 47.716553 14.609070 36,000 302 429 0
2022-09-21 22:34:46 GMT 47.713120 14.617378 36,000 302 429 0
2022-09-21 22:34:43 GMT 47.710327 14.624107 36,000 302 428 0
2022-09-21 22:34:39 GMT 47.705757 14.635127 36,000 302 429 0
2022-09-21 22:34:36 GMT 47.702358 14.643367 36,000 302 428 0
2022-09-21 22:34:33 GMT 47.698959 14.651607 36,000 302 428 0
2022-09-21 22:34:30 GMT 47.696167 14.658367 36,000 302 428 0
2022-09-21 22:34:27 GMT 47.692978 14.666130 36,000 302 427 -64
2022-09-21 22:34:24 GMT 47.689453 14.674576 36,000 302 427 0
2022-09-21 22:34:21 GMT 47.686855 14.680833 36,000 302 428 0
2022-09-21 22:34:16 GMT 47.682220 14.692085 36,000 302 428 0
2022-09-21 22:34:13 GMT 47.678291 14.701538 36,000 302 428 0
2022-09-21 22:34:10 GMT 47.675400 14.708565 36,000 302 427 0
2022-09-21 22:34:08 GMT 47.669491 14.722736 36,000 302 427 0
2022-09-21 22:34:05 GMT 47.669491 14.722736 36,000 302 427 0
2022-09-21 22:34:02 GMT 47.664642 14.734451 36,000 302 427 0
2022-09-21 22:33:59 GMT 47.664642 14.734451 36,000 302 427 0
2022-09-21 22:33:56 GMT 47.661205 14.742666 36,000 302 427 0
2022-09-21 22:33:52 GMT 47.657593 14.751343 36,000 302 427 0
2022-09-21 22:33:49 GMT 47.653107 14.762054 36,000 302 427 0
2022-09-21 22:33:46 GMT 47.651047 14.766998 36,000 302 427 0
2022-09-21 22:33:43 GMT 47.647938 14.774428 36,000 302 427 0
2022-09-21 22:33:40 GMT 47.642773 14.786823 36,000 302 426 0
2022-09-21 22:33:38 GMT 47.642773 14.786823 36,000 302 426 0
2022-09-21 22:33:35 GMT 47.638721 14.796542 36,000 302 426 0
2022-09-21 22:33:32 GMT 47.637138 14.800204 36,000 302 426 0
2022-09-21 22:33:29 GMT 47.633320 14.809429 36,000 302 426 0
2022-09-21 22:33:26 GMT 47.629395 14.818840 36,000 302 426 0
2022-09-21 22:33:22 GMT 47.625267 14.828726 36,000 302 426 0
2022-09-21 22:33:19 GMT 47.622894 14.834430 36,000 302 426 0
2022-09-21 22:33:16 GMT 47.619682 14.842107 36,000 302 426 0
2022-09-21 22:33:13 GMT 47.616699 14.849361 36,000 302 426 0
2022-09-21 22:33:10 GMT 47.614014 14.855782 36,000 302 426 0
2022-09-21 22:33:08 GMT 47.611633 14.861481 36,000 302 426 0
2022-09-21 22:33:05 GMT 47.608658 14.868690 36,000 302 426 0
2022-09-21 22:33:02 GMT 47.605453 14.876312 36,000 302 426 0
2022-09-21 22:32:59 GMT 47.603386 14.881263 36,000 302 426 0
2022-09-21 22:32:57 GMT 47.601105 14.886756 36,000 302 426 0
2022-09-21 22:32:53 GMT 47.593193 14.905771 36,000 302 425 0
2022-09-21 22:32:50 GMT 47.593193 14.905771 36,000 302 425 0
2022-09-21 22:32:48 GMT 47.590302 14.912704 36,000 302 425 0
2022-09-21 22:32:45 GMT 47.584209 14.927321 36,000 302 425 64
2022-09-21 22:32:42 GMT 47.584209 14.927321 36,000 302 425 64
2022-09-21 22:32:39 GMT 47.582657 14.931038 36,000 302 425 64
2022-09-21 22:32:37 GMT 47.579971 14.937462 36,000 302 425 0
2022-09-21 22:32:33 GMT 47.575504 14.948026 36,000 302 425 0
2022-09-21 22:32:30 GMT 47.569683 14.961830 36,000 302 425 0
2022-09-21 22:32:28 GMT 47.569683 14.961830 36,000 302 425 0
2022-09-21 22:32:25 GMT 47.566589 14.969284 36,000 302 425 0
2022-09-21 22:32:22 GMT 47.563492 14.976619 36,000 302 425 0
2022-09-21 22:32:19 GMT 47.559025 14.987253 36,000 302 425 0
2022-09-21 22:32:17 GMT 47.559025 14.987253 36,000 302 425 0
2022-09-21 22:32:13 GMT 47.553909 14.999290 36,000 302 424 0
2022-09-21 22:32:10 GMT 47.551849 15.004234 36,000 302 424 0
2022-09-21 22:32:07 GMT 47.547913 15.013573 36,000 302 424 0
2022-09-21 22:32:03 GMT 47.544594 15.021480 36,000 302 424 0
2022-09-21 22:31:59 GMT 47.540863 15.030327 36,000 302 424 64
2022-09-21 22:31:56 GMT 47.537796 15.037677 36,000 302 424 64
2022-09-21 22:31:53 GMT 47.534164 15.046340 36,000 302 424 0
2022-09-21 22:31:50 GMT 47.530952 15.053946 36,000 302 424 0
2022-09-21 22:31:47 GMT 47.527405 15.062256 36,000 302 424 0
2022-09-21 22:31:43 GMT 47.519360 15.081412 36,000 302 424 0
2022-09-21 22:31:40 GMT 47.517685 15.085355 36,000 302 424 -64
2022-09-21 22:31:37 GMT 47.517685 15.085355 36,000 302 424 -64
2022-09-21 22:31:34 GMT 47.514359 15.093224 36,000 302 424 -64
2022-09-21 22:31:31 GMT 47.508701 15.106694 36,000 302 424 -64
2022-09-21 22:31:25 GMT 47.505302 15.114793 36,000 302 423 64
2022-09-21 22:31:22 GMT 47.501484 15.123878 36,000 302 424 64
2022-09-21 22:31:19 GMT 47.495819 15.137444 36,000 302 424 64
2022-09-21 22:31:16 GMT 47.492203 15.146027 36,000 302 424 0
2022-09-21 22:31:13 GMT 47.488815 15.154129 36,000 302 424 0
2022-09-21 22:31:10 GMT 47.485703 15.161485 36,000 302 423 0
2022-09-21 22:31:06 GMT 47.485703 15.161485 36,000 302 424 0
2022-09-21 22:31:03 GMT 47.481262 15.172050 36,000 302 424 0
2022-09-21 22:31:00 GMT 47.477051 15.182076 36,000 303 423 0
2022-09-21 22:30:58 GMT 47.473274 15.190923 36,000 303 422 0
2022-09-21 22:30:55 GMT 47.473274 15.190923 36,000 303 423 0
2022-09-21 22:30:51 GMT 47.470062 15.198529 36,000 303 424 0
2022-09-21 22:30:48 GMT 47.465824 15.208529 36,000 303 424 0
2022-09-21 22:30:45 GMT 47.464142 15.212494 36,000 303 424 0
2022-09-21 22:30:42 GMT 47.460842 15.220290 36,000 303 425 0
2022-09-21 22:30:39 GMT 47.455490 15.232819 36,000 303 425 64
2022-09-21 22:30:37 GMT 47.455490 15.232819 36,000 303 425 64
2022-09-21 22:30:34 GMT 47.451233 15.242844 36,000 303 425 64
2022-09-21 22:30:31 GMT 47.447983 15.250465 36,000 303 425 0
2022-09-21 22:30:28 GMT 47.445202 15.257052 36,000 303 425 0
2022-09-21 22:30:25 GMT 47.443016 15.262193 36,000 303 425 0
2022-09-21 22:30:22 GMT 47.440407 15.268390 36,000 303 425 0
2022-09-21 22:30:19 GMT 47.435806 15.279167 36,000 303 425 0
2022-09-21 22:30:16 GMT 47.433704 15.284095 36,000 303 425 0
2022-09-21 22:30:13 GMT 47.430588 15.291458 36,000 303 425 -64
2022-09-21 22:30:10 GMT 47.427383 15.299080 36,000 303 425 -64
2022-09-21 22:30:07 GMT 47.424133 15.306633 36,000 302 425 -64
2022-09-21 22:30:04 GMT 47.421413 15.313040 36,000 302 425 -64
2022-09-21 22:30:01 GMT 47.418320 15.320435 36,000 303 425 -64
2022-09-21 22:29:58 GMT 47.414658 15.329018 36,000 303 425 -64
2022-09-21 22:29:56 GMT 47.412060 15.335153 36,000 303 425 0
2022-09-21 22:29:53 GMT 47.408287 15.344027 36,000 303 425 0
2022-09-21 22:29:50 GMT 47.406425 15.348393 36,000 303 425 0
2022-09-21 22:29:47 GMT 47.403305 15.355797 36,000 303 425 0
2022-09-21 22:29:44 GMT 47.400372 15.362619 36,000 303 425 0
2022-09-21 22:29:41 GMT 47.396851 15.370972 36,000 303 425 0
2022-09-21 22:29:38 GMT 47.393715 15.378394 36,000 303 425 0
2022-09-21 22:29:35 GMT 47.390690 15.385507 36,000 303 425 -64
2022-09-21 22:29:32 GMT 47.386826 15.394592 36,000 303 425 -64
2022-09-21 22:29:28 GMT 47.383484 15.402420 36,000 303 425 0
2022-09-21 22:29:25 GMT 47.379936 15.410790 36,000 303 426 0
2022-09-21 22:29:22 GMT 47.376259 15.419382 36,000 303 426 64
2022-09-21 22:29:19 GMT 47.372581 15.427974 36,000 303 426 64
2022-09-21 22:29:14 GMT 47.369019 15.436272 36,000 303 426 0
2022-09-21 22:29:11 GMT 47.365356 15.444855 36,000 303 426 0
2022-09-21 22:29:08 GMT 47.361362 15.454172 36,000 303 426 0
2022-09-21 22:29:05 GMT 47.359406 15.458820 36,000 303 426 0
2022-09-21 22:29:02 GMT 47.356335 15.465933 36,000 303 426 0
2022-09-21 22:28:59 GMT 47.353226 15.473351 36,000 303 426 0
2022-09-21 22:28:57 GMT 47.351212 15.477951 36,000 303 426 0
2022-09-21 22:28:54 GMT 47.343842 15.495186 36,000 303 426 0
2022-09-21 22:28:51 GMT 47.341644 15.500336 36,000 303 426 0
2022-09-21 22:28:48 GMT 47.341644 15.500336 36,000 303 426 0
2022-09-21 22:28:45 GMT 47.335434 15.514808 36,000 303 426 0
2022-09-21 22:28:42 GMT 47.335434 15.514808 36,000 303 426 0
2022-09-21 22:28:39 GMT 47.332077 15.522652 36,000 303 426 0
2022-09-21 22:28:37 GMT 47.329334 15.529034 36,000 303 426 0
2022-09-21 22:28:33 GMT 47.324772 15.539598 36,000 303 426 -64
2022-09-21 22:28:29 GMT 47.320358 15.549843 36,000 303 426 -64
2022-09-21 22:28:26 GMT 47.318672 15.553824 36,000 303 426 -64
2022-09-21 22:28:22 GMT 47.314041 15.564606 36,000 303 428 64
2022-09-21 22:28:19 GMT 47.310482 15.572909 36,000 303 427 0
2022-09-21 22:28:16 GMT 47.308247 15.578120 36,000 303 428 64
2022-09-21 22:28:12 GMT 47.300354 15.596466 36,000 303 428 64
2022-09-21 22:28:09 GMT 47.297516 15.603127 36,000 303 427 64
2022-09-21 22:28:06 GMT 47.297516 15.603127 36,000 303 427 64
2022-09-21 22:28:03 GMT 47.294094 15.610938 36,000 303 428 0
2022-09-21 22:27:59 GMT 47.290192 15.620087 36,000 303 428 0
2022-09-21 22:27:56 GMT 47.286507 15.628686 36,000 303 428 0
2022-09-21 22:27:52 GMT 47.282269 15.638475 36,000 303 428 -64
2022-09-21 22:27:49 GMT 47.278885 15.646385 36,000 303 428 -64
2022-09-21 22:27:46 GMT 47.272217 15.661856 36,000 303 428 64
2022-09-21 22:27:43 GMT 47.272217 15.661856 36,000 303 428 64
2022-09-21 22:27:40 GMT 47.269272 15.668701 36,000 303 428 0
2022-09-21 22:27:37 GMT 47.266617 15.674881 36,000 303 428 -64
2022-09-21 22:27:34 GMT 47.263882 15.681223 36,000 303 428 -64
2022-09-21 22:27:32 GMT 47.261974 15.685660 36,000 303 428 0
2022-09-21 22:27:29 GMT 47.257965 15.695000 36,000 303 428 0
2022-09-21 22:27:26 GMT 47.254120 15.703857 36,000 303 427 0
2022-09-21 22:27:22 GMT 47.250755 15.711717 36,000 303 428 0
2022-09-21 22:27:19 GMT 47.247620 15.719101 36,000 303 428 0
2022-09-21 22:27:16 GMT 47.244324 15.726723 36,000 303 428 64
2022-09-21 22:27:13 GMT 47.240559 15.735591 36,000 303 428 64
2022-09-21 22:27:09 GMT 47.236313 15.745399 36,000 303 428 64
2022-09-21 22:27:06 GMT 47.234207 15.750343 36,000 303 428 0
2022-09-21 22:27:03 GMT 47.230644 15.758690 36,000 303 428 0
2022-09-21 22:27:00 GMT 47.226406 15.768550 36,000 303 428 0
2022-09-21 22:26:57 GMT 47.224407 15.773268 36,000 303 429 0
2022-09-21 22:26:54 GMT 47.221344 15.780418 36,000 303 429 0
2022-09-21 22:26:51 GMT 47.217316 15.789757 36,000 303 429 0
2022-09-21 22:26:48 GMT 47.214676 15.795875 36,000 303 429 0
2022-09-21 22:26:45 GMT 47.211418 15.803551 36,000 303 429 0
2022-09-21 22:26:41 GMT 47.207794 15.811867 36,000 303 429 0
2022-09-21 22:26:38 GMT 47.204018 15.820735 36,000 303 429 64
2022-09-21 22:26:35 GMT 47.201248 15.827110 36,000 303 429 0
2022-09-21 22:26:32 GMT 47.197540 15.835762 36,000 303 429 0
2022-09-21 22:26:29 GMT 47.194473 15.842903 36,000 304 429 -64
2022-09-21 22:26:26 GMT 47.191631 15.849187 36,000 306 427 -64
2022-09-21 22:26:23 GMT 47.188293 15.856361 36,000 307 427 0
2022-09-21 22:26:20 GMT 47.183762 15.865562 36,000 308 426 0
2022-09-21 22:26:16 GMT 47.179092 15.874557 36,000 308 427 0
2022-09-21 22:26:13 GMT 47.176735 15.879118 36,000 308 427 0
2022-09-21 22:26:10 GMT 47.172455 15.887466 36,000 308 427 0
2022-09-21 22:26:07 GMT 47.169205 15.893715 36,000 308 428 0
2022-09-21 22:26:04 GMT 47.162888 15.905937 36,000 308 428 0
2022-09-21 22:26:01 GMT 47.162888 15.905937 36,000 308 428 0
2022-09-21 22:25:58 GMT 47.157837 15.915598 36,000 308 428 64
2022-09-21 22:25:55 GMT 47.154968 15.921181 36,000 308 428 64
2022-09-21 22:25:52 GMT 47.147324 15.935944 36,000 308 428 0
2022-09-21 22:25:49 GMT 47.147324 15.935944 36,000 308 428 0
2022-09-21 22:25:45 GMT 47.142521 15.945176 36,000 308 428 -64
2022-09-21 22:25:42 GMT 47.140137 15.949814 36,000 308 428 -64
2022-09-21 22:25:39 GMT 47.136658 15.956474 36,000 308 428 -64
2022-09-21 22:25:37 GMT 47.133072 15.963416 36,000 308 428 0
2022-09-21 22:25:34 GMT 47.129242 15.970757 36,000 308 428 0
2022-09-21 22:25:31 GMT 47.125992 15.977005 36,000 308 428 -64
2022-09-21 22:25:28 GMT 47.121323 15.986000 36,000 308 428 -64
2022-09-21 22:25:25 GMT 47.118919 15.990601 36,000 308 428 0
2022-09-21 22:25:22 GMT 47.115417 15.997330 36,000 308 428 0
2022-09-21 22:25:19 GMT 47.110382 16.007011 36,000 308 428 64
2022-09-21 22:25:16 GMT 47.108688 16.010170 36,000 308 428 64
2022-09-21 22:25:13 GMT 47.104248 16.018684 36,000 308 430 0
2022-09-21 22:25:09 GMT 47.099762 16.027267 36,000 308 429 0
2022-09-21 22:25:07 GMT 47.097458 16.031588 36,000 308 429 0
2022-09-21 22:25:04 GMT 47.093967 16.038279 36,000 308 429 0
2022-09-21 22:25:00 GMT 47.088913 16.048004 36,000 308 429 0
2022-09-21 22:24:57 GMT 47.084930 16.055557 36,000 308 429 64
2022-09-21 22:24:54 GMT 47.081909 16.061325 36,000 308 429 64
2022-09-21 22:24:51 GMT 47.078156 16.068466 36,000 308 429 0
2022-09-21 22:24:48 GMT 47.073349 16.077736 36,000 308 429 -64
2022-09-21 22:24:45 GMT 47.071529 16.081167 36,000 308 429 -64
2022-09-21 22:24:42 GMT 47.066940 16.089958 36,000 308 429 -64
2022-09-21 22:24:39 GMT 47.062592 16.098198 36,000 308 429 -64
2022-09-21 22:24:36 GMT 47.059479 16.104240 36,000 308 429 0
2022-09-21 22:24:33 GMT 47.057049 16.108845 36,000 308 430 0
2022-09-21 22:24:30 GMT 47.051743 16.118935 36,000 308 429 0
2022-09-21 22:24:27 GMT 47.048111 16.125816 36,000 308 430 0
2022-09-21 22:24:24 GMT 47.045197 16.131363 36,000 308 429 0
2022-09-21 22:24:21 GMT 47.041595 16.138283 36,000 308 429 64
2022-09-21 22:24:18 GMT 47.038338 16.144480 36,000 308 429 64
2022-09-21 22:24:15 GMT 47.034565 16.151663 36,000 308 430 64
2022-09-21 22:24:12 GMT 47.027481 16.165283 36,000 308 432 0
2022-09-21 22:24:09 GMT 47.027481 16.165283 36,000 308 430 0
2022-09-21 22:24:06 GMT 47.023773 16.172424 36,000 308 430 -64
2022-09-21 22:24:03 GMT 47.020134 16.179411 36,000 308 430 -64
2022-09-21 22:23:59 GMT 47.015076 16.189110 36,000 308 430 0
2022-09-21 22:23:56 GMT 47.011940 16.195114 36,000 308 430 0
2022-09-21 22:23:53 GMT 47.008163 16.202225 36,000 308 431 0
2022-09-21 22:23:50 GMT 47.002956 16.212158 36,000 308 431 0
2022-09-21 22:23:47 GMT 46.999420 16.218849 36,000 308 431 0
2022-09-21 22:23:44 GMT 46.997818 16.221863 36,000 308 431 0
2022-09-21 22:23:42 GMT 46.994293 16.228523 36,000 308 431 0
2022-09-21 22:23:39 GMT 46.990540 16.235664 36,000 308 432 0
2022-09-21 22:23:36 GMT 46.986740 16.242805 36,000 308 432 0
2022-09-21 22:23:33 GMT 46.983673 16.248573 36,000 308 432 0
2022-09-21 22:23:29 GMT 46.978455 16.258530 36,000 308 432 -64
2022-09-21 22:23:26 GMT 46.974060 16.266838 36,000 308 432 -64
2022-09-21 22:23:22 GMT 46.971130 16.272331 36,000 308 432 -64
2022-09-21 22:23:19 GMT 46.962086 16.289415 36,000 308 432 0
2022-09-21 22:23:16 GMT 46.962086 16.289415 36,000 308 432 0
2022-09-21 22:23:13 GMT 46.958908 16.295403 36,000 308 432 0
2022-09-21 22:23:10 GMT 46.955521 16.301857 36,000 308 432 0
2022-09-21 22:23:07 GMT 46.951721 16.309067 36,000 308 432 0
2022-09-21 22:23:05 GMT 46.949516 16.313217 36,000 308 432 0
2022-09-21 22:23:02 GMT 46.946022 16.319908 36,000 308 432 -64
2022-09-21 22:22:59 GMT 46.941368 16.328712 36,000 308 431 -64
2022-09-21 22:22:56 GMT 46.938950 16.333305 36,000 308 431 -64
2022-09-21 22:22:53 GMT 46.934711 16.341389 36,000 308 431 0
2022-09-21 22:22:50 GMT 46.930069 16.350128 36,000 308 431 0
2022-09-21 22:22:47 GMT 46.927402 16.355263 36,000 308 431 0
2022-09-21 22:22:45 GMT 46.924988 16.359879 36,000 308 431 0
2022-09-21 22:22:42 GMT 46.921234 16.367020 36,000 308 431 0
2022-09-21 22:22:39 GMT 46.918167 16.372787 36,000 308 431 0
2022-09-21 22:22:36 GMT 46.913345 16.382025 36,000 308 431 0
2022-09-21 22:22:32 GMT 46.909573 16.389137 36,000 308 431 64
2022-09-21 22:22:29 GMT 46.904938 16.397919 36,000 308 431 0
2022-09-21 22:22:26 GMT 46.902420 16.402794 36,000 308 431 0
2022-09-21 22:22:23 GMT 46.898895 16.409454 36,000 308 431 0
2022-09-21 22:22:21 GMT 46.896927 16.413094 36,000 308 431 0
2022-09-21 22:22:18 GMT 46.887924 16.430124 36,000 308 431 0
2022-09-21 22:22:15 GMT 46.887924 16.430124 36,000 308 430 0
2022-09-21 22:22:12 GMT 46.884247 16.437057 36,000 308 431 0
2022-09-21 22:22:09 GMT 46.881966 16.441393 36,000 308 431 0
2022-09-21 22:22:06 GMT 46.878021 16.448730 36,000 308 431 0
2022-09-21 22:22:03 GMT 46.875126 16.454210 36,000 309 430 -64
2022-09-21 22:22:01 GMT 46.871429 16.461090 36,000 309 430 -64
2022-09-21 22:21:57 GMT 46.862740 16.477226 36,000 309 430 0
2022-09-21 22:21:54 GMT 46.859528 16.483177 36,000 309 429 0
2022-09-21 22:21:51 GMT 46.859528 16.483177 36,000 309 429 0
2022-09-21 22:21:48 GMT 46.855152 16.491371 36,000 309 430 0
2022-09-21 22:21:45 GMT 46.849007 16.502701 36,000 309 428 0
2022-09-21 22:21:43 GMT 46.849007 16.502701 36,000 309 428 -64
2022-09-21 22:21:40 GMT 46.845192 16.509705 36,000 309 428 0
2022-09-21 22:21:37 GMT 46.842400 16.514992 36,000 309 428 0
2022-09-21 22:21:34 GMT 46.837605 16.523781 36,000 309 428 0
2022-09-21 22:21:31 GMT 46.834900 16.528797 36,000 309 428 0
2022-09-21 22:21:27 GMT 46.827221 16.543076 36,000 309 428 0
2022-09-21 22:21:24 GMT 46.827221 16.543076 36,000 309 428 64
2022-09-21 22:21:21 GMT 46.822586 16.551640 36,000 309 428 64
2022-09-21 22:21:18 GMT 46.818935 16.558456 36,000 309 427 -64
2022-09-21 22:21:15 GMT 46.814301 16.567047 36,000 309 427 -64
2022-09-21 22:21:11 GMT 46.810272 16.574551 36,000 309 427 -64
2022-09-21 22:21:07 GMT 46.805008 16.584265 36,000 309 427 64
2022-09-21 22:21:04 GMT 46.801117 16.591433 36,000 309 426 64
2022-09-21 22:21:01 GMT 46.797337 16.598419 36,000 309 426 64
2022-09-21 22:20:56 GMT 46.791748 16.608856 36,000 309 426 64
2022-09-21 22:20:54 GMT 46.789284 16.613388 36,000 309 426 64
2022-09-21 22:20:52 GMT 46.787338 16.616955 36,000 309 426 64
2022-09-21 22:20:49 GMT 46.778641 16.633234 36,000 309 426 0
2022-09-21 22:20:45 GMT 46.778641 16.633234 36,000 309 425 -64
2022-09-21 22:20:42 GMT 46.772324 16.644957 36,000 309 426 -64
2022-09-21 22:20:39 GMT 46.772324 16.644957 36,000 309 425 -64
2022-09-21 22:20:36 GMT 46.766376 16.656029 36,000 309 424 0
2022-09-21 22:20:33 GMT 46.764656 16.659187 36,000 309 425 0
2022-09-21 22:20:30 GMT 46.760651 16.666603 36,000 309 425 0
2022-09-21 22:20:26 GMT 46.755440 16.676216 36,000 309 425 64
2022-09-21 22:20:24 GMT 46.752876 16.680954 36,000 309 425 64
2022-09-21 22:20:19 GMT 46.747383 16.691048 36,000 309 425 0
2022-09-21 22:20:15 GMT 46.743149 16.698944 36,000 309 425 0
2022-09-21 22:20:13 GMT 46.739960 16.704779 36,000 309 425 -64
2022-09-21 22:20:10 GMT 46.736351 16.711510 36,000 309 424 -64
2022-09-21 22:20:07 GMT 46.732452 16.718645 36,000 309 424 -64
2022-09-21 22:20:03 GMT 46.728653 16.725613 36,000 309 424 64
2022-09-21 22:20:00 GMT 46.723343 16.735460 36,000 309 424 0
2022-09-21 22:19:57 GMT 46.719452 16.742615 36,000 309 424 64
2022-09-21 22:19:53 GMT 46.715195 16.750399 36,000 309 424 0
2022-09-21 22:19:49 GMT 46.709724 16.760468 36,000 309 423 -64
2022-09-21 22:19:45 GMT 46.705124 16.768955 36,000 309 422 0
2022-09-21 22:19:42 GMT 46.702694 16.773445 36,000 309 422 0
2022-09-21 22:19:39 GMT 46.698738 16.780792 36,000 309 422 0
2022-09-21 22:19:35 GMT 46.694595 16.788315 36,000 309 422 0
2022-09-21 22:19:32 GMT 46.690498 16.795898 36,000 309 422 0
2022-09-21 22:19:28 GMT 46.685192 16.805649 36,000 309 420 0
2022-09-21 22:19:25 GMT 46.681320 16.812765 36,000 309 420 0
2022-09-21 22:19:22 GMT 46.678299 16.818327 36,000 309 420 0
2022-09-21 22:19:19 GMT 46.674545 16.825159 36,000 309 420 -64
2022-09-21 22:19:15 GMT 46.670334 16.832930 36,000 309 420 -64
2022-09-21 22:19:12 GMT 46.666122 16.840700 36,000 309 420 0
2022-09-21 22:19:09 GMT 46.662140 16.848003 36,000 309 420 0
2022-09-21 22:19:06 GMT 46.655769 16.859756 36,000 309 420 0
2022-09-21 22:19:03 GMT 46.655769 16.859756 36,000 309 420 64
2022-09-21 22:19:01 GMT 46.652744 16.865250 36,000 309 420 64
2022-09-21 22:18:58 GMT 46.649857 16.870605 36,000 309 421 64
2022-09-21 22:18:55 GMT 46.645889 16.877880 36,000 309 421 0
2022-09-21 22:18:52 GMT 46.641174 16.886456 36,000 309 420 0
2022-09-21 22:18:49 GMT 46.638153 16.892015 36,000 309 420 0
2022-09-21 22:18:46 GMT 46.634171 16.899317 36,000 309 420 0
2022-09-21 22:18:43 GMT 46.630646 16.905682 36,000 309 420 0
2022-09-21 22:18:40 GMT 46.626434 16.913452 36,000 309 420 0
2022-09-21 22:18:37 GMT 46.624020 16.917847 36,000 309 420 0
2022-09-21 22:18:34 GMT 46.620117 16.924908 36,000 309 419 0
2022-09-21 22:18:31 GMT 46.616409 16.931740 36,000 309 419 0
2022-09-21 22:18:27 GMT 46.611191 16.941254 36,000 309 420 0
2022-09-21 22:18:23 GMT 46.606609 16.949638 36,000 309 420 0
2022-09-21 22:18:20 GMT 46.604187 16.954048 36,000 309 420 0
2022-09-21 22:18:17 GMT 46.599861 16.961929 36,000 309 420 0
2022-09-21 22:18:14 GMT 46.595032 16.970795 36,000 309 419 -64
2022-09-21 22:18:11 GMT 46.591621 16.976967 36,000 309 420 0
2022-09-21 22:18:08 GMT 46.588989 16.981783 36,000 309 419 0
2022-09-21 22:18:05 GMT 46.585007 16.989084 36,000 309 420 0
2022-09-21 22:18:02 GMT 46.581985 16.994614 36,000 309 420 0
2022-09-21 22:17:59 GMT 46.578186 17.001678 36,000 309 419 -64
2022-09-21 22:17:56 GMT 46.573978 17.009377 36,000 309 419 -64
2022-09-21 22:17:53 GMT 46.570625 17.015556 36,000 309 419 0
2022-09-21 22:17:50 GMT 46.567474 17.021305 36,000 309 419 0
2022-09-21 22:17:47 GMT 46.563766 17.028139 36,000 309 419 0
2022-09-21 22:17:43 GMT 46.557499 17.039520 36,000 309 419 64
2022-09-21 22:17:40 GMT 46.555218 17.043709 36,000 309 418 -64
2022-09-21 22:17:37 GMT 46.551361 17.050714 36,000 309 419 -64
2022-09-21 22:17:34 GMT 46.547722 17.057304 36,000 309 418 -64
2022-09-21 22:17:31 GMT 46.544083 17.063845 36,000 309 418 -64
2022-09-21 22:17:27 GMT 46.539806 17.071518 36,000 309 418 0
2022-09-21 22:17:24 GMT 46.531101 17.087242 36,000 309 419 64
2022-09-21 22:17:20 GMT 46.531101 17.087242 36,000 309 419 64
2022-09-21 22:17:17 GMT 46.527332 17.094040 36,000 309 419 0
2022-09-21 22:17:14 GMT 46.523712 17.100622 36,000 309 419 0
2022-09-21 22:17:10 GMT 46.518768 17.109598 36,000 309 419 0
2022-09-21 22:17:06 GMT 46.514786 17.116833 36,000 309 419 0
2022-09-21 22:17:02 GMT 46.508240 17.128691 36,000 309 419 64
2022-09-21 22:16:59 GMT 46.505356 17.133984 36,000 309 419 64
2022-09-21 22:16:56 GMT 46.500549 17.142757 36,000 309 421 -64
2022-09-21 22:16:53 GMT 46.498238 17.146912 36,000 309 419 -64
2022-09-21 22:16:50 GMT 46.495491 17.151993 36,000 309 419 -64
2022-09-21 22:16:47 GMT 46.490891 17.160378 36,000 309 419 0
2022-09-21 22:16:43 GMT 46.486542 17.168215 36,000 309 419 0
2022-09-21 22:16:40 GMT 46.482410 17.175682 36,000 309 419 0
2022-09-21 22:16:37 GMT 46.478172 17.183372 36,000 309 419 0
2022-09-21 22:16:34 GMT 46.474548 17.189985 36,000 309 419 -64
2022-09-21 22:16:30 GMT 46.465744 17.205963 36,000 309 419 0
2022-09-21 22:16:26 GMT 46.465744 17.205963 36,000 309 419 0
2022-09-21 22:16:23 GMT 46.462372 17.212160 36,000 309 419 64
2022-09-21 22:16:20 GMT 46.458714 17.218666 36,000 309 419 0
2022-09-21 22:16:17 GMT 46.454636 17.226160 36,000 309 419 0
2022-09-21 22:16:14 GMT 46.450378 17.233797 36,000 309 419 -64
2022-09-21 22:16:10 GMT 46.446121 17.241501 36,000 309 419 -64
2022-09-21 22:16:06 GMT 46.440582 17.251551 36,000 309 419 0
2022-09-21 22:16:03 GMT 46.432739 17.265839 36,000 309 419 0
2022-09-21 22:15:59 GMT 46.432739 17.265839 36,000 309 419 0
2022-09-21 22:15:55 GMT 46.428131 17.274193 36,000 309 419 0
2022-09-21 22:15:52 GMT 46.419159 17.290403 36,000 309 419 -64
2022-09-21 22:15:48 GMT 46.419159 17.290403 36,000 309 419 0
2022-09-21 22:15:44 GMT 46.415176 17.297640 36,000 309 419 0
2022-09-21 22:15:41 GMT 46.412022 17.303329 36,000 309 419 0
2022-09-21 22:15:38 GMT 46.407303 17.311909 36,000 309 420 0
2022-09-21 22:15:35 GMT 46.403915 17.318071 36,000 309 420 0
2022-09-21 22:15:32 GMT 46.400291 17.324615 36,000 309 420 0
2022-09-21 22:15:29 GMT 46.396637 17.331202 36,000 309 420 0
2022-09-21 22:15:26 GMT 46.392654 17.338434 36,000 309 420 0
2022-09-21 22:15:23 GMT 46.389359 17.344398 36,000 309 420 64
2022-09-21 22:15:17 GMT 46.381805 17.357929 36,000 309 421 64
2022-09-21 22:15:14 GMT 46.379379 17.362350 36,000 309 421 64
2022-09-21 22:15:10 GMT 46.372787 17.374142 36,000 309 421 0
2022-09-21 22:15:07 GMT 46.369217 17.380505 36,000 309 421 0
2022-09-21 22:15:03 GMT 46.363770 17.390352 36,000 309 421 0
2022-09-21 22:14:59 GMT 46.360119 17.396919 36,000 309 421 -64
2022-09-21 22:14:56 GMT 46.356674 17.403082 36,000 309 421 -64
2022-09-21 22:14:53 GMT 46.353653 17.408573 36,000 309 421 0
2022-09-21 22:14:50 GMT 46.349121 17.416679 36,000 309 421 0
2022-09-21 22:14:47 GMT 46.345966 17.422394 36,000 309 421 0
2022-09-21 22:14:44 GMT 46.341797 17.429876 36,000 309 421 0
2022-09-21 22:14:41 GMT 46.338142 17.436470 36,000 309 422 0
2022-09-21 22:14:37 GMT 46.333164 17.445465 36,000 309 422 0
2022-09-21 22:14:34 GMT 46.330090 17.450958 36,000 309 422 64
2022-09-21 22:14:31 GMT 46.321472 17.466587 36,000 309 422 0
2022-09-21 22:14:28 GMT 46.321472 17.466587 36,000 309 422 0
2022-09-21 22:14:24 GMT 46.317444 17.473822 36,000 309 421 0
2022-09-21 22:14:21 GMT 46.313278 17.481325 36,000 309 423 0
2022-09-21 22:14:18 GMT 46.310211 17.486818 36,000 309 423 0
2022-09-21 22:14:15 GMT 46.305084 17.495995 36,000 309 423 0
2022-09-21 22:14:12 GMT 46.302765 17.500191 36,000 309 423 0
2022-09-21 22:14:08 GMT 46.297272 17.510078 36,000 309 422 0
2022-09-21 22:14:04 GMT 46.289639 17.523674 36,000 309 423 0
2022-09-21 22:14:01 GMT 46.289639 17.523674 36,000 310 423 0
2022-09-21 22:13:57 GMT 46.284328 17.533081 36,000 310 423 0
2022-09-21 22:13:53 GMT 46.279442 17.541870 36,000 310 423 0
2022-09-21 22:13:50 GMT 46.274601 17.550385 36,000 310 423 64
2022-09-21 22:13:47 GMT 46.271667 17.555672 36,000 310 423 0
2022-09-21 22:13:44 GMT 46.268082 17.561989 36,000 310 424 0
2022-09-21 22:13:41 GMT 46.264965 17.567482 36,000 310 424 -64
2022-09-21 22:13:37 GMT 46.260029 17.576271 36,000 310 423 -64
2022-09-21 22:13:34 GMT 46.255051 17.584957 36,000 310 423 -64
2022-09-21 22:13:31 GMT 46.252487 17.589592 36,000 310 423 0
2022-09-21 22:13:28 GMT 46.247406 17.598557 36,000 310 424 64
2022-09-21 22:13:25 GMT 46.243923 17.604698 36,000 310 424 64
2022-09-21 22:13:21 GMT 46.240944 17.609917 36,000 309 424 0
2022-09-21 22:13:18 GMT 46.236149 17.618500 36,000 309 424 0
2022-09-21 22:13:15 GMT 46.232330 17.625366 36,000 309 424 0
2022-09-21 22:13:12 GMT 46.229725 17.629967 36,000 309 425 0
2022-09-21 22:13:07 GMT 46.222961 17.642099 36,000 309 425 0
2022-09-21 22:13:04 GMT 46.215591 17.655296 36,000 309 425 0
2022-09-21 22:13:01 GMT 46.215591 17.655296 36,000 309 425 0
2022-09-21 22:12:57 GMT 46.209778 17.665682 36,000 309 425 0
2022-09-21 22:12:53 GMT 46.204971 17.674322 36,000 309 425 0
2022-09-21 22:12:49 GMT 46.201000 17.681328 36,000 309 425 0
2022-09-21 22:12:46 GMT 46.196548 17.689260 36,000 309 426 64
2022-09-21 22:12:43 GMT 46.192749 17.696161 36,000 310 426 0
2022-09-21 22:12:40 GMT 46.190388 17.700348 36,000 309 426 0
2022-09-21 22:12:37 GMT 46.185196 17.709558 36,000 309 425 0
2022-09-21 22:12:33 GMT 46.180481 17.717934 36,000 310 426 0
2022-09-21 22:12:30 GMT 46.178009 17.722355 36,000 310 426 0
2022-09-21 22:12:27 GMT 46.173256 17.730698 36,000 310 426 0
2022-09-21 22:12:24 GMT 46.165970 17.743725 36,000 310 426 0
2022-09-21 22:12:21 GMT 46.165970 17.743725 36,000 309 425 -64
2022-09-21 22:12:17 GMT 46.159756 17.754730 36,000 309 425 0
2022-09-21 22:12:14 GMT 46.157150 17.759331 36,000 309 425 0
2022-09-21 22:12:11 GMT 46.153427 17.765965 36,000 309 425 0
2022-09-21 22:12:06 GMT 46.146862 17.777596 36,000 309 425 64
2022-09-21 22:12:03 GMT 46.142017 17.786179 36,000 309 425 0
2022-09-21 22:12:00 GMT 46.140808 17.788376 36,000 309 425 0
2022-09-21 22:11:57 GMT 46.134979 17.798721 36,000 309 425 0
2022-09-21 22:11:54 GMT 46.132103 17.803825 36,000 310 426 0
2022-09-21 22:11:50 GMT 46.127518 17.811918 36,000 310 426 0
2022-09-21 22:11:47 GMT 46.119095 17.826859 36,000 310 426 0
2022-09-21 22:11:44 GMT 46.119095 17.826859 36,000 310 426 0
2022-09-21 22:11:41 GMT 46.116852 17.830877 36,000 310 426 0
2022-09-21 22:11:38 GMT 46.111759 17.839874 36,000 310 426 0
2022-09-21 22:11:35 GMT 46.108780 17.845093 36,000 310 426 0
2022-09-21 22:11:32 GMT 46.104916 17.851959 36,000 310 426 0
2022-09-21 22:11:29 GMT 46.101700 17.857607 36,000 310 426 0
2022-09-21 22:11:26 GMT 46.093964 17.871271 36,000 310 426 64
2022-09-21 22:11:23 GMT 46.093964 17.871271 36,000 310 426 64
2022-09-21 22:11:19 GMT 46.088745 17.880516 36,000 310 426 64
2022-09-21 22:11:13 GMT 46.081455 17.893501 36,000 309 426 0
2022-09-21 22:11:10 GMT 46.077126 17.901192 36,000 310 426 0
2022-09-21 22:11:05 GMT 46.072174 17.909992 36,000 310 427 0
2022-09-21 22:11:02 GMT 46.064602 17.923439 36,000 310 427 0
2022-09-21 22:10:59 GMT 46.064602 17.923439 36,000 310 427 0
2022-09-21 22:10:56 GMT 46.059631 17.932234 36,000 310 427 0
2022-09-21 22:10:53 GMT 46.057247 17.936417 36,000 310 426 0
2022-09-21 22:10:50 GMT 46.052902 17.944090 36,000 310 426 0
2022-09-21 22:10:43 GMT 46.045120 17.957956 36,000 310 426 0
2022-09-21 22:10:40 GMT 46.040634 17.965862 36,000 310 426 -64
2022-09-21 22:10:37 GMT 46.037788 17.970886 36,000 310 426 0
2022-09-21 22:10:33 GMT 46.031830 17.981461 36,000 310 426 0
2022-09-21 22:10:30 GMT 46.020630 18.001165 36,000 310 426 0
2022-09-21 22:10:24 GMT 46.020630 18.001165 36,000 310 426 0
2022-09-21 22:10:21 GMT 46.016655 18.008171 36,000 310 427 64
2022-09-21 22:10:18 GMT 46.012791 18.014969 36,000 310 427 0
2022-09-21 22:10:13 GMT 46.005936 18.027023 36,000 310 427 0
2022-09-21 22:10:10 GMT 46.003967 18.030575 36,000 310 427 0
2022-09-21 22:10:07 GMT 45.998566 18.039953 36,000 310 426 -64
2022-09-21 22:10:03 GMT 45.994354 18.047447 36,000 310 427 -64
2022-09-21 22:10:00 GMT 45.990601 18.054022 36,000 310 427 0
2022-09-21 22:09:57 GMT 45.984329 18.064939 36,000 310 427 0
2022-09-21 22:09:53 GMT 45.982346 18.068459 36,000 310 427 0
2022-09-21 22:09:50 GMT 45.978104 18.075926 36,000 310 427 0
2022-09-21 22:09:47 GMT 45.969776 18.090637 36,000 310 427 0
2022-09-21 22:09:43 GMT 45.964783 18.099373 36,000 310 427 0
2022-09-21 22:09:40 GMT 45.964783 18.099373 36,000 310 427 0
2022-09-21 22:09:36 GMT 45.956039 18.114714 36,000 310 427 0
2022-09-21 22:09:33 GMT 45.956039 18.114714 36,000 310 427 0
2022-09-21 22:09:30 GMT 45.953796 18.118666 36,000 310 427 64
2022-09-21 22:09:27 GMT 45.950039 18.125244 36,000 310 427 64
2022-09-21 22:09:23 GMT 45.945511 18.133137 36,000 310 427 0
2022-09-21 22:09:20 GMT 45.940540 18.141861 36,000 310 427 64
2022-09-21 22:09:17 GMT 45.937500 18.147137 36,000 310 427 64
2022-09-21 22:09:14 GMT 45.933746 18.153671 36,000 310 427 0
2022-09-21 22:09:11 GMT 45.928986 18.162008 36,000 310 427 0
2022-09-21 22:09:08 GMT 45.924591 18.169645 36,000 310 427 0
2022-09-21 22:09:04 GMT 45.920700 18.176477 36,000 310 427 -64
2022-09-21 22:09:01 GMT 45.917454 18.182167 36,000 310 428 -64
2022-09-21 22:08:58 GMT 45.913074 18.189857 36,000 310 427 -64
2022-09-21 22:08:55 GMT 45.907677 18.199265 36,000 310 427 0
2022-09-21 22:08:51 GMT 45.904678 18.204548 36,000 310 428 0
2022-09-21 22:08:47 GMT 45.898682 18.215063 36,000 310 428 0
2022-09-21 22:08:42 GMT 45.893509 18.224041 36,000 310 428 0
2022-09-21 22:08:38 GMT 45.887611 18.234352 36,000 310 427 0
2022-09-21 22:08:33 GMT 45.881607 18.244875 36,000 310 428 0
2022-09-21 22:08:30 GMT 45.878494 18.250301 36,000 310 428 0
2022-09-21 22:08:27 GMT 45.874950 18.256462 36,000 310 428 0
2022-09-21 22:08:24 GMT 45.869431 18.266109 36,000 310 428 0
2022-09-21 22:08:21 GMT 45.866821 18.270733 36,000 310 428 0
2022-09-21 22:08:18 GMT 45.863914 18.275757 36,000 310 429 0
2022-09-21 22:08:15 GMT 45.859402 18.283653 36,000 310 428 64
2022-09-21 22:08:12 GMT 45.855026 18.291344 36,000 310 428 -64
2022-09-21 22:08:08 GMT 45.849518 18.301012 36,000 310 428 -64
2022-09-21 22:08:05 GMT 45.847622 18.304253 36,000 310 428 -64
2022-09-21 22:08:02 GMT 45.840225 18.317225 36,000 310 428 64
2022-09-21 22:07:59 GMT 45.836220 18.324234 36,000 310 428 64
2022-09-21 22:07:56 GMT 45.836220 18.324234 36,000 310 428 64
2022-09-21 22:07:53 GMT 45.832073 18.331444 36,000 310 428 64
2022-09-21 22:07:50 GMT 45.828213 18.338242 36,000 310 428 64
2022-09-21 22:07:47 GMT 45.823929 18.345694 36,000 310 429 64
2022-09-21 22:07:43 GMT 45.818016 18.356026 36,000 310 429 0
2022-09-21 22:07:40 GMT 45.815781 18.360008 36,000 310 429 0
2022-09-21 22:07:37 GMT 45.811020 18.368338 36,000 310 429 0
2022-09-21 22:07:32 GMT 45.805958 18.377106 36,000 310 429 0
2022-09-21 22:07:29 GMT 45.801723 18.384521 36,000 310 429 0
2022-09-21 22:07:26 GMT 45.797653 18.391582 36,000 310 429 64
2022-09-21 22:07:23 GMT 45.794632 18.396807 36,000 310 429 64
2022-09-21 22:07:19 GMT 45.789734 18.405382 36,000 310 430 0
2022-09-21 22:07:16 GMT 45.785431 18.412819 36,000 310 429 -64
2022-09-21 22:07:11 GMT 45.778198 18.425278 36,000 310 430 -64
2022-09-21 22:07:07 GMT 45.768448 18.442093 36,000 310 430 -64
2022-09-21 22:07:03 GMT 45.768448 18.442093 36,000 310 430 -64
2022-09-21 22:06:59 GMT 45.763733 18.450130 36,000 310 429 0
2022-09-21 22:06:56 GMT 45.759521 18.457367 36,000 310 429 0
2022-09-21 22:06:53 GMT 45.756474 18.462593 36,000 310 429 0
2022-09-21 22:06:49 GMT 45.750870 18.472172 36,000 310 429 0
2022-09-21 22:06:46 GMT 45.746429 18.479740 36,000 310 429 0
2022-09-21 22:06:42 GMT 45.740570 18.489788 36,000 310 430 0
2022-09-21 22:06:38 GMT 45.737000 18.495886 36,000 310 430 0
2022-09-21 22:06:34 GMT 45.731289 18.505646 36,000 310 429 0
2022-09-21 22:06:31 GMT 45.728210 18.510891 36,000 310 430 0
2022-09-21 22:06:27 GMT 45.723816 18.518528 36,000 310 430 0
2022-09-21 22:06:23 GMT 45.717976 18.528580 36,000 310 430 0
2022-09-21 22:06:18 GMT 45.711411 18.539978 36,000 310 430 0
2022-09-21 22:06:15 GMT 45.707611 18.546530 36,000 310 430 0
2022-09-21 22:06:11 GMT 45.702667 18.555037 36,000 310 430 -64
2022-09-21 22:06:08 GMT 45.699493 18.560509 36,000 310 430 0
2022-09-21 22:06:05 GMT 45.689903 18.577126 36,000 310 430 0
2022-09-21 22:06:01 GMT 45.689903 18.577126 36,000 310 429 0
2022-09-21 22:05:57 GMT 45.685181 18.585182 36,000 310 429 0
2022-09-21 22:05:54 GMT 45.681385 18.591751 36,000 310 429 0
2022-09-21 22:05:50 GMT 45.676216 18.600746 36,000 310 429 0
2022-09-21 22:05:47 GMT 45.672134 18.607691 36,000 310 430 0
2022-09-21 22:05:44 GMT 45.668350 18.614273 36,000 310 430 0
2022-09-21 22:05:41 GMT 45.663929 18.621895 36,000 310 430 64
2022-09-21 22:05:38 GMT 45.660645 18.627586 36,000 310 430 64
2022-09-21 22:05:34 GMT 45.655315 18.636795 36,000 310 429 64
2022-09-21 22:05:31 GMT 45.651779 18.642906 36,000 310 430 0
2022-09-21 22:05:28 GMT 45.646820 18.651436 36,000 310 430 0
2022-09-21 22:05:25 GMT 45.643909 18.656433 36,000 310 430 0
2022-09-21 22:05:22 GMT 45.640743 18.661858 36,000 310 430 0
2022-09-21 22:05:19 GMT 45.637581 18.667351 36,000 310 430 0
2022-09-21 22:05:16 GMT 45.633434 18.674561 36,000 310 430 0
2022-09-21 22:05:13 GMT 45.629105 18.681984 36,000 310 430 0
2022-09-21 22:05:10 GMT 45.625443 18.688347 36,000 310 429 64
2022-09-21 22:05:06 GMT 45.620632 18.696602 36,000 310 429 0
2022-09-21 22:05:03 GMT 45.616104 18.704426 36,000 310 429 -64
2022-09-21 22:04:59 GMT 45.612396 18.710789 36,000 310 429 -64
2022-09-21 22:04:56 GMT 45.608345 18.717751 36,000 310 429 0
2022-09-21 22:04:53 GMT 45.600082 18.731823 36,000 310 428 0
2022-09-21 22:04:50 GMT 45.600082 18.731823 36,000 310 428 0
2022-09-21 22:04:46 GMT 45.591293 18.746761 36,000 311 428 0
2022-09-21 22:04:43 GMT 45.591293 18.746761 36,000 311 428 0
2022-09-21 22:04:39 GMT 45.586807 18.754265 36,000 311 428 0
2022-09-21 22:04:36 GMT 45.582367 18.761835 36,000 311 428 0
2022-09-21 22:04:33 GMT 45.573292 18.777145 36,000 311 428 0
2022-09-21 22:04:29 GMT 45.573292 18.777145 36,000 311 428 0
2022-09-21 22:04:25 GMT 45.568222 18.785749 36,000 311 428 0
2022-09-21 22:04:22 GMT 45.565144 18.790947 36,000 310 428 0
2022-09-21 22:04:19 GMT 45.561081 18.797874 36,000 310 428 0
2022-09-21 22:04:16 GMT 45.557278 18.804337 36,000 310 428 64
2022-09-21 22:04:13 GMT 45.552475 18.812546 36,000 310 428 64
2022-09-21 22:04:09 GMT 45.547920 18.820335 36,000 310 428 0
2022-09-21 22:04:06 GMT 45.544243 18.826614 36,000 310 428 -64
2022-09-21 22:04:02 GMT 45.539154 18.835209 36,000 310 428 -64
2022-09-21 22:03:59 GMT 45.535351 18.841686 36,000 310 428 -64
2022-09-21 22:03:55 GMT 45.531052 18.849009 36,000 310 427 -64
2022-09-21 22:03:51 GMT 45.525574 18.858299 36,000 310 427 0
2022-09-21 22:03:48 GMT 45.522034 18.864309 36,000 310 427 0
2022-09-21 22:03:45 GMT 45.517986 18.871229 36,000 310 426 0
2022-09-21 22:03:42 GMT 45.513702 18.878567 36,000 310 426 64
2022-09-21 22:03:39 GMT 45.509933 18.885029 36,000 310 426 0
2022-09-21 22:03:36 GMT 45.504997 18.893402 36,000 310 426 0
2022-09-21 22:03:32 GMT 45.500576 18.900972 36,000 310 426 0
2022-09-21 22:03:28 GMT 45.496262 18.908321 36,000 310 426 0
2022-09-21 22:03:25 GMT 45.492477 18.914774 36,000 310 426 64
2022-09-21 22:03:21 GMT 45.487309 18.923615 36,000 310 426 64
2022-09-21 22:03:18 GMT 45.483398 18.930313 36,000 310 426 64
2022-09-21 22:03:15 GMT 45.479767 18.936544 36,000 310 426 0
2022-09-21 22:03:11 GMT 45.474834 18.944984 36,000 310 426 0
2022-09-21 22:03:08 GMT 45.471039 18.951416 36,000 310 426 0
2022-09-21 22:03:04 GMT 45.466003 18.960049 36,000 310 426 -64
2022-09-21 22:03:01 GMT 45.461704 18.967360 36,000 310 426 -64
2022-09-21 22:02:58 GMT 45.457794 18.973991 36,000 310 426 0
2022-09-21 22:02:54 GMT 45.453506 18.981300 36,000 310 426 0
2022-09-21 22:02:51 GMT 45.449112 18.988823 36,000 310 426 64
2022-09-21 22:02:47 GMT 45.444572 18.996567 36,000 310 426 64
2022-09-21 22:02:44 GMT 45.440151 19.004137 36,000 310 426 0
2022-09-21 22:02:41 GMT 45.435543 19.012110 36,000 310 425 0
2022-09-21 22:02:37 GMT 45.432541 19.017269 36,000 310 425 -64
2022-09-21 22:02:34 GMT 45.428650 19.023939 36,000 310 425 0
2022-09-21 22:02:28 GMT 45.419632 19.039436 36,000 310 424 0
2022-09-21 22:02:23 GMT 45.414597 19.048004 36,000 310 425 0
2022-09-21 22:02:20 GMT 45.410358 19.055250 36,000 310 424 0
2022-09-21 22:02:16 GMT 45.403934 19.066170 36,000 310 424 0
2022-09-21 22:02:13 GMT 45.402676 19.068314 36,000 310 424 0
2022-09-21 22:02:09 GMT 45.397522 19.077105 36,000 310 424 64
2022-09-21 22:02:07 GMT 45.393906 19.083252 36,000 310 424 64
2022-09-21 22:02:04 GMT 45.390247 19.089481 36,000 310 424 64
2022-09-21 22:02:00 GMT 45.384842 19.098619 36,000 310 424 0
2022-09-21 22:01:54 GMT 45.377426 19.111240 36,000 310 423 -64
2022-09-21 22:01:47 GMT 45.368042 19.127197 36,000 310 423 0
2022-09-21 22:01:43 GMT 45.363876 19.134260 36,000 310 423 0
2022-09-21 22:01:39 GMT 45.358871 19.142805 36,000 310 423 0
2022-09-21 22:01:33 GMT 45.351330 19.155602 36,000 310 423 0
2022-09-21 22:01:29 GMT 45.346210 19.164310 36,000 311 423 0
2022-09-21 22:01:26 GMT 45.343185 19.169376 36,000 311 423 0
2022-09-21 22:01:22 GMT 45.338013 19.178141 36,000 311 423 0
2022-09-21 22:01:19 GMT 45.333454 19.185745 36,000 311 423 0
2022-09-21 22:01:16 GMT 45.328674 19.193834 36,000 311 423 0
2022-09-21 22:01:12 GMT 45.325634 19.198875 36,000 311 423 0
2022-09-21 22:01:09 GMT 45.320744 19.207184 36,000 311 422 0
2022-09-21 22:01:06 GMT 45.317459 19.212667 36,000 311 422 0
2022-09-21 22:01:03 GMT 45.313019 19.220058 36,000 311 422 0
2022-09-21 22:00:59 GMT 45.309128 19.226664 36,000 311 422 0
2022-09-21 22:00:57 GMT 45.307114 19.229998 36,000 311 422 0
2022-09-21 22:00:53 GMT 45.301147 19.240007 36,000 311 423 0
2022-09-21 22:00:50 GMT 45.297237 19.246506 36,000 311 423 0
2022-09-21 22:00:47 GMT 45.294071 19.251799 36,000 311 423 0
2022-09-21 22:00:44 GMT 45.290161 19.258364 36,000 311 421 0
2022-09-21 22:00:41 GMT 45.286484 19.264526 36,000 311 422 0
2022-09-21 22:00:38 GMT 45.281548 19.272766 36,000 311 421 0
2022-09-21 22:00:34 GMT 45.275402 19.283150 36,000 311 421 0
2022-09-21 22:00:30 GMT 45.272236 19.288443 36,000 311 423 0
2022-09-21 22:00:27 GMT 45.268326 19.295008 36,000 311 422 0
2022-09-21 22:00:23 GMT 45.259094 19.310434 36,000 311 422 0
2022-09-21 22:00:20 GMT 45.259094 19.310434 36,000 311 422 0
2022-09-21 22:00:16 GMT 45.254929 19.317430 36,000 311 423 0
2022-09-21 22:00:13 GMT 45.251148 19.323746 36,000 311 423 0
2022-09-21 22:00:10 GMT 45.246727 19.331114 36,000 311 422 0
2022-09-21 22:00:08 GMT 45.244034 19.335545 36,000 311 423 0
2022-09-21 22:00:04 GMT 45.238266 19.345289 36,000 311 423 0
2022-09-21 22:00:00 GMT 45.233826 19.352678 36,000 311 423 0
2022-09-21 21:59:57 GMT 45.230438 19.358433 36,000 311 423 0
2022-09-21 21:59:52 GMT 45.223389 19.370270 36,000 311 423 0
2022-09-21 21:59:49 GMT 45.220230 19.375566 36,000 311 423 0
2022-09-21 21:59:45 GMT 45.214329 19.385576 36,000 311 423 0
2022-09-21 21:59:40 GMT 45.204739 19.401653 36,000 311 423 64
2022-09-21 21:59:37 GMT 45.204739 19.401653 36,000 311 423 64
2022-09-21 21:59:33 GMT 45.199173 19.410946 36,000 311 423 0
2022-09-21 21:59:30 GMT 45.195660 19.416927 36,000 311 423 0
2022-09-21 21:59:24 GMT 45.188736 19.428537 36,000 311 423 0
2022-09-21 21:59:18 GMT 45.181927 19.440041 36,000 311 423 0
2022-09-21 21:59:14 GMT 45.176155 19.449753 36,000 311 423 0
2022-09-21 21:59:11 GMT 45.171497 19.457590 36,000 311 423 -64
2022-09-21 21:59:08 GMT 45.166565 19.465832 36,000 311 423 -64
2022-09-21 21:59:06 GMT 45.166565 19.465832 36,000 311 423 0
2022-09-21 21:59:03 GMT 45.162003 19.473463 36,000 311 422 0
2022-09-21 21:59:00 GMT 45.158844 19.478695 36,000 311 423 64
2022-09-21 21:58:57 GMT 45.153946 19.486935 36,000 311 423 0
2022-09-21 21:58:53 GMT 45.150410 19.492828 36,000 311 423 0
2022-09-21 21:58:49 GMT 45.145340 19.501257 36,000 311 422 0
2022-09-21 21:58:46 GMT 45.141052 19.508436 36,000 311 422 0
2022-09-21 21:58:43 GMT 45.137741 19.513943 36,000 311 423 0
2022-09-21 21:58:38 GMT 45.131561 19.524275 36,000 311 423 0
2022-09-21 21:58:36 GMT 45.128403 19.529572 36,000 311 423 0
2022-09-21 21:58:33 GMT 45.123962 19.536896 36,000 311 423 0
2022-09-21 21:58:29 GMT 45.119545 19.544275 36,000 311 424 0
2022-09-21 21:58:26 GMT 45.115219 19.551479 36,000 311 424 0
2022-09-21 21:58:23 GMT 45.112015 19.556709 36,000 311 424 0
2022-09-21 21:58:19 GMT 45.106930 19.565178 36,000 311 425 0
2022-09-21 21:58:17 GMT 45.104370 19.569397 36,000 311 425 0
2022-09-21 21:58:14 GMT 45.101067 19.574890 36,000 311 426 0
2022-09-21 21:58:08 GMT 45.093155 19.588034 36,000 311 426 0
2022-09-21 21:58:05 GMT 45.088531 19.595619 36,000 311 427 0
2022-09-21 21:57:59 GMT 45.080887 19.608372 36,000 311 427 0
2022-09-21 21:57:57 GMT 45.078442 19.612404 36,000 311 427 -64
2022-09-21 21:57:54 GMT 45.074890 19.618378 36,000 311 427 -64
2022-09-21 21:57:49 GMT 45.068207 19.629429 36,000 311 428 0
2022-09-21 21:57:46 GMT 45.065266 19.634310 36,000 311 428 0
2022-09-21 21:57:43 GMT 45.061432 19.640676 36,000 311 428 0
2022-09-21 21:57:39 GMT 45.055527 19.650488 36,000 311 428 0
2022-09-21 21:57:37 GMT 45.053581 19.653669 36,000 311 429 0
2022-09-21 21:57:34 GMT 45.048981 19.661343 36,000 311 429 0
2022-09-21 21:57:28 GMT 45.037102 19.680935 36,000 311 429 64
2022-09-21 21:57:25 GMT 45.037102 19.680935 36,000 311 429 64
2022-09-21 21:57:21 GMT 45.032867 19.687969 36,000 311 429 0
2022-09-21 21:57:18 GMT 45.027466 19.696917 36,000 311 429 -64
2022-09-21 21:57:14 GMT 45.022293 19.705484 36,000 311 430 0
2022-09-21 21:57:09 GMT 45.016621 19.714832 36,000 311 430 0
2022-09-21 21:57:05 GMT 45.012615 19.721464 36,000 311 430 0
2022-09-21 21:57:02 GMT 45.008099 19.728968 36,000 311 430 0
2022-09-21 21:56:58 GMT 45.002426 19.738312 36,000 311 430 0
2022-09-21 21:56:55 GMT 44.999069 19.743904 36,000 311 430 0
2022-09-21 21:56:52 GMT 44.995346 19.750069 36,000 311 430 0
2022-09-21 21:56:49 GMT 44.990936 19.757341 36,000 311 431 0
2022-09-21 21:56:47 GMT 44.988098 19.762051 36,000 311 430 0
2022-09-21 21:56:42 GMT 44.982697 19.771009 36,000 311 430 0
2022-09-21 21:56:39 GMT 44.977386 19.779772 36,000 311 430 0
2022-09-21 21:56:37 GMT 44.969376 19.792982 36,000 311 430 0
2022-09-21 21:56:32 GMT 44.969376 19.792982 36,000 311 431 0
2022-09-21 21:56:29 GMT 44.964615 19.800896 36,000 311 431 -64
2022-09-21 21:56:26 GMT 44.961502 19.806005 36,000 311 431 -64
2022-09-21 21:56:23 GMT 44.957657 19.812405 36,000 311 431 0
2022-09-21 21:56:19 GMT 44.951679 19.822216 36,000 311 431 0
2022-09-21 21:56:16 GMT 44.948700 19.827106 36,000 311 431 0
2022-09-21 21:56:13 GMT 44.943951 19.835012 36,000 311 430 0
2022-09-21 21:56:09 GMT 44.938877 19.843319 36,000 311 430 0
2022-09-21 21:56:05 GMT 44.934872 19.849951 36,000 311 430 0
2022-09-21 21:56:02 GMT 44.929688 19.858442 36,000 311 430 0
2022-09-21 21:55:59 GMT 44.925842 19.864822 36,000 311 430 0
2022-09-21 21:55:56 GMT 44.921951 19.871195 36,000 311 430 0
2022-09-21 21:55:51 GMT 44.915726 19.881460 36,000 311 430 0
2022-09-21 21:55:48 GMT 44.911831 19.887800 36,000 311 430 0
2022-09-21 21:55:43 GMT 44.905499 19.898251 36,000 311 429 0
2022-09-21 21:55:40 GMT 44.901775 19.904413 36,000 311 429 0
2022-09-21 21:55:37 GMT 44.896980 19.912251 36,000 311 429 0
2022-09-21 21:55:34 GMT 44.894943 19.915663 36,000 311 429 0
2022-09-21 21:55:31 GMT 44.888855 19.925669 36,000 311 429 0
2022-09-21 21:55:28 GMT 44.887203 19.928394 36,000 311 429 0
2022-09-21 21:55:25 GMT 44.882172 19.936720 36,000 311 429 0
2022-09-21 21:55:21 GMT 44.877010 19.945143 36,000 311 429 0
2022-09-21 21:55:18 GMT 44.873932 19.950256 36,000 311 429 0
2022-09-21 21:55:15 GMT 44.868896 19.958561 36,000 311 429 0
2022-09-21 21:55:12 GMT 44.865791 19.963633 36,000 311 429 0
2022-09-21 21:55:08 GMT 44.858852 19.975019 36,000 311 429 0
2022-09-21 21:55:04 GMT 44.855392 19.980797 36,000 311 428 0
2022-09-21 21:55:01 GMT 44.852142 19.986094 36,000 311 428 0
2022-09-21 21:54:58 GMT 44.847542 19.993710 36,000 311 427 0
2022-09-21 21:54:55 GMT 44.843166 20.000877 36,000 311 428 0
2022-09-21 21:54:51 GMT 44.838684 20.008263 36,000 311 427 0
2022-09-21 21:54:48 GMT 44.834785 20.014610 36,000 311 427 0
2022-09-21 21:54:46 GMT 44.830830 20.021175 36,000 311 428 0
2022-09-21 21:54:42 GMT 44.827103 20.027290 36,000 311 427 0
2022-09-21 21:54:38 GMT 44.816257 20.044958 36,000 311 427 0
2022-09-21 21:54:34 GMT 44.816257 20.044958 36,000 311 427 0
2022-09-21 21:54:30 GMT 44.811630 20.052534 36,000 311 427 0
2022-09-21 21:54:27 GMT 44.807785 20.058825 36,000 311 425 0
2022-09-21 21:54:24 GMT 44.803501 20.065723 36,000 311 426 0
2022-09-21 21:54:21 GMT 44.800186 20.071171 36,000 311 426 0
2022-09-21 21:54:18 GMT 44.796055 20.077917 36,000 311 426 0
2022-09-21 21:54:16 GMT 44.793865 20.081467 36,000 311 426 0
2022-09-21 21:54:13 GMT 44.784348 20.096937 36,000 311 426 0
2022-09-21 21:54:10 GMT 44.784348 20.096937 36,000 311 425 0
2022-09-21 21:54:07 GMT 44.776611 20.109493 36,000 311 425 0
2022-09-21 21:54:03 GMT 44.776611 20.109493 36,000 311 425 0
2022-09-21 21:53:58 GMT 44.770477 20.119497 36,000 311 425 0
2022-09-21 21:53:56 GMT 44.768124 20.123268 36,000 311 424 0
2022-09-21 21:53:53 GMT 44.763515 20.130772 36,000 311 424 0
2022-09-21 21:53:48 GMT 44.757648 20.140350 36,000 311 424 0
2022-09-21 21:53:44 GMT 44.752762 20.148336 36,000 311 424 0
2022-09-21 21:53:41 GMT 44.747173 20.157499 36,000 311 424 0
2022-09-21 21:53:38 GMT 44.744709 20.161453 36,000 311 423 0
2022-09-21 21:53:35 GMT 44.741264 20.167080 36,000 311 423 0
2022-09-21 21:53:31 GMT 44.736282 20.175215 36,000 311 423 0
2022-09-21 21:53:28 GMT 44.731953 20.182287 36,000 311 423 0
2022-09-21 21:53:25 GMT 44.728508 20.187914 36,000 311 421 0
2022-09-21 21:53:21 GMT 44.718933 20.203465 36,000 311 423 0
2022-09-21 21:53:18 GMT 44.718933 20.203465 36,000 311 423 0
2022-09-21 21:53:12 GMT 44.711655 20.215313 36,000 311 422 0
2022-09-21 21:53:08 GMT 44.706345 20.224064 36,000 311 421 0
2022-09-21 21:53:05 GMT 44.702019 20.231121 36,000 311 421 0
2022-09-21 21:53:02 GMT 44.697922 20.237732 36,000 311 421 0
2022-09-21 21:52:58 GMT 44.693359 20.245190 36,000 311 421 0
2022-09-21 21:52:52 GMT 44.687256 20.255127 36,000 311 421 64
2022-09-21 21:52:48 GMT 44.680744 20.265690 36,000 311 421 0
2022-09-21 21:52:40 GMT 44.671341 20.280964 36,000 311 421 0
2022-09-21 21:52:37 GMT 44.666473 20.288740 36,000 311 421 -64
2022-09-21 21:52:34 GMT 44.663040 20.294298 36,000 311 420 -64
2022-09-21 21:52:30 GMT 44.658493 20.301729 36,000 311 420 0
2022-09-21 21:52:27 GMT 44.654770 20.307692 36,000 311 420 0
2022-09-21 21:52:21 GMT 44.646011 20.321896 36,000 312 417 0
2022-09-21 21:52:18 GMT 44.642479 20.327656 36,000 311 419 0
2022-09-21 21:52:11 GMT 44.634846 20.339981 36,000 311 419 0
2022-09-21 21:52:08 GMT 44.629910 20.347952 36,000 311 419 0
2022-09-21 21:52:02 GMT 44.623581 20.358255 36,000 311 419 0
2022-09-21 21:51:58 GMT 44.616875 20.369122 36,000 311 419 0
2022-09-21 21:51:56 GMT 44.615707 20.370941 36,000 311 419 0
2022-09-21 21:51:49 GMT 44.606598 20.385719 36,000 311 418 0
2022-09-21 21:51:46 GMT 44.602818 20.391830 36,000 311 418 0
2022-09-21 21:51:40 GMT 44.593925 20.406166 36,000 311 418 0
2022-09-21 21:51:36 GMT 44.590015 20.412464 36,000 311 418 0
2022-09-21 21:51:32 GMT 44.584801 20.420904 36,000 311 418 0
2022-09-21 21:51:29 GMT 44.580734 20.427443 36,000 311 418 0
2022-09-21 21:51:26 GMT 44.577072 20.433329 36,000 311 418 0
2022-09-21 21:51:21 GMT 44.570755 20.443529 36,000 311 418 0
2022-09-21 21:51:17 GMT 44.565948 20.451319 36,000 312 417 0
2022-09-21 21:51:15 GMT 44.558357 20.463511 36,000 312 417 0
2022-09-21 21:51:11 GMT 44.558357 20.463511 36,000 312 417 0
2022-09-21 21:51:07 GMT 44.553268 20.471649 36,000 312 417 0
2022-09-21 21:51:02 GMT 44.547092 20.481665 36,000 312 417 0
2022-09-21 21:50:59 GMT 44.541878 20.490038 36,000 312 417 0
2022-09-21 21:50:56 GMT 44.540112 20.492851 36,000 311 416 0
2022-09-21 21:50:54 GMT 44.536331 20.498983 36,000 312 417 0
2022-09-21 21:50:51 GMT 44.532570 20.505112 36,000 312 417 0
2022-09-21 21:50:47 GMT 44.528229 20.511997 36,000 312 417 0
2022-09-21 21:50:45 GMT 44.525448 20.516499 36,000 312 417 0
2022-09-21 21:50:40 GMT 44.518791 20.527285 36,000 312 416 0
2022-09-21 21:50:37 GMT 44.515114 20.533112 36,000 312 416 0
2022-09-21 21:50:30 GMT 44.506897 20.546329 36,000 312 416 0
2022-09-21 21:50:27 GMT 44.502182 20.553850 36,000 312 416 0
2022-09-21 21:50:23 GMT 44.497654 20.561113 36,000 312 416 0
2022-09-21 21:50:20 GMT 44.493744 20.567411 36,000 312 416 0
2022-09-21 21:50:17 GMT 44.489456 20.574320 36,000 312 416 0
2022-09-21 21:50:10 GMT 44.481079 20.587660 36,000 312 416 0
2022-09-21 21:50:07 GMT 44.476799 20.594542 36,000 312 416 0
2022-09-21 21:50:04 GMT 44.473297 20.600216 36,000 312 416 0
2022-09-21 21:50:00 GMT 44.469131 20.606886 36,000 312 415 0
2022-09-21 21:49:57 GMT 44.464321 20.614573 36,000 311 414 0
2022-09-21 21:49:50 GMT 44.456036 20.627903 36,000 311 414 0
2022-09-21 21:49:47 GMT 44.451508 20.635136 36,000 312 413 0
2022-09-21 21:49:40 GMT 44.443726 20.647627 36,000 312 413 0
2022-09-21 21:49:37 GMT 44.438828 20.655474 36,000 312 413 0
2022-09-21 21:49:34 GMT 44.435165 20.661295 36,000 312 412 0
2022-09-21 21:49:29 GMT 44.429031 20.671103 36,000 312 411 -64
2022-09-21 21:49:26 GMT 44.425415 20.676924 36,000 312 411 -64
2022-09-21 21:49:19 GMT 44.417538 20.689533 36,000 312 411 0
2022-09-21 21:49:15 GMT 44.412045 20.698309 36,000 312 411 0
2022-09-21 21:49:10 GMT 44.405548 20.708706 36,000 312 411 64
2022-09-21 21:49:05 GMT 44.399780 20.717861 36,000 312 411 64
2022-09-21 21:48:58 GMT 44.391083 20.731855 36,000 311 410 0
2022-09-21 21:48:55 GMT 44.387325 20.737833 36,000 311 410 0
2022-09-21 21:48:49 GMT 44.379272 20.750820 36,000 311 410 0
2022-09-21 21:48:45 GMT 44.373547 20.759939 36,000 311 409 64
2022-09-21 21:48:38 GMT 44.366730 20.770962 36,000 311 409 64
2022-09-21 21:48:35 GMT 44.362232 20.778093 36,000 311 409 64
2022-09-21 21:48:28 GMT 44.353065 20.792898 36,000 311 409 64
2022-09-21 21:48:25 GMT 44.349712 20.798258 36,000 311 409 0
2022-09-21 21:48:18 GMT 44.341141 20.812029 36,000 311 410 0
2022-09-21 21:48:16 GMT 44.339050 20.815407 36,000 311 410 0
2022-09-21 21:48:08 GMT 44.328484 20.832355 36,000 311 410 0
2022-09-21 21:48:05 GMT 44.325878 20.836510 36,000 312 410 0
2022-09-21 21:47:56 GMT 44.313496 20.855064 36,000 316 410 0
2022-09-21 21:47:45 GMT 44.299110 20.873554 36,000 320 411 64
2022-09-21 21:47:39 GMT 44.288727 20.885612 36,000 321 411 0
2022-09-21 21:47:36 GMT 44.284653 20.890306 36,000 321 411 0
2022-09-21 21:47:33 GMT 44.280254 20.895393 36,000 321 412 0
2022-09-21 21:47:26 GMT 44.270096 20.907047 36,000 321 412 0
2022-09-21 21:47:21 GMT 44.262314 20.915941 36,000 321 412 0
2022-09-21 21:47:16 GMT 44.255676 20.923527 36,000 321 412 0
2022-09-21 21:47:13 GMT 44.250824 20.929020 36,000 321 412 0
2022-09-21 21:47:07 GMT 44.243015 20.937931 36,000 321 412 0
2022-09-21 21:47:05 GMT 44.239334 20.942152 36,000 321 412 0
2022-09-21 21:46:56 GMT 44.225788 20.957626 36,000 321 412 0
2022-09-21 21:46:46 GMT 44.210724 20.974731 36,000 321 412 0
2022-09-21 21:46:36 GMT 44.196121 20.991407 36,000 321 412 0
2022-09-21 21:46:26 GMT 44.181198 21.008350 36,000 321 412 0
2022-09-21 21:46:18 GMT 44.169250 21.021955 36,000 321 412 0
2022-09-21 21:46:16 GMT 44.166435 21.025150 36,000 321 412 0
2022-09-21 21:46:06 GMT 44.151215 21.042416 36,000 321 412 64
2022-09-21 21:45:58 GMT 44.139404 21.055809 36,000 321 413 0
2022-09-21 21:45:56 GMT 44.136749 21.058874 36,000 321 413 0
2022-09-21 21:45:46 GMT 44.121826 21.075802 36,000 321 412 -64
2022-09-21 21:45:36 GMT 44.107082 21.092573 36,000 321 412 0
2022-09-21 21:45:25 GMT 44.092621 21.109016 36,000 321 412 0
2022-09-21 21:45:15 GMT 44.077244 21.126513 36,000 321 412 0
2022-09-21 21:45:06 GMT 44.063229 21.142469 36,000 321 412 -64
2022-09-21 21:45:04 GMT 44.062065 21.143778 36,000 321 412 -64
2022-09-21 21:44:55 GMT 44.048080 21.159733 36,000 321 412 0
2022-09-21 21:44:45 GMT 44.024002 21.187071 36,000 321 413 0
2022-09-21 21:44:34 GMT 44.017796 21.194065 36,000 321 413 -64
2022-09-21 21:44:27 GMT 44.005783 21.207638 36,000 321 413 -64
2022-09-21 21:44:25 GMT 44.003689 21.209957 36,000 321 413 -64
2022-09-21 21:44:15 GMT 43.988419 21.227156 36,000 321 413 64
2022-09-21 21:44:07 GMT 43.976120 21.240915 36,000 322 413 0
2022-09-21 21:44:05 GMT 43.973282 21.244108 36,000 322 413 0
2022-09-21 21:43:55 GMT 43.958439 21.260834 36,000 321 414 -64
2022-09-21 21:43:45 GMT 43.943344 21.277899 36,000 321 413 0
2022-09-21 21:43:37 GMT 43.930786 21.292158 36,000 321 412 0
2022-09-21 21:43:35 GMT 43.929016 21.294188 36,000 321 412 64
2022-09-21 21:43:25 GMT 43.913818 21.311434 36,000 322 413 0
2022-09-21 21:43:15 GMT 43.899273 21.327732 36,000 321 413 0
2022-09-21 21:43:05 GMT 43.869141 21.361574 36,000 321 413 0
2022-09-21 21:42:55 GMT 43.869141 21.361574 36,000 321 413 0
2022-09-21 21:42:45 GMT 43.854397 21.378283 36,000 321 413 0
2022-09-21 21:42:35 GMT 43.839615 21.394979 36,000 321 413 0
2022-09-21 21:42:25 GMT 43.824043 21.412483 36,000 321 412 0
2022-09-21 21:42:14 GMT 43.809799 21.428440 36,000 321 413 -64
2022-09-21 21:42:04 GMT 43.779865 21.461988 36,000 321 413 64
2022-09-21 21:41:54 GMT 43.779865 21.461988 36,000 321 413 64
2022-09-21 21:41:49 GMT 43.771088 21.471756 36,000 321 413 -64
2022-09-21 21:41:44 GMT 43.763992 21.479740 36,000 321 413 -64
2022-09-21 21:41:36 GMT 43.752136 21.493090 36,000 321 413 -64
2022-09-21 21:41:32 GMT 43.746780 21.499094 36,000 321 413 -64
2022-09-21 21:41:24 GMT 43.724747 21.523916 36,000 321 412 0
2022-09-21 21:41:14 GMT 43.720001 21.529179 36,000 322 412 64
2022-09-21 21:41:03 GMT 43.704220 21.546675 38,000 322 413 -64
2022-09-21 21:40:54 GMT 43.690392 21.561977 36,000 322 413 -64
2022-09-21 21:40:45 GMT 43.677017 21.576893 36,000 322 413 0
2022-09-21 21:40:43 GMT 43.674637 21.579512 36,000 322 413 0
2022-09-21 21:40:40 GMT 43.670002 21.584669 36,000 321 413 -64
2022-09-21 21:40:33 GMT 43.659622 21.596245 36,000 321 413 -64
2022-09-21 21:40:29 GMT 43.653397 21.603209 36,000 321 413 -64
2022-09-21 21:40:25 GMT 43.647034 21.610298 36,000 321 413 -64
2022-09-21 21:40:23 GMT 43.638859 21.619459 36,000 321 413 0
2022-09-21 21:40:19 GMT 43.638859 21.619459 36,000 321 413 0
2022-09-21 21:40:14 GMT 43.630573 21.628679 36,000 322 412 0
2022-09-21 21:40:09 GMT 43.624802 21.635088 36,000 322 412 0
2022-09-21 21:40:04 GMT 43.615723 21.645174 36,000 322 412 0
2022-09-21 21:40:02 GMT 43.614094 21.646990 36,000 322 412 0
2022-09-21 21:39:59 GMT 43.608902 21.652712 36,000 322 412 64
2022-09-21 21:39:52 GMT 43.599838 21.662804 36,000 322 413 0
2022-09-21 21:39:50 GMT 43.595215 21.667850 36,000 322 413 0
2022-09-21 21:39:45 GMT 43.587341 21.676600 36,000 322 413 0
2022-09-21 21:39:42 GMT 43.584068 21.680210 36,000 322 413 0
2022-09-21 21:39:38 GMT 43.578140 21.686819 36,000 322 413 0
2022-09-21 21:39:34 GMT 43.569359 21.696493 36,000 322 413 0
2022-09-21 21:39:30 GMT 43.565353 21.700941 36,000 322 413 64
2022-09-21 21:39:25 GMT 43.553146 21.714478 36,000 322 413 0
2022-09-21 21:39:20 GMT 43.550037 21.717943 36,000 322 413 0
2022-09-21 21:39:17 GMT 43.545547 21.722910 36,000 322 413 0
2022-09-21 21:39:14 GMT 43.541245 21.727699 36,000 322 413 -64
2022-09-21 21:39:12 GMT 43.539047 21.730127 36,000 322 413 -64
2022-09-21 21:39:09 GMT 43.534580 21.735142 36,000 322 413 -64
2022-09-21 21:39:02 GMT 43.523548 21.747307 36,000 322 413 0
2022-09-21 21:38:57 GMT 43.516148 21.755611 36,000 321 413 0
2022-09-21 21:38:55 GMT 43.512890 21.759209 36,000 322 413 0
2022-09-21 21:38:53 GMT 43.508560 21.763981 36,000 322 413 0
2022-09-21 21:38:51 GMT 43.502609 21.770559 36,000 322 413 0
2022-09-21 21:38:47 GMT 43.502609 21.770559 36,000 322 413 0
2022-09-21 21:38:42 GMT 43.494278 21.779821 36,000 322 413 0
2022-09-21 21:38:36 GMT 43.486542 21.788374 36,000 322 413 0
2022-09-21 21:38:33 GMT 43.481461 21.793938 36,000 322 413 64
2022-09-21 21:38:31 GMT 43.477753 21.798025 36,000 322 414 64
2022-09-21 21:38:27 GMT 43.473267 21.802942 36,000 322 414 64
2022-09-21 21:38:23 GMT 43.466244 21.810673 36,000 322 414 64
2022-09-21 21:38:21 GMT 43.462509 21.814760 36,000 322 414 0
2022-09-21 21:38:17 GMT 43.457886 21.819870 36,000 322 414 0
2022-09-21 21:38:12 GMT 43.450424 21.828110 36,000 322 414 -64
2022-09-21 21:38:09 GMT 43.444611 21.834497 36,000 322 414 0
2022-09-21 21:38:03 GMT 43.435959 21.844013 36,025 322 414 0
2022-09-21 21:37:59 GMT 43.428955 21.851744 36,025 322 413 0
2022-09-21 21:37:53 GMT 43.421322 21.860046 36,000 322 413 0
2022-09-21 21:37:51 GMT 43.417465 21.864326 36,000 322 413 0
2022-09-21 21:37:47 GMT 43.412979 21.869244 36,000 322 413 0
2022-09-21 21:37:43 GMT 43.406113 21.876781 36,000 322 413 0
2022-09-21 21:37:39 GMT 43.399384 21.884127 36,000 322 414 0
2022-09-21 21:37:37 GMT 43.397186 21.886555 36,000 322 414 0
2022-09-21 21:37:33 GMT 43.390923 21.893463 36,000 322 414 0
2022-09-21 21:37:30 GMT 43.383453 21.901691 36,000 322 414 0
2022-09-21 21:37:28 GMT 43.383453 21.901691 36,000 322 414 0
2022-09-21 21:37:23 GMT 43.376118 21.909746 36,000 322 414 0
2022-09-21 21:37:18 GMT 43.368073 21.918619 36,000 322 414 64
2022-09-21 21:37:13 GMT 43.361362 21.926029 36,000 322 414 0
2022-09-21 21:37:09 GMT 43.355072 21.932926 36,000 322 414 -64
2022-09-21 21:37:07 GMT 43.352097 21.936167 36,000 322 414 -64
2022-09-21 21:37:03 GMT 43.346279 21.942575 36,000 322 414 -64
2022-09-21 21:37:00 GMT 43.341797 21.947491 36,000 322 414 -64
2022-09-21 21:36:56 GMT 43.336899 21.952919 36,000 322 413 0
2022-09-21 21:36:53 GMT 43.331680 21.958668 36,000 322 413 64
2022-09-21 21:36:49 GMT 43.321980 21.969320 36,000 322 413 128
2022-09-21 21:36:47 GMT 43.321980 21.969320 36,000 322 413 128
2022-09-21 21:36:43 GMT 43.316765 21.975077 36,000 322 413 0
2022-09-21 21:36:37 GMT 43.305779 21.987173 36,000 322 412 -64
2022-09-21 21:36:32 GMT 43.301331 21.992138 36,000 322 412 0
2022-09-21 21:36:30 GMT 43.296753 21.997185 36,000 322 412 0
2022-09-21 21:36:27 GMT 43.293640 22.000633 36,000 322 412 0
2022-09-21 21:36:23 GMT 43.286362 22.008680 36,000 322 411 0
2022-09-21 21:36:18 GMT 43.279709 22.016012 36,000 322 411 0
2022-09-21 21:36:16 GMT 43.276611 22.019411 36,000 322 410 0
2022-09-21 21:36:13 GMT 43.271561 22.024973 36,000 322 410 0
2022-09-21 21:36:08 GMT 43.264023 22.033209 36,000 322 409 0
2022-09-21 21:36:03 GMT 43.257225 22.040667 36,000 322 409 0
2022-09-21 21:35:58 GMT 43.249649 22.048922 36,000 322 409 64
2022-09-21 21:35:53 GMT 43.241821 22.057482 36,000 322 409 64
2022-09-21 21:35:49 GMT 43.236374 22.063421 36,000 322 409 64
2022-09-21 21:35:46 GMT 43.233715 22.066366 36,000 322 409 64
2022-09-21 21:35:43 GMT 43.228222 22.072317 35,975 322 409 0
2022-09-21 21:35:41 GMT 43.224976 22.075876 35,975 322 409 0
2022-09-21 21:35:39 GMT 43.221844 22.079250 36,000 322 409 -64
2022-09-21 21:35:35 GMT 43.216553 22.085073 36,000 322 409 -64
2022-09-21 21:35:33 GMT 43.211792 22.090248 36,000 322 409 -64
2022-09-21 21:35:29 GMT 43.206623 22.095860 36,000 322 409 0
2022-09-21 21:35:26 GMT 43.203503 22.099260 36,000 322 409 0
2022-09-21 21:35:22 GMT 43.196686 22.106665 36,000 322 409 0
2022-09-21 21:35:19 GMT 43.192062 22.111647 36,000 322 409 0
2022-09-21 21:35:17 GMT 43.189396 22.114563 36,000 322 409 -64
2022-09-21 21:35:15 GMT 43.185581 22.118748 36,000 322 409 -64
2022-09-21 21:35:12 GMT 43.182137 22.122477 36,000 322 409 -64
2022-09-21 21:35:09 GMT 43.177139 22.127998 36,000 322 409 -64
2022-09-21 21:35:06 GMT 43.173569 22.131826 36,000 322 409 0
2022-09-21 21:35:02 GMT 43.167377 22.138628 36,000 322 409 0
2022-09-21 21:34:58 GMT 43.161652 22.144972 36,000 322 409 0
2022-09-21 21:34:55 GMT 43.157227 22.149778 36,000 322 408 0
2022-09-21 21:34:52 GMT 43.152649 22.154760 36,000 322 408 0
2022-09-21 21:34:48 GMT 43.146709 22.161255 36,000 322 409 0
2022-09-21 21:34:45 GMT 43.142578 22.165747 36,000 322 409 0
2022-09-21 21:34:43 GMT 43.138142 22.170607 36,000 322 409 -64
2022-09-21 21:34:37 GMT 43.129578 22.179958 36,000 322 409 0
2022-09-21 21:34:33 GMT 43.123352 22.186699 36,000 322 409 64
2022-09-21 21:34:25 GMT 43.112076 22.198856 36,000 322 410 64
2022-09-21 21:34:22 GMT 43.108490 22.202715 36,000 322 410 64
2022-09-21 21:34:18 GMT 43.101368 22.210432 36,000 322 410 0
2022-09-21 21:34:15 GMT 43.097038 22.215075 36,000 322 410 0
2022-09-21 21:34:12 GMT 43.093033 22.219456 36,000 322 411 -64
2022-09-21 21:34:07 GMT 43.085167 22.228024 36,000 322 411 -64
2022-09-21 21:34:02 GMT 43.078903 22.234795 36,000 322 411 -64
2022-09-21 21:33:57 GMT 43.070572 22.243801 36,025 322 410 0
2022-09-21 21:33:54 GMT 43.066128 22.248623 36,000 322 410 0
2022-09-21 21:33:52 GMT 43.063156 22.251850 36,000 322 410 0
2022-09-21 21:33:48 GMT 43.056473 22.259068 36,000 322 410 64
2022-09-21 21:33:45 GMT 43.053497 22.262260 36,000 322 410 64
2022-09-21 21:33:42 GMT 43.048416 22.267754 36,000 322 410 64
2022-09-21 21:33:37 GMT 43.041546 22.275106 36,000 322 410 0
2022-09-21 21:33:34 GMT 43.036194 22.280912 36,000 322 410 0
2022-09-21 21:33:31 GMT 43.032486 22.284937 36,000 322 410 0
2022-09-21 21:33:26 GMT 43.024429 22.293558 36,000 322 410 0
2022-09-21 21:33:22 GMT 43.018295 22.300138 36,000 322 411 64
2022-09-21 21:33:17 GMT 43.011108 22.307867 36,000 322 411 0
2022-09-21 21:33:14 GMT 43.002914 22.316683 36,000 322 411 -64
2022-09-21 21:33:11 GMT 43.002914 22.316683 36,000 322 411 -64
2022-09-21 21:33:05 GMT 42.992901 22.327488 36,000 322 412 -64
2022-09-21 21:33:01 GMT 42.987080 22.333767 36,000 322 411 -64
2022-09-21 21:32:56 GMT 42.980713 22.340698 36,000 322 411 0
2022-09-21 21:32:52 GMT 42.973862 22.348087 36,000 322 411 0
2022-09-21 21:32:50 GMT 42.971485 22.350704 36,000 322 411 -64
2022-09-21 21:32:47 GMT 42.966133 22.356459 36,000 322 410 0
2022-09-21 21:32:44 GMT 42.962265 22.360691 36,000 322 410 0
2022-09-21 21:32:40 GMT 42.956451 22.366949 36,000 322 410 0
2022-09-21 21:32:36 GMT 42.950539 22.373396 36,000 322 411 0
2022-09-21 21:32:31 GMT 42.940670 22.383989 36,000 322 411 64
2022-09-21 21:32:25 GMT 42.933685 22.391510 36,000 322 411 64
2022-09-21 21:32:20 GMT 42.926056 22.399717 36,000 322 411 -64
2022-09-21 21:32:14 GMT 42.918182 22.408278 36,000 322 411 -64
2022-09-21 21:32:12 GMT 42.913437 22.413418 36,000 322 411 0
2022-09-21 21:32:09 GMT 42.910595 22.416491 36,000 322 411 0
2022-09-21 21:32:05 GMT 42.903900 22.423798 36,000 322 411 -64
2022-09-21 21:32:02 GMT 42.898727 22.429419 36,000 322 411 -64
2022-09-21 21:31:59 GMT 42.895020 22.433508 36,000 322 411 0
2022-09-21 21:31:55 GMT 42.889042 22.439968 36,000 322 411 0
2022-09-21 21:31:52 GMT 42.883877 22.445593 36,000 322 411 0
2022-09-21 21:31:50 GMT 42.880756 22.448992 36,000 322 411 0
2022-09-21 21:31:44 GMT 42.873001 22.457333 36,000 322 411 0
2022-09-21 21:31:41 GMT 42.868698 22.462059 36,000 322 411 -64
2022-09-21 21:31:39 GMT 42.864853 22.466274 36,000 322 411 -64
2022-09-21 21:31:35 GMT 42.859386 22.472273 36,000 322 411 0
2022-09-21 21:31:31 GMT 42.850067 22.482435 36,000 322 411 0
2022-09-21 21:31:29 GMT 42.850067 22.482435 36,000 322 411 64
2022-09-21 21:31:25 GMT 42.844444 22.488621 36,000 322 411 64
2022-09-21 21:31:21 GMT 42.839127 22.494444 36,000 322 411 0
2022-09-21 21:31:18 GMT 42.835098 22.498850 36,000 322 411 0
2022-09-21 21:31:15 GMT 42.829502 22.504971 36,000 322 411 0
2022-09-21 21:31:11 GMT 42.824158 22.510859 36,000 322 411 0
2022-09-21 21:31:09 GMT 42.819725 22.515696 36,000 322 411 0
2022-09-21 21:31:04 GMT 42.813347 22.522692 36,000 322 411 64
2022-09-21 21:31:01 GMT 42.804737 22.532064 36,000 322 411 0
2022-09-21 21:30:58 GMT 42.804737 22.532064 36,000 322 412 0
2022-09-21 21:30:55 GMT 42.799667 22.537579 36,000 322 411 0
2022-09-21 21:30:50 GMT 42.792538 22.545351 36,000 322 412 0
2022-09-21 21:30:47 GMT 42.788315 22.549812 36,000 322 413 -64
2022-09-21 21:30:44 GMT 42.783371 22.555056 36,000 323 413 0
2022-09-21 21:30:41 GMT 42.778656 22.559988 36,000 323 412 0
2022-09-21 21:30:38 GMT 42.774105 22.564640 36,000 324 413 -64
2022-09-21 21:30:34 GMT 42.768425 22.570389 36,000 324 412 0
2022-09-21 21:30:31 GMT 42.763824 22.574968 36,000 324 413 0
2022-09-21 21:30:28 GMT 42.758377 22.580338 36,000 324 413 0
2022-09-21 21:30:24 GMT 42.752831 22.585783 36,000 324 413 0
2022-09-21 21:30:20 GMT 42.745285 22.593260 36,000 324 413 0
2022-09-21 21:30:14 GMT 42.737686 22.600750 36,000 324 413 0
2022-09-21 21:30:11 GMT 42.732162 22.606222 36,000 324 413 64
2022-09-21 21:30:09 GMT 42.729694 22.608650 36,000 324 413 64
2022-09-21 21:30:04 GMT 42.721966 22.616251 36,000 324 411 -64
2022-09-21 21:30:00 GMT 42.715805 22.622349 36,000 324 411 0
2022-09-21 21:29:57 GMT 42.711044 22.627029 36,000 324 411 64
2022-09-21 21:29:52 GMT 42.703354 22.634583 36,000 324 411 64
2022-09-21 21:29:50 GMT 42.700562 22.637329 36,000 324 411 64
2022-09-21 21:29:47 GMT 42.695206 22.642635 36,000 324 411 64
2022-09-21 21:29:43 GMT 42.690445 22.647318 36,000 324 411 0
2022-09-21 21:29:39 GMT 42.682892 22.654745 36,000 324 411 -64
2022-09-21 21:29:36 GMT 42.679047 22.658552 36,000 325 411 -64
2022-09-21 21:29:33 GMT 42.675201 22.662298 36,000 325 411 0
2022-09-21 21:29:31 GMT 42.670395 22.666981 36,000 325 411 64
2022-09-21 21:29:28 GMT 42.666847 22.670481 36,000 325 411 64
2022-09-21 21:29:23 GMT 42.659317 22.677841 36,000 325 411 -64
2022-09-21 21:29:20 GMT 42.654373 22.682680 36,000 325 411 -64
2022-09-21 21:29:18 GMT 42.651443 22.685581 36,000 325 411 -64
2022-09-21 21:29:13 GMT 42.643574 22.693283 36,000 325 411 64
2022-09-21 21:29:10 GMT 42.638214 22.698503 36,000 325 410 64
2022-09-21 21:29:06 GMT 42.631283 22.705355 36,000 324 410 0
2022-09-21 21:29:03 GMT 42.628372 22.708241 36,000 324 410 0
2022-09-21 21:29:01 GMT 42.625168 22.711363 36,000 325 410 -64
2022-09-21 21:28:57 GMT 42.619492 22.716980 36,000 325 410 -64
2022-09-21 21:28:53 GMT 42.612709 22.723623 36,025 325 409 -64
2022-09-21 21:28:50 GMT 42.608891 22.727327 36,025 325 409 -64
2022-09-21 21:28:47 GMT 42.603699 22.732462 36,025 325 408 -64
2022-09-21 21:28:43 GMT 42.597858 22.738186 36,025 324 408 0
2022-09-21 21:28:40 GMT 42.593307 22.742636 36,025 324 408 64
2022-09-21 21:28:37 GMT 42.587803 22.748087 36,000 324 407 128
2022-09-21 21:28:32 GMT 42.580215 22.755560 36,000 324 407 128
2022-09-21 21:28:29 GMT 42.577469 22.758307 36,000 324 407 64
2022-09-21 21:28:25 GMT 42.569416 22.766228 36,000 324 408 0
2022-09-21 21:28:22 GMT 42.565598 22.769995 36,000 324 408 0
2022-09-21 21:28:20 GMT 42.562664 22.772869 36,000 324 408 0
2022-09-21 21:28:16 GMT 42.556427 22.779001 36,000 324 408 0
2022-09-21 21:28:12 GMT 42.549725 22.785582 36,000 324 408 0
2022-09-21 21:28:09 GMT 42.546650 22.788584 36,000 324 408 0
2022-09-21 21:28:07 GMT 42.541622 22.793566 36,000 324 408 -64
2022-09-21 21:28:03 GMT 42.536316 22.798803 36,000 324 408 -64
2022-09-21 21:28:00 GMT 42.532013 22.802998 36,000 324 408 -64
2022-09-21 21:27:56 GMT 42.526215 22.808702 36,000 324 408 -64
2022-09-21 21:27:51 GMT 42.517368 22.817390 36,025 325 407 0
2022-09-21 21:27:49 GMT 42.515717 22.819040 36,000 325 407 64
2022-09-21 21:27:44 GMT 42.506710 22.827866 36,000 325 407 0
2022-09-21 21:27:40 GMT 42.501354 22.833103 36,000 325 407 0
2022-09-21 21:27:36 GMT 42.494789 22.839491 36,000 325 407 -64
2022-09-21 21:27:33 GMT 42.490173 22.843946 36,000 325 407 -64
2022-09-21 21:27:30 GMT 42.485901 22.848112 36,000 325 407 0
2022-09-21 21:27:25 GMT 42.478081 22.855715 36,000 325 407 128
2022-09-21 21:27:20 GMT 42.470581 22.862986 35,975 325 407 64
2022-09-21 21:27:13 GMT 42.459412 22.873856 36,000 325 408 -64
2022-09-21 21:27:11 GMT 42.456985 22.876219 36,000 325 407 -128
2022-09-21 21:27:09 GMT 42.454662 22.878452 36,000 325 408 -64
2022-09-21 21:27:04 GMT 42.445820 22.887075 36,000 325 408 128
2022-09-21 21:27:01 GMT 42.442142 22.890654 36,000 324 408 128
2022-09-21 21:26:59 GMT 42.439087 22.893635 36,000 324 408 64
2022-09-21 21:26:54 GMT 42.432083 22.900555 36,000 325 408 -64
2022-09-21 21:26:51 GMT 42.426407 22.906111 36,000 325 408 -64
2022-09-21 21:26:45 GMT 42.416153 22.916107 36,000 325 408 64
2022-09-21 21:26:41 GMT 42.411072 22.921040 36,000 325 409 64
2022-09-21 21:26:38 GMT 42.406357 22.925657 36,000 325 409 64
2022-09-21 21:26:31 GMT 42.395729 22.936005 36,000 325 409 -64
2022-09-21 21:26:28 GMT 42.392029 22.939577 36,000 325 409 0
2022-09-21 21:26:23 GMT 42.383743 22.947630 36,000 325 409 0
2022-09-21 21:26:20 GMT 42.379154 22.952101 36,000 325 409 0
2022-09-21 21:26:18 GMT 42.376831 22.954372 36,000 325 409 0
2022-09-21 21:26:13 GMT 42.368401 22.962511 36,000 325 409 0
2022-09-21 21:26:09 GMT 42.361954 22.968792 36,000 325 408 64
2022-09-21 21:26:01 GMT 42.349869 22.980589 36,000 325 407 -64
2022-09-21 21:25:58 GMT 42.346069 22.984272 36,000 325 408 -128
2022-09-21 21:25:50 GMT 42.329681 23.000191 36,000 325 408 128
2022-09-21 21:25:42 GMT 42.320663 23.008991 36,000 325 407 192
2022-09-21 21:25:39 GMT 42.316269 23.013300 35,975 325 407 128
2022-09-21 21:25:30 GMT 42.299469 23.029654 36,000 325 407 -64
2022-09-21 21:25:20 GMT 42.287888 23.040953 36,000 325 407 -64
2022-09-21 21:25:17 GMT 42.282394 23.046320 36,025 325 406 -64
2022-09-21 21:25:11 GMT 42.272964 23.055559 36,025 325 406 0
2022-09-21 21:25:09 GMT 42.269943 23.058556 36,025 325 406 0
2022-09-21 21:25:00 GMT 42.256256 23.071863 36,000 325 404 -64
2022-09-21 21:24:50 GMT 42.241104 23.086519 36,025 325 403 -128
2022-09-21 21:24:48 GMT 42.238861 23.088766 36,025 325 403 -128
2022-09-21 21:24:40 GMT 42.225674 23.101501 36,000 325 403 128
2022-09-21 21:24:37 GMT 42.222786 23.104248 36,000 325 403 64
2022-09-21 21:24:30 GMT 42.211075 23.115484 35,975 325 403 -64
2022-09-21 21:24:28 GMT 42.208679 23.117788 36,000 325 404 -64
2022-09-21 21:24:19 GMT 42.194202 23.131714 36,000 325 405 0
2022-09-21 21:24:15 GMT 42.188095 23.137520 36,000 325 405 0
2022-09-21 21:24:08 GMT 42.177258 23.147938 35,975 325 405 128
2022-09-21 21:23:59 GMT 42.164108 23.160616 36,000 325 406 64
2022-09-21 21:23:57 GMT 42.160778 23.163841 36,000 325 406 64
2022-09-21 21:23:50 GMT 42.150238 23.174036 36,000 325 407 -64
2022-09-21 21:23:48 GMT 42.146576 23.177593 36,000 325 408 0
2022-09-21 21:23:40 GMT 42.134766 23.188955 36,000 325 408 -64
2022-09-21 21:23:38 GMT 42.131542 23.192076 36,000 325 408 0
2022-09-21 21:23:30 GMT 42.118835 23.204338 36,000 325 408 64
2022-09-21 21:23:27 GMT 42.109772 23.213051 36,000 325 408 0
2022-09-21 21:23:19 GMT 42.102539 23.220041 36,000 325 409 0
2022-09-21 21:23:16 GMT 42.098259 23.224140 36,000 325 407 0
2022-09-21 21:23:09 GMT 42.087479 23.234524 36,000 325 409 -64
2022-09-21 21:23:07 GMT 42.083920 23.237871 36,000 325 407 0
2022-09-21 21:22:59 GMT 42.071445 23.249817 36,000 325 409 -64
2022-09-21 21:22:57 GMT 42.069168 23.252064 36,025 325 407 0
2022-09-21 21:22:49 GMT 42.057037 23.263676 36,000 325 407 0
2022-09-21 21:22:47 GMT 42.053329 23.267233 36,025 325 407 0
2022-09-21 21:22:38 GMT 42.040489 23.279581 36,000 325 407 -64
2022-09-21 21:22:36 GMT 42.037415 23.282520 36,000 325 407 -64
2022-09-21 21:22:28 GMT 42.024261 23.295135 36,025 325 406 -64
2022-09-21 21:22:26 GMT 42.021652 23.297632 36,025 325 405 0
2022-09-21 21:22:19 GMT 42.009949 23.308901 36,000 325 405 64
2022-09-21 21:22:16 GMT 42.006271 23.312426 36,000 325 405 64
2022-09-21 21:22:09 GMT 41.995331 23.323038 36,000 325 406 -64
2022-09-21 21:22:05 GMT 41.989838 23.328318 36,000 325 406 0
2022-09-21 21:21:59 GMT 41.979630 23.338144 36,000 325 405 -64
2022-09-21 21:21:57 GMT 41.977177 23.340519 36,000 325 406 -192
2022-09-21 21:21:55 GMT 41.974915 23.342701 36,000 325 406 -192
2022-09-21 21:21:49 GMT 41.964653 23.352526 36,025 325 405 -128
2022-09-21 21:21:45 GMT 41.959023 23.357956 36,025 325 405 64
2022-09-21 21:21:38 GMT 41.945618 23.370790 35,975 325 405 192
2022-09-21 21:21:34 GMT 41.942871 23.373413 35,975 325 406 128
2022-09-21 21:21:27 GMT 41.931381 23.384399 35,975 325 406 0
2022-09-21 21:21:24 GMT 41.926666 23.388893 35,975 325 407 -64
2022-09-21 21:21:17 GMT 41.915497 23.399601 36,000 325 406 -64
2022-09-21 21:21:13 GMT 41.910748 23.404137 36,000 325 406 0
2022-09-21 21:21:07 GMT 41.899529 23.414803 36,000 325 407 0
2022-09-21 21:21:04 GMT 41.896503 23.417679 36,000 325 406 0
2022-09-21 21:20:57 GMT 41.886681 23.427067 36,025 325 406 -128
2022-09-21 21:20:55 GMT 41.883469 23.430134 36,025 325 406 -128
2022-09-21 21:20:53 GMT 41.880394 23.433008 36,025 325 406 -64
2022-09-21 21:20:48 GMT 41.871223 23.441757 36,025 325 405 64
2022-09-21 21:20:43 GMT 41.864197 23.448400 36,000 325 406 128
2022-09-21 21:20:36 GMT 41.853439 23.458557 36,000 325 406 128
2022-09-21 21:20:33 GMT 41.849018 23.462772 35,975 325 407 128
2022-09-21 21:20:28 GMT 41.840881 23.470543 35,975 325 407 0
2022-09-21 21:20:25 GMT 41.837662 23.473631 35,975 325 407 0
2022-09-21 21:20:23 GMT 41.833969 23.477160 35,975 325 408 -64
2022-09-21 21:20:17 GMT 41.824722 23.485897 36,000 325 408 -192
2022-09-21 21:20:13 GMT 41.818108 23.492220 36,000 325 408 -128
2022-09-21 21:20:08 GMT 41.809959 23.499947 36,025 325 407 0
2022-09-21 21:20:03 GMT 41.802280 23.507294 36,025 325 407 0
2022-09-21 21:19:56 GMT 41.791718 23.517359 36,000 325 407 64
2022-09-21 21:19:52 GMT 41.785568 23.523197 36,000 325 407 64
2022-09-21 21:19:46 GMT 41.776062 23.532278 36,000 325 407 128
2022-09-21 21:19:42 GMT 41.771137 23.536995 36,000 325 407 64
2022-09-21 21:19:37 GMT 41.762989 23.544724 35,975 325 408 64
2022-09-21 21:19:35 GMT 41.759628 23.547947 35,975 325 409 -64
2022-09-21 21:19:32 GMT 41.754982 23.552387 36,000 325 409 -128
2022-09-21 21:19:28 GMT 41.748184 23.558807 36,000 325 409 -64
2022-09-21 21:19:26 GMT 41.744789 23.562033 36,000 325 410 0
2022-09-21 21:19:23 GMT 41.741089 23.565550 36,000 325 410 0
2022-09-21 21:19:20 GMT 41.737701 23.568794 36,000 325 410 0
2022-09-21 21:19:17 GMT 41.733055 23.573147 36,000 325 410 -64
2022-09-21 21:19:14 GMT 41.728867 23.577106 36,000 325 410 0
2022-09-21 21:19:11 GMT 41.722534 23.583176 36,000 325 410 0
2022-09-21 21:19:05 GMT 41.713715 23.591579 36,000 325 411 0
2022-09-21 21:19:01 GMT 41.707535 23.597446 36,000 325 412 0
2022-09-21 21:18:57 GMT 41.701767 23.602879 36,000 325 412 64
2022-09-21 21:18:54 GMT 41.696190 23.608213 36,000 325 413 64
2022-09-21 21:18:50 GMT 41.689957 23.614115 36,000 325 413 64
2022-09-21 21:18:47 GMT 41.686180 23.617666 36,000 325 413 64
2022-09-21 21:18:44 GMT 41.680733 23.622841 36,000 325 413 0
2022-09-21 21:18:41 GMT 41.675720 23.627535 36,000 325 414 -64
2022-09-21 21:18:37 GMT 41.669952 23.633028 36,000 325 414 -64
2022-09-21 21:18:34 GMT 41.664780 23.637896 36,000 325 413 0
2022-09-21 21:18:31 GMT 41.660065 23.642323 36,000 325 414 64
2022-09-21 21:18:27 GMT 41.654434 23.647635 36,000 325 414 64
2022-09-21 21:18:24 GMT 41.649307 23.652502 36,000 325 414 64
2022-09-21 21:18:20 GMT 41.643631 23.657845 36,000 325 415 -64
2022-09-21 21:18:16 GMT 41.638184 23.663017 36,000 325 415 0
2022-09-21 21:18:14 GMT 41.634430 23.666548 36,000 325 415 0
2022-09-21 21:18:10 GMT 41.627850 23.672728 36,000 325 414 0
2022-09-21 21:18:06 GMT 41.622356 23.677900 36,000 325 415 -64
2022-09-21 21:18:04 GMT 41.619232 23.680904 36,000 325 415 -64
2022-09-21 21:18:00 GMT 41.611557 23.688120 36,000 325 414 0
2022-09-21 21:17:56 GMT 41.606232 23.693140 36,000 325 414 0
2022-09-21 21:17:54 GMT 41.602341 23.696823 36,000 325 414 64
2022-09-21 21:17:50 GMT 41.596207 23.702566 36,000 325 415 64
2022-09-21 21:17:46 GMT 41.590393 23.707996 36,000 325 414 -64
2022-09-21 21:17:44 GMT 41.580048 23.717735 36,000 325 414 -64
2022-09-21 21:17:40 GMT 41.580048 23.717735 36,000 325 414 0
2022-09-21 21:17:31 GMT 41.567982 23.729065 36,000 325 414 0
2022-09-21 21:17:29 GMT 41.564072 23.732767 36,000 325 414 0
2022-09-21 21:17:25 GMT 41.557648 23.738771 36,000 325 414 0
2022-09-21 21:17:22 GMT 41.553738 23.742413 36,000 325 414 0
2022-09-21 21:17:19 GMT 41.547501 23.748322 36,000 325 413 -64
2022-09-21 21:17:13 GMT 41.539078 23.756248 36,000 325 413 0
2022-09-21 21:17:09 GMT 41.531891 23.762991 36,000 325 413 0
2022-09-21 21:17:03 GMT 41.523479 23.770966 36,000 325 413 0
2022-09-21 21:16:58 GMT 41.515705 23.778311 36,000 325 413 64
2022-09-21 21:16:53 GMT 41.507137 23.786423 36,000 325 413 0
2022-09-21 21:16:48 GMT 41.499969 23.793194 36,000 325 413 0
2022-09-21 21:16:43 GMT 41.487030 23.805376 36,000 325 413 0
2022-09-21 21:16:41 GMT 41.487030 23.805376 36,000 325 413 0
2022-09-21 21:16:37 GMT 41.482372 23.809736 36,000 325 413 0
2022-09-21 21:16:30 GMT 41.471283 23.820169 36,000 325 413 0
2022-09-21 21:16:28 GMT 41.467987 23.823292 36,000 325 413 -64
2022-09-21 21:16:23 GMT 41.460663 23.830156 36,000 325 413 -128
2022-09-21 21:16:18 GMT 41.452240 23.838085 36,000 325 412 -64
2022-09-21 21:16:14 GMT 41.442432 23.847294 36,025 325 412 0
2022-09-21 21:16:07 GMT 41.435402 23.853809 36,000 325 412 64
2022-09-21 21:16:01 GMT 41.426193 23.862431 36,000 325 412 64
2022-09-21 21:15:57 GMT 41.419666 23.868565 36,000 325 412 0
2022-09-21 21:15:53 GMT 41.414223 23.873674 36,000 325 412 0
2022-09-21 21:15:49 GMT 41.406727 23.880699 36,000 325 412 0
2022-09-21 21:15:46 GMT 41.403652 23.883638 36,000 325 412 0
2022-09-21 21:15:42 GMT 41.397091 23.889771 36,000 325 412 0
2022-09-21 21:15:37 GMT 41.388523 23.897755 36,000 325 412 0
2022-09-21 21:15:32 GMT 41.382099 23.903753 36,000 325 413 0
2022-09-21 21:15:29 GMT 41.376022 23.909485 36,000 325 413 0
2022-09-21 21:15:26 GMT 41.371490 23.913696 36,000 325 413 0
2022-09-21 21:15:22 GMT 41.366821 23.918091 36,000 325 413 0
2022-09-21 21:15:19 GMT 41.360550 23.923950 36,000 325 413 0
2022-09-21 21:15:15 GMT 41.354309 23.929783 36,000 325 413 0
2022-09-21 21:15:09 GMT 41.343040 23.940332 36,000 325 413 0
2022-09-21 21:15:06 GMT 41.340729 23.942505 36,000 325 413 0
2022-09-21 21:15:02 GMT 41.334595 23.948242 36,000 325 414 0
2022-09-21 21:14:56 GMT 41.324745 23.957499 36,000 325 414 -64
2022-09-21 21:14:53 GMT 41.320187 23.961742 36,000 325 414 -64
2022-09-21 21:14:48 GMT 41.308456 23.972717 36,000 325 414 0
2022-09-21 21:14:45 GMT 41.308456 23.972717 36,000 325 414 64
2022-09-21 21:14:38 GMT 41.297470 23.982971 36,000 326 415 64
2022-09-21 21:14:35 GMT 41.292721 23.987337 36,000 326 414 0
2022-09-21 21:14:31 GMT 41.285179 23.994328 36,000 326 414 0
2022-09-21 21:14:28 GMT 41.279205 23.999878 36,000 325 414 0
2022-09-21 21:14:25 GMT 41.276413 24.002502 36,000 325 414 0
2022-09-21 21:14:18 GMT 41.260273 24.017487 36,000 325 413 0
2022-09-21 21:14:15 GMT 41.260273 24.017487 36,000 325 413 0
2022-09-21 21:14:08 GMT 41.249332 24.027723 36,000 325 412 0
2022-09-21 21:14:05 GMT 41.245422 24.031343 36,000 325 412 0
2022-09-21 21:14:02 GMT 41.240253 24.036152 36,000 325 412 0
2022-09-21 21:13:56 GMT 41.229172 24.046448 36,000 325 412 0
2022-09-21 21:13:53 GMT 41.225281 24.050110 36,000 325 412 0
2022-09-21 21:13:47 GMT 41.215954 24.058809 36,000 325 411 0
2022-09-21 21:13:43 GMT 41.209579 24.064758 36,000 325 411 64
2022-09-21 21:13:37 GMT 41.200825 24.072855 36,000 325 411 64
2022-09-21 21:13:34 GMT 41.191189 24.081781 36,000 325 410 0
2022-09-21 21:13:26 GMT 41.183578 24.088867 36,000 326 410 0
2022-09-21 21:13:23 GMT 41.179871 24.092285 36,000 326 410 0
2022-09-21 21:13:14 GMT 41.165131 24.106018 36,000 325 409 -64
2022-09-21 21:13:06 GMT 41.152451 24.117798 36,000 325 409 -64
2022-09-21 21:13:02 GMT 41.146545 24.123230 36,000 325 408 0
2022-09-21 21:12:56 GMT 41.136349 24.132717 36,000 325 408 64
2022-09-21 21:12:53 GMT 41.133091 24.135714 36,000 325 409 64
2022-09-21 21:12:43 GMT 41.116974 24.150696 36,000 325 410 64
2022-09-21 21:12:34 GMT 41.097248 24.168985 36,000 325 411 0
2022-09-21 21:12:25 GMT 41.089146 24.176476 36,000 325 412 0
2022-09-21 21:12:22 GMT 41.085377 24.179972 36,000 325 412 0
2022-09-21 21:12:13 GMT 41.070202 24.194017 36,000 326 413 0
2022-09-21 21:12:09 GMT 41.063919 24.199829 36,000 326 413 0
2022-09-21 21:12:04 GMT 41.057327 24.205872 36,000 326 413 -64
2022-09-21 21:12:01 GMT 41.051998 24.210808 36,000 326 414 -64
2022-09-21 21:11:55 GMT 41.042084 24.219971 36,000 326 414 0
2022-09-21 21:11:52 GMT 41.037380 24.224293 36,000 326 415 64
2022-09-21 21:11:45 GMT 41.026070 24.234779 36,000 326 415 -64
2022-09-21 21:11:42 GMT 41.021461 24.238960 36,000 326 415 -64
2022-09-21 21:11:38 GMT 41.015640 24.244329 36,000 326 418 0
2022-09-21 21:11:34 GMT 41.009628 24.249878 36,000 326 416 0
2022-09-21 21:11:31 GMT 40.993015 24.265116 36,000 326 418 0
2022-09-21 21:11:24 GMT 40.993015 24.265116 36,000 326 417 0
2022-09-21 21:11:19 GMT 40.985413 24.272095 36,000 326 417 0
2022-09-21 21:11:14 GMT 40.977493 24.279419 36,000 326 418 0
2022-09-21 21:11:11 GMT 40.972717 24.283779 36,000 326 418 64
2022-09-21 21:11:04 GMT 40.961151 24.294373 36,000 326 418 64
2022-09-21 21:11:01 GMT 40.956711 24.298462 36,000 326 418 0
2022-09-21 21:10:53 GMT 40.944809 24.309387 36,000 326 418 64
2022-09-21 21:10:50 GMT 40.939270 24.314453 36,000 326 418 0
2022-09-21 21:10:43 GMT 40.928925 24.323975 36,000 326 419 -64
2022-09-21 21:10:40 GMT 40.924301 24.328186 36,000 326 419 -64
2022-09-21 21:10:30 GMT 40.907452 24.343706 36,000 326 419 0
2022-09-21 21:10:23 GMT 40.896149 24.354065 36,000 326 419 0
2022-09-21 21:10:19 GMT 40.891205 24.358582 36,000 326 419 0
2022-09-21 21:10:12 GMT 40.879105 24.369673 36,000 326 419 0
2022-09-21 21:10:09 GMT 40.875137 24.373352 36,000 326 418 -64
2022-09-21 21:10:02 GMT 40.864021 24.383532 36,000 326 418 0
2022-09-21 21:09:59 GMT 40.858612 24.388489 36,000 326 418 0
2022-09-21 21:09:52 GMT 40.847214 24.398987 36,000 326 418 64
2022-09-21 21:09:49 GMT 40.842464 24.403381 36,000 326 417 0
2022-09-21 21:09:42 GMT 40.831715 24.413244 36,000 326 417 0
2022-09-21 21:09:39 GMT 40.826500 24.418051 36,000 326 417 0
2022-09-21 21:09:32 GMT 40.815903 24.427734 36,000 326 416 0
2022-09-21 21:09:28 GMT 40.809135 24.433968 36,000 326 416 0
2022-09-21 21:09:21 GMT 40.798847 24.443333 36,000 326 415 0
2022-09-21 21:09:18 GMT 40.794434 24.447388 36,000 326 415 0
2022-09-21 21:09:09 GMT 40.778690 24.461809 36,000 326 413 64
2022-09-21 21:08:58 GMT 40.762299 24.476746 36,000 326 413 -64
2022-09-21 21:08:50 GMT 40.750397 24.487610 36,000 326 413 0
2022-09-21 21:08:47 GMT 40.745865 24.491760 36,000 326 413 0
2022-09-21 21:08:40 GMT 40.734699 24.501945 36,000 326 412 0
2022-09-21 21:08:36 GMT 40.727482 24.508501 36,000 326 412 0
2022-09-21 21:08:30 GMT 40.718590 24.516615 36,000 326 412 0
2022-09-21 21:08:25 GMT 40.710571 24.523926 36,000 326 412 0
2022-09-21 21:08:20 GMT 40.700546 24.533081 36,000 326 412 0
2022-09-21 21:08:16 GMT 40.691940 24.540894 36,000 326 411 0
2022-09-21 21:08:10 GMT 40.687260 24.545141 36,000 326 411 -64
2022-09-21 21:08:07 GMT 40.681915 24.549988 36,000 326 411 0
2022-09-21 21:07:59 GMT 40.669712 24.561060 36,000 326 411 0
2022-09-21 21:07:56 GMT 40.665195 24.565243 36,000 326 411 0
2022-09-21 21:07:49 GMT 40.653000 24.576290 36,000 326 411 64
2022-09-21 21:07:46 GMT 40.650375 24.578735 36,000 326 411 0
2022-09-21 21:07:39 GMT 40.638016 24.589966 36,000 326 411 0
2022-09-21 21:07:35 GMT 40.630188 24.597015 36,000 326 410 -64
2022-09-21 21:07:29 GMT 40.609177 24.616150 36,000 326 409 0
2022-09-21 21:07:23 GMT 40.609177 24.616150 36,000 326 408 64
2022-09-21 21:07:19 GMT 40.606384 24.618652 36,000 326 408 0
2022-09-21 21:07:15 GMT 40.601700 24.622921 36,000 326 408 64
2022-09-21 21:07:11 GMT 40.595810 24.628296 36,000 326 408 64
2022-09-21 21:07:08 GMT 40.589733 24.633781 36,000 326 408 0
2022-09-21 21:07:05 GMT 40.581070 24.641724 36,000 326 408 0
2022-09-21 21:07:02 GMT 40.581070 24.641724 36,000 326 408 -64
2022-09-21 21:06:56 GMT 40.570816 24.651062 36,000 326 408 0
2022-09-21 21:06:53 GMT 40.565060 24.656254 36,000 326 408 0
2022-09-21 21:06:45 GMT 40.550537 24.669550 36,000 326 407 0
2022-09-21 21:06:42 GMT 40.550537 24.669550 36,000 326 407 0
2022-09-21 21:06:36 GMT 40.541553 24.677727 36,000 326 406 0
2022-09-21 21:06:33 GMT 40.528053 24.689899 36,000 326 406 0
2022-09-21 21:06:28 GMT 40.528053 24.689899 36,000 326 406 0
2022-09-21 21:06:25 GMT 40.523117 24.694397 36,000 326 406 0
2022-09-21 21:06:22 GMT 40.519531 24.697639 36,000 326 406 -64
2022-09-21 21:06:17 GMT 40.511993 24.704468 36,000 326 406 0
2022-09-21 21:06:13 GMT 40.504120 24.711609 36,000 326 405 0
2022-09-21 21:06:09 GMT 40.497467 24.717615 36,000 326 404 0
2022-09-21 21:06:04 GMT 40.490856 24.723608 36,000 326 404 0
2022-09-21 21:06:01 GMT 40.485901 24.728088 36,000 326 404 0
2022-09-21 21:05:56 GMT 40.478054 24.735155 36,000 326 404 0
2022-09-21 21:05:52 GMT 40.473587 24.739197 36,000 326 404 0
2022-09-21 21:05:47 GMT 40.464832 24.747080 36,000 326 404 0
2022-09-21 21:05:44 GMT 40.460972 24.750574 36,000 326 404 0
2022-09-21 21:05:41 GMT 40.455894 24.755131 36,000 326 403 -64
2022-09-21 21:05:33 GMT 40.441635 24.768005 36,000 326 403 0
2022-09-21 21:05:25 GMT 40.430244 24.778227 36,000 326 402 0
2022-09-21 21:05:21 GMT 40.425823 24.782223 36,000 326 402 0
2022-09-21 21:05:13 GMT 40.412323 24.794395 36,000 326 402 0
2022-09-21 21:05:05 GMT 40.400940 24.804626 36,000 326 402 0
2022-09-21 21:05:02 GMT 40.394669 24.810242 36,000 326 402 0
2022-09-21 21:04:54 GMT 40.378876 24.824463 36,000 326 401 0
2022-09-21 21:04:51 GMT 40.378876 24.824463 36,000 326 401 0
2022-09-21 21:04:46 GMT 40.370750 24.831785 36,000 326 401 0
2022-09-21 21:04:43 GMT 40.366791 24.835388 36,000 326 401 0
2022-09-21 21:04:40 GMT 40.362808 24.838989 36,000 326 401 0
2022-09-21 21:04:35 GMT 40.354973 24.846018 36,000 326 401 -64
2022-09-21 21:04:31 GMT 40.347012 24.853134 36,025 326 401 0
2022-09-21 21:04:22 GMT 40.333881 24.864994 36,000 326 401 0
2022-09-21 21:04:18 GMT 40.328529 24.869801 36,000 326 401 0
2022-09-21 21:04:15 GMT 40.323830 24.874107 36,000 326 401 64
2022-09-21 21:04:12 GMT 40.319405 24.878040 36,000 326 400 0
2022-09-21 21:04:09 GMT 40.315403 24.881660 36,000 326 400 0
2022-09-21 21:04:04 GMT 40.307816 24.888466 36,000 326 399 0
2022-09-21 21:04:00 GMT 40.299408 24.895996 36,000 326 399 0
2022-09-21 21:03:54 GMT 40.291672 24.902954 36,000 326 398 0
2022-09-21 21:03:51 GMT 40.287231 24.906921 36,000 326 398 0
2022-09-21 21:03:48 GMT 40.277695 24.915495 36,000 326 396 0
2022-09-21 21:03:41 GMT 40.271782 24.920799 36,000 326 396 0
2022-09-21 21:03:38 GMT 40.268196 24.924046 36,000 326 396 0
2022-09-21 21:03:33 GMT 40.260178 24.931274 36,000 326 396 0
2022-09-21 21:03:29 GMT 40.252625 24.938049 36,000 326 396 0
2022-09-21 21:03:23 GMT 40.245255 24.944702 36,000 326 396 0
2022-09-21 21:03:20 GMT 40.240860 24.948608 36,000 326 395 0
2022-09-21 21:03:16 GMT 40.235424 24.953508 36,000 326 395 0
2022-09-21 21:03:12 GMT 40.229233 24.959002 36,000 326 395 0
2022-09-21 21:03:10 GMT 40.225185 24.962685 36,000 326 395 64
2022-09-21 21:03:07 GMT 40.221554 24.965931 36,000 326 395 0
2022-09-21 21:03:04 GMT 40.216599 24.970398 36,000 326 395 0
2022-09-21 21:02:58 GMT 40.206482 24.979431 36,000 326 395 -64
2022-09-21 21:02:50 GMT 40.195312 24.989441 36,000 326 394 0
2022-09-21 21:02:47 GMT 40.190174 24.994020 36,000 326 395 0
2022-09-21 21:02:42 GMT 40.184006 24.999512 36,000 326 394 0
2022-09-21 21:02:39 GMT 40.177048 25.005756 36,000 326 394 64
2022-09-21 21:02:36 GMT 40.175125 25.007507 36,000 326 395 -64
2022-09-21 21:02:29 GMT 40.163361 25.017990 36,000 326 395 -64
2022-09-21 21:02:26 GMT 40.157639 25.023132 36,000 326 395 -64
2022-09-21 21:02:21 GMT 40.151001 25.029053 36,000 326 394 -64
2022-09-21 21:02:18 GMT 40.142273 25.036842 36,000 326 394 0
2022-09-21 21:02:12 GMT 40.137619 25.040962 36,000 326 393 0
2022-09-21 21:02:08 GMT 40.130402 25.047392 36,000 326 393 0
2022-09-21 21:02:02 GMT 40.122894 25.054077 36,000 326 393 0
2022-09-21 21:01:56 GMT 40.114296 25.061750 36,000 326 393 64
2022-09-21 21:01:51 GMT 40.107079 25.068117 36,000 326 394 -64
2022-09-21 21:01:48 GMT 40.101059 25.073486 36,000 326 393 64
2022-09-21 21:01:45 GMT 40.098679 25.075623 36,000 326 394 -64
2022-09-21 21:01:42 GMT 40.092041 25.081482 36,000 326 394 -64
2022-09-21 21:01:35 GMT 40.075798 25.095896 36,000 326 393 -64
2022-09-21 21:01:31 GMT 40.075798 25.095896 36,000 326 393 64
2022-09-21 21:01:27 GMT 40.069046 25.101950 36,000 326 393 64
2022-09-21 21:01:24 GMT 40.066814 25.103947 36,000 326 393 64
2022-09-21 21:01:21 GMT 40.061550 25.108629 36,000 326 393 0
2022-09-21 21:01:18 GMT 40.056293 25.113310 36,000 326 394 -64
2022-09-21 21:01:15 GMT 40.052521 25.116619 36,000 326 394 -64
2022-09-21 21:01:10 GMT 40.045120 25.123173 36,000 326 393 -64
2022-09-21 21:01:07 GMT 40.036285 25.131042 36,000 326 392 0
2022-09-21 21:01:04 GMT 40.036285 25.131042 36,000 326 392 64
2022-09-21 21:01:01 GMT 40.030872 25.135845 36,000 326 391 -64
2022-09-21 21:00:56 GMT 40.019073 25.146362 36,000 326 391 0
2022-09-21 21:00:53 GMT 40.019073 25.146362 36,000 326 391 0
2022-09-21 21:00:50 GMT 40.014442 25.150515 36,000 326 391 -64
2022-09-21 21:00:46 GMT 40.007736 25.156569 36,000 326 391 -64
2022-09-21 21:00:40 GMT 39.999069 25.164246 36,000 326 391 0
2022-09-21 21:00:36 GMT 39.992935 25.169678 36,000 326 391 0
2022-09-21 21:00:30 GMT 39.984882 25.176855 36,000 326 389 0
2022-09-21 21:00:24 GMT 39.969845 25.190214 36,000 326 389 0
2022-09-21 21:00:20 GMT 39.969845 25.190214 36,000 326 389 0
2022-09-21 21:00:16 GMT 39.963745 25.195583 36,000 326 388 0
2022-09-21 21:00:11 GMT 39.954857 25.203510 36,000 326 388 64
2022-09-21 21:00:08 GMT 39.951736 25.206257 36,000 326 388 64
2022-09-21 21:00:05 GMT 39.947872 25.209690 36,000 326 388 64
2022-09-21 21:00:03 GMT 39.945511 25.211792 36,000 326 388 64
2022-09-21 20:59:57 GMT 39.935860 25.220366 36,000 326 388 0
2022-09-21 20:59:54 GMT 39.923710 25.231165 36,000 326 388 0
2022-09-21 20:59:49 GMT 39.923710 25.231165 36,000 326 388 64
2022-09-21 20:59:44 GMT 39.916122 25.237865 36,000 326 388 0
2022-09-21 20:59:41 GMT 39.908112 25.244970 36,000 326 388 0
2022-09-21 20:59:38 GMT 39.908112 25.244970 36,000 326 388 0
2022-09-21 20:59:35 GMT 39.902618 25.249866 36,000 326 388 0
2022-09-21 20:59:29 GMT 39.894428 25.257080 36,000 326 388 0
2022-09-21 20:59:24 GMT 39.886139 25.264496 36,000 326 388 0
2022-09-21 20:59:21 GMT 39.880920 25.269093 36,000 326 389 0
2022-09-21 20:59:18 GMT 39.878834 25.270874 36,000 323 385 64
2022-09-21 20:59:13 GMT 39.871078 25.277691 36,000 326 388 -64
2022-09-21 20:59:08 GMT 39.863937 25.284019 36,000 326 389 -64
2022-09-21 20:59:04 GMT 39.857529 25.289633 36,000 326 388 -64
2022-09-21 20:59:01 GMT 39.851440 25.295006 36,000 326 388 0
2022-09-21 20:58:57 GMT 39.846390 25.299500 36,000 323 385 64
2022-09-21 20:58:53 GMT 39.841736 25.303783 36,000 324 387 64
2022-09-21 20:58:49 GMT 39.834641 25.310827 36,000 322 384 64
2022-09-21 20:58:43 GMT 39.820831 25.326050 36,000 319 383 0
2022-09-21 20:58:38 GMT 39.820831 25.326050 36,000 319 383 0
2022-09-21 20:58:34 GMT 39.813812 25.334114 36,000 319 383 0
2022-09-21 20:58:30 GMT 39.808090 25.340681 36,000 319 383 0
2022-09-21 20:58:26 GMT 39.804630 25.344604 36,000 319 383 0
2022-09-21 20:58:23 GMT 39.800488 25.349365 36,000 319 383 0
2022-09-21 20:58:19 GMT 39.794403 25.356325 36,000 319 383 0
2022-09-21 20:58:13 GMT 39.787033 25.364685 36,000 319 383 0
2022-09-21 20:58:07 GMT 39.778656 25.374237 36,000 319 383 0
2022-09-21 20:58:04 GMT 39.774399 25.379074 36,000 319 384 0
2022-09-21 20:58:01 GMT 39.771057 25.382896 36,000 319 384 0
2022-09-21 20:57:56 GMT 39.764923 25.389893 36,000 319 384 0
2022-09-21 20:57:53 GMT 39.752106 25.404510 36,000 319 384 0
2022-09-21 20:57:47 GMT 39.752106 25.404510 36,000 319 385 64
2022-09-21 20:57:43 GMT 39.747326 25.409973 36,000 319 385 64
2022-09-21 20:57:40 GMT 39.742901 25.415039 36,000 319 385 64
2022-09-21 20:57:36 GMT 39.737686 25.420959 36,000 319 386 64
2022-09-21 20:57:33 GMT 39.733780 25.425415 36,000 319 386 0
2022-09-21 20:57:30 GMT 39.729916 25.429871 36,000 319 386 0
2022-09-21 20:57:26 GMT 39.724701 25.435791 36,000 319 386 -64
2022-09-21 20:57:23 GMT 39.716087 25.445618 36,000 319 386 -64
2022-09-21 20:57:20 GMT 39.716087 25.445618 36,000 319 386 -64
2022-09-21 20:57:14 GMT 39.708313 25.454529 36,000 319 387 0
2022-09-21 20:57:11 GMT 39.703472 25.460022 36,000 319 386 0
2022-09-21 20:57:07 GMT 39.698074 25.466125 36,000 319 386 0
2022-09-21 20:57:03 GMT 39.690948 25.474243 36,000 319 387 -64
2022-09-21 20:56:55 GMT 39.683361 25.482788 36,000 319 389 0
2022-09-21 20:56:49 GMT 39.674191 25.493225 36,000 319 388 64
2022-09-21 20:56:46 GMT 39.670280 25.497620 36,000 319 388 64
2022-09-21 20:56:43 GMT 39.665718 25.502869 36,000 319 388 64
2022-09-21 20:56:41 GMT 39.663670 25.505127 36,000 319 388 0
2022-09-21 20:56:38 GMT 39.660187 25.509119 36,000 319 388 -64
2022-09-21 20:56:35 GMT 39.654221 25.515869 36,000 319 389 0
2022-09-21 20:56:32 GMT 39.651535 25.518970 36,000 319 388 -64
2022-09-21 20:56:30 GMT 39.647324 25.523748 36,000 319 388 0
2022-09-21 20:56:25 GMT 39.642059 25.529718 36,000 319 388 0
2022-09-21 20:56:20 GMT 39.635147 25.537540 36,000 319 388 64
2022-09-21 20:56:14 GMT 39.628143 25.545542 36,000 319 389 0
2022-09-21 20:56:11 GMT 39.622986 25.551392 36,000 319 389 0
2022-09-21 20:56:05 GMT 39.614456 25.561066 36,000 319 389 0
2022-09-21 20:56:02 GMT 39.611065 25.564880 36,000 319 389 0
2022-09-21 20:55:58 GMT 39.606087 25.570557 36,000 319 389 0
2022-09-21 20:55:53 GMT 39.595379 25.582703 36,000 319 389 0
2022-09-21 20:55:50 GMT 39.595379 25.582703 36,000 319 389 0
2022-09-21 20:55:43 GMT 39.585480 25.593904 36,000 319 389 64
2022-09-21 20:55:40 GMT 39.581039 25.598980 36,000 319 389 64
2022-09-21 20:55:31 GMT 39.570190 25.611221 36,000 319 389 0
2022-09-21 20:55:29 GMT 39.567215 25.614624 36,000 319 389 0
2022-09-21 20:55:22 GMT 39.557053 25.626148 36,000 319 390 -64
2022-09-21 20:55:19 GMT 39.553665 25.630030 36,000 319 390 -64
2022-09-21 20:55:11 GMT 39.541718 25.643583 36,000 319 391 -64
2022-09-21 20:55:08 GMT 39.538605 25.647104 36,000 319 391 -64
2022-09-21 20:55:02 GMT 39.529358 25.657614 36,000 319 391 0
2022-09-21 20:54:50 GMT 39.514114 25.674870 36,000 319 391 64
2022-09-21 20:54:45 GMT 39.506378 25.683706 36,000 319 391 64
2022-09-21 20:54:41 GMT 39.500736 25.690002 36,000 319 392 0
2022-09-21 20:54:38 GMT 39.497757 25.693420 36,000 319 392 0
2022-09-21 20:54:32 GMT 39.487061 25.705441 36,000 319 394 -64
2022-09-21 20:54:26 GMT 39.481838 25.711304 36,000 320 393 -64
2022-09-21 20:54:20 GMT 39.472916 25.721323 36,000 319 394 0
2022-09-21 20:54:17 GMT 39.468243 25.726562 36,000 319 394 0
2022-09-21 20:54:10 GMT 39.459213 25.736755 36,000 319 394 64
2022-09-21 20:54:07 GMT 39.454788 25.741682 36,000 319 394 0
2022-09-21 20:54:01 GMT 39.445061 25.752686 36,000 320 394 0
2022-09-21 20:53:57 GMT 39.441338 25.756897 36,000 320 394 0
2022-09-21 20:53:49 GMT 39.430161 25.769388 36,000 319 395 0
2022-09-21 20:53:46 GMT 39.425743 25.774353 36,000 319 395 0
2022-09-21 20:53:40 GMT 39.417068 25.784136 36,000 319 395 0
2022-09-21 20:53:37 GMT 39.413086 25.788614 36,000 319 395 -64
2022-09-21 20:53:30 GMT 39.402649 25.800377 36,000 319 394 0
2022-09-21 20:53:27 GMT 39.399216 25.804258 36,000 319 394 0
2022-09-21 20:53:20 GMT 39.388592 25.816162 36,000 319 395 64
2022-09-21 20:53:16 GMT 39.384476 25.820797 36,000 320 394 64
2022-09-21 20:53:08 GMT 39.374161 25.832397 36,000 319 395 0
2022-09-21 20:53:04 GMT 39.367126 25.840261 36,000 319 395 0
2022-09-21 20:52:59 GMT 39.360397 25.847845 36,000 319 395 -64
2022-09-21 20:52:57 GMT 39.358475 25.850037 36,000 319 394 -64
2022-09-21 20:52:49 GMT 39.345951 25.864136 36,000 319 394 -64
2022-09-21 20:52:40 GMT 39.334305 25.877281 36,000 319 394 64
2022-09-21 20:52:35 GMT 39.327843 25.884521 36,000 320 393 0
2022-09-21 20:52:29 GMT 39.318531 25.894958 36,000 320 393 0
2022-09-21 20:52:26 GMT 39.315647 25.898193 36,000 320 393 0
2022-09-21 20:52:18 GMT 39.303680 25.911552 36,000 320 393 0
2022-09-21 20:52:15 GMT 39.300934 25.914612 36,000 320 393 0
2022-09-21 20:52:06 GMT 39.288738 25.928284 36,000 320 392 0
2022-09-21 20:52:02 GMT 39.282166 25.935677 36,000 319 392 0
2022-09-21 20:51:57 GMT 39.276855 25.941647 36,000 319 392 0
2022-09-21 20:51:55 GMT 39.272324 25.946722 36,000 319 392 0
2022-09-21 20:51:49 GMT 39.264954 25.954962 36,000 319 392 0
2022-09-21 20:51:45 GMT 39.259872 25.960634 36,000 319 392 0
2022-09-21 20:51:38 GMT 39.249355 25.972412 36,000 320 392 64
2022-09-21 20:51:34 GMT 39.244949 25.977352 36,000 320 392 0
2022-09-21 20:51:28 GMT 39.235531 25.987854 36,000 320 391 0
2022-09-21 20:51:24 GMT 39.230209 25.993832 36,000 320 391 0
2022-09-21 20:51:17 GMT 39.220215 26.004944 36,000 320 391 -64
2022-09-21 20:51:15 GMT 39.218258 26.007080 36,000 320 391 -64
2022-09-21 20:51:09 GMT 39.209507 26.016785 36,000 320 391 0
2022-09-21 20:51:03 GMT 39.202011 26.025179 36,000 320 390 64
2022-09-21 20:50:59 GMT 39.189468 26.039150 36,000 320 390 64
2022-09-21 20:50:55 GMT 39.189468 26.039150 36,000 320 390 0
2022-09-21 20:50:49 GMT 39.181667 26.047791 36,000 320 390 -64
2022-09-21 20:50:43 GMT 39.175526 26.054626 36,000 320 390 0
2022-09-21 20:50:37 GMT 39.166672 26.064526 36,000 319 389 0
2022-09-21 20:50:33 GMT 39.161636 26.070139 36,000 320 389 0
2022-09-21 20:50:26 GMT 39.151131 26.081787 36,000 320 389 -64
2022-09-21 20:50:22 GMT 39.144894 26.088745 36,000 320 388 0
2022-09-21 20:50:17 GMT 39.138885 26.095394 36,000 320 389 64
2022-09-21 20:50:13 GMT 39.133575 26.101307 36,000 320 389 64
2022-09-21 20:50:01 GMT 39.117371 26.119280 36,000 320 389 0
2022-09-21 20:49:58 GMT 39.113388 26.123636 36,000 320 389 64
2022-09-21 20:49:52 GMT 39.105881 26.131958 36,000 320 389 64
2022-09-21 20:49:48 GMT 39.099335 26.139221 36,000 320 389 0
2022-09-21 20:49:43 GMT 39.092381 26.146973 36,000 320 389 -64
2022-09-21 20:49:37 GMT 39.084747 26.155457 36,000 320 389 -64
2022-09-21 20:49:33 GMT 39.078369 26.162537 36,000 320 389 -64
2022-09-21 20:49:30 GMT 39.075348 26.165852 36,000 320 389 -64
2022-09-21 20:49:26 GMT 39.070450 26.171345 36,000 320 389 -64
2022-09-21 20:49:22 GMT 39.063675 26.178867 36,000 320 389 -64
2022-09-21 20:49:17 GMT 39.057701 26.185547 36,025 320 387 -64
2022-09-21 20:49:11 GMT 39.049553 26.194580 36,025 320 387 0
2022-09-21 20:49:06 GMT 39.043030 26.201796 36,025 320 387 0
2022-09-21 20:49:02 GMT 39.036144 26.209473 36,000 320 386 64
2022-09-21 20:48:57 GMT 39.030487 26.215828 36,000 320 386 64
2022-09-21 20:48:50 GMT 39.021057 26.226276 36,000 319 385 64
2022-09-21 20:48:46 GMT 39.015106 26.232849 36,000 320 384 0
2022-09-21 20:48:40 GMT 39.007843 26.240906 36,000 320 384 0
2022-09-21 20:48:37 GMT 39.002975 26.246279 36,000 320 384 0
2022-09-21 20:48:30 GMT 38.993690 26.256531 36,000 320 383 0
2022-09-21 20:48:26 GMT 38.989269 26.261475 36,000 320 383 0
2022-09-21 20:48:19 GMT 38.980042 26.271713 36,000 320 382 0
2022-09-21 20:48:15 GMT 38.974686 26.277624 36,000 320 382 -64
2022-09-21 20:48:09 GMT 38.965992 26.287292 36,000 320 381 -64
2022-09-21 20:48:06 GMT 38.962143 26.291536 36,000 320 381 0
2022-09-21 20:47:59 GMT 38.952164 26.302643 36,000 319 380 0
2022-09-21 20:47:55 GMT 38.947788 26.307556 36,000 319 380 0
2022-09-21 20:47:45 GMT 38.934010 26.322937 36,000 319 379 0
2022-09-21 20:47:39 GMT 38.925385 26.332558 36,000 319 379 -64
2022-09-21 20:47:34 GMT 38.919300 26.339355 36,000 319 379 0
2022-09-21 20:47:28 GMT 38.911385 26.348267 36,000 319 379 0
2022-09-21 20:47:25 GMT 38.907520 26.352539 36,000 319 380 0
2022-09-21 20:47:20 GMT 38.900772 26.360046 36,000 320 379 0
2022-09-21 20:47:15 GMT 38.893158 26.368441 36,000 320 381 64
2022-09-21 20:47:07 GMT 38.882618 26.380066 36,000 320 381 64
2022-09-21 20:47:04 GMT 38.879219 26.383728 36,000 320 382 0
2022-09-21 20:46:55 GMT 38.867580 26.396301 36,000 321 383 -64
2022-09-21 20:46:53 GMT 38.864136 26.399902 36,000 321 384 -64
2022-09-21 20:46:47 GMT 38.856079 26.408445 36,000 320 383 -64
2022-09-21 20:46:43 GMT 38.850681 26.414307 36,000 320 383 0
2022-09-21 20:46:37 GMT 38.837814 26.428509 36,000 319 382 64
2022-09-21 20:46:34 GMT 38.829849 26.437525 36,000 319 382 0
2022-09-21 20:46:27 GMT 38.829849 26.437525 36,000 319 382 64
2022-09-21 20:46:23 GMT 38.820423 26.448120 35,975 319 383 0
2022-09-21 20:46:15 GMT 38.814560 26.454720 35,975 319 385 0
2022-09-21 20:46:10 GMT 38.802780 26.467896 35,975 319 385 0
2022-09-21 20:46:06 GMT 38.800781 26.470184 35,975 319 386 0
2022-09-21 20:46:03 GMT 38.797287 26.474060 35,975 319 386 0
2022-09-21 20:45:54 GMT 38.784714 26.488037 36,000 319 387 -64
2022-09-21 20:45:52 GMT 38.783089 26.489807 36,000 319 387 -64
2022-09-21 20:45:45 GMT 38.772148 26.502014 36,000 319 388 0
2022-09-21 20:45:42 GMT 38.769058 26.505531 36,000 319 388 0
2022-09-21 20:45:35 GMT 38.759033 26.516697 36,000 319 388 0
2022-09-21 20:45:31 GMT 38.750271 26.526550 36,000 319 388 0
2022-09-21 20:45:24 GMT 38.745392 26.531982 36,000 319 388 0
2022-09-21 20:45:22 GMT 38.741890 26.535889 36,000 319 388 0
2022-09-21 20:45:18 GMT 38.732391 26.546509 36,000 319 388 0
2022-09-21 20:45:13 GMT 38.730530 26.548584 36,000 319 388 64
2022-09-21 20:45:11 GMT 38.726990 26.552523 36,000 319 388 64
2022-09-21 20:45:04 GMT 38.717960 26.562683 36,000 319 389 64
2022-09-21 20:45:02 GMT 38.711723 26.569641 36,000 319 388 0
2022-09-21 20:44:53 GMT 38.703064 26.579285 36,000 319 388 -64
2022-09-21 20:44:50 GMT 38.699707 26.583094 36,000 319 388 0
2022-09-21 20:44:43 GMT 38.689144 26.594910 36,000 319 388 -64
2022-09-21 20:44:38 GMT 38.674946 26.610718 36,000 319 388 0
2022-09-21 20:44:33 GMT 38.674946 26.610718 36,000 319 387 0
2022-09-21 20:44:30 GMT 38.672108 26.613892 36,000 319 387 0
2022-09-21 20:44:26 GMT 38.662659 26.624451 36,000 319 388 -64
2022-09-21 20:44:21 GMT 38.658886 26.628662 36,000 319 387 0
2022-09-21 20:44:17 GMT 38.654846 26.633188 36,000 319 386 0
2022-09-21 20:44:12 GMT 38.647568 26.641308 36,000 319 387 0
2022-09-21 20:44:07 GMT 38.640175 26.649658 36,000 319 387 -64
2022-09-21 20:44:02 GMT 38.633011 26.657610 36,000 319 386 0
2022-09-21 20:43:58 GMT 38.628433 26.662745 36,000 319 387 64
2022-09-21 20:43:50 GMT 38.617641 26.674744 36,000 319 388 64
2022-09-21 20:43:47 GMT 38.613590 26.679260 36,000 319 388 64
2022-09-21 20:43:44 GMT 38.609261 26.684082 36,000 319 389 64
2022-09-21 20:43:40 GMT 38.603806 26.690149 35,975 320 389 64
2022-09-21 20:43:34 GMT 38.595947 26.698853 36,000 319 389 0
2022-09-21 20:43:30 GMT 38.590504 26.704895 36,000 319 389 0
2022-09-21 20:43:27 GMT 38.586868 26.709019 36,000 319 389 0
2022-09-21 20:43:22 GMT 38.580215 26.716431 36,000 319 390 -64
2022-09-21 20:43:20 GMT 38.576111 26.720959 36,000 319 390 -64
2022-09-21 20:43:17 GMT 38.573277 26.724121 36,000 319 389 -64
2022-09-21 20:43:12 GMT 38.566040 26.732124 36,000 320 390 -64
2022-09-21 20:43:10 GMT 38.563568 26.734871 36,000 320 390 0
2022-09-21 20:43:07 GMT 38.559219 26.739685 36,000 320 390 0
2022-09-21 20:43:01 GMT 38.551849 26.747768 36,000 320 389 0
2022-09-21 20:42:59 GMT 38.547485 26.752625 36,000 319 389 0
2022-09-21 20:42:56 GMT 38.544090 26.756348 36,000 319 389 0
2022-09-21 20:42:53 GMT 38.541092 26.759710 36,000 319 389 0
2022-09-21 20:42:48 GMT 38.534035 26.767517 36,000 319 389 -64
2022-09-21 20:42:45 GMT 38.530518 26.771414 36,000 319 389 -64
2022-09-21 20:42:42 GMT 38.526306 26.776131 36,000 319 389 0
2022-09-21 20:42:38 GMT 38.520302 26.782715 36,000 319 389 0
2022-09-21 20:42:35 GMT 38.516785 26.786638 36,000 319 389 0
2022-09-21 20:42:32 GMT 38.512299 26.791594 36,000 319 389 64
2022-09-21 20:42:28 GMT 38.501450 26.803656 36,000 319 389 0
2022-09-21 20:42:24 GMT 38.501450 26.803656 36,000 319 389 0
2022-09-21 20:42:21 GMT 38.497009 26.808672 36,000 319 389 0
2022-09-21 20:42:16 GMT 38.489250 26.817200 36,000 319 389 0
2022-09-21 20:42:12 GMT 38.485062 26.821899 36,000 319 389 0
2022-09-21 20:42:07 GMT 38.477474 26.830322 36,000 319 388 0
2022-09-21 20:42:03 GMT 38.472771 26.835632 36,000 319 388 0
2022-09-21 20:41:58 GMT 38.465462 26.843750 36,000 319 389 0
2022-09-21 20:41:55 GMT 38.461273 26.848450 36,000 319 389 0
2022-09-21 20:41:52 GMT 38.457596 26.852497 36,000 319 389 0
2022-09-21 20:41:48 GMT 38.447029 26.864197 36,000 319 388 0
2022-09-21 20:41:45 GMT 38.447029 26.864197 36,000 320 389 0
2022-09-21 20:41:36 GMT 38.435623 26.876770 36,000 320 388 0
2022-09-21 20:41:34 GMT 38.432781 26.879944 36,000 320 389 0
2022-09-21 20:41:28 GMT 38.424637 26.888920 36,000 320 389 0
2022-09-21 20:41:25 GMT 38.421753 26.892082 36,000 320 388 0
2022-09-21 20:41:22 GMT 38.414951 26.899536 36,000 320 388 0
2022-09-21 20:41:15 GMT 38.407642 26.907606 36,000 320 388 0
2022-09-21 20:41:11 GMT 38.402336 26.913399 36,000 320 387 -64
2022-09-21 20:41:05 GMT 38.393913 26.922653 36,000 320 387 0
2022-09-21 20:41:02 GMT 38.389442 26.927549 36,000 320 387 64
2022-09-21 20:40:55 GMT 38.379898 26.938000 36,000 320 387 0
2022-09-21 20:40:51 GMT 38.375015 26.943327 36,000 320 387 0
2022-09-21 20:40:44 GMT 38.364864 26.954477 36,000 320 387 0
2022-09-21 20:40:41 GMT 38.360916 26.958813 36,000 320 387 0
2022-09-21 20:40:34 GMT 38.351944 26.968632 36,000 320 387 0
2022-09-21 20:40:30 GMT 38.339260 26.982660 36,000 319 387 -64
2022-09-21 20:40:25 GMT 38.339260 26.982660 36,000 319 387 -64
2022-09-21 20:40:20 GMT 38.333069 26.989527 36,000 319 386 -64
2022-09-21 20:40:15 GMT 38.325386 26.998066 36,000 319 386 0
2022-09-21 20:40:12 GMT 38.322083 27.001827 36,000 319 386 0
2022-09-21 20:40:10 GMT 38.320038 27.004103 36,000 319 386 0
2022-09-21 20:40:04 GMT 38.311653 27.013649 36,000 319 386 64
2022-09-21 20:40:02 GMT 38.308582 27.017113 36,000 319 386 64
2022-09-21 20:39:54 GMT 38.293732 27.033951 36,000 319 388 -64
2022-09-21 20:39:51 GMT 38.293732 27.033951 36,000 319 388 0
2022-09-21 20:39:42 GMT 38.281952 27.047230 36,000 319 388 -64
2022-09-21 20:39:33 GMT 38.269684 27.061022 36,000 319 389 0
2022-09-21 20:39:29 GMT 38.264263 27.067087 36,000 319 389 0
2022-09-21 20:39:23 GMT 38.256042 27.076332 36,000 319 389 0
2022-09-21 20:39:20 GMT 38.252106 27.080713 36,000 319 389 0
2022-09-21 20:39:11 GMT 38.240479 27.093746 36,000 319 390 0
2022-09-21 20:39:03 GMT 38.223358 27.112856 36,000 319 391 0
2022-09-21 20:39:00 GMT 38.223358 27.112856 36,000 319 391 -64
2022-09-21 20:38:53 GMT 38.214935 27.122265 36,000 319 391 0
2022-09-21 20:38:44 GMT 38.203651 27.134857 36,000 319 391 0
2022-09-21 20:38:41 GMT 38.199184 27.139812 36,000 319 391 0
2022-09-21 20:38:38 GMT 38.195663 27.143768 36,000 319 391 0
2022-09-21 20:38:33 GMT 38.189129 27.151037 36,000 319 391 0
2022-09-21 20:38:30 GMT 38.185169 27.155457 36,000 319 391 64
2022-09-21 20:38:23 GMT 38.175350 27.166323 36,000 319 391 0
2022-09-21 20:38:21 GMT 38.171158 27.170980 36,000 319 391 0
2022-09-21 20:38:11 GMT 38.157005 27.186684 36,000 319 390 0
2022-09-21 20:38:07 GMT 38.150528 27.193909 36,000 319 390 0
2022-09-21 20:38:02 GMT 38.147827 27.196947 36,000 319 389 0
2022-09-21 20:37:59 GMT 38.142792 27.202559 36,025 319 388 -64
2022-09-21 20:37:50 GMT 38.129471 27.217459 36,025 319 388 -64
2022-09-21 20:37:43 GMT 38.121254 27.226629 36,025 319 387 0
2022-09-21 20:37:39 GMT 38.111851 27.237139 36,000 319 387 64
2022-09-21 20:37:32 GMT 38.106640 27.242989 36,000 319 387 64
2022-09-21 20:37:30 GMT 38.098709 27.251879 36,000 319 388 64
2022-09-21 20:37:28 GMT 38.098709 27.251879 36,000 319 388 64
2022-09-21 20:37:22 GMT 38.093445 27.257723 36,000 319 388 64
2022-09-21 20:37:20 GMT 38.089828 27.261814 36,000 319 388 64
2022-09-21 20:37:18 GMT 38.086292 27.265678 36,000 319 388 0
2022-09-21 20:37:12 GMT 38.079575 27.273209 36,000 319 388 -64
2022-09-21 20:37:10 GMT 38.076187 27.276949 36,000 319 388 -128
2022-09-21 20:37:02 GMT 38.065907 27.288366 36,000 319 388 -64
2022-09-21 20:36:59 GMT 38.060944 27.293896 36,000 319 388 -64
2022-09-21 20:36:57 GMT 38.059296 27.295712 36,000 319 388 0
2022-09-21 20:36:48 GMT 38.045288 27.311253 36,000 319 386 0
2022-09-21 20:36:42 GMT 38.038834 27.318380 36,000 319 386 64
2022-09-21 20:36:39 GMT 38.034760 27.322880 36,000 319 386 0
2022-09-21 20:36:33 GMT 38.025513 27.333166 36,000 319 386 64
2022-09-21 20:36:28 GMT 38.020386 27.338835 36,000 319 386 64
2022-09-21 20:36:25 GMT 38.015396 27.344374 36,000 319 386 64
2022-09-21 20:36:19 GMT 38.007614 27.352978 36,000 319 386 0
2022-09-21 20:36:17 GMT 38.003990 27.357033 36,000 319 386 -64
2022-09-21 20:36:09 GMT 37.993793 27.368376 36,000 319 386 -64
2022-09-21 20:36:07 GMT 37.991886 27.370405 36,000 319 386 -64
2022-09-21 20:36:00 GMT 37.983044 27.380259 36,000 319 385 0
2022-09-21 20:35:58 GMT 37.972286 27.392139 36,000 319 386 0
2022-09-21 20:35:52 GMT 37.972286 27.392139 36,000 319 386 0
2022-09-21 20:35:48 GMT 37.966278 27.398849 36,000 319 386 0
2022-09-21 20:35:45 GMT 37.960510 27.405220 36,000 319 386 0
2022-09-21 20:35:40 GMT 37.956226 27.409992 36,000 319 386 0
2022-09-21 20:35:37 GMT 37.951401 27.415388 36,000 319 385 0
2022-09-21 20:35:35 GMT 37.948872 27.418173 36,000 319 385 0
2022-09-21 20:35:31 GMT 37.944172 27.423428 36,000 319 385 0
2022-09-21 20:35:27 GMT 37.938126 27.430115 36,000 319 385 64
2022-09-21 20:35:24 GMT 37.934814 27.433817 36,000 319 385 64
2022-09-21 20:35:21 GMT 37.930801 27.438295 36,000 319 385 64
2022-09-21 20:35:18 GMT 37.924622 27.445074 35,975 319 384 64
2022-09-21 20:35:15 GMT 37.920986 27.449102 35,950 319 377 512
2022-09-21 20:35:11 GMT 37.917126 27.453402 35,975 319 384 128
2022-09-21 20:35:07 GMT 37.912144 27.458834 35,975 319 384 128
2022-09-21 20:35:02 GMT 37.903748 27.468159 35,950 319 382 128
2022-09-21 20:34:57 GMT 37.897896 27.474598 35,925 319 381 192
2022-09-21 20:34:52 GMT 37.890450 27.482838 35,925 319 381 192
2022-09-21 20:34:48 GMT 37.885796 27.487911 35,900 319 379 192
2022-09-21 20:34:46 GMT 37.883560 27.490423 35,900 319 379 192
2022-09-21 20:34:44 GMT 37.879486 27.494982 35,900 319 379 256
2022-09-21 20:34:40 GMT 37.876064 27.498720 35,875 319 379 256
2022-09-21 20:34:35 GMT 37.868408 27.507195 35,850 319 377 384
2022-09-21 20:34:33 GMT 37.865936 27.509941 35,825 319 377 512
2022-09-21 20:34:28 GMT 37.855583 27.521408 35,750 319 377 576
2022-09-21 20:34:25 GMT 37.851883 27.525484 35,750 319 377 576
2022-09-21 20:34:17 GMT 37.845062 27.533024 35,700 319 377 576
2022-09-21 20:34:15 GMT 37.842453 27.535946 35,675 319 377 640
2022-09-21 20:34:09 GMT 37.835239 27.543919 35,600 319 377 768
2022-09-21 20:34:06 GMT 37.829048 27.550726 35,525 319 377 832
2022-09-21 20:34:01 GMT 37.824203 27.556099 35,475 319 378 832
2022-09-21 20:33:57 GMT 37.818924 27.561892 35,425 319 378 896
2022-09-21 20:33:54 GMT 37.815735 27.565353 35,375 319 378 896
2022-09-21 20:33:49 GMT 37.808609 27.573236 35,300 319 379 960
2022-09-21 20:33:47 GMT 37.805969 27.576151 35,275 319 379 1024
2022-09-21 20:33:45 GMT 37.802650 27.579803 35,225 319 379 1024
2022-09-21 20:33:42 GMT 37.797913 27.585033 35,175 319 380 1088
2022-09-21 20:33:37 GMT 37.792740 27.590702 35,100 319 381 1088
2022-09-21 20:33:34 GMT 37.788071 27.595844 35,025 319 382 1088
2022-09-21 20:33:31 GMT 37.784355 27.599924 34,975 319 382 1088
2022-09-21 20:33:26 GMT 37.777542 27.607414 34,900 319 382 1088
2022-09-21 20:33:23 GMT 37.775002 27.610195 34,850 319 383 1024
2022-09-21 20:33:18 GMT 37.767654 27.618284 34,775 319 384 960
2022-09-21 20:33:14 GMT 37.762569 27.623928 34,650 319 384 896
2022-09-21 20:33:11 GMT 37.756844 27.630257 34,650 319 384 896
2022-09-21 20:33:07 GMT 37.751583 27.635988 34,600 319 384 832
2022-09-21 20:33:02 GMT 37.746368 27.641722 34,525 319 384 704
2022-09-21 20:32:59 GMT 37.741573 27.647036 34,500 319 384 640
2022-09-21 20:32:56 GMT 37.738220 27.650719 34,475 319 384 640
2022-09-21 20:32:52 GMT 37.731537 27.658081 34,425 319 384 576
2022-09-21 20:32:48 GMT 37.727097 27.662931 34,375 319 383 512
2022-09-21 20:32:46 GMT 37.724583 27.665724 34,375 319 383 512
2022-09-21 20:32:44 GMT 37.721512 27.669067 34,350 319 383 512
2022-09-21 20:32:40 GMT 37.709473 27.682274 34,250 319 382 448
2022-09-21 20:32:35 GMT 37.709473 27.682274 34,275 319 382 384
2022-09-21 20:32:33 GMT 37.707500 27.684471 34,275 319 382 448
2022-09-21 20:32:29 GMT 37.701874 27.690632 34,250 319 382 448
2022-09-21 20:32:26 GMT 37.697754 27.695189 34,225 319 382 576
2022-09-21 20:32:24 GMT 37.693768 27.699577 34,175 319 382 896
2022-09-21 20:32:16 GMT 37.679077 27.715643 34,025 319 383 512
2022-09-21 20:32:12 GMT 37.679077 27.715643 34,025 319 383 512
2022-09-21 20:32:07 GMT 37.672028 27.723402 34,000 319 382 128
2022-09-21 20:32:02 GMT 37.665894 27.730135 34,000 319 382 -64
2022-09-21 20:31:58 GMT 37.660034 27.736563 34,000 319 382 -64
2022-09-21 20:31:55 GMT 37.656990 27.739882 34,000 319 382 0
2022-09-21 20:31:53 GMT 37.653259 27.743984 34,000 319 382 0
2022-09-21 20:31:47 GMT 37.646423 27.751406 34,000 319 382 0
2022-09-21 20:31:43 GMT 37.639114 27.759466 34,000 319 382 0
2022-09-21 20:31:39 GMT 37.635109 27.763824 34,000 320 382 0
2022-09-21 20:31:36 GMT 37.630829 27.768471 34,000 320 382 0
2022-09-21 20:31:33 GMT 37.626682 27.773020 34,000 320 382 0
2022-09-21 20:31:31 GMT 37.624832 27.775074 34,000 320 382 0
2022-09-21 20:31:27 GMT 37.619110 27.781326 34,000 320 382 0
2022-09-21 20:31:24 GMT 37.614532 27.786276 34,000 320 382 0
2022-09-21 20:31:21 GMT 37.611603 27.789509 34,000 320 382 0
2022-09-21 20:31:16 GMT 37.603867 27.797922 34,000 320 382 0
2022-09-21 20:31:13 GMT 37.600941 27.801142 34,000 320 382 0
2022-09-21 20:31:11 GMT 37.597458 27.804935 34,000 320 382 0
2022-09-21 20:31:04 GMT 37.588120 27.815163 34,000 320 382 0
2022-09-21 20:31:02 GMT 37.584915 27.818609 34,000 320 381 0
2022-09-21 20:30:53 GMT 37.574360 27.830160 34,000 320 381 0
2022-09-21 20:30:50 GMT 37.569565 27.835356 34,000 319 380 0
2022-09-21 20:30:43 GMT 37.560532 27.845266 34,000 319 380 0
2022-09-21 20:30:41 GMT 37.557880 27.848192 34,000 319 380 0
2022-09-21 20:30:33 GMT 37.546894 27.860252 34,000 319 379 0
2022-09-21 20:30:30 GMT 37.543854 27.863548 34,000 319 379 0
2022-09-21 20:30:24 GMT 37.534561 27.873716 34,000 319 379 0
2022-09-21 20:30:20 GMT 37.530602 27.878046 34,000 319 379 0
2022-09-21 20:30:16 GMT 37.525433 27.883718 34,000 319 379 0
2022-09-21 20:30:12 GMT 37.520645 27.888910 34,000 319 379 0
2022-09-21 20:30:10 GMT 37.516296 27.893703 34,000 319 379 0
2022-09-21 20:30:03 GMT 37.507553 27.903229 34,000 319 379 0
2022-09-21 20:29:59 GMT 37.502655 27.908604 34,000 319 379 0
2022-09-21 20:29:52 GMT 37.492893 27.919306 34,000 319 379 0
2022-09-21 20:29:49 GMT 37.489563 27.922922 34,000 319 379 0
2022-09-21 20:29:46 GMT 37.484528 27.928415 34,000 319 379 64
2022-09-21 20:29:42 GMT 37.480045 27.933277 34,000 320 379 64
2022-09-21 20:29:39 GMT 37.475784 27.937941 34,000 320 379 64
2022-09-21 20:29:33 GMT 37.467682 27.946764 34,000 320 380 0
2022-09-21 20:29:29 GMT 37.461426 27.953518 34,000 320 380 0
2022-09-21 20:29:23 GMT 37.454395 27.961161 34,000 320 380 0
2022-09-21 20:29:17 GMT 37.445827 27.970415 34,000 320 381 -64
2022-09-21 20:29:11 GMT 37.439163 27.977678 34,000 320 382 -64
2022-09-21 20:29:07 GMT 37.433399 27.983910 34,000 320 382 0
2022-09-21 20:29:02 GMT 37.426186 27.991732 34,000 320 382 0
2022-09-21 20:28:57 GMT 37.419109 27.999434 34,000 320 382 0
2022-09-21 20:28:51 GMT 37.411194 28.007973 34,000 320 382 0
2022-09-21 20:28:49 GMT 37.397644 28.022675 34,000 320 383 64
2022-09-21 20:28:41 GMT 37.397644 28.022675 34,000 320 383 0
2022-09-21 20:28:36 GMT 37.392654 28.028051 34,000 320 383 0
2022-09-21 20:28:30 GMT 37.384323 28.037109 34,000 320 384 -64
2022-09-21 20:28:28 GMT 37.380283 28.041468 34,000 320 384 -64
2022-09-21 20:28:22 GMT 37.373161 28.049231 34,000 320 384 -64
2022-09-21 20:28:19 GMT 37.368458 28.054304 34,000 320 384 -64
2022-09-21 20:28:17 GMT 37.365620 28.057409 34,000 320 384 -64
2022-09-21 20:28:14 GMT 37.360916 28.062485 34,000 320 384 0
2022-09-21 20:28:09 GMT 37.355804 28.068024 34,000 320 384 0
2022-09-21 20:28:06 GMT 37.351791 28.072397 34,000 320 384 0
2022-09-21 20:28:04 GMT 37.347881 28.076635 34,000 320 384 0
2022-09-21 20:28:01 GMT 37.342621 28.082310 34,000 320 384 0
2022-09-21 20:27:56 GMT 37.337494 28.087893 34,000 320 384 0
2022-09-21 20:27:52 GMT 37.331589 28.094311 34,000 320 384 0
2022-09-21 20:27:49 GMT 37.328339 28.097769 34,000 320 384 0
2022-09-21 20:27:47 GMT 37.325539 28.100819 34,000 320 384 0
2022-09-21 20:27:43 GMT 37.319347 28.107565 34,000 320 384 64
2022-09-21 20:27:37 GMT 37.311539 28.116001 34,000 320 384 64
2022-09-21 20:27:33 GMT 37.305359 28.122721 34,000 320 384 64
2022-09-21 20:27:29 GMT 37.301193 28.127279 34,000 320 384 64
2022-09-21 20:27:27 GMT 37.298073 28.130613 34,000 320 385 64
2022-09-21 20:27:16 GMT 37.283203 28.146681 34,000 320 385 0
2022-09-21 20:27:09 GMT 37.273911 28.156706 34,000 320 385 0
2022-09-21 20:27:06 GMT 37.270000 28.160944 34,000 320 385 0
2022-09-21 20:26:59 GMT 37.260223 28.171453 34,000 320 385 0
2022-09-21 20:26:56 GMT 37.256744 28.175257 34,000 320 385 -64
2022-09-21 20:26:49 GMT 37.246719 28.186068 34,000 320 385 0
2022-09-21 20:26:45 GMT 37.242416 28.190742 34,000 320 385 0
2022-09-21 20:26:42 GMT 37.237793 28.195650 34,000 320 385 0
2022-09-21 20:26:39 GMT 37.234818 28.198866 34,000 320 385 0
2022-09-21 20:26:36 GMT 37.228775 28.205469 34,000 320 385 0
2022-09-21 20:26:30 GMT 37.219299 28.215637 34,000 320 385 0
2022-09-21 20:26:25 GMT 37.214417 28.220833 34,000 320 385 0
2022-09-21 20:26:19 GMT 37.206482 28.229429 34,000 320 385 0
2022-09-21 20:26:15 GMT 37.201336 28.234983 34,000 320 385 -64
2022-09-21 20:26:10 GMT 37.193748 28.243103 34,000 320 385 -64
2022-09-21 20:26:07 GMT 37.191048 28.246029 34,000 320 385 -64
2022-09-21 20:26:04 GMT 37.187027 28.250349 34,000 320 385 -64
2022-09-21 20:26:00 GMT 37.180294 28.257612 34,000 320 384 -64
2022-09-21 20:25:55 GMT 37.173546 28.264896 34,025 320 384 -64
2022-09-21 20:25:51 GMT 37.168842 28.269972 34,025 320 384 0
2022-09-21 20:25:47 GMT 37.164001 28.275244 34,000 320 384 0
2022-09-21 20:25:44 GMT 37.159332 28.280329 34,000 320 384 64
2022-09-21 20:25:41 GMT 37.155167 28.284828 34,000 320 384 64
2022-09-21 20:25:36 GMT 37.149399 28.291080 34,000 320 384 64
2022-09-21 20:25:34 GMT 37.145782 28.295053 34,000 320 384 64
2022-09-21 20:25:31 GMT 37.142166 28.298990 34,000 320 384 64
2022-09-21 20:25:27 GMT 37.136116 28.305557 34,000 320 384 64
2022-09-21 20:25:23 GMT 37.131275 28.310812 34,000 320 384 64
2022-09-21 20:25:18 GMT 37.124153 28.318516 34,000 319 385 0
2022-09-21 20:25:15 GMT 37.121979 28.320885 34,000 319 385 0
2022-09-21 20:25:13 GMT 37.118500 28.324682 34,000 320 386 0
2022-09-21 20:25:05 GMT 37.108109 28.335960 34,000 320 386 -64
2022-09-21 20:25:03 GMT 37.104603 28.339710 34,000 320 386 -64
2022-09-21 20:24:55 GMT 37.094593 28.350578 34,000 320 386 -64
2022-09-21 20:24:53 GMT 37.090961 28.354519 34,000 320 386 -64
2022-09-21 20:24:49 GMT 37.084862 28.361088 34,000 320 385 0
2022-09-21 20:24:45 GMT 37.080002 28.366289 34,000 320 385 0
2022-09-21 20:24:43 GMT 37.077274 28.369207 34,000 320 385 0
2022-09-21 20:24:38 GMT 37.070526 28.376457 34,000 320 385 0
2022-09-21 20:24:36 GMT 37.067688 28.379498 34,000 320 385 0
2022-09-21 20:24:32 GMT 37.062973 28.384581 34,000 320 385 64
2022-09-21 20:24:29 GMT 37.053905 28.394283 34,000 320 385 64
2022-09-21 20:24:26 GMT 37.053905 28.394283 34,000 320 385 0
2022-09-21 20:24:23 GMT 37.048508 28.400066 34,000 320 385 0
2022-09-21 20:24:19 GMT 37.045013 28.403837 34,000 320 385 0
2022-09-21 20:24:15 GMT 37.039352 28.409885 34,000 320 385 0
2022-09-21 20:24:12 GMT 37.036121 28.413391 34,000 320 385 0
2022-09-21 20:24:09 GMT 37.030975 28.418884 34,000 320 385 0
2022-09-21 20:24:05 GMT 37.025555 28.424677 34,000 320 385 -64
2022-09-21 20:24:02 GMT 37.021877 28.428556 34,000 320 385 0
2022-09-21 20:23:53 GMT 37.010376 28.440857 34,000 320 385 0
2022-09-21 20:23:51 GMT 37.007168 28.444321 34,000 320 385 0
2022-09-21 20:23:48 GMT 37.003208 28.448500 34,000 320 385 64
2022-09-21 20:23:44 GMT 36.997787 28.454298 34,000 320 385 64
2022-09-21 20:23:42 GMT 36.994034 28.458330 34,000 320 385 64
2022-09-21 20:23:38 GMT 36.989525 28.463127 34,000 320 385 64
2022-09-21 20:23:33 GMT 36.983047 28.470076 34,000 320 385 64
2022-09-21 20:23:31 GMT 36.979794 28.473516 34,000 320 385 64
2022-09-21 20:23:23 GMT 36.969864 28.484100 34,000 320 386 0
2022-09-21 20:23:21 GMT 36.966339 28.487846 34,000 320 386 0
2022-09-21 20:23:10 GMT 36.951965 28.503269 34,000 320 386 -128
2022-09-21 20:23:07 GMT 36.947479 28.508060 34,000 320 386 -128
2022-09-21 20:23:01 GMT 36.938641 28.517523 34,025 320 386 -128
2022-09-21 20:22:57 GMT 36.933380 28.523195 34,025 320 386 -64
2022-09-21 20:22:53 GMT 36.928635 28.528271 34,025 320 385 -64
2022-09-21 20:22:50 GMT 36.924725 28.532450 34,025 320 385 0
2022-09-21 20:22:46 GMT 36.919697 28.537823 34,000 320 385 64
2022-09-21 20:22:43 GMT 36.914948 28.542898 34,000 320 385 64
2022-09-21 20:22:40 GMT 36.910755 28.547377 34,000 320 385 64
2022-09-21 20:22:36 GMT 36.905777 28.552750 34,000 320 385 64
2022-09-21 20:22:32 GMT 36.900330 28.558552 33,975 320 386 0
2022-09-21 20:22:29 GMT 36.896667 28.562408 33,975 320 386 0
2022-09-21 20:22:26 GMT 36.891483 28.567917 33,975 320 386 0
2022-09-21 20:22:22 GMT 36.886322 28.573454 34,000 320 387 0
2022-09-21 20:22:19 GMT 36.882935 28.577076 34,000 320 387 0
2022-09-21 20:22:15 GMT 36.877750 28.582603 34,000 320 387 0
2022-09-21 20:22:09 GMT 36.867920 28.593029 34,000 320 388 0
2022-09-21 20:22:06 GMT 36.861237 28.600159 34,000 320 388 0
2022-09-21 20:21:59 GMT 36.855057 28.606705 34,000 320 389 0
2022-09-21 20:21:52 GMT 36.844933 28.617516 34,000 320 389 0
2022-09-21 20:21:49 GMT 36.841095 28.621616 34,000 320 389 0
2022-09-21 20:21:44 GMT 36.835342 28.627741 34,000 320 389 0
2022-09-21 20:21:40 GMT 36.828506 28.635006 34,000 320 389 0
2022-09-21 20:21:38 GMT 36.826721 28.636894 34,000 320 389 0
2022-09-21 20:21:35 GMT 36.821640 28.642273 34,025 320 389 -64
2022-09-21 20:21:31 GMT 36.816723 28.647552 34,025 320 388 -64
2022-09-21 20:21:29 GMT 36.812347 28.652229 34,025 320 388 -64
2022-09-21 20:21:21 GMT 36.803177 28.661928 34,025 320 387 -64
2022-09-21 20:21:18 GMT 36.798939 28.666428 34,025 320 387 0
2022-09-21 20:21:11 GMT 36.789230 28.676720 34,000 320 388 0
2022-09-21 20:21:07 GMT 36.783531 28.682848 34,000 320 388 0
2022-09-21 20:21:04 GMT 36.779247 28.687347 34,000 320 388 0
2022-09-21 20:21:01 GMT 36.775009 28.691849 34,000 320 388 0
2022-09-21 20:20:58 GMT 36.771053 28.695997 34,000 320 388 0
2022-09-21 20:20:53 GMT 36.764465 28.702984 34,000 320 389 64
2022-09-21 20:20:50 GMT 36.760628 28.707043 34,000 320 388 0
2022-09-21 20:20:47 GMT 36.755550 28.712418 34,000 320 388 0
2022-09-21 20:20:43 GMT 36.750320 28.717918 34,000 320 390 64
2022-09-21 20:20:40 GMT 36.747437 28.720951 34,000 320 390 64
2022-09-21 20:20:36 GMT 36.741680 28.727085 34,000 320 390 64
2022-09-21 20:20:33 GMT 36.736450 28.732624 34,000 320 390 64
2022-09-21 20:20:29 GMT 36.732193 28.737087 34,000 320 390 64
2022-09-21 20:20:27 GMT 36.728760 28.740749 34,000 320 390 0
2022-09-21 20:20:21 GMT 36.721195 28.748766 34,000 320 390 0
2022-09-21 20:20:16 GMT 36.714294 28.756027 34,000 320 391 0
2022-09-21 20:20:11 GMT 36.707275 28.763493 34,000 320 390 0
2022-09-21 20:20:08 GMT 36.703308 28.767757 34,000 320 391 -64
2022-09-21 20:20:06 GMT 36.699280 28.771992 34,000 320 391 -64
2022-09-21 20:20:02 GMT 36.694473 28.777084 34,000 320 391 0
2022-09-21 20:19:59 GMT 36.690102 28.781784 34,000 320 391 -64
2022-09-21 20:19:56 GMT 36.686234 28.785896 34,000 320 391 0
2022-09-21 20:19:49 GMT 36.675949 28.796919 34,000 320 391 0
2022-09-21 20:19:45 GMT 36.671989 28.801126 34,000 320 391 0
2022-09-21 20:19:41 GMT 36.664265 28.809366 34,000 320 391 64
2022-09-21 20:19:35 GMT 36.658119 28.815910 34,000 320 391 64
2022-09-21 20:19:31 GMT 36.652313 28.822060 34,000 320 391 0
2022-09-21 20:19:28 GMT 36.648331 28.826294 34,000 320 391 0
2022-09-21 20:19:26 GMT 36.644073 28.830814 34,000 320 392 0
2022-09-21 20:19:18 GMT 36.633865 28.841686 34,000 320 392 0
2022-09-21 20:19:15 GMT 36.630001 28.845774 34,000 320 392 0
2022-09-21 20:19:08 GMT 36.619949 28.856449 34,000 320 392 0
2022-09-21 20:19:05 GMT 36.615646 28.860970 34,000 320 392 0
2022-09-21 20:18:58 GMT 36.606262 28.870926 34,000 320 397 64
2022-09-21 20:18:54 GMT 36.601276 28.876219 34,000 320 392 0
2022-09-21 20:18:48 GMT 36.592163 28.885918 34,000 320 392 -64
2022-09-21 20:18:45 GMT 36.587360 28.891064 34,000 320 392 -64
2022-09-21 20:18:39 GMT 36.580841 28.897900 34,000 320 392 -64
2022-09-21 20:18:34 GMT 36.573532 28.905659 34,000 320 392 -64
2022-09-21 20:18:27 GMT 36.564037 28.915783 34,000 320 392 0
2022-09-21 20:18:23 GMT 36.558636 28.921509 34,000 320 392 0
2022-09-21 20:18:16 GMT 36.549133 28.931580 34,000 320 392 64
2022-09-21 20:18:13 GMT 36.544205 28.936819 34,000 320 392 64
2022-09-21 20:18:06 GMT 36.535080 28.946463 34,000 320 392 0
2022-09-21 20:18:04 GMT 36.531235 28.950577 34,000 320 392 0
2022-09-21 20:17:56 GMT 36.521576 28.960819 34,000 320 392 0
2022-09-21 20:17:53 GMT 36.517044 28.965626 34,000 320 392 0
2022-09-21 20:17:47 GMT 36.508362 28.974804 34,000 320 390 0
2022-09-21 20:17:43 GMT 36.502449 28.981056 34,000 320 390 0
2022-09-21 20:17:37 GMT 36.494751 28.989258 34,000 320 390 0
2022-09-21 20:17:33 GMT 36.488434 28.995953 34,000 320 395 0
2022-09-21 20:17:27 GMT 36.480606 29.004250 34,000 320 390 0
2022-09-21 20:17:22 GMT 36.473866 29.011387 34,000 320 390 0
2022-09-21 20:17:15 GMT 36.465637 29.020100 34,000 320 389 0
2022-09-21 20:17:11 GMT 36.458920 29.027164 34,000 320 389 -64
2022-09-21 20:17:06 GMT 36.451538 29.035034 34,000 320 389 -64
2022-09-21 20:17:01 GMT 36.443848 29.043159 34,000 320 389 0
2022-09-21 20:16:56 GMT 36.437553 29.049780 34,000 320 389 64
2022-09-21 20:16:49 GMT 36.429749 29.058037 34,000 320 388 64
2022-09-21 20:16:46 GMT 36.424438 29.063702 34,000 320 388 0
2022-09-21 20:16:41 GMT 36.416885 29.071636 34,000 320 388 0
2022-09-21 20:16:34 GMT 36.409389 29.079582 34,000 320 388 0
2022-09-21 20:16:30 GMT 36.396240 29.093456 34,000 320 388 0
2022-09-21 20:16:25 GMT 36.396240 29.093456 34,000 320 388 0
2022-09-21 20:16:20 GMT 36.389698 29.100388 34,000 320 388 0
2022-09-21 20:16:14 GMT 36.381317 29.109192 34,000 320 389 0
2022-09-21 20:16:09 GMT 36.374863 29.116001 34,000 320 389 0
2022-09-21 20:16:05 GMT 36.368042 29.123211 34,000 320 389 0
2022-09-21 20:16:01 GMT 36.362556 29.128963 34,000 320 388 0
2022-09-21 20:15:56 GMT 36.356232 29.135628 34,000 320 388 0
2022-09-21 20:15:53 GMT 36.353249 29.138781 34,000 320 388 0
2022-09-21 20:15:49 GMT 36.346664 29.145699 34,000 320 388 0
2022-09-21 20:15:44 GMT 36.339523 29.153194 34,000 320 388 0
2022-09-21 20:15:38 GMT 36.331421 29.161720 34,000 320 393 0
2022-09-21 20:15:33 GMT 36.324326 29.169159 34,000 320 388 0
2022-09-21 20:15:30 GMT 36.320618 29.173050 34,000 320 388 0
2022-09-21 20:15:24 GMT 36.311817 29.182259 34,000 320 388 0
2022-09-21 20:15:14 GMT 36.298416 29.196339 34,000 320 388 0
2022-09-21 20:15:03 GMT 36.283585 29.211845 34,000 320 388 0
2022-09-21 20:14:52 GMT 36.268848 29.227314 34,000 320 386 0
2022-09-21 20:14:42 GMT 36.254379 29.242458 34,000 320 386 0
2022-09-21 20:14:32 GMT 36.240730 29.256708 34,000 320 385 0
2022-09-21 20:14:22 GMT 36.227276 29.270851 34,000 320 385 0
2022-09-21 20:14:15 GMT 36.218674 29.279881 34,000 321 391 0
2022-09-21 20:14:11 GMT 36.212940 29.285870 34,000 321 391 0
2022-09-21 20:14:01 GMT 36.198788 29.301647 34,000 316 384 0
2022-09-21 20:13:50 GMT 36.186729 29.317192 34,000 312 383 0
2022-09-21 20:13:41 GMT 36.174488 29.335365 34,000 308 383 0
2022-09-21 20:13:32 GMT 36.165733 29.350267 34,000 304 382 0
2022-09-21 20:13:29 GMT 36.160858 29.359360 34,000 304 382 0
2022-09-21 20:13:21 GMT 36.155640 29.369259 34,000 304 382 0
2022-09-21 20:13:15 GMT 36.150234 29.379486 34,000 304 383 0
2022-09-21 20:13:10 GMT 36.145393 29.388603 34,000 304 383 0
2022-09-21 20:13:06 GMT 36.140762 29.397411 34,000 304 383 0
2022-09-21 20:13:00 GMT 36.135315 29.407654 34,000 304 383 0
2022-09-21 20:12:55 GMT 36.130600 29.416580 34,000 304 383 0
2022-09-21 20:12:49 GMT 36.124969 29.427223 34,000 304 383 0
2022-09-21 20:12:46 GMT 36.120895 29.435062 34,000 304 387 0
2022-09-21 20:12:40 GMT 36.116089 29.444046 34,000 304 383 0
2022-09-21 20:12:34 GMT 36.110641 29.454288 34,000 304 383 0
2022-09-21 20:12:28 GMT 36.104416 29.466019 34,000 304 383 0
2022-09-21 20:12:24 GMT 36.100845 29.472828 34,000 304 383 0
2022-09-21 20:12:19 GMT 36.095490 29.482862 34,000 304 384 0
2022-09-21 20:12:15 GMT 36.090508 29.492212 34,000 304 384 0
2022-09-21 20:12:09 GMT 36.085758 29.501213 34,000 304 384 0
2022-09-21 20:12:03 GMT 36.080200 29.511681 34,000 304 384 0
2022-09-21 20:11:58 GMT 36.075302 29.520893 34,000 304 384 0
2022-09-21 20:11:54 GMT 36.070496 29.529877 34,000 304 384 -64
2022-09-21 20:11:49 GMT 36.065506 29.539261 34,000 304 384 0
2022-09-21 20:11:43 GMT 36.060341 29.549015 34,000 304 384 0
2022-09-21 20:11:37 GMT 36.055664 29.557800 34,000 304 385 0
2022-09-21 20:11:33 GMT 36.050194 29.568125 34,000 304 386 0
2022-09-21 20:11:27 GMT 36.044701 29.578409 34,000 304 384 0
2022-09-21 20:11:21 GMT 36.039440 29.588285 34,000 304 384 0
2022-09-21 20:11:16 GMT 36.034561 29.597511 34,000 304 385 0
2022-09-21 20:11:12 GMT 36.029755 29.606495 34,000 304 385 0
2022-09-21 20:11:06 GMT 36.024353 29.616795 34,000 304 389 0
2022-09-21 20:11:01 GMT 36.018036 29.628582 34,000 304 386 0
2022-09-21 20:10:58 GMT 36.015091 29.634102 34,000 304 387 0
2022-09-21 20:10:50 GMT 36.008202 29.647017 34,000 304 387 0
2022-09-21 20:10:47 GMT 36.003845 29.655132 34,000 304 387 0
2022-09-21 20:10:41 GMT 35.998901 29.664402 34,000 304 388 0
2022-09-21 20:10:38 GMT 35.996471 29.668987 34,000 304 389 0
2022-09-21 20:10:35 GMT 35.994095 29.673443 34,000 304 388 0
2022-09-21 20:10:26 GMT 35.984600 29.691254 34,000 304 389 0
2022-09-21 20:10:19 GMT 35.978085 29.703466 34,000 304 389 0
2022-09-21 20:10:14 GMT 35.973038 29.712925 34,000 304 389 0
2022-09-21 20:10:05 GMT 35.964523 29.728889 34,000 304 389 0
2022-09-21 20:09:57 GMT 35.956112 29.744608 34,000 304 389 0
2022-09-21 20:09:54 GMT 35.953644 29.749224 34,000 304 389 0
2022-09-21 20:09:44 GMT 35.943821 29.767632 34,000 304 389 0
2022-09-21 20:09:34 GMT 35.933304 29.787254 34,000 304 390 0
2022-09-21 20:09:25 GMT 35.924969 29.802870 34,000 304 390 -64
2022-09-21 20:09:22 GMT 35.921539 29.809170 34,000 304 390 -64
2022-09-21 20:09:16 GMT 35.915192 29.821045 34,000 304 390 0
2022-09-21 20:09:12 GMT 35.911331 29.828281 34,000 304 390 0
2022-09-21 20:09:03 GMT 35.903088 29.843658 34,000 304 390 0
2022-09-21 20:08:55 GMT 35.894714 29.859238 34,000 304 390 0
2022-09-21 20:08:53 GMT 35.892799 29.862768 34,000 304 390 0
2022-09-21 20:08:45 GMT 35.884560 29.878138 34,000 304 390 0
2022-09-21 20:08:42 GMT 35.881859 29.883163 34,000 304 390 0
2022-09-21 20:08:32 GMT 35.871597 29.902267 34,000 304 390 0
2022-09-21 20:08:22 GMT 35.861755 29.920635 34,000 304 390 0
2022-09-21 20:08:11 GMT 35.851135 29.940434 34,000 304 390 0
2022-09-21 20:08:02 GMT 35.840939 29.959366 34,000 304 390 0
2022-09-21 20:07:51 GMT 35.830467 29.978827 34,000 304 390 0
2022-09-21 20:07:43 GMT 35.823296 29.992149 34,000 304 391 0
2022-09-21 20:07:41 GMT 35.820099 29.998112 34,000 304 391 0
2022-09-21 20:07:28 GMT 35.806118 30.023998 34,000 304 391 0
2022-09-21 20:07:21 GMT 35.801044 30.033464 34,000 304 391 0
2022-09-21 20:07:18 GMT 35.797367 30.040302 34,000 304 391 0
2022-09-21 20:07:10 GMT 35.789658 30.054588 34,000 304 391 0
2022-09-21 20:07:07 GMT 35.786846 30.059763 34,000 304 391 0
2022-09-21 20:06:59 GMT 35.779446 30.073437 34,000 304 391 0
2022-09-21 20:06:56 GMT 35.776371 30.079222 34,000 304 391 0
2022-09-21 20:06:50 GMT 35.769653 30.091610 34,000 304 391 0
2022-09-21 20:06:46 GMT 35.765945 30.098419 34,000 304 391 0
2022-09-21 20:06:41 GMT 35.761459 30.106773 34,000 304 390 0
2022-09-21 20:06:39 GMT 35.759426 30.110428 34,000 304 390 0
2022-09-21 20:06:36 GMT 35.755646 30.117474 34,000 304 390 0
2022-09-21 20:06:29 GMT 35.748955 30.129829 34,000 304 390 0
2022-09-21 20:06:26 GMT 35.745274 30.136667 34,000 304 390 0
2022-09-21 20:06:20 GMT 35.740585 30.145340 34,000 304 390 0
2022-09-21 20:06:18 GMT 35.738667 30.148880 34,000 304 390 0
2022-09-21 20:06:15 GMT 35.734802 30.156069 34,000 304 389 0
2022-09-21 20:06:11 GMT 35.730789 30.163422 34,000 304 388 0
2022-09-21 20:06:08 GMT 35.728317 30.167999 34,000 304 388 0
2022-09-21 20:06:05 GMT 35.724327 30.175352 34,000 304 388 0
2022-09-21 20:06:00 GMT 35.719849 30.183678 34,000 304 389 0
2022-09-21 20:05:57 GMT 35.717342 30.188267 34,000 304 388 0
2022-09-21 20:05:53 GMT 35.713577 30.195236 34,000 304 388 0
2022-09-21 20:05:49 GMT 35.708954 30.203705 34,000 304 389 0
2022-09-21 20:05:44 GMT 35.702866 30.214914 34,000 304 389 0
2022-09-21 20:05:36 GMT 35.697002 30.225725 34,000 304 388 0
2022-09-21 20:05:33 GMT 35.692886 30.233231 34,000 304 388 0
2022-09-21 20:05:29 GMT 35.689087 30.240219 34,000 304 388 0
2022-09-21 20:05:22 GMT 35.681763 30.253601 34,000 305 388 0
2022-09-21 20:05:19 GMT 35.678467 30.259609 34,000 304 388 0
2022-09-21 20:05:17 GMT 35.677094 30.262184 34,000 303 387 0
2022-09-21 20:05:13 GMT 35.672104 30.271854 34,000 301 387 0
2022-09-21 20:05:09 GMT 35.669357 30.277576 34,000 300 387 0
2022-09-21 20:05:05 GMT 35.665855 30.285450 34,000 297 387 0
2022-09-21 20:05:02 GMT 35.663086 30.292110 34,000 297 387 0
2022-09-21 20:04:56 GMT 35.659058 30.302181 34,000 297 387 0
2022-09-21 20:04:48 GMT 35.652218 30.319344 34,000 297 387 0
2022-09-21 20:04:43 GMT 35.649124 30.327072 34,000 297 387 0
2022-09-21 20:04:40 GMT 35.646378 30.333939 34,000 297 387 0
2022-09-21 20:04:34 GMT 35.641834 30.345407 34,000 297 387 0
2022-09-21 20:04:31 GMT 35.639465 30.351334 34,000 297 387 0
2022-09-21 20:04:27 GMT 35.636581 30.358601 34,000 297 387 0
2022-09-21 20:04:19 GMT 35.629223 30.377138 34,000 296 386 0
2022-09-21 20:04:08 GMT 35.620880 30.398026 34,000 297 386 0
2022-09-21 20:03:58 GMT 35.613098 30.417480 34,000 297 386 0
2022-09-21 20:03:52 GMT 35.608551 30.428915 34,000 296 385 0
2022-09-21 20:03:48 GMT 35.604641 30.438791 34,000 297 386 0
2022-09-21 20:03:43 GMT 35.601429 30.446856 34,000 297 386 0
2022-09-21 20:03:37 GMT 35.596680 30.458660 34,000 297 386 0
2022-09-21 20:03:34 GMT 35.594444 30.464388 34,000 297 386 0
2022-09-21 20:03:27 GMT 35.585632 30.486431 34,000 297 386 0
2022-09-21 20:03:23 GMT 35.579956 30.500565 34,000 297 386 0
2022-09-21 20:03:15 GMT 35.579956 30.500565 34,000 297 386 0
2022-09-21 20:03:12 GMT 35.577072 30.507832 34,000 297 386 0
2022-09-21 20:03:05 GMT 35.572426 30.519436 34,000 297 386 0
2022-09-21 20:03:03 GMT 35.570240 30.524927 34,000 297 386 0
2022-09-21 20:02:56 GMT 35.562149 30.545197 34,000 297 386 0
2022-09-21 20:02:53 GMT 35.562149 30.545197 34,000 297 386 0
2022-09-21 20:02:42 GMT 35.554047 30.565395 34,000 297 385 0
2022-09-21 20:02:35 GMT 35.547409 30.581875 34,000 297 386 0
2022-09-21 20:02:32 GMT 35.545761 30.585995 34,000 297 386 0
2022-09-21 20:02:24 GMT 35.539234 30.602301 34,000 297 386 0
2022-09-21 20:02:20 GMT 35.536560 30.608940 34,000 297 386 0
2022-09-21 20:02:14 GMT 35.530975 30.622730 34,000 297 386 0
2022-09-21 20:02:11 GMT 35.529507 30.626434 34,000 297 386 0
2022-09-21 20:02:03 GMT 35.522690 30.643387 34,000 297 387 0
2022-09-21 20:01:59 GMT 35.519543 30.651272 34,000 297 387 0
2022-09-21 20:01:53 GMT 35.514725 30.663300 34,000 297 387 0
2022-09-21 20:01:50 GMT 35.512653 30.668392 34,000 297 387 0
2022-09-21 20:01:43 GMT 35.506042 30.684990 34,000 297 388 0
2022-09-21 20:01:39 GMT 35.504044 30.689899 34,000 297 388 0
2022-09-21 20:01:30 GMT 35.496780 30.708046 34,000 297 388 0
2022-09-21 20:01:22 GMT 35.489471 30.726248 34,000 297 389 0
2022-09-21 20:01:19 GMT 35.488400 30.728994 34,000 297 389 0
2022-09-21 20:01:09 GMT 35.480488 30.748512 34,000 297 389 0
2022-09-21 20:01:03 GMT 35.475597 30.760784 34,000 297 389 0
2022-09-21 20:01:00 GMT 35.472885 30.767498 34,000 297 389 0
2022-09-21 20:00:50 GMT 35.464645 30.787811 34,000 297 389 64
2022-09-21 20:00:43 GMT 35.459305 30.801105 34,000 297 389 0
2022-09-21 20:00:39 GMT 35.454620 30.812759 34,000 297 390 0
2022-09-21 20:00:28 GMT 35.447891 30.829411 34,000 297 390 0
2022-09-21 20:00:26 GMT 35.445946 30.834124 34,000 297 390 -64
2022-09-21 20:00:18 GMT 35.439240 30.850779 34,000 297 390 0
2022-09-21 20:00:07 GMT 35.430725 30.871811 34,000 297 390 0
2022-09-21 20:00:01 GMT 35.426239 30.882912 34,000 297 390 0
2022-09-21 19:59:59 GMT 35.423832 30.888821 34,000 297 390 0
2022-09-21 19:59:56 GMT 35.421505 30.894608 34,000 297 391 0
2022-09-21 19:59:48 GMT 35.415405 30.909624 34,000 297 391 0
2022-09-21 19:59:41 GMT 35.409851 30.923309 34,000 297 391 0
2022-09-21 19:59:39 GMT 35.407772 30.928501 34,000 297 391 0
2022-09-21 19:59:36 GMT 35.405685 30.933666 34,000 297 391 0
2022-09-21 19:59:29 GMT 35.400375 30.946712 34,000 297 391 0
2022-09-21 19:59:27 GMT 35.398602 30.951117 34,000 297 391 0
2022-09-21 19:59:25 GMT 35.396896 30.955238 34,000 297 391 0
2022-09-21 19:59:18 GMT 35.391197 30.969349 34,000 297 391 0
2022-09-21 19:59:15 GMT 35.388870 30.975077 34,000 297 391 0
2022-09-21 19:59:10 GMT 35.385239 30.984016 34,000 297 391 0
2022-09-21 19:59:08 GMT 35.383301 30.988770 34,000 297 391 0
2022-09-21 19:59:04 GMT 35.380398 30.995937 34,000 297 391 0
2022-09-21 19:59:01 GMT 35.377350 31.003475 34,000 297 391 0
2022-09-21 19:58:58 GMT 35.375336 31.008453 34,000 297 391 0
2022-09-21 19:58:55 GMT 35.372864 31.014633 34,000 297 391 0
2022-09-21 19:58:48 GMT 35.367271 31.028313 34,000 297 393 0
2022-09-21 19:58:44 GMT 35.363892 31.036663 34,000 297 393 0
2022-09-21 19:58:38 GMT 35.358936 31.048765 34,000 297 393 0
2022-09-21 19:58:34 GMT 35.356144 31.055719 34,000 297 393 0
2022-09-21 19:58:27 GMT 35.350342 31.069851 34,000 297 393 0
2022-09-21 19:58:25 GMT 35.347626 31.076582 34,000 297 393 0
2022-09-21 19:58:19 GMT 35.343857 31.085699 34,000 297 393 0
2022-09-21 19:58:17 GMT 35.341991 31.090315 34,000 297 393 0
2022-09-21 19:58:13 GMT 35.338829 31.098028 34,000 297 393 0
2022-09-21 19:58:08 GMT 35.334358 31.108957 34,000 297 393 0
2022-09-21 19:58:04 GMT 35.330868 31.117489 34,000 297 393 0
2022-09-21 19:57:58 GMT 35.326126 31.129246 34,000 297 393 0
2022-09-21 19:57:52 GMT 35.321732 31.140003 34,000 297 393 0
2022-09-21 19:57:47 GMT 35.317703 31.149902 34,000 297 393 0
2022-09-21 19:57:43 GMT 35.313316 31.160673 34,000 297 393 0
2022-09-21 19:57:37 GMT 35.304840 31.181488 34,000 297 393 0
2022-09-21 19:57:31 GMT 35.304840 31.181488 34,000 297 393 0
2022-09-21 19:57:26 GMT 35.300797 31.191414 34,000 297 392 -64
2022-09-21 19:57:21 GMT 35.296978 31.200764 34,000 297 393 0
2022-09-21 19:57:17 GMT 35.293167 31.210098 34,000 297 392 0
2022-09-21 19:57:11 GMT 35.287899 31.222969 34,000 297 392 0
2022-09-21 19:57:03 GMT 35.282318 31.236649 34,000 297 392 0
2022-09-21 19:57:01 GMT 35.280220 31.241785 34,000 297 392 0
2022-09-21 19:56:56 GMT 35.276913 31.249908 34,000 297 392 -64
2022-09-21 19:56:51 GMT 35.271790 31.262398 34,000 297 392 0
2022-09-21 19:56:45 GMT 35.267944 31.271896 34,000 297 392 0
2022-09-21 19:56:42 GMT 35.265244 31.278419 34,000 297 391 0
2022-09-21 19:56:40 GMT 35.263504 31.282768 34,000 297 391 0
2022-09-21 19:56:36 GMT 35.260025 31.291294 34,000 297 391 0
2022-09-21 19:56:31 GMT 35.251774 31.311502 34,000 297 392 0
2022-09-21 19:56:25 GMT 35.251774 31.311502 34,000 297 392 0
2022-09-21 19:56:20 GMT 35.247665 31.321564 34,000 297 391 0
2022-09-21 19:56:15 GMT 35.243629 31.331430 34,000 297 391 0
2022-09-21 19:56:10 GMT 35.234940 31.352634 34,000 297 392 0
2022-09-21 19:56:04 GMT 35.234940 31.352634 34,000 297 392 0
2022-09-21 19:55:59 GMT 35.230129 31.364447 34,000 297 391 0
2022-09-21 19:55:54 GMT 35.226700 31.372749 34,000 297 391 0
2022-09-21 19:55:50 GMT 35.222775 31.382446 34,000 297 391 0
2022-09-21 19:55:45 GMT 35.218872 31.391918 34,000 297 390 0
2022-09-21 19:55:38 GMT 35.213699 31.404587 34,000 297 391 0
2022-09-21 19:55:35 GMT 35.210484 31.412430 34,000 297 390 0
2022-09-21 19:55:28 GMT 35.205688 31.424093 34,000 297 390 0
2022-09-21 19:55:25 GMT 35.202026 31.432949 34,000 297 390 0
2022-09-21 19:55:19 GMT 35.197678 31.443544 34,000 297 390 -128
2022-09-21 19:55:16 GMT 35.196075 31.447468 34,025 297 389 -128
2022-09-21 19:55:14 GMT 35.193695 31.453184 34,025 297 389 -64
2022-09-21 19:55:07 GMT 35.188339 31.466078 33,975 297 387 704
2022-09-21 19:55:04 GMT 35.184769 31.474653 33,925 297 388 896
2022-09-21 19:54:58 GMT 35.180969 31.483789 33,850 297 388 960
2022-09-21 19:54:53 GMT 35.176804 31.493767 33,775 297 388 960
2022-09-21 19:54:48 GMT 35.172825 31.503353 33,675 297 389 1088
2022-09-21 19:54:45 GMT 35.170307 31.509361 33,625 297 389 1152
2022-09-21 19:54:43 GMT 35.168354 31.514053 33,575 297 389 1152
2022-09-21 19:54:38 GMT 35.164536 31.523308 33,500 297 389 1152
2022-09-21 19:54:36 GMT 35.163391 31.526052 33,450 297 389 1216
2022-09-21 19:54:33 GMT 35.161091 31.531563 33,400 297 390 1280
2022-09-21 19:54:31 GMT 35.158676 31.537432 33,325 297 390 1344
2022-09-21 19:54:27 GMT 35.155975 31.543934 33,175 297 392 1408
2022-09-21 19:54:24 GMT 35.153275 31.550491 33,175 297 392 1408
2022-09-21 19:54:21 GMT 35.150940 31.556210 33,125 297 393 1408
2022-09-21 19:54:17 GMT 35.147312 31.564922 33,000 297 393 1408
2022-09-21 19:54:14 GMT 35.144939 31.570644 32,950 297 394 1344
2022-09-21 19:54:11 GMT 35.141911 31.578026 32,850 297 395 1344
2022-09-21 19:54:04 GMT 35.136566 31.590961 32,700 297 396 1472
2022-09-21 19:54:00 GMT 35.133499 31.598360 32,600 297 397 1536
2022-09-21 19:53:54 GMT 35.128273 31.610985 32,450 297 399 1472
2022-09-21 19:53:51 GMT 35.125340 31.617966 32,350 297 399 1472
2022-09-21 19:53:46 GMT 35.121964 31.626276 32,200 297 401 1472
2022-09-21 19:53:43 GMT 35.119446 31.632273 32,175 297 402 1472
2022-09-21 19:53:40 GMT 35.116776 31.638737 32,100 297 402 1472
2022-09-21 19:53:36 GMT 35.113468 31.646690 31,825 297 405 1472
2022-09-21 19:53:33 GMT 35.110535 31.653786 31,900 297 404 1472
2022-09-21 19:53:26 GMT 35.102280 31.673697 31,625 297 405 1536
2022-09-21 19:53:23 GMT 35.102280 31.673697 31,675 297 405 1600
2022-09-21 19:53:19 GMT 35.098431 31.682854 31,550 297 406 1664
2022-09-21 19:53:14 GMT 35.094864 31.691465 31,425 297 406 1600
2022-09-21 19:53:12 GMT 35.093170 31.695557 31,375 297 407 1600
2022-09-21 19:53:08 GMT 35.089634 31.703968 31,275 297 409 1600
2022-09-21 19:53:05 GMT 35.087082 31.710131 31,200 297 410 1600
2022-09-21 19:53:02 GMT 35.085117 31.714897 31,125 297 410 1536
2022-09-21 19:52:55 GMT 35.078506 31.730747 30,925 297 412 1472
2022-09-21 19:52:52 GMT 35.075993 31.736755 30,875 297 412 1472
2022-09-21 19:52:47 GMT 35.071617 31.747341 30,725 297 412 1408
2022-09-21 19:52:44 GMT 35.066872 31.758728 30,650 297 413 1408
2022-09-21 19:52:41 GMT 35.066872 31.758728 30,600 297 413 1408
2022-09-21 19:52:34 GMT 35.057697 31.780815 30,325 297 414 1408
2022-09-21 19:52:31 GMT 35.057697 31.780815 30,375 297 414 1408
2022-09-21 19:52:27 GMT 35.053528 31.790846 30,250 297 415 1344
2022-09-21 19:52:23 GMT 35.050762 31.797523 30,175 297 415 1280
2022-09-21 19:52:20 GMT 35.048901 31.801872 30,150 297 415 1280
2022-09-21 19:52:13 GMT 35.042664 31.816921 29,950 297 415 1280
2022-09-21 19:52:10 GMT 35.040253 31.822796 29,925 297 416 1280
2022-09-21 19:52:04 GMT 35.034843 31.835747 29,800 297 416 1280
2022-09-21 19:52:01 GMT 35.031723 31.843300 29,725 297 416 1216
2022-09-21 19:51:54 GMT 35.026230 31.856461 29,550 297 416 1216
2022-09-21 19:51:51 GMT 35.022831 31.864643 29,525 297 416 1216
2022-09-21 19:51:44 GMT 35.016998 31.878626 29,375 297 416 1280
2022-09-21 19:51:41 GMT 35.013977 31.885967 29,300 297 416 1280
2022-09-21 19:51:34 GMT 35.008400 31.899376 29,100 297 415 1216
2022-09-21 19:51:31 GMT 35.005096 31.907269 29,100 297 416 1280
2022-09-21 19:51:23 GMT 34.998901 31.922150 28,950 297 415 1216
2022-09-21 19:51:20 GMT 34.996437 31.927986 28,900 297 415 1216
2022-09-21 19:51:13 GMT 34.989487 31.944712 28,725 297 416 1280
2022-09-21 19:51:10 GMT 34.987289 31.949924 28,675 297 416 1216
2022-09-21 19:51:03 GMT 34.980972 31.964947 28,525 297 416 1216
2022-09-21 19:50:59 GMT 34.977814 31.972504 28,450 297 416 1216
2022-09-21 19:50:53 GMT 34.971905 31.986694 28,300 297 416 1280
2022-09-21 19:50:50 GMT 34.969620 31.992130 28,250 297 416 1280
2022-09-21 19:50:40 GMT 34.960869 32.012959 28,050 297 415 1280
2022-09-21 19:50:29 GMT 34.951050 32.036533 27,800 297 415 1344
2022-09-21 19:50:20 GMT 34.943645 32.054214 27,550 297 415 1600
2022-09-21 19:50:08 GMT 34.934052 32.077164 27,325 297 416 1088
2022-09-21 19:49:59 GMT 34.925858 32.096783 27,150 297 415 1088
2022-09-21 19:49:50 GMT 34.917572 32.116512 26,925 297 414 1152
2022-09-21 19:49:47 GMT 34.915375 32.121670 26,925 297 414 1152
2022-09-21 19:49:39 GMT 34.907570 32.140331 26,725 297 412 1344
2022-09-21 19:49:30 GMT 34.899933 32.158527 26,500 298 413 1664
2022-09-21 19:49:28 GMT 34.898956 32.160759 26,475 298 413 1792
2022-09-21 19:49:17 GMT 34.889603 32.183102 26,200 298 413 1728
2022-09-21 19:49:08 GMT 34.881218 32.202988 25,875 298 414 1984
2022-09-21 19:48:58 GMT 34.872116 32.224583 25,575 298 415 1792
2022-09-21 19:48:47 GMT 34.862831 32.246647 25,200 297 418 2432
2022-09-21 19:48:37 GMT 34.853577 32.268749 24,825 297 420 1984
2022-09-21 19:48:32 GMT 34.849731 32.277775 24,700 298 421 1856
2022-09-21 19:48:27 GMT 34.844166 32.291050 24,500 298 422 1728
2022-09-21 19:48:21 GMT 34.840347 32.300148 24,375 298 421 1664
2022-09-21 19:48:16 GMT 34.835178 32.312393 24,225 298 421 1600
2022-09-21 19:48:10 GMT 34.829685 32.325439 24,050 298 421 1792
2022-09-21 19:48:05 GMT 34.825745 32.334724 23,925 298 421 1600
2022-09-21 19:47:56 GMT 34.816223 32.357258 23,625 298 421 1600
2022-09-21 19:47:46 GMT 34.808899 32.374466 23,425 298 419 1472
2022-09-21 19:47:44 GMT 34.807022 32.378895 23,375 298 419 1472
2022-09-21 19:47:36 GMT 34.799561 32.396439 23,150 298 419 1664
2022-09-21 19:47:34 GMT 34.796631 32.403389 23,075 298 418 1600
2022-09-21 19:47:27 GMT 34.791187 32.416077 22,925 298 418 1344
2022-09-21 19:47:24 GMT 34.788895 32.421494 22,875 298 417 1216
2022-09-21 19:47:17 GMT 34.782394 32.436909 22,725 298 414 1280
2022-09-21 19:47:14 GMT 34.779327 32.444141 22,650 298 413 1344
2022-09-21 19:47:05 GMT 34.772827 32.459389 22,475 298 411 1280
2022-09-21 19:47:01 GMT 34.769169 32.468033 22,375 298 410 1472
2022-09-21 19:46:57 GMT 34.765091 32.477661 22,275 298 409 1472
2022-09-21 19:46:54 GMT 34.763348 32.481709 22,225 298 408 1472
2022-09-21 19:46:52 GMT 34.761154 32.486797 22,175 298 408 1472
2022-09-21 19:46:48 GMT 34.757263 32.495934 22,050 298 406 1408
2022-09-21 19:46:46 GMT 34.755981 32.499016 22,025 298 406 1344
2022-09-21 19:46:43 GMT 34.752316 32.507515 21,925 298 404 1344
2022-09-21 19:46:38 GMT 34.748314 32.516956 21,825 298 402 1408
2022-09-21 19:46:36 GMT 34.746822 32.520390 21,775 298 402 1408
2022-09-21 19:46:31 GMT 34.742634 32.530231 21,675 298 402 1472
2022-09-21 19:46:26 GMT 34.738163 32.540588 21,550 298 401 1280
2022-09-21 19:46:22 GMT 34.734486 32.549171 21,450 298 398 1280
2022-09-21 19:46:17 GMT 34.730942 32.557533 21,350 298 398 1408
2022-09-21 19:46:14 GMT 34.728287 32.563644 21,275 299 397 1472
2022-09-21 19:46:11 GMT 34.725410 32.570343 21,200 296 395 1408
2022-09-21 19:46:05 GMT 34.721100 32.581356 21,075 293 392 1472
2022-09-21 19:46:00 GMT 34.717758 32.591393 20,950 291 390 1664
2022-09-21 19:45:54 GMT 34.714375 32.603130 20,775 288 389 1920
2022-09-21 19:45:52 GMT 34.713135 32.608150 20,700 286 388 1920
2022-09-21 19:45:49 GMT 34.711861 32.613831 20,600 285 388 1984
2022-09-21 19:45:45 GMT 34.710140 32.622471 20,475 282 387 2048
2022-09-21 19:45:39 GMT 34.708183 32.635288 20,275 278 387 2048
2022-09-21 19:45:35 GMT 34.707230 32.644810 20,125 275 386 2048
2022-09-21 19:45:32 GMT 34.706772 32.651478 20,025 273 386 2112
2022-09-21 19:45:25 GMT 34.706230 32.666416 19,775 273 386 2112
2022-09-21 19:45:20 GMT 34.705902 32.675076 19,625 273 386 2240
2022-09-21 19:45:15 GMT 34.705391 32.688732 19,375 273 386 2368
2022-09-21 19:45:11 GMT 34.705124 32.696491 19,250 273 386 2432
2022-09-21 19:45:02 GMT 34.704460 32.714939 18,900 273 387 2240
2022-09-21 19:45:00 GMT 34.704300 32.720142 18,825 273 387 1984
2022-09-21 19:44:54 GMT 34.703808 32.733364 18,625 273 385 1984
2022-09-21 19:44:50 GMT 34.703522 32.741108 18,375 273 385 2368
2022-09-21 19:44:47 GMT 34.703297 32.747612 18,375 273 385 2368
2022-09-21 19:44:44 GMT 34.703064 32.754055 18,275 273 385 2240
2022-09-21 19:44:40 GMT 34.702690 32.763577 18,100 273 385 2176
2022-09-21 19:44:34 GMT 34.702240 32.777149 17,875 273 385 2240
2022-09-21 19:44:29 GMT 34.701874 32.786007 17,725 273 384 2240
2022-09-21 19:44:23 GMT 34.701416 32.798897 17,500 273 384 2048
2022-09-21 19:44:19 GMT 34.701096 32.808372 17,350 273 383 1984
2022-09-21 19:44:12 GMT 34.700409 32.826576 17,050 273 381 2368
2022-09-21 19:44:09 GMT 34.700272 32.830006 17,000 273 381 2304
2022-09-21 19:44:03 GMT 34.699806 32.842827 16,775 273 380 2048
2022-09-21 19:44:01 GMT 34.699574 32.848148 16,650 273 380 2048
2022-09-21 19:43:58 GMT 34.699448 32.852203 16,625 273 380 2048
2022-09-21 19:43:53 GMT 34.698967 32.864799 16,400 273 379 2176
2022-09-21 19:43:48 GMT 34.698547 32.874584 16,225 273 378 2432
2022-09-21 19:43:42 GMT 34.698074 32.887295 15,975 273 378 2560
2022-09-21 19:43:38 GMT 34.697754 32.895588 15,800 273 378 2496
2022-09-21 19:43:31 GMT 34.697205 32.909546 15,550 273 378 2496
2022-09-21 19:43:27 GMT 34.696838 32.918682 15,375 273 378 2304
2022-09-21 19:43:22 GMT 34.696426 32.929726 15,200 273 376 1984
2022-09-21 19:43:17 GMT 34.695969 32.941105 15,000 273 375 2112
2022-09-21 19:43:12 GMT 34.695568 32.951145 14,850 273 374 1984
2022-09-21 19:43:06 GMT 34.695145 32.962460 14,675 273 372 1664
2022-09-21 19:43:02 GMT 34.694733 32.972492 14,550 273 370 1792
2022-09-21 19:42:57 GMT 34.694366 32.982639 14,375 273 368 1920
2022-09-21 19:42:52 GMT 34.694000 32.993343 14,225 273 366 1792
2022-09-21 19:42:42 GMT 34.693222 33.014194 13,900 273 363 1792
2022-09-21 19:42:35 GMT 34.692810 33.026360 13,750 273 354 2304
2022-09-21 19:42:31 GMT 34.692497 33.034401 13,675 273 356 1600
2022-09-21 19:42:23 GMT 34.691895 33.050686 13,375 273 354 2432
2022-09-21 19:42:20 GMT 34.691704 33.056660 13,250 273 354 2560
2022-09-21 19:42:14 GMT 34.691254 33.068737 13,000 273 354 2496
2022-09-21 19:42:11 GMT 34.691051 33.074741 12,875 273 354 2560
2022-09-21 19:42:01 GMT 34.690308 33.095570 12,350 273 356 3328
2022-09-21 19:41:53 GMT 34.689751 33.111649 11,950 273 359 2432
2022-09-21 19:41:51 GMT 34.689606 33.115650 11,875 273 360 2176
2022-09-21 19:41:41 GMT 34.688770 33.136482 11,600 273 354 1344
2022-09-21 19:41:30 GMT 34.687935 33.156796 11,425 273 346 896
2022-09-21 19:41:20 GMT 34.687096 33.176937 11,250 273 338 1088
2022-09-21 19:41:10 GMT 34.686356 33.195358 11,100 273 329 896
2022-09-21 19:40:59 GMT 34.685532 33.214527 10,950 274 320 960
2022-09-21 19:40:49 GMT 34.684769 33.233013 10,775 273 312 960
2022-09-21 19:40:39 GMT 34.684071 33.250122 10,600 273 303 1216
2022-09-21 19:40:29 GMT 34.683380 33.267387 10,425 273 294 768
2022-09-21 19:40:18 GMT 34.682693 33.284313 10,200 273 286 2048
2022-09-21 19:40:07 GMT 34.682068 33.300762 9,825 273 284 2112
2022-09-21 19:39:58 GMT 34.680862 33.332630 9,400 273 282 2048
2022-09-21 19:39:48 GMT 34.680862 33.332630 9,125 273 280 2048
2022-09-21 19:39:38 GMT 34.680084 33.348774 8,775 274 278 1984
2022-09-21 19:39:27 GMT 34.680580 33.364563 8,400 261 274 2496
2022-09-21 19:39:22 GMT 34.682068 33.372002 8,200 238 274 2240
2022-09-21 19:39:16 GMT 34.685143 33.380241 7,950 240 275 2304
2022-09-21 19:39:06 GMT 34.692543 33.391800 7,575 228 275 2432
2022-09-21 19:38:57 GMT 34.701157 33.403015 7,200 227 274 2240
2022-09-21 19:38:47 GMT 34.710022 33.414413 6,825 227 272 2048
2022-09-21 19:38:37 GMT 34.718704 33.425789 6,500 228 268 1984
2022-09-21 19:38:27 GMT 34.727280 33.437057 6,150 228 264 1984
2022-09-21 19:38:16 GMT 34.735428 33.447651 5,850 228 260 1600
2022-09-21 19:38:06 GMT 34.743843 33.458748 5,550 228 255 2112
2022-09-21 19:37:56 GMT 34.751945 33.469334 5,125 228 254 2368
2022-09-21 19:37:46 GMT 34.760231 33.480091 4,600 227 256 3968
2022-09-21 19:37:36 GMT 34.768471 33.490562 3,950 227 266 3968
2022-09-21 19:37:25 GMT 34.777363 33.501835 3,475 227 269 2240
2022-09-21 19:37:15 GMT 34.786011 33.512897 3,225 227 259 1088
2022-09-21 19:37:04 GMT 34.794956 33.524265 3,025 227 246 1408
2022-09-21 19:36:55 GMT 34.802307 33.533859 2,700 228 241 2560
2022-09-21 19:36:45 GMT 34.810089 33.544121 2,375 229 236 1088
2022-09-21 19:36:34 GMT 34.817230 33.553871 2,225 229 225 896
2022-09-21 19:36:24 GMT 34.824966 33.564579 2,000 229 214 1344
2022-09-21 19:36:22 GMT 34.825653 33.565586 1,975 229 213 1280
2022-09-21 19:36:20 GMT 34.826939 33.567295 1,925 229 212 1088
2022-09-21 19:36:19 GMT 34.827591 33.568153 1,900 228 211 1024
2022-09-21 19:36:18 GMT 34.828903 33.569958 1,875 228 209 832
2022-09-21 19:36:16 GMT 34.829594 33.570900 1,875 228 208 768
2022-09-21 19:36:15 GMT 34.830276 33.571751 1,850 227 206 768
2022-09-21 19:36:13 GMT 34.831512 33.573380 1,825 227 204 832
2022-09-21 19:36:12 GMT 34.832977 33.575172 1,800 226 202 896
2022-09-21 19:36:10 GMT 34.833664 33.576069 1,775 226 201 896
2022-09-21 19:36:08 GMT 34.834854 33.577526 1,750 225 200 896
2022-09-21 19:36:07 GMT 34.835495 33.578312 1,725 225 198 896
2022-09-21 19:36:06 GMT 34.836868 33.579937 1,700 225 196 1024
2022-09-21 19:36:04 GMT 34.837601 33.580799 1,675 225 195 1152
2022-09-21 19:36:02 GMT 34.839088 33.582573 1,625 225 193 1280
2022-09-21 19:36:00 GMT 34.840347 33.584141 1,575 225 192 1536
2022-09-21 19:35:58 GMT 34.841629 33.585651 1,525 225 192 1728
2022-09-21 19:35:57 GMT 34.842316 33.586494 1,475 225 192 1920
2022-09-21 19:35:56 GMT 34.842907 33.587151 1,450 225 192 1920
2022-09-21 19:35:53 GMT 34.844166 33.588638 1,375 225 191 2048
2022-09-21 19:35:51 GMT 34.846817 33.591843 1,250 225 191 2176
2022-09-21 19:35:49 GMT 34.846817 33.591843 1,225 225 190 2176
2022-09-21 19:35:47 GMT 34.848083 33.593334 1,175 225 190 2112
2022-09-21 19:35:45 GMT 34.849228 33.594677 1,100 224 190 1984
2022-09-21 19:35:44 GMT 34.850494 33.596191 1,050 223 189 1792
2022-09-21 19:35:41 GMT 34.853210 33.599216 925 224 187 1536
2022-09-21 19:35:39 GMT 34.853210 33.599216 925 224 186 1536
2022-09-21 19:35:37 GMT 34.854538 33.600731 875 224 185 1600
2022-09-21 19:35:36 GMT 34.855198 33.601513 850 224 184 1600
2022-09-21 19:35:34 GMT 34.856506 33.603031 775 224 181 1536
2022-09-21 19:35:33 GMT 34.857788 33.604488 725 225 178 1792
2022-09-21 19:35:30 GMT 34.859478 33.606434 625 226 179 2240
2022-09-21 19:35:28 GMT 34.860168 33.607178 600 226 179 2240
2022-09-21 19:35:27 GMT 34.860691 33.607864 550 226 179 2112
2022-09-21 19:35:24 GMT 34.862091 33.609589 475 226 178 1984
2022-09-21 19:35:23 GMT 34.863739 33.611664 375 226 176 2112
2022-09-21 19:35:21 GMT 34.864288 33.612392 350 226 179 2112
2022-09-21 19:35:20 GMT 34.865524 33.613850 275 226 178 1792
2022-09-21 19:35:18 GMT 34.866074 33.614578 250 226 178 1472
2022-09-21 19:35:16 GMT 34.867126 33.615868 225 225 176 512
2022-09-21 19:35:14 GMT 34.868279 33.617249 200 225 171 128
2022-09-21 19:35:13 GMT 34.869507 33.618782 200 225 164 128
2022-09-21 19:35:11 GMT 34.869999 33.619366 200 225 164 128
2022-09-21 19:35:10 GMT 34.870697 33.620182 225 226 160 0
2022-09-21 19:35:06 GMT 34.871887 33.621639 225 226 152 0
2022-09-21 19:35:05 GMT 34.872803 33.622814 225 226 145 0
2022-09-21 19:35:04 GMT 34.873306 33.623379 225 226 145 64
2022-09-21 19:35:02 GMT 34.874191 33.624458 225 225 140 0
2022-09-21 19:35:00 GMT 34.875412 33.626011 225 225 130 0
2022-09-21 19:34:58 GMT 34.875824 33.626514 225 225 123 0
2022-09-21 19:34:57 GMT 34.876888 33.627777 225 226 119 0
2022-09-21 19:34:46 GMT 34.880436 33.632107 0 225 76
2022-09-21 19:34:44 GMT 34.880741 33.632454 0 225 72
2022-09-21 19:34:41 GMT 34.881351 33.633244 0 225 60
2022-09-21 19:34:40 GMT 34.882092 33.634129 0 225 44
2022-09-21 19:34:37 GMT 34.882092 33.634129 0 225 44
2022-09-21 19:34:36 GMT 34.882244 33.634293 0 225 38
2022-09-21 19:34:26 GMT 34.882896 33.635120 0 225 7
2022-09-21 19:34:16 GMT 34.883106 33.635315 0 160 7
2022-09-21 19:34:15 GMT 34.883118 33.635330 0 154 7
2022-09-21 19:34:14 GMT 34.883183 33.635303 0 143 8
2022-09-21 19:34:12 GMT 34.883217 33.635273 0 143 9
2022-09-21 19:34:11 GMT 34.883240 33.635246 0 143 10
2022-09-21 19:34:00 GMT 34.883720 33.634743 0 135 13
2022-09-21 19:33:50 GMT 34.884174 33.634171 0 132 14
2022-09-21 19:33:39 GMT 34.884453 33.633438 0 61 17
2022-09-21 19:33:38 GMT 34.884453 33.633381 0 56 17
2022-09-21 19:33:36 GMT 34.884338 33.633255 0 47 14
2022-09-21 19:33:24 GMT 34.883720 33.632484 0 45 19
2022-09-21 19:33:15 GMT 34.883102 33.631744 0 45 20
2022-09-21 19:33:13 GMT 34.882977 33.631580 0 45 22
2022-09-21 19:33:12 GMT 34.882919 33.631496 0 45 22
2022-09-21 19:33:01 GMT 34.882137 33.630581 0 45 22
2022-09-21 19:33:00 GMT 34.882057 33.630493 0 45 22
2022-09-21 19:32:59 GMT 34.882023 33.630440 0 45 22
2022-09-21 19:32:57 GMT 34.881920 33.630310 0 45 22
2022-09-21 19:32:55 GMT 34.881821 33.630173 0 45 22
2022-09-21 19:32:53 GMT 34.881660 33.629990 0 45 22
2022-09-21 19:32:52 GMT 34.881580 33.629894 0 45 23
2022-09-21 19:32:50 GMT 34.881443 33.629726 0 45 22
2022-09-21 19:32:49 GMT 34.881374 33.629642 0 45 22
2022-09-21 19:32:46 GMT 34.881168 33.629391 0 45 22
2022-09-21 19:32:35 GMT 34.880348 33.628391 0 45 18
2022-09-21 19:32:33 GMT 34.880299 33.628334 0 45 18
2022-09-21 19:32:22 GMT 34.879612 33.627499 0 45 19
2022-09-21 19:32:19 GMT 34.879452 33.627300 0 45 20
2022-09-21 19:32:17 GMT 34.879333 33.627148 0 45 20
2022-09-21 19:32:06 GMT 34.878582 33.626251 0 45 21
2022-09-21 19:31:54 GMT 34.877739 33.625202 0 45 25
2022-09-21 19:31:44 GMT 34.876949 33.624245 0 45 23
2022-09-21 19:31:42 GMT 34.876820 33.624073 0 45 23
2022-09-21 19:31:41 GMT 34.876728 33.623966 0 45 23
2022-09-21 19:31:40 GMT 34.876671 33.623886 0 45 23
2022-09-21 19:31:38 GMT 34.876522 33.623714 0 45 23
2022-09-21 19:31:37 GMT 34.876442 33.623615 0 45 23
2022-09-21 19:31:36 GMT 34.876362 33.623531 0 45 22
2022-09-21 19:31:33 GMT 34.876225 33.623363 0 45 22
2022-09-21 19:31:32 GMT 34.876156 33.623280 0 45 22
2022-09-21 19:31:21 GMT 34.875355 33.622299 0 45 22
2022-09-21 19:31:19 GMT 34.875225 33.622128 0 45 22
2022-09-21 19:31:17 GMT 34.875072 33.621956 0 45 22
2022-09-21 19:31:16 GMT 34.875011 33.621880 0 45 22
2022-09-21 19:31:14 GMT 34.874874 33.621708 0 45 22
2022-09-21 19:31:13 GMT 34.874714 33.621525 0 45 22
2022-09-21 19:31:11 GMT 34.874645 33.621429 0 45 22
2022-09-21 19:31:10 GMT 34.874573 33.621342 0 45 22
2022-09-21 19:31:08 GMT 34.874405 33.621147 0 45 22
2022-09-21 19:30:58 GMT 34.873608 33.620167 0 45 23
2022-09-21 19:30:56 GMT 34.873539 33.620068 0 45 23
2022-09-21 19:30:45 GMT 34.872757 33.619118 0 45 23
2022-09-21 19:30:34 GMT 34.871990 33.618179 0 45 24
2022-09-21 19:30:25 GMT 34.871185 33.617207 0 45 24
2022-09-21 19:30:14 GMT 34.870384 33.616234 0 45 24
2022-09-21 19:30:05 GMT 34.869595 33.615261 0 45 24
2022-09-21 19:29:53 GMT 34.868809 33.614296 0 45 20
2022-09-21 19:29:43 GMT 34.868221 33.613571 0 45 17
2022-09-21 19:29:34 GMT 34.867756 33.612980 0 45 15
2022-09-21 19:29:24 GMT 34.867252 33.612400 0 45 14
2022-09-21 19:29:23 GMT 34.867218 33.612350 0 45 14
2022-09-21 19:29:21 GMT 34.867138 33.612255 0 45 14
2022-09-21 19:29:20 GMT 34.867092 33.612198 0 45 13
2022-09-21 19:29:09 GMT 34.866627 33.611626 0 50 9
2022-09-21 19:29:07 GMT 34.866627 33.611626 0 50 9
2022-09-21 19:29:06 GMT 34.866604 33.611584 0 50 9
2022-09-21 19:28:54 GMT 34.866360 33.611095 0 95 10
2022-09-21 19:28:53 GMT 34.866371 33.611004 0 106 11
2022-09-21 19:28:51 GMT 34.866360 33.610920 0 118 11
2022-09-21 19:28:40 GMT 34.866695 33.610439 0 135 11
2022-09-21 19:28:39 GMT 34.866760 33.610359 0 135 11
2022-09-21 19:28:37 GMT 34.866837 33.610283 0 135 11
2022-09-21 19:28:34 GMT 34.866985 33.610096 0 135 12
2022-09-21 19:28:32 GMT 34.866985 33.610096 0 135 12
2022-09-21 19:28:31 GMT 34.867031 33.610054 0 135 12
2022-09-21 19:28:30 GMT 34.867069 33.610008 0 135 12
2022-09-21 19:28:19 GMT 34.867458 33.609516 0 137 11
2022-09-21 19:28:09 GMT 34.867802 33.609127 0 135 7
2022-09-21 19:28:03 GMT 34.867928 33.608971 0 135 6
2022-09-21 19:23:40 GMT 34.868042 33.608818 0 135 0
2022-09-21 19:23:34 GMT 34.868046 33.608810 0 135 0
2022-09-21 19:23:33 GMT 34.868042 33.608818 0 135 0
2022-09-21 19:23:22 GMT 34.868046 33.608822 0 135 0
2022-09-21 19:23:11 GMT 34.868080 33.608765 0 135 3
2022-09-21 19:23:02 GMT 34.868126 33.608707 0 137 0
2022-09-21 19:22:59 GMT 34.868122 33.608719 0 137 2
2022-09-21 19:22:57 GMT 34.868122 33.608719 0 135 2
2022-09-21 19:22:55 GMT 34.868111 33.608746 0 132 4

Making use of Plane Finder data

You are free to use the raw flight data, aircraft information and images provided in this report for your own purposes provided the data is correctly attributed to Plane Finder. We ask that you please credit Plane Finder and link to planefinder.net in close proximity to the content.

Optionally one of the following logos (no smaller then 150x24px) can be used and must link to planefinder.net

Embedding the Plane Finder map

You are welcome to embed the Plane Finder playback map on your website to offer visitors a more interactive experience. We suggest using the following HTML code:

<iframe src="//planefinder.net/data/report/LS662-G-DRTG-7700-squawk-2022-09-21/map" width="800" height="600" seamless="seamless"></iframe>

Where our data comes from

Plane Finder has a global network of data feeds and antenna radars that receive data broadcast directly from aircraft. The primary technologies used are ADS-B and MLAT. We also show feeds from the FAA and a FLARM glider feed.

Click here to find out more about the Plane Finder network.

How we collect our data